<?xml version="1.0" encoding="UTF-8" standalone="no" ?>
<gpx xmlns="http://www.topografix.com/GPX/1/1" xmlns:xsi="http://www.w3.org/2001/XMLSchema-instance" xsi:schemaLocation="http://www.topografix.com/GPX/1/1 http://www.topografix.com/GPX/1/1/gpx.xsd" version="1.1" creator="VisuGPX - https://www.visugpx.com">
  <metadata>
    <name>Plouarzel - Belgrade</name>
    <desc><![CDATA[Arrivée à Belgrade le 11 juillet. 66 jours pédalés. 7 jours de repos.
]]></desc>
  </metadata>
  <trk>
    <name><![CDATA[Sortie à vélo]]></name>
    <extensions>
      <line xmlns="http://www.topografix.com/GPX/gpx_style/0/2">
        <color>0000FF</color>
        <width>4</width>
      </line>
    </extensions>
    <trkseg>
      <trkpt lat="48.27671" lon="-3.60106">
        <ele>128.312914</ele>
        <time>2023-05-02T12:39:18.689Z</time>
      </trkpt>
      <trkpt lat="48.27657" lon="-3.60136">
        <ele>128.312914</ele>
        <time>2023-05-02T12:39:53.068Z</time>
      </trkpt>
      <trkpt lat="48.27666" lon="-3.60132">
        <ele>128.312914</ele>
        <time>2023-05-02T12:41:42.056Z</time>
      </trkpt>
      <trkpt lat="48.27675" lon="-3.6013">
        <ele>128.312914</ele>
        <time>2023-05-02T12:41:49.057Z</time>
      </trkpt>
      <trkpt lat="48.27686" lon="-3.6013">
        <ele>128.312914</ele>
        <time>2023-05-02T12:41:55.062Z</time>
      </trkpt>
      <trkpt lat="48.27696" lon="-3.60129">
        <ele>128.312914</ele>
        <time>2023-05-02T12:42:01.059Z</time>
      </trkpt>
      <trkpt lat="48.27705" lon="-3.60134">
        <ele>128.312914</ele>
        <time>2023-05-02T12:42:07.054Z</time>
      </trkpt>
      <trkpt lat="48.27709" lon="-3.60147">
        <ele>128.312914</ele>
        <time>2023-05-02T12:46:33.050Z</time>
      </trkpt>
      <trkpt lat="48.27718" lon="-3.60154">
        <ele>128.375198</ele>
        <time>2023-05-02T12:46:38.051Z</time>
      </trkpt>
      <trkpt lat="48.27727" lon="-3.60161">
        <ele>128.618154</ele>
        <time>2023-05-02T12:46:42.062Z</time>
      </trkpt>
      <trkpt lat="48.27736" lon="-3.60169">
        <ele>128.87359</ele>
        <time>2023-05-02T12:46:46.055Z</time>
      </trkpt>
      <trkpt lat="48.27744" lon="-3.60176">
        <ele>129.106719</ele>
        <time>2023-05-02T12:46:50.053Z</time>
      </trkpt>
      <trkpt lat="48.27754" lon="-3.60183">
        <ele>129.359218</ele>
        <time>2023-05-02T12:46:54.045Z</time>
      </trkpt>
      <trkpt lat="48.27763" lon="-3.60175">
        <ele>129.601838</ele>
        <time>2023-05-02T12:47:00.047Z</time>
      </trkpt>
      <trkpt lat="48.27772" lon="-3.60167">
        <ele>129.858153</ele>
        <time>2023-05-02T12:47:04.046Z</time>
      </trkpt>
      <trkpt lat="48.27776" lon="-3.60155">
        <ele>130.078302</ele>
        <time>2023-05-02T12:47:20.051Z</time>
      </trkpt>
      <trkpt lat="48.27778" lon="-3.60141">
        <ele>130.313239</ele>
        <time>2023-05-02T12:47:44.047Z</time>
      </trkpt>
      <trkpt lat="48.27781" lon="-3.60127">
        <ele>130.553819</ele>
        <time>2023-05-02T12:47:52.049Z</time>
      </trkpt>
      <trkpt lat="48.27784" lon="-3.60113">
        <ele>130.785555</ele>
        <time>2023-05-02T12:48:00.046Z</time>
      </trkpt>
      <trkpt lat="48.27789" lon="-3.601">
        <ele>131.026553</ele>
        <time>2023-05-02T12:48:20.051Z</time>
      </trkpt>
      <trkpt lat="48.27792" lon="-3.60086">
        <ele>131.266465</ele>
        <time>2023-05-02T12:48:25.042Z</time>
      </trkpt>
      <trkpt lat="48.27794" lon="-3.60072">
        <ele>131.499605</ele>
        <time>2023-05-02T12:48:30.043Z</time>
      </trkpt>
      <trkpt lat="48.27799" lon="-3.60058">
        <ele>131.75075</ele>
        <time>2023-05-02T12:48:35.053Z</time>
      </trkpt>
      <trkpt lat="48.27803" lon="-3.60045">
        <ele>131.985704</ele>
        <time>2023-05-02T12:48:40.044Z</time>
      </trkpt>
      <trkpt lat="48.27804" lon="-3.6003">
        <ele>132.222832</ele>
        <time>2023-05-02T12:48:45.049Z</time>
      </trkpt>
      <trkpt lat="48.27811" lon="-3.60016">
        <ele>132.504103</ele>
        <time>2023-05-02T12:48:49.051Z</time>
      </trkpt>
      <trkpt lat="48.27815" lon="-3.60002">
        <ele>132.730922</ele>
        <time>2023-05-02T12:48:53.058Z</time>
      </trkpt>
      <trkpt lat="48.27821" lon="-3.59988">
        <ele>132.905868</ele>
        <time>2023-05-02T12:48:57.050Z</time>
      </trkpt>
      <trkpt lat="48.27827" lon="-3.59976">
        <ele>133.081428</ele>
        <time>2023-05-02T12:49:01.058Z</time>
      </trkpt>
      <trkpt lat="48.27832" lon="-3.59963">
        <ele>133.258508</ele>
        <time>2023-05-02T12:49:05.049Z</time>
      </trkpt>
      <trkpt lat="48.27835" lon="-3.59948">
        <ele>133.427442</ele>
        <time>2023-05-02T12:49:09.050Z</time>
      </trkpt>
      <trkpt lat="48.27839" lon="-3.59933">
        <ele>133.60934</ele>
        <time>2023-05-02T12:49:13.043Z</time>
      </trkpt>
      <trkpt lat="48.27842" lon="-3.59918">
        <ele>133.796989</ele>
        <time>2023-05-02T12:49:17.058Z</time>
      </trkpt>
      <trkpt lat="48.27846" lon="-3.59902">
        <ele>133.99002</ele>
        <time>2023-05-02T12:49:21.070Z</time>
      </trkpt>
      <trkpt lat="48.27849" lon="-3.59886">
        <ele>134.178879</ele>
        <time>2023-05-02T12:49:25.046Z</time>
      </trkpt>
      <trkpt lat="48.27852" lon="-3.5987">
        <ele>134.364184</ele>
        <time>2023-05-02T12:49:29.053Z</time>
      </trkpt>
      <trkpt lat="48.27856" lon="-3.59854">
        <ele>134.556827</ele>
        <time>2023-05-02T12:49:33.056Z</time>
      </trkpt>
      <trkpt lat="48.27857" lon="-3.59837">
        <ele>134.7523</ele>
        <time>2023-05-02T12:49:37.061Z</time>
      </trkpt>
      <trkpt lat="48.27856" lon="-3.59821">
        <ele>134.934023</ele>
        <time>2023-05-02T12:49:41.061Z</time>
      </trkpt>
      <trkpt lat="48.27852" lon="-3.59807">
        <ele>135.110721</ele>
        <time>2023-05-02T12:49:46.046Z</time>
      </trkpt>
      <trkpt lat="48.27848" lon="-3.59793">
        <ele>135.281439</ele>
        <time>2023-05-02T12:49:53.051Z</time>
      </trkpt>
      <trkpt lat="48.27851" lon="-3.59778">
        <ele>135.459957</ele>
        <time>2023-05-02T12:49:59.047Z</time>
      </trkpt>
      <trkpt lat="48.27851" lon="-3.59764">
        <ele>135.620925</ele>
        <time>2023-05-02T12:50:04.059Z</time>
      </trkpt>
      <trkpt lat="48.27849" lon="-3.59748">
        <ele>135.723319</ele>
        <time>2023-05-02T12:50:09.058Z</time>
      </trkpt>
      <trkpt lat="48.27845" lon="-3.59734">
        <ele>135.715903</ele>
        <time>2023-05-02T12:50:13.044Z</time>
      </trkpt>
      <trkpt lat="48.27842" lon="-3.5972">
        <ele>135.70877</ele>
        <time>2023-05-02T12:50:17.060Z</time>
      </trkpt>
      <trkpt lat="48.27838" lon="-3.59705">
        <ele>135.700727</ele>
        <time>2023-05-02T12:50:22.056Z</time>
      </trkpt>
      <trkpt lat="48.27833" lon="-3.59691">
        <ele>135.692747</ele>
        <time>2023-05-02T12:50:27.060Z</time>
      </trkpt>
      <trkpt lat="48.27827" lon="-3.59676">
        <ele>135.684465</ele>
        <time>2023-05-02T12:50:32.061Z</time>
      </trkpt>
      <trkpt lat="48.27822" lon="-3.59664">
        <ele>135.677493</ele>
        <time>2023-05-02T12:50:36.061Z</time>
      </trkpt>
      <trkpt lat="48.27816" lon="-3.59652">
        <ele>135.670111</ele>
        <time>2023-05-02T12:50:40.059Z</time>
      </trkpt>
      <trkpt lat="48.2781" lon="-3.59639">
        <ele>135.662487</ele>
        <time>2023-05-02T12:50:45.059Z</time>
      </trkpt>
      <trkpt lat="48.27804" lon="-3.59627">
        <ele>135.654896</ele>
        <time>2023-05-02T12:50:49.052Z</time>
      </trkpt>
      <trkpt lat="48.27798" lon="-3.59614">
        <ele>135.647388</ele>
        <time>2023-05-02T12:50:54.043Z</time>
      </trkpt>
      <trkpt lat="48.27793" lon="-3.59601">
        <ele>135.639913</ele>
        <time>2023-05-02T12:50:59.057Z</time>
      </trkpt>
      <trkpt lat="48.27787" lon="-3.59588">
        <ele>135.632083</ele>
        <time>2023-05-02T12:51:04.050Z</time>
      </trkpt>
      <trkpt lat="48.27781" lon="-3.59575">
        <ele>135.624582</ele>
        <time>2023-05-02T12:51:08.055Z</time>
      </trkpt>
      <trkpt lat="48.27775" lon="-3.59563">
        <ele>135.617219</ele>
        <time>2023-05-02T12:51:12.058Z</time>
      </trkpt>
      <trkpt lat="48.27769" lon="-3.59552">
        <ele>135.609844</ele>
        <time>2023-05-02T12:51:16.054Z</time>
      </trkpt>
      <trkpt lat="48.27762" lon="-3.59543">
        <ele>135.602968</ele>
        <time>2023-05-02T12:51:20.063Z</time>
      </trkpt>
      <trkpt lat="48.27755" lon="-3.59529">
        <ele>135.595016</ele>
        <time>2023-05-02T12:51:25.050Z</time>
      </trkpt>
      <trkpt lat="48.27764" lon="-3.59532">
        <ele>135.900589</ele>
        <time>2023-05-02T12:51:36.060Z</time>
      </trkpt>
      <trkpt lat="48.27755" lon="-3.59528">
        <ele>136.272764</ele>
        <time>2023-05-02T12:51:50.047Z</time>
      </trkpt>
      <trkpt lat="48.27749" lon="-3.59514">
        <ele>136.687062</ele>
        <time>2023-05-02T12:51:55.061Z</time>
      </trkpt>
      <trkpt lat="48.27744" lon="-3.59501">
        <ele>137.064441</ele>
        <time>2023-05-02T12:51:59.066Z</time>
      </trkpt>
      <trkpt lat="48.27739" lon="-3.59489">
        <ele>137.428215</ele>
        <time>2023-05-02T12:52:03.059Z</time>
      </trkpt>
      <trkpt lat="48.27733" lon="-3.59478">
        <ele>137.778684</ele>
        <time>2023-05-02T12:52:07.058Z</time>
      </trkpt>
      <trkpt lat="48.27727" lon="-3.59467">
        <ele>138.127639</ele>
        <time>2023-05-02T12:52:11.060Z</time>
      </trkpt>
      <trkpt lat="48.27721" lon="-3.59456">
        <ele>138.496281</ele>
        <time>2023-05-02T12:52:15.054Z</time>
      </trkpt>
      <trkpt lat="48.27717" lon="-3.59442">
        <ele>138.876036</ele>
        <time>2023-05-02T12:52:19.059Z</time>
      </trkpt>
      <trkpt lat="48.27712" lon="-3.59428">
        <ele>139.270251</ele>
        <time>2023-05-02T12:52:24.058Z</time>
      </trkpt>
      <trkpt lat="48.27708" lon="-3.59414">
        <ele>139.654203</ele>
        <time>2023-05-02T12:52:29.051Z</time>
      </trkpt>
      <trkpt lat="48.27704" lon="-3.59399">
        <ele>140.057269</ele>
        <time>2023-05-02T12:52:34.051Z</time>
      </trkpt>
      <trkpt lat="48.27702" lon="-3.59383">
        <ele>140.478207</ele>
        <time>2023-05-02T12:52:39.060Z</time>
      </trkpt>
      <trkpt lat="48.27699" lon="-3.59368">
        <ele>140.87186</ele>
        <time>2023-05-02T12:52:44.060Z</time>
      </trkpt>
      <trkpt lat="48.27698" lon="-3.59352">
        <ele>141.254732</ele>
        <time>2023-05-02T12:52:49.052Z</time>
      </trkpt>
      <trkpt lat="48.27695" lon="-3.59337">
        <ele>141.657654</ele>
        <time>2023-05-02T12:52:54.064Z</time>
      </trkpt>
      <trkpt lat="48.27693" lon="-3.59321">
        <ele>142.061556</ele>
        <time>2023-05-02T12:52:59.060Z</time>
      </trkpt>
      <trkpt lat="48.27691" lon="-3.59305">
        <ele>142.461637</ele>
        <time>2023-05-02T12:53:04.060Z</time>
      </trkpt>
      <trkpt lat="48.27689" lon="-3.59291">
        <ele>142.830539</ele>
        <time>2023-05-02T12:53:09.054Z</time>
      </trkpt>
      <trkpt lat="48.27688" lon="-3.59277">
        <ele>143.16761</ele>
        <time>2023-05-02T12:53:14.065Z</time>
      </trkpt>
      <trkpt lat="48.27687" lon="-3.59263">
        <ele>143.522001</ele>
        <time>2023-05-02T12:53:19.065Z</time>
      </trkpt>
      <trkpt lat="48.27686" lon="-3.59248">
        <ele>143.884095</ele>
        <time>2023-05-02T12:53:24.046Z</time>
      </trkpt>
      <trkpt lat="48.27686" lon="-3.59234">
        <ele>144.252923</ele>
        <time>2023-05-02T12:53:29.060Z</time>
      </trkpt>
      <trkpt lat="48.27686" lon="-3.59219">
        <ele>144.6172</ele>
        <time>2023-05-02T12:53:34.053Z</time>
      </trkpt>
      <trkpt lat="48.27687" lon="-3.59203">
        <ele>145.001683</ele>
        <time>2023-05-02T12:53:39.056Z</time>
      </trkpt>
      <trkpt lat="48.27688" lon="-3.59189">
        <ele>145.369192</ele>
        <time>2023-05-02T12:53:44.061Z</time>
      </trkpt>
      <trkpt lat="48.2769" lon="-3.59173">
        <ele>145.750046</ele>
        <time>2023-05-02T12:53:49.059Z</time>
      </trkpt>
      <trkpt lat="48.2769" lon="-3.59158">
        <ele>146.136283</ele>
        <time>2023-05-02T12:53:54.052Z</time>
      </trkpt>
      <trkpt lat="48.27691" lon="-3.59142">
        <ele>146.525705</ele>
        <time>2023-05-02T12:53:59.065Z</time>
      </trkpt>
      <trkpt lat="48.27689" lon="-3.59127">
        <ele>146.89469</ele>
        <time>2023-05-02T12:54:04.061Z</time>
      </trkpt>
      <trkpt lat="48.27689" lon="-3.59113">
        <ele>147.251379</ele>
        <time>2023-05-02T12:54:09.055Z</time>
      </trkpt>
      <trkpt lat="48.27688" lon="-3.59098">
        <ele>147.627312</ele>
        <time>2023-05-02T12:54:14.066Z</time>
      </trkpt>
      <trkpt lat="48.27687" lon="-3.59082">
        <ele>148.023916</ele>
        <time>2023-05-02T12:54:19.062Z</time>
      </trkpt>
      <trkpt lat="48.27685" lon="-3.59066">
        <ele>148.424383</ele>
        <time>2023-05-02T12:54:24.052Z</time>
      </trkpt>
      <trkpt lat="48.27684" lon="-3.59052">
        <ele>148.768618</ele>
        <time>2023-05-02T12:54:29.057Z</time>
      </trkpt>
      <trkpt lat="48.27683" lon="-3.59037">
        <ele>149.097551</ele>
        <time>2023-05-02T12:54:34.058Z</time>
      </trkpt>
      <trkpt lat="48.27681" lon="-3.59021">
        <ele>149.263897</ele>
        <time>2023-05-02T12:54:39.059Z</time>
      </trkpt>
      <trkpt lat="48.27681" lon="-3.59005">
        <ele>149.433429</ele>
        <time>2023-05-02T12:54:44.060Z</time>
      </trkpt>
      <trkpt lat="48.2768" lon="-3.5899">
        <ele>149.587941</ele>
        <time>2023-05-02T12:54:48.062Z</time>
      </trkpt>
      <trkpt lat="48.27681" lon="-3.58976">
        <ele>149.73222</ele>
        <time>2023-05-02T12:54:52.057Z</time>
      </trkpt>
      <trkpt lat="48.27681" lon="-3.58959">
        <ele>149.903694</ele>
        <time>2023-05-02T12:54:57.058Z</time>
      </trkpt>
      <trkpt lat="48.27683" lon="-3.58943">
        <ele>150.075107</ele>
        <time>2023-05-02T12:55:02.054Z</time>
      </trkpt>
      <trkpt lat="48.27686" lon="-3.58926">
        <ele>150.248576</ele>
        <time>2023-05-02T12:55:07.055Z</time>
      </trkpt>
      <trkpt lat="48.27688" lon="-3.58911">
        <ele>150.413168</ele>
        <time>2023-05-02T12:55:12.052Z</time>
      </trkpt>
      <trkpt lat="48.2769" lon="-3.58895">
        <ele>150.576007</ele>
        <time>2023-05-02T12:55:17.055Z</time>
      </trkpt>
      <trkpt lat="48.27693" lon="-3.58879">
        <ele>150.747483</ele>
        <time>2023-05-02T12:55:22.047Z</time>
      </trkpt>
      <trkpt lat="48.27694" lon="-3.58866">
        <ele>150.885834</ele>
        <time>2023-05-02T12:55:26.050Z</time>
      </trkpt>
      <trkpt lat="48.27696" lon="-3.5885">
        <ele>151.048672</ele>
        <time>2023-05-02T12:55:31.060Z</time>
      </trkpt>
      <trkpt lat="48.27699" lon="-3.58837">
        <ele>151.187195</ele>
        <time>2023-05-02T12:55:35.061Z</time>
      </trkpt>
      <trkpt lat="48.27701" lon="-3.58821">
        <ele>151.354689</ele>
        <time>2023-05-02T12:55:40.055Z</time>
      </trkpt>
      <trkpt lat="48.27703" lon="-3.58808">
        <ele>151.495042</ele>
        <time>2023-05-02T12:55:44.058Z</time>
      </trkpt>
      <trkpt lat="48.27705" lon="-3.58791">
        <ele>151.67028</ele>
        <time>2023-05-02T12:55:49.055Z</time>
      </trkpt>
      <trkpt lat="48.27708" lon="-3.58777">
        <ele>151.816915</ele>
        <time>2023-05-02T12:55:53.062Z</time>
      </trkpt>
      <trkpt lat="48.27711" lon="-3.58761">
        <ele>152.356012</ele>
        <time>2023-05-02T12:55:58.062Z</time>
      </trkpt>
      <trkpt lat="48.27714" lon="-3.58745">
        <ele>152.989137</ele>
        <time>2023-05-02T12:56:03.057Z</time>
      </trkpt>
      <trkpt lat="48.27717" lon="-3.5873">
        <ele>153.579795</ele>
        <time>2023-05-02T12:56:08.043Z</time>
      </trkpt>
      <trkpt lat="48.27719" lon="-3.58713">
        <ele>154.206756</ele>
        <time>2023-05-02T12:56:13.057Z</time>
      </trkpt>
      <trkpt lat="48.27722" lon="-3.587">
        <ele>154.716533</ele>
        <time>2023-05-02T12:56:17.064Z</time>
      </trkpt>
      <trkpt lat="48.27726" lon="-3.58685">
        <ele>155.319448</ele>
        <time>2023-05-02T12:56:22.059Z</time>
      </trkpt>
      <trkpt lat="48.27729" lon="-3.58671">
        <ele>155.836273</ele>
        <time>2023-05-02T12:56:26.063Z</time>
      </trkpt>
      <trkpt lat="48.27732" lon="-3.58657">
        <ele>156.400529</ele>
        <time>2023-05-02T12:56:31.064Z</time>
      </trkpt>
      <trkpt lat="48.27735" lon="-3.58642">
        <ele>156.984113</ele>
        <time>2023-05-02T12:56:36.043Z</time>
      </trkpt>
      <trkpt lat="48.27739" lon="-3.58627">
        <ele>157.587049</ele>
        <time>2023-05-02T12:56:41.056Z</time>
      </trkpt>
      <trkpt lat="48.27741" lon="-3.58613">
        <ele>158.112862</ele>
        <time>2023-05-02T12:56:46.065Z</time>
      </trkpt>
      <trkpt lat="48.27745" lon="-3.58599">
        <ele>158.676466</ele>
        <time>2023-05-02T12:56:51.050Z</time>
      </trkpt>
      <trkpt lat="48.27749" lon="-3.58585">
        <ele>159.221657</ele>
        <time>2023-05-02T12:56:56.041Z</time>
      </trkpt>
      <trkpt lat="48.27751" lon="-3.58572">
        <ele>159.738913</ele>
        <time>2023-05-02T12:57:01.060Z</time>
      </trkpt>
      <trkpt lat="48.27753" lon="-3.58558">
        <ele>160.273174</ele>
        <time>2023-05-02T12:57:06.043Z</time>
      </trkpt>
      <trkpt lat="48.27755" lon="-3.58543">
        <ele>160.831399</ele>
        <time>2023-05-02T12:57:12.046Z</time>
      </trkpt>
      <trkpt lat="48.27758" lon="-3.58529">
        <ele>161.376554</ele>
        <time>2023-05-02T12:57:18.043Z</time>
      </trkpt>
      <trkpt lat="48.27759" lon="-3.58515">
        <ele>161.913869</ele>
        <time>2023-05-02T12:57:23.060Z</time>
      </trkpt>
      <trkpt lat="48.27762" lon="-3.585">
        <ele>162.645458</ele>
        <time>2023-05-02T12:57:29.040Z</time>
      </trkpt>
      <trkpt lat="48.27761" lon="-3.58485">
        <ele>163.396111</ele>
        <time>2023-05-02T12:57:36.042Z</time>
      </trkpt>
      <trkpt lat="48.27762" lon="-3.58471">
        <ele>164.054319</ele>
        <time>2023-05-02T12:57:42.041Z</time>
      </trkpt>
      <trkpt lat="48.27759" lon="-3.58458">
        <ele>164.752258</ele>
        <time>2023-05-02T12:57:48.040Z</time>
      </trkpt>
      <trkpt lat="48.27757" lon="-3.58443">
        <ele>165.495889</ele>
        <time>2023-05-02T12:57:55.043Z</time>
      </trkpt>
      <trkpt lat="48.27753" lon="-3.5843">
        <ele>166.169335</ele>
        <time>2023-05-02T12:58:01.048Z</time>
      </trkpt>
      <trkpt lat="48.27749" lon="-3.58417">
        <ele>166.91717</ele>
        <time>2023-05-02T12:58:07.040Z</time>
      </trkpt>
      <trkpt lat="48.27744" lon="-3.58403">
        <ele>167.667101</ele>
        <time>2023-05-02T12:58:13.046Z</time>
      </trkpt>
      <trkpt lat="48.2774" lon="-3.58389">
        <ele>168.416223</ele>
        <time>2023-05-02T12:58:19.042Z</time>
      </trkpt>
      <trkpt lat="48.27736" lon="-3.58376">
        <ele>169.105668</ele>
        <time>2023-05-02T12:58:25.043Z</time>
      </trkpt>
      <trkpt lat="48.27731" lon="-3.58363">
        <ele>169.823701</ele>
        <time>2023-05-02T12:58:31.043Z</time>
      </trkpt>
      <trkpt lat="48.27726" lon="-3.5835">
        <ele>170.555336</ele>
        <time>2023-05-02T12:58:37.046Z</time>
      </trkpt>
      <trkpt lat="48.27722" lon="-3.58336">
        <ele>171.29256</ele>
        <time>2023-05-02T12:58:44.048Z</time>
      </trkpt>
      <trkpt lat="48.27718" lon="-3.58322">
        <ele>172.043601</ele>
        <time>2023-05-02T12:58:50.041Z</time>
      </trkpt>
      <trkpt lat="48.27714" lon="-3.58309">
        <ele>172.764382</ele>
        <time>2023-05-02T12:58:55.049Z</time>
      </trkpt>
      <trkpt lat="48.27711" lon="-3.58296">
        <ele>173.446075</ele>
        <time>2023-05-02T12:59:00.051Z</time>
      </trkpt>
      <trkpt lat="48.2771" lon="-3.58279">
        <ele>174.295415</ele>
        <time>2023-05-02T13:03:18.053Z</time>
      </trkpt>
      <trkpt lat="48.27708" lon="-3.58263">
        <ele>175.04646</ele>
        <time>2023-05-02T13:03:25.063Z</time>
      </trkpt>
      <trkpt lat="48.27705" lon="-3.5825">
        <ele>175.285758</ele>
        <time>2023-05-02T13:03:32.044Z</time>
      </trkpt>
      <trkpt lat="48.27698" lon="-3.5824">
        <ele>175.526942</ele>
        <time>2023-05-02T13:03:39.040Z</time>
      </trkpt>
      <trkpt lat="48.27688" lon="-3.58236">
        <ele>175.77028</ele>
        <time>2023-05-02T13:03:46.041Z</time>
      </trkpt>
      <trkpt lat="48.27679" lon="-3.58232">
        <ele>175.991905</ele>
        <time>2023-05-02T13:03:53.047Z</time>
      </trkpt>
      <trkpt lat="48.2767" lon="-3.58228">
        <ele>176.211243</ele>
        <time>2023-05-02T13:04:00.048Z</time>
      </trkpt>
      <trkpt lat="48.27662" lon="-3.58225">
        <ele>176.430533</ele>
        <time>2023-05-02T13:04:07.040Z</time>
      </trkpt>
      <trkpt lat="48.27652" lon="-3.58221">
        <ele>176.657237</ele>
        <time>2023-05-02T13:04:14.038Z</time>
      </trkpt>
      <trkpt lat="48.27643" lon="-3.58217">
        <ele>176.893978</ele>
        <time>2023-05-02T13:04:21.041Z</time>
      </trkpt>
      <trkpt lat="48.27634" lon="-3.58214">
        <ele>177.111447</ele>
        <time>2023-05-02T13:04:30.047Z</time>
      </trkpt>
      <trkpt lat="48.27625" lon="-3.58213">
        <ele>177.33285</ele>
        <time>2023-05-02T13:04:45.044Z</time>
      </trkpt>
      <trkpt lat="48.27614" lon="-3.58209">
        <ele>177.602092</ele>
        <time>2023-05-02T13:04:50.051Z</time>
      </trkpt>
      <trkpt lat="48.27604" lon="-3.58206">
        <ele>177.85053</ele>
        <time>2023-05-02T13:04:54.057Z</time>
      </trkpt>
      <trkpt lat="48.27595" lon="-3.58203">
        <ele>178.068627</ele>
        <time>2023-05-02T13:04:57.058Z</time>
      </trkpt>
      <trkpt lat="48.27585" lon="-3.58199">
        <ele>178.311561</ele>
        <time>2023-05-02T13:05:00.056Z</time>
      </trkpt>
      <trkpt lat="48.27576" lon="-3.58193">
        <ele>178.55705</ele>
        <time>2023-05-02T13:05:03.043Z</time>
      </trkpt>
      <trkpt lat="48.27566" lon="-3.58189">
        <ele>178.789283</ele>
        <time>2023-05-02T13:05:06.066Z</time>
      </trkpt>
      <trkpt lat="48.27557" lon="-3.58183">
        <ele>179.036466</ele>
        <time>2023-05-02T13:05:09.052Z</time>
      </trkpt>
      <trkpt lat="48.27548" lon="-3.58178">
        <ele>179.272502</ele>
        <time>2023-05-02T13:05:12.070Z</time>
      </trkpt>
      <trkpt lat="48.27539" lon="-3.58172">
        <ele>179.447716</ele>
        <time>2023-05-02T13:05:15.055Z</time>
      </trkpt>
      <trkpt lat="48.2753" lon="-3.58167">
        <ele>179.567315</ele>
        <time>2023-05-02T13:05:18.058Z</time>
      </trkpt>
      <trkpt lat="48.27521" lon="-3.5816">
        <ele>179.699396</ele>
        <time>2023-05-02T13:05:22.049Z</time>
      </trkpt>
      <trkpt lat="48.27512" lon="-3.58154">
        <ele>179.835887</ele>
        <time>2023-05-02T13:05:27.056Z</time>
      </trkpt>
      <trkpt lat="48.27502" lon="-3.58147">
        <ele>179.978341</ele>
        <time>2023-05-02T13:05:32.051Z</time>
      </trkpt>
      <trkpt lat="48.27492" lon="-3.58151">
        <ele>180.105668</ele>
        <time>2023-05-02T13:05:38.046Z</time>
      </trkpt>
      <trkpt lat="48.27487" lon="-3.58164">
        <ele>180.236117</ele>
        <time>2023-05-02T13:05:42.061Z</time>
      </trkpt>
      <trkpt lat="48.27482" lon="-3.58175">
        <ele>180.354953</ele>
        <time>2023-05-02T13:05:45.056Z</time>
      </trkpt>
      <trkpt lat="48.27479" lon="-3.58188">
        <ele>180.474647</ele>
        <time>2023-05-02T13:05:48.049Z</time>
      </trkpt>
      <trkpt lat="48.27476" lon="-3.58205">
        <ele>180.625099</ele>
        <time>2023-05-02T13:05:52.049Z</time>
      </trkpt>
      <trkpt lat="48.27471" lon="-3.58219">
        <ele>180.766351</ele>
        <time>2023-05-02T13:05:56.050Z</time>
      </trkpt>
      <trkpt lat="48.27464" lon="-3.58232">
        <ele>180.902521</ele>
        <time>2023-05-02T13:06:00.050Z</time>
      </trkpt>
      <trkpt lat="48.27459" lon="-3.58244">
        <ele>181.033662</ele>
        <time>2023-05-02T13:06:17.052Z</time>
      </trkpt>
      <trkpt lat="48.27457" lon="-3.58241">
        <ele>181.067516</ele>
        <time>2023-05-02T13:06:37.569Z</time>
      </trkpt>
      <trkpt lat="48.27469" lon="-3.58212">
        <ele>181.364204</ele>
        <time>2023-05-02T13:49:49.050Z</time>
      </trkpt>
      <trkpt lat="48.27474" lon="-3.582">
        <ele>181.48828</ele>
        <time>2023-05-02T13:49:53.056Z</time>
      </trkpt>
      <trkpt lat="48.27479" lon="-3.58186">
        <ele>181.627399</ele>
        <time>2023-05-02T13:49:57.069Z</time>
      </trkpt>
      <trkpt lat="48.27482" lon="-3.58169">
        <ele>181.759662</ele>
        <time>2023-05-02T13:50:01.053Z</time>
      </trkpt>
      <trkpt lat="48.27485" lon="-3.58153">
        <ele>181.86612</ele>
        <time>2023-05-02T13:50:05.063Z</time>
      </trkpt>
      <trkpt lat="48.2749" lon="-3.5814">
        <ele>181.9556</ele>
        <time>2023-05-02T13:50:10.051Z</time>
      </trkpt>
      <trkpt lat="48.275" lon="-3.58138">
        <ele>182.050706</ele>
        <time>2023-05-02T13:50:16.051Z</time>
      </trkpt>
      <trkpt lat="48.2751" lon="-3.58144">
        <ele>182.147847</ele>
        <time>2023-05-02T13:50:20.051Z</time>
      </trkpt>
      <trkpt lat="48.2752" lon="-3.58149">
        <ele>182.248779</ele>
        <time>2023-05-02T13:50:24.047Z</time>
      </trkpt>
      <trkpt lat="48.2753" lon="-3.58149">
        <ele>182.340466</ele>
        <time>2023-05-02T13:50:28.064Z</time>
      </trkpt>
      <trkpt lat="48.2754" lon="-3.58148">
        <ele>182.434289</ele>
        <time>2023-05-02T13:50:33.050Z</time>
      </trkpt>
      <trkpt lat="48.2755" lon="-3.58149">
        <ele>182.521513</ele>
        <time>2023-05-02T13:50:48.050Z</time>
      </trkpt>
      <trkpt lat="48.27542" lon="-3.58166">
        <ele>182.651836</ele>
        <time>2023-05-02T13:56:00.051Z</time>
      </trkpt>
      <trkpt lat="48.27536" lon="-3.58151">
        <ele>182.758375</ele>
        <time>2023-05-02T13:59:21.046Z</time>
      </trkpt>
      <trkpt lat="48.27538" lon="-3.58165">
        <ele>182.848448</ele>
        <time>2023-05-02T13:59:27.039Z</time>
      </trkpt>
      <trkpt lat="48.27549" lon="-3.58171">
        <ele>182.950345</ele>
        <time>2023-05-02T13:59:31.035Z</time>
      </trkpt>
      <trkpt lat="48.27559" lon="-3.58177">
        <ele>183.053799</ele>
        <time>2023-05-02T13:59:35.063Z</time>
      </trkpt>
      <trkpt lat="48.27569" lon="-3.58182">
        <ele>183.15278</ele>
        <time>2023-05-02T13:59:40.033Z</time>
      </trkpt>
      <trkpt lat="48.2758" lon="-3.58188">
        <ele>183.255725</ele>
        <time>2023-05-02T13:59:45.059Z</time>
      </trkpt>
      <trkpt lat="48.2759" lon="-3.58193">
        <ele>183.357361</ele>
        <time>2023-05-02T13:59:49.054Z</time>
      </trkpt>
      <trkpt lat="48.27601" lon="-3.58197">
        <ele>182.980303</ele>
        <time>2023-05-02T13:59:53.058Z</time>
      </trkpt>
      <trkpt lat="48.2761" lon="-3.58201">
        <ele>182.504067</ele>
        <time>2023-05-02T13:59:57.039Z</time>
      </trkpt>
      <trkpt lat="48.2762" lon="-3.58204">
        <ele>181.98318</ele>
        <time>2023-05-02T14:00:01.040Z</time>
      </trkpt>
      <trkpt lat="48.27631" lon="-3.58208">
        <ele>181.418945</ele>
        <time>2023-05-02T14:00:05.058Z</time>
      </trkpt>
      <trkpt lat="48.27642" lon="-3.58211">
        <ele>180.898748</ele>
        <time>2023-05-02T14:00:09.056Z</time>
      </trkpt>
      <trkpt lat="48.27653" lon="-3.58215">
        <ele>180.340873</ele>
        <time>2023-05-02T14:00:13.058Z</time>
      </trkpt>
      <trkpt lat="48.27664" lon="-3.58219">
        <ele>179.761298</ele>
        <time>2023-05-02T14:00:17.051Z</time>
      </trkpt>
      <trkpt lat="48.27675" lon="-3.58223">
        <ele>179.210024</ele>
        <time>2023-05-02T14:00:21.053Z</time>
      </trkpt>
      <trkpt lat="48.27687" lon="-3.58229">
        <ele>178.560681</ele>
        <time>2023-05-02T14:00:25.057Z</time>
      </trkpt>
      <trkpt lat="48.27698" lon="-3.58235">
        <ele>177.971398</ele>
        <time>2023-05-02T14:00:28.050Z</time>
      </trkpt>
      <trkpt lat="48.27706" lon="-3.58244">
        <ele>177.454509</ele>
        <time>2023-05-02T14:00:31.038Z</time>
      </trkpt>
      <trkpt lat="48.27711" lon="-3.58258">
        <ele>176.949093</ele>
        <time>2023-05-02T14:00:34.038Z</time>
      </trkpt>
      <trkpt lat="48.27712" lon="-3.58272">
        <ele>176.474661</ele>
        <time>2023-05-02T14:00:37.037Z</time>
      </trkpt>
      <trkpt lat="48.27711" lon="-3.58289">
        <ele>175.902402</ele>
        <time>2023-05-02T14:00:41.061Z</time>
      </trkpt>
      <trkpt lat="48.27712" lon="-3.58305">
        <ele>175.36332</ele>
        <time>2023-05-02T14:00:45.038Z</time>
      </trkpt>
      <trkpt lat="48.27715" lon="-3.58319">
        <ele>174.891221</ele>
        <time>2023-05-02T14:00:48.049Z</time>
      </trkpt>
      <trkpt lat="48.2772" lon="-3.58333">
        <ele>174.340033</ele>
        <time>2023-05-02T14:00:51.051Z</time>
      </trkpt>
      <trkpt lat="48.27724" lon="-3.58346">
        <ele>173.603793</ele>
        <time>2023-05-02T14:00:54.062Z</time>
      </trkpt>
      <trkpt lat="48.2773" lon="-3.58358">
        <ele>172.82273</ele>
        <time>2023-05-02T14:00:57.037Z</time>
      </trkpt>
      <trkpt lat="48.27734" lon="-3.58372">
        <ele>172.055447</ele>
        <time>2023-05-02T14:01:00.048Z</time>
      </trkpt>
      <trkpt lat="48.27739" lon="-3.58386">
        <ele>171.227313</ele>
        <time>2023-05-02T14:01:03.058Z</time>
      </trkpt>
      <trkpt lat="48.27744" lon="-3.584">
        <ele>170.400887</ele>
        <time>2023-05-02T14:01:06.062Z</time>
      </trkpt>
      <trkpt lat="48.2775" lon="-3.58414">
        <ele>169.578941</ele>
        <time>2023-05-02T14:01:09.052Z</time>
      </trkpt>
      <trkpt lat="48.27754" lon="-3.58431">
        <ele>168.67867</ele>
        <time>2023-05-02T14:01:13.036Z</time>
      </trkpt>
      <trkpt lat="48.27756" lon="-3.58444">
        <ele>167.96841</ele>
        <time>2023-05-02T14:01:16.049Z</time>
      </trkpt>
      <trkpt lat="48.27759" lon="-3.58459">
        <ele>167.174671</ele>
        <time>2023-05-02T14:01:19.051Z</time>
      </trkpt>
      <trkpt lat="48.27761" lon="-3.58474">
        <ele>166.40092</ele>
        <time>2023-05-02T14:01:22.036Z</time>
      </trkpt>
      <trkpt lat="48.27762" lon="-3.58487">
        <ele>165.705535</ele>
        <time>2023-05-02T14:01:27.041Z</time>
      </trkpt>
      <trkpt lat="48.27762" lon="-3.58501">
        <ele>164.987763</ele>
        <time>2023-05-02T14:01:32.054Z</time>
      </trkpt>
      <trkpt lat="48.27761" lon="-3.58516">
        <ele>164.243761</ele>
        <time>2023-05-02T14:01:38.037Z</time>
      </trkpt>
      <trkpt lat="48.27761" lon="-3.5853">
        <ele>163.495111</ele>
        <time>2023-05-02T14:01:44.041Z</time>
      </trkpt>
      <trkpt lat="48.27758" lon="-3.58546">
        <ele>162.652779</ele>
        <time>2023-05-02T14:01:49.055Z</time>
      </trkpt>
      <trkpt lat="48.27755" lon="-3.58561">
        <ele>161.842139</ele>
        <time>2023-05-02T14:01:54.056Z</time>
      </trkpt>
      <trkpt lat="48.27752" lon="-3.58576">
        <ele>161.067974</ele>
        <time>2023-05-02T14:01:58.052Z</time>
      </trkpt>
      <trkpt lat="48.27749" lon="-3.58589">
        <ele>160.435631</ele>
        <time>2023-05-02T14:02:01.067Z</time>
      </trkpt>
      <trkpt lat="48.27746" lon="-3.58604">
        <ele>159.991318</ele>
        <time>2023-05-02T14:02:04.054Z</time>
      </trkpt>
      <trkpt lat="48.27743" lon="-3.58618">
        <ele>159.569644</ele>
        <time>2023-05-02T14:02:07.047Z</time>
      </trkpt>
      <trkpt lat="48.2774" lon="-3.58633">
        <ele>159.135846</ele>
        <time>2023-05-02T14:02:10.055Z</time>
      </trkpt>
      <trkpt lat="48.27735" lon="-3.58651">
        <ele>158.591393</ele>
        <time>2023-05-02T14:02:13.058Z</time>
      </trkpt>
      <trkpt lat="48.27732" lon="-3.58669">
        <ele>158.076484</ele>
        <time>2023-05-02T14:02:16.054Z</time>
      </trkpt>
      <trkpt lat="48.27728" lon="-3.58685">
        <ele>157.589584</ele>
        <time>2023-05-02T14:02:19.065Z</time>
      </trkpt>
      <trkpt lat="48.27724" lon="-3.58702">
        <ele>157.091954</ele>
        <time>2023-05-02T14:02:22.063Z</time>
      </trkpt>
      <trkpt lat="48.2772" lon="-3.58719">
        <ele>156.574371</ele>
        <time>2023-05-02T14:02:25.050Z</time>
      </trkpt>
      <trkpt lat="48.27717" lon="-3.58737">
        <ele>156.067399</ele>
        <time>2023-05-02T14:02:28.050Z</time>
      </trkpt>
      <trkpt lat="48.27713" lon="-3.58755">
        <ele>155.543539</ele>
        <time>2023-05-02T14:02:31.056Z</time>
      </trkpt>
      <trkpt lat="48.27711" lon="-3.58768">
        <ele>155.160928</ele>
        <time>2023-05-02T14:02:33.064Z</time>
      </trkpt>
      <trkpt lat="48.27708" lon="-3.58787">
        <ele>154.595189</ele>
        <time>2023-05-02T14:02:36.054Z</time>
      </trkpt>
      <trkpt lat="48.27704" lon="-3.58805">
        <ele>154.080163</ele>
        <time>2023-05-02T14:02:39.046Z</time>
      </trkpt>
      <trkpt lat="48.27702" lon="-3.58822">
        <ele>153.583271</ele>
        <time>2023-05-02T14:02:42.055Z</time>
      </trkpt>
      <trkpt lat="48.27699" lon="-3.58839">
        <ele>153.08825</ele>
        <time>2023-05-02T14:02:45.061Z</time>
      </trkpt>
      <trkpt lat="48.27696" lon="-3.58856">
        <ele>152.702249</ele>
        <time>2023-05-02T14:02:48.057Z</time>
      </trkpt>
      <trkpt lat="48.27693" lon="-3.58873">
        <ele>152.372861</ele>
        <time>2023-05-02T14:02:51.054Z</time>
      </trkpt>
      <trkpt lat="48.2769" lon="-3.58889">
        <ele>152.042715</ele>
        <time>2023-05-02T14:02:54.057Z</time>
      </trkpt>
      <trkpt lat="48.27688" lon="-3.58906">
        <ele>151.713254</ele>
        <time>2023-05-02T14:02:57.055Z</time>
      </trkpt>
      <trkpt lat="48.27686" lon="-3.58922">
        <ele>151.387601</ele>
        <time>2023-05-02T14:03:00.050Z</time>
      </trkpt>
      <trkpt lat="48.27684" lon="-3.58936">
        <ele>151.106733</ele>
        <time>2023-05-02T14:03:03.054Z</time>
      </trkpt>
      <trkpt lat="48.27682" lon="-3.58952">
        <ele>150.801255</ele>
        <time>2023-05-02T14:03:06.057Z</time>
      </trkpt>
      <trkpt lat="48.27681" lon="-3.58967">
        <ele>150.502544</ele>
        <time>2023-05-02T14:03:09.056Z</time>
      </trkpt>
      <trkpt lat="48.27681" lon="-3.58982">
        <ele>150.207205</ele>
        <time>2023-05-02T14:03:12.051Z</time>
      </trkpt>
      <trkpt lat="48.27681" lon="-3.58998">
        <ele>149.902137</ele>
        <time>2023-05-02T14:03:15.054Z</time>
      </trkpt>
      <trkpt lat="48.27682" lon="-3.59013">
        <ele>149.608219</ele>
        <time>2023-05-02T14:03:18.046Z</time>
      </trkpt>
      <trkpt lat="48.27682" lon="-3.59029">
        <ele>149.302816</ele>
        <time>2023-05-02T14:03:21.057Z</time>
      </trkpt>
      <trkpt lat="48.27684" lon="-3.59045">
        <ele>148.977455</ele>
        <time>2023-05-02T14:03:24.047Z</time>
      </trkpt>
      <trkpt lat="48.27685" lon="-3.59061">
        <ele>148.673839</ele>
        <time>2023-05-02T14:03:27.055Z</time>
      </trkpt>
      <trkpt lat="48.27686" lon="-3.59075">
        <ele>148.402605</ele>
        <time>2023-05-02T14:03:30.057Z</time>
      </trkpt>
      <trkpt lat="48.27688" lon="-3.59089">
        <ele>148.126024</ele>
        <time>2023-05-02T14:03:33.057Z</time>
      </trkpt>
      <trkpt lat="48.27689" lon="-3.59102">
        <ele>147.861388</ele>
        <time>2023-05-02T14:03:36.050Z</time>
      </trkpt>
      <trkpt lat="48.27689" lon="-3.59119">
        <ele>147.475316</ele>
        <time>2023-05-02T14:03:40.036Z</time>
      </trkpt>
      <trkpt lat="48.27689" lon="-3.59135">
        <ele>147.022596</ele>
        <time>2023-05-02T14:03:44.038Z</time>
      </trkpt>
      <trkpt lat="48.27689" lon="-3.59153">
        <ele>146.52845</ele>
        <time>2023-05-02T14:03:48.058Z</time>
      </trkpt>
      <trkpt lat="48.27689" lon="-3.59171">
        <ele>146.028371</ele>
        <time>2023-05-02T14:03:52.056Z</time>
      </trkpt>
      <trkpt lat="48.27688" lon="-3.59186">
        <ele>145.629477</ele>
        <time>2023-05-02T14:03:55.051Z</time>
      </trkpt>
      <trkpt lat="48.27687" lon="-3.59203">
        <ele>145.140008</ele>
        <time>2023-05-02T14:03:59.051Z</time>
      </trkpt>
      <trkpt lat="48.27686" lon="-3.59218">
        <ele>144.740339</ele>
        <time>2023-05-02T14:04:02.055Z</time>
      </trkpt>
      <trkpt lat="48.27686" lon="-3.59232">
        <ele>144.344196</ele>
        <time>2023-05-02T14:04:05.056Z</time>
      </trkpt>
      <trkpt lat="48.27685" lon="-3.59249">
        <ele>143.865173</ele>
        <time>2023-05-02T14:04:09.066Z</time>
      </trkpt>
      <trkpt lat="48.27685" lon="-3.59265">
        <ele>143.439329</ele>
        <time>2023-05-02T14:04:13.036Z</time>
      </trkpt>
      <trkpt lat="48.27687" lon="-3.5928">
        <ele>143.002677</ele>
        <time>2023-05-02T14:04:17.043Z</time>
      </trkpt>
      <trkpt lat="48.27689" lon="-3.59298">
        <ele>142.496922</ele>
        <time>2023-05-02T14:04:21.058Z</time>
      </trkpt>
      <trkpt lat="48.27691" lon="-3.59312">
        <ele>142.104211</ele>
        <time>2023-05-02T14:04:24.043Z</time>
      </trkpt>
      <trkpt lat="48.27693" lon="-3.5933">
        <ele>141.609087</ele>
        <time>2023-05-02T14:04:27.053Z</time>
      </trkpt>
      <trkpt lat="48.27696" lon="-3.59347">
        <ele>141.111415</ele>
        <time>2023-05-02T14:04:30.053Z</time>
      </trkpt>
      <trkpt lat="48.27698" lon="-3.59363">
        <ele>140.671154</ele>
        <time>2023-05-02T14:04:33.052Z</time>
      </trkpt>
      <trkpt lat="48.277" lon="-3.59378">
        <ele>140.251559</ele>
        <time>2023-05-02T14:04:36.054Z</time>
      </trkpt>
      <trkpt lat="48.27703" lon="-3.59393">
        <ele>140.141795</ele>
        <time>2023-05-02T14:04:39.037Z</time>
      </trkpt>
      <trkpt lat="48.27706" lon="-3.59407">
        <ele>140.043006</ele>
        <time>2023-05-02T14:04:42.056Z</time>
      </trkpt>
      <trkpt lat="48.2771" lon="-3.59421">
        <ele>139.949435</ele>
        <time>2023-05-02T14:04:45.042Z</time>
      </trkpt>
      <trkpt lat="48.27714" lon="-3.59433">
        <ele>139.856133</ele>
        <time>2023-05-02T14:04:48.052Z</time>
      </trkpt>
      <trkpt lat="48.27719" lon="-3.59446">
        <ele>139.758561</ele>
        <time>2023-05-02T14:04:51.054Z</time>
      </trkpt>
      <trkpt lat="48.27723" lon="-3.59459">
        <ele>139.664107</ele>
        <time>2023-05-02T14:04:54.053Z</time>
      </trkpt>
      <trkpt lat="48.27731" lon="-3.59473">
        <ele>139.545824</ele>
        <time>2023-05-02T14:04:58.045Z</time>
      </trkpt>
      <trkpt lat="48.27737" lon="-3.59484">
        <ele>139.452259</ele>
        <time>2023-05-02T14:05:01.052Z</time>
      </trkpt>
      <trkpt lat="48.27743" lon="-3.59496">
        <ele>139.357191</ele>
        <time>2023-05-02T14:05:04.052Z</time>
      </trkpt>
      <trkpt lat="48.27749" lon="-3.5951">
        <ele>139.243667</ele>
        <time>2023-05-02T14:05:08.058Z</time>
      </trkpt>
      <trkpt lat="48.27755" lon="-3.59526">
        <ele>139.126978</ele>
        <time>2023-05-02T14:05:12.052Z</time>
      </trkpt>
      <trkpt lat="48.27762" lon="-3.59541">
        <ele>139.011265</ele>
        <time>2023-05-02T14:05:16.039Z</time>
      </trkpt>
      <trkpt lat="48.27769" lon="-3.59553">
        <ele>138.904524</ele>
        <time>2023-05-02T14:05:20.048Z</time>
      </trkpt>
      <trkpt lat="48.27775" lon="-3.59563">
        <ele>138.813248</ele>
        <time>2023-05-02T14:05:24.045Z</time>
      </trkpt>
      <trkpt lat="48.27781" lon="-3.59574">
        <ele>138.724113</ele>
        <time>2023-05-02T14:05:29.049Z</time>
      </trkpt>
      <trkpt lat="48.27787" lon="-3.59586">
        <ele>138.628335</ele>
        <time>2023-05-02T14:05:34.053Z</time>
      </trkpt>
      <trkpt lat="48.27793" lon="-3.59599">
        <ele>138.519422</ele>
        <time>2023-05-02T14:05:39.051Z</time>
      </trkpt>
      <trkpt lat="48.27799" lon="-3.5961">
        <ele>138.326978</ele>
        <time>2023-05-02T14:05:43.056Z</time>
      </trkpt>
      <trkpt lat="48.27805" lon="-3.59622">
        <ele>138.031183</ele>
        <time>2023-05-02T14:05:47.053Z</time>
      </trkpt>
      <trkpt lat="48.27811" lon="-3.59633">
        <ele>137.732133</ele>
        <time>2023-05-02T14:05:52.040Z</time>
      </trkpt>
      <trkpt lat="48.27817" lon="-3.59644">
        <ele>137.44517</ele>
        <time>2023-05-02T14:05:56.061Z</time>
      </trkpt>
      <trkpt lat="48.27824" lon="-3.59656">
        <ele>137.130502</ele>
        <time>2023-05-02T14:06:00.047Z</time>
      </trkpt>
      <trkpt lat="48.2783" lon="-3.59668">
        <ele>136.822557</ele>
        <time>2023-05-02T14:06:04.055Z</time>
      </trkpt>
      <trkpt lat="48.27836" lon="-3.59682">
        <ele>136.476259</ele>
        <time>2023-05-02T14:06:08.055Z</time>
      </trkpt>
      <trkpt lat="48.27841" lon="-3.59696">
        <ele>136.159283</ele>
        <time>2023-05-02T14:06:12.054Z</time>
      </trkpt>
      <trkpt lat="48.27845" lon="-3.59711">
        <ele>135.820914</ele>
        <time>2023-05-02T14:06:16.046Z</time>
      </trkpt>
      <trkpt lat="48.27848" lon="-3.59725">
        <ele>135.529282</ele>
        <time>2023-05-02T14:06:19.044Z</time>
      </trkpt>
      <trkpt lat="48.27851" lon="-3.5974">
        <ele>135.207118</ele>
        <time>2023-05-02T14:06:22.058Z</time>
      </trkpt>
      <trkpt lat="48.27852" lon="-3.59755">
        <ele>134.911877</ele>
        <time>2023-05-02T14:06:25.036Z</time>
      </trkpt>
      <trkpt lat="48.27855" lon="-3.59768">
        <ele>134.632746</ele>
        <time>2023-05-02T14:06:29.046Z</time>
      </trkpt>
      <trkpt lat="48.27857" lon="-3.59781">
        <ele>134.356025</ele>
        <time>2023-05-02T14:06:33.056Z</time>
      </trkpt>
      <trkpt lat="48.27857" lon="-3.59796">
        <ele>134.055784</ele>
        <time>2023-05-02T14:06:39.032Z</time>
      </trkpt>
      <trkpt lat="48.27855" lon="-3.59811">
        <ele>133.740469</ele>
        <time>2023-05-02T14:06:44.050Z</time>
      </trkpt>
      <trkpt lat="48.27855" lon="-3.59828">
        <ele>133.403037</ele>
        <time>2023-05-02T14:06:49.054Z</time>
      </trkpt>
      <trkpt lat="48.27854" lon="-3.59844">
        <ele>133.068944</ele>
        <time>2023-05-02T14:06:54.053Z</time>
      </trkpt>
      <trkpt lat="48.27852" lon="-3.59859">
        <ele>132.83536</ele>
        <time>2023-05-02T14:06:59.048Z</time>
      </trkpt>
      <trkpt lat="48.2785" lon="-3.59873">
        <ele>132.651528</ele>
        <time>2023-05-02T14:07:03.048Z</time>
      </trkpt>
      <trkpt lat="48.27845" lon="-3.59885">
        <ele>132.45732</ele>
        <time>2023-05-02T14:07:08.040Z</time>
      </trkpt>
      <trkpt lat="48.27841" lon="-3.59897">
        <ele>132.271747</ele>
        <time>2023-05-02T14:07:12.044Z</time>
      </trkpt>
      <trkpt lat="48.27837" lon="-3.59912">
        <ele>132.054129</ele>
        <time>2023-05-02T14:07:16.051Z</time>
      </trkpt>
      <trkpt lat="48.27833" lon="-3.5993">
        <ele>131.806666</ele>
        <time>2023-05-02T14:07:20.047Z</time>
      </trkpt>
      <trkpt lat="48.27829" lon="-3.59945">
        <ele>131.575927</ele>
        <time>2023-05-02T14:07:23.055Z</time>
      </trkpt>
      <trkpt lat="48.27825" lon="-3.59961">
        <ele>131.347099</ele>
        <time>2023-05-02T14:07:26.054Z</time>
      </trkpt>
      <trkpt lat="48.27821" lon="-3.59977">
        <ele>131.115394</ele>
        <time>2023-05-02T14:07:29.058Z</time>
      </trkpt>
      <trkpt lat="48.27817" lon="-3.59992">
        <ele>130.900285</ele>
        <time>2023-05-02T14:07:32.047Z</time>
      </trkpt>
      <trkpt lat="48.27812" lon="-3.60005">
        <ele>130.701531</ele>
        <time>2023-05-02T14:07:35.049Z</time>
      </trkpt>
      <trkpt lat="48.2781" lon="-3.60019">
        <ele>130.499148</ele>
        <time>2023-05-02T14:07:38.033Z</time>
      </trkpt>
      <trkpt lat="48.27807" lon="-3.60033">
        <ele>130.303152</ele>
        <time>2023-05-02T14:07:41.057Z</time>
      </trkpt>
      <trkpt lat="48.27804" lon="-3.60048">
        <ele>130.090409</ele>
        <time>2023-05-02T14:07:45.055Z</time>
      </trkpt>
      <trkpt lat="48.27801" lon="-3.60062">
        <ele>129.898749</ele>
        <time>2023-05-02T14:07:48.056Z</time>
      </trkpt>
      <trkpt lat="48.27797" lon="-3.60078">
        <ele>129.663535</ele>
        <time>2023-05-02T14:07:51.050Z</time>
      </trkpt>
      <trkpt lat="48.27794" lon="-3.60093">
        <ele>129.445688</ele>
        <time>2023-05-02T14:07:54.059Z</time>
      </trkpt>
      <trkpt lat="48.27792" lon="-3.60109">
        <ele>129.308155</ele>
        <time>2023-05-02T14:07:57.062Z</time>
      </trkpt>
      <trkpt lat="48.27789" lon="-3.60123">
        <ele>129.255078</ele>
        <time>2023-05-02T14:08:01.053Z</time>
      </trkpt>
      <trkpt lat="48.27783" lon="-3.60139">
        <ele>129.192873</ele>
        <time>2023-05-02T14:08:05.031Z</time>
      </trkpt>
      <trkpt lat="48.27779" lon="-3.60153">
        <ele>129.140149</ele>
        <time>2023-05-02T14:08:08.064Z</time>
      </trkpt>
      <trkpt lat="48.27772" lon="-3.60168">
        <ele>129.076268</ele>
        <time>2023-05-02T14:08:11.035Z</time>
      </trkpt>
      <trkpt lat="48.27765" lon="-3.60178">
        <ele>129.026634</ele>
        <time>2023-05-02T14:08:14.041Z</time>
      </trkpt>
      <trkpt lat="48.27757" lon="-3.6019">
        <ele>128.968507</ele>
        <time>2023-05-02T14:08:17.053Z</time>
      </trkpt>
      <trkpt lat="48.27754" lon="-3.60205">
        <ele>128.911684</ele>
        <time>2023-05-02T14:08:20.036Z</time>
      </trkpt>
      <trkpt lat="48.2776" lon="-3.60217">
        <ele>128.860512</ele>
        <time>2023-05-02T14:08:23.033Z</time>
      </trkpt>
      <trkpt lat="48.27761" lon="-3.60231">
        <ele>128.810996</ele>
        <time>2023-05-02T14:08:26.037Z</time>
      </trkpt>
      <trkpt lat="48.27755" lon="-3.60245">
        <ele>128.753487</ele>
        <time>2023-05-02T14:08:30.053Z</time>
      </trkpt>
      <trkpt lat="48.27753" lon="-3.60258">
        <ele>128.705913</ele>
        <time>2023-05-02T14:08:35.034Z</time>
      </trkpt>
      <trkpt lat="48.27752" lon="-3.60273">
        <ele>128.655059</ele>
        <time>2023-05-02T14:08:39.046Z</time>
      </trkpt>
      <trkpt lat="48.27751" lon="-3.60288">
        <ele>128.602822</ele>
        <time>2023-05-02T14:08:43.048Z</time>
      </trkpt>
      <trkpt lat="48.27751" lon="-3.60303">
        <ele>128.549322</ele>
        <time>2023-05-02T14:08:47.051Z</time>
      </trkpt>
      <trkpt lat="48.27755" lon="-3.60316">
        <ele>128.499997</ele>
        <time>2023-05-02T14:08:50.042Z</time>
      </trkpt>
      <trkpt lat="48.2776" lon="-3.60328">
        <ele>128.449713</ele>
        <time>2023-05-02T14:08:54.043Z</time>
      </trkpt>
      <trkpt lat="48.27765" lon="-3.6034">
        <ele>128.401378</ele>
        <time>2023-05-02T14:08:59.047Z</time>
      </trkpt>
      <trkpt lat="48.2777" lon="-3.60352">
        <ele>128.594406</ele>
        <time>2023-05-02T14:09:03.049Z</time>
      </trkpt>
      <trkpt lat="48.27773" lon="-3.60365">
        <ele>128.822504</ele>
        <time>2023-05-02T14:09:08.045Z</time>
      </trkpt>
      <trkpt lat="48.2777" lon="-3.60378">
        <ele>129.040027</ele>
        <time>2023-05-02T14:09:33.034Z</time>
      </trkpt>
      <trkpt lat="48.27761" lon="-3.60378">
        <ele>129.268809</ele>
        <time>2023-05-02T14:11:02.035Z</time>
      </trkpt>
      <trkpt lat="48.27751" lon="-3.60376">
        <ele>129.49936</ele>
        <time>2023-05-02T14:11:07.043Z</time>
      </trkpt>
      <trkpt lat="48.27741" lon="-3.60374">
        <ele>129.742568</ele>
        <time>2023-05-02T14:11:12.041Z</time>
      </trkpt>
      <trkpt lat="48.2773" lon="-3.60371">
        <ele>130.01524</ele>
        <time>2023-05-02T14:11:17.032Z</time>
      </trkpt>
      <trkpt lat="48.2772" lon="-3.60368">
        <ele>130.259574</ele>
        <time>2023-05-02T14:11:21.043Z</time>
      </trkpt>
      <trkpt lat="48.27709" lon="-3.60366">
        <ele>130.5266</ele>
        <time>2023-05-02T14:11:25.040Z</time>
      </trkpt>
      <trkpt lat="48.27698" lon="-3.60363">
        <ele>130.785162</ele>
        <time>2023-05-02T14:11:29.039Z</time>
      </trkpt>
      <trkpt lat="48.27689" lon="-3.60361">
        <ele>131.004812</ele>
        <time>2023-05-02T14:11:32.038Z</time>
      </trkpt>
      <trkpt lat="48.2768" lon="-3.60358">
        <ele>131.227901</ele>
        <time>2023-05-02T14:11:35.039Z</time>
      </trkpt>
      <trkpt lat="48.2767" lon="-3.60356">
        <ele>131.449904</ele>
        <time>2023-05-02T14:11:38.037Z</time>
      </trkpt>
      <trkpt lat="48.27659" lon="-3.60354">
        <ele>131.732892</ele>
        <time>2023-05-02T14:11:42.041Z</time>
      </trkpt>
      <trkpt lat="48.27649" lon="-3.60352">
        <ele>131.973742</ele>
        <time>2023-05-02T14:11:45.033Z</time>
      </trkpt>
      <trkpt lat="48.2764" lon="-3.60349">
        <ele>132.194143</ele>
        <time>2023-05-02T14:11:48.036Z</time>
      </trkpt>
      <trkpt lat="48.2763" lon="-3.60346">
        <ele>132.430474</ele>
        <time>2023-05-02T14:11:51.029Z</time>
      </trkpt>
      <trkpt lat="48.27621" lon="-3.60342">
        <ele>132.655984</ele>
        <time>2023-05-02T14:11:54.041Z</time>
      </trkpt>
      <trkpt lat="48.27612" lon="-3.60337">
        <ele>132.64098</ele>
        <time>2023-05-02T14:11:57.035Z</time>
      </trkpt>
      <trkpt lat="48.27603" lon="-3.60332">
        <ele>132.594217</ele>
        <time>2023-05-02T14:12:00.056Z</time>
      </trkpt>
      <trkpt lat="48.27595" lon="-3.60327">
        <ele>132.548259</ele>
        <time>2023-05-02T14:12:03.058Z</time>
      </trkpt>
      <trkpt lat="48.27586" lon="-3.60321">
        <ele>132.499565</ele>
        <time>2023-05-02T14:12:07.044Z</time>
      </trkpt>
      <trkpt lat="48.27578" lon="-3.60315">
        <ele>132.451701</ele>
        <time>2023-05-02T14:12:11.032Z</time>
      </trkpt>
      <trkpt lat="48.27569" lon="-3.60309">
        <ele>132.402407</ele>
        <time>2023-05-02T14:12:15.034Z</time>
      </trkpt>
      <trkpt lat="48.27559" lon="-3.60304">
        <ele>132.348195</ele>
        <time>2023-05-02T14:12:19.035Z</time>
      </trkpt>
      <trkpt lat="48.27549" lon="-3.603">
        <ele>132.295435</ele>
        <time>2023-05-02T14:12:23.052Z</time>
      </trkpt>
      <trkpt lat="48.27538" lon="-3.60298">
        <ele>132.238853</ele>
        <time>2023-05-02T14:12:27.049Z</time>
      </trkpt>
      <trkpt lat="48.27529" lon="-3.60294">
        <ele>132.192598</ele>
        <time>2023-05-02T14:12:31.051Z</time>
      </trkpt>
      <trkpt lat="48.27518" lon="-3.60292">
        <ele>132.13456</ele>
        <time>2023-05-02T14:12:35.038Z</time>
      </trkpt>
      <trkpt lat="48.27507" lon="-3.6029">
        <ele>132.080966</ele>
        <time>2023-05-02T14:12:38.044Z</time>
      </trkpt>
      <trkpt lat="48.27498" lon="-3.6029">
        <ele>132.033183</ele>
        <time>2023-05-02T14:12:41.046Z</time>
      </trkpt>
      <trkpt lat="48.27486" lon="-3.60289">
        <ele>131.971146</ele>
        <time>2023-05-02T14:12:45.054Z</time>
      </trkpt>
      <trkpt lat="48.27476" lon="-3.60289">
        <ele>131.922863</ele>
        <time>2023-05-02T14:12:48.054Z</time>
      </trkpt>
      <trkpt lat="48.27467" lon="-3.6029">
        <ele>131.875588</ele>
        <time>2023-05-02T14:12:51.050Z</time>
      </trkpt>
      <trkpt lat="48.27457" lon="-3.60289">
        <ele>131.827704</ele>
        <time>2023-05-02T14:12:54.042Z</time>
      </trkpt>
      <trkpt lat="48.27447" lon="-3.60289">
        <ele>131.77689</ele>
        <time>2023-05-02T14:12:57.043Z</time>
      </trkpt>
      <trkpt lat="48.27437" lon="-3.60289">
        <ele>131.514008</ele>
        <time>2023-05-02T14:13:00.051Z</time>
      </trkpt>
      <trkpt lat="48.27426" lon="-3.60287">
        <ele>131.161085</ele>
        <time>2023-05-02T14:13:03.034Z</time>
      </trkpt>
      <trkpt lat="48.27412" lon="-3.60285">
        <ele>130.74745</ele>
        <time>2023-05-02T14:13:06.048Z</time>
      </trkpt>
      <trkpt lat="48.27402" lon="-3.60281">
        <ele>130.416889</ele>
        <time>2023-05-02T14:13:08.049Z</time>
      </trkpt>
      <trkpt lat="48.2739" lon="-3.60278">
        <ele>130.053654</ele>
        <time>2023-05-02T14:13:10.059Z</time>
      </trkpt>
      <trkpt lat="48.27377" lon="-3.60274">
        <ele>129.62956</ele>
        <time>2023-05-02T14:13:12.065Z</time>
      </trkpt>
      <trkpt lat="48.27362" lon="-3.60268">
        <ele>129.163295</ele>
        <time>2023-05-02T14:13:14.054Z</time>
      </trkpt>
      <trkpt lat="48.27345" lon="-3.60261">
        <ele>128.640725</ele>
        <time>2023-05-02T14:13:16.055Z</time>
      </trkpt>
      <trkpt lat="48.27329" lon="-3.60256">
        <ele>128.139793</ele>
        <time>2023-05-02T14:13:18.045Z</time>
      </trkpt>
      <trkpt lat="48.27321" lon="-3.60253">
        <ele>127.861988</ele>
        <time>2023-05-02T14:13:19.048Z</time>
      </trkpt>
      <trkpt lat="48.27304" lon="-3.60247">
        <ele>127.342952</ele>
        <time>2023-05-02T14:13:21.055Z</time>
      </trkpt>
      <trkpt lat="48.27287" lon="-3.60241">
        <ele>126.809508</ele>
        <time>2023-05-02T14:13:23.067Z</time>
      </trkpt>
      <trkpt lat="48.27271" lon="-3.60234">
        <ele>126.297632</ele>
        <time>2023-05-02T14:13:25.029Z</time>
      </trkpt>
      <trkpt lat="48.27254" lon="-3.60229">
        <ele>126.231497</ele>
        <time>2023-05-02T14:13:27.052Z</time>
      </trkpt>
      <trkpt lat="48.27239" lon="-3.60222">
        <ele>126.193432</ele>
        <time>2023-05-02T14:13:29.058Z</time>
      </trkpt>
      <trkpt lat="48.27224" lon="-3.60217">
        <ele>126.157124</ele>
        <time>2023-05-02T14:13:31.050Z</time>
      </trkpt>
      <trkpt lat="48.2721" lon="-3.60212">
        <ele>126.122913</ele>
        <time>2023-05-02T14:13:33.044Z</time>
      </trkpt>
      <trkpt lat="48.27196" lon="-3.60209">
        <ele>126.089706</ele>
        <time>2023-05-02T14:13:35.046Z</time>
      </trkpt>
      <trkpt lat="48.27184" lon="-3.60205">
        <ele>126.061372</ele>
        <time>2023-05-02T14:13:37.045Z</time>
      </trkpt>
      <trkpt lat="48.27173" lon="-3.60202">
        <ele>126.035232</ele>
        <time>2023-05-02T14:13:39.048Z</time>
      </trkpt>
      <trkpt lat="48.27164" lon="-3.60199">
        <ele>126.011877</ele>
        <time>2023-05-02T14:13:41.049Z</time>
      </trkpt>
      <trkpt lat="48.27151" lon="-3.60198">
        <ele>125.980917</ele>
        <time>2023-05-02T14:13:44.049Z</time>
      </trkpt>
      <trkpt lat="48.2714" lon="-3.60198">
        <ele>125.956828</ele>
        <time>2023-05-02T14:13:47.035Z</time>
      </trkpt>
      <trkpt lat="48.2713" lon="-3.60201">
        <ele>125.930864</ele>
        <time>2023-05-02T14:13:51.067Z</time>
      </trkpt>
      <trkpt lat="48.2712" lon="-3.60204">
        <ele>125.908786</ele>
        <time>2023-05-02T14:13:54.036Z</time>
      </trkpt>
      <trkpt lat="48.27111" lon="-3.60205">
        <ele>125.88576</ele>
        <time>2023-05-02T14:13:57.045Z</time>
      </trkpt>
      <trkpt lat="48.271" lon="-3.60209">
        <ele>125.859439</ele>
        <time>2023-05-02T14:14:01.034Z</time>
      </trkpt>
      <trkpt lat="48.27089" lon="-3.60212">
        <ele>125.952867</ele>
        <time>2023-05-02T14:14:05.033Z</time>
      </trkpt>
      <trkpt lat="48.27079" lon="-3.60216">
        <ele>126.1871</ele>
        <time>2023-05-02T14:14:09.040Z</time>
      </trkpt>
      <trkpt lat="48.27071" lon="-3.6021">
        <ele>126.396891</ele>
        <time>2023-05-02T14:14:14.042Z</time>
      </trkpt>
      <trkpt lat="48.27068" lon="-3.60193">
        <ele>126.653929</ele>
        <time>2023-05-02T14:14:18.035Z</time>
      </trkpt>
      <trkpt lat="48.27069" lon="-3.60175">
        <ele>126.926325</ele>
        <time>2023-05-02T14:14:21.034Z</time>
      </trkpt>
      <trkpt lat="48.2707" lon="-3.60155">
        <ele>127.231296</ele>
        <time>2023-05-02T14:14:24.056Z</time>
      </trkpt>
      <trkpt lat="48.27071" lon="-3.60141">
        <ele>127.441009</ele>
        <time>2023-05-02T14:14:26.052Z</time>
      </trkpt>
      <trkpt lat="48.27072" lon="-3.60123">
        <ele>127.705913</ele>
        <time>2023-05-02T14:14:29.053Z</time>
      </trkpt>
      <trkpt lat="48.27072" lon="-3.60108">
        <ele>127.934207</ele>
        <time>2023-05-02T14:14:32.055Z</time>
      </trkpt>
      <trkpt lat="48.27071" lon="-3.60093">
        <ele>128.170292</ele>
        <time>2023-05-02T14:14:36.047Z</time>
      </trkpt>
      <trkpt lat="48.27068" lon="-3.60073">
        <ele>128.466444</ele>
        <time>2023-05-02T14:15:02.041Z</time>
      </trkpt>
      <trkpt lat="48.27069" lon="-3.60057">
        <ele>128.709719</ele>
        <time>2023-05-02T14:15:06.030Z</time>
      </trkpt>
      <trkpt lat="48.2707" lon="-3.60044">
        <ele>128.914551</ele>
        <time>2023-05-02T14:15:10.046Z</time>
      </trkpt>
      <trkpt lat="48.27069" lon="-3.60029">
        <ele>129.140473</ele>
        <time>2023-05-02T14:15:14.050Z</time>
      </trkpt>
      <trkpt lat="48.27067" lon="-3.60014">
        <ele>129.374189</ele>
        <time>2023-05-02T14:15:19.048Z</time>
      </trkpt>
      <trkpt lat="48.27066" lon="-3.59999">
        <ele>129.602291</ele>
        <time>2023-05-02T14:15:24.038Z</time>
      </trkpt>
      <trkpt lat="48.27064" lon="-3.59982">
        <ele>129.851191</ele>
        <time>2023-05-02T14:15:29.053Z</time>
      </trkpt>
      <trkpt lat="48.27063" lon="-3.59966">
        <ele>130.118098</ele>
        <time>2023-05-02T14:15:33.055Z</time>
      </trkpt>
      <trkpt lat="48.27062" lon="-3.5995">
        <ele>130.38201</ele>
        <time>2023-05-02T14:15:37.042Z</time>
      </trkpt>
      <trkpt lat="48.2706" lon="-3.59936">
        <ele>130.633705</ele>
        <time>2023-05-02T14:15:41.047Z</time>
      </trkpt>
      <trkpt lat="48.27058" lon="-3.59922">
        <ele>130.873891</ele>
        <time>2023-05-02T14:15:46.034Z</time>
      </trkpt>
      <trkpt lat="48.27051" lon="-3.59914">
        <ele>131.106522</ele>
        <time>2023-05-02T14:15:52.033Z</time>
      </trkpt>
      <trkpt lat="48.27041" lon="-3.59913">
        <ele>131.351977</ele>
        <time>2023-05-02T14:15:57.040Z</time>
      </trkpt>
      <trkpt lat="48.27031" lon="-3.59924">
        <ele>131.663496</ele>
        <time>2023-05-02T14:16:01.037Z</time>
      </trkpt>
      <trkpt lat="48.27027" lon="-3.59936">
        <ele>131.891259</ele>
        <time>2023-05-02T14:16:10.050Z</time>
      </trkpt>
      <trkpt lat="48.27019" lon="-3.59948">
        <ele>132.174377</ele>
        <time>2023-05-02T14:19:56.044Z</time>
      </trkpt>
      <trkpt lat="48.27013" lon="-3.59958">
        <ele>132.407467</ele>
        <time>2023-05-02T14:20:00.045Z</time>
      </trkpt>
      <trkpt lat="48.27005" lon="-3.59968">
        <ele>132.661161</ele>
        <time>2023-05-02T14:20:04.044Z</time>
      </trkpt>
      <trkpt lat="48.26997" lon="-3.59977">
        <ele>132.915023</ele>
        <time>2023-05-02T14:20:08.044Z</time>
      </trkpt>
      <trkpt lat="48.2699" lon="-3.59986">
        <ele>133.15091</ele>
        <time>2023-05-02T14:20:12.051Z</time>
      </trkpt>
      <trkpt lat="48.26981" lon="-3.59995">
        <ele>133.415314</ele>
        <time>2023-05-02T14:20:17.031Z</time>
      </trkpt>
      <trkpt lat="48.26972" lon="-3.60003">
        <ele>133.683404</ele>
        <time>2023-05-02T14:20:21.045Z</time>
      </trkpt>
      <trkpt lat="48.26964" lon="-3.60008">
        <ele>133.910594</ele>
        <time>2023-05-02T14:20:24.046Z</time>
      </trkpt>
      <trkpt lat="48.26955" lon="-3.60015">
        <ele>134.161084</ele>
        <time>2023-05-02T14:20:27.042Z</time>
      </trkpt>
      <trkpt lat="48.26945" lon="-3.60021">
        <ele>134.426796</ele>
        <time>2023-05-02T14:20:30.051Z</time>
      </trkpt>
      <trkpt lat="48.26935" lon="-3.60028">
        <ele>134.42779</ele>
        <time>2023-05-02T14:20:33.048Z</time>
      </trkpt>
      <trkpt lat="48.26924" lon="-3.60034">
        <ele>134.398798</ele>
        <time>2023-05-02T14:20:36.048Z</time>
      </trkpt>
      <trkpt lat="48.26913" lon="-3.60039">
        <ele>134.371735</ele>
        <time>2023-05-02T14:20:39.038Z</time>
      </trkpt>
      <trkpt lat="48.26903" lon="-3.60045">
        <ele>134.344734</ele>
        <time>2023-05-02T14:20:42.049Z</time>
      </trkpt>
      <trkpt lat="48.26892" lon="-3.60051">
        <ele>134.317368</ele>
        <time>2023-05-02T14:20:45.048Z</time>
      </trkpt>
      <trkpt lat="48.26882" lon="-3.60056">
        <ele>134.291435</ele>
        <time>2023-05-02T14:20:48.043Z</time>
      </trkpt>
      <trkpt lat="48.26872" lon="-3.60061">
        <ele>134.265741</ele>
        <time>2023-05-02T14:20:51.039Z</time>
      </trkpt>
      <trkpt lat="48.26862" lon="-3.60066">
        <ele>134.239962</ele>
        <time>2023-05-02T14:20:54.044Z</time>
      </trkpt>
      <trkpt lat="48.26852" lon="-3.60072">
        <ele>134.213464</ele>
        <time>2023-05-02T14:20:57.038Z</time>
      </trkpt>
      <trkpt lat="48.26841" lon="-3.60077">
        <ele>134.187072</ele>
        <time>2023-05-02T14:21:00.040Z</time>
      </trkpt>
      <trkpt lat="48.2683" lon="-3.60082">
        <ele>134.158598</ele>
        <time>2023-05-02T14:21:03.044Z</time>
      </trkpt>
      <trkpt lat="48.26818" lon="-3.60089">
        <ele>134.128174</ele>
        <time>2023-05-02T14:21:06.041Z</time>
      </trkpt>
      <trkpt lat="48.26806" lon="-3.60096">
        <ele>134.09719</ele>
        <time>2023-05-02T14:21:09.049Z</time>
      </trkpt>
      <trkpt lat="48.26795" lon="-3.60102">
        <ele>134.066493</ele>
        <time>2023-05-02T14:21:12.049Z</time>
      </trkpt>
      <trkpt lat="48.26783" lon="-3.60109">
        <ele>134.036587</ele>
        <time>2023-05-02T14:21:15.042Z</time>
      </trkpt>
      <trkpt lat="48.26772" lon="-3.60114">
        <ele>133.933839</ele>
        <time>2023-05-02T14:21:18.041Z</time>
      </trkpt>
      <trkpt lat="48.26761" lon="-3.60121">
        <ele>133.641255</ele>
        <time>2023-05-02T14:21:21.046Z</time>
      </trkpt>
      <trkpt lat="48.2675" lon="-3.60127">
        <ele>133.359604</ele>
        <time>2023-05-02T14:21:24.049Z</time>
      </trkpt>
      <trkpt lat="48.26739" lon="-3.60134">
        <ele>133.065817</ele>
        <time>2023-05-02T14:21:27.043Z</time>
      </trkpt>
      <trkpt lat="48.26727" lon="-3.60141">
        <ele>132.747862</ele>
        <time>2023-05-02T14:21:30.049Z</time>
      </trkpt>
      <trkpt lat="48.26718" lon="-3.60146">
        <ele>132.525355</ele>
        <time>2023-05-02T14:21:32.046Z</time>
      </trkpt>
      <trkpt lat="48.2671" lon="-3.60151">
        <ele>132.30223</ele>
        <time>2023-05-02T14:21:34.045Z</time>
      </trkpt>
      <trkpt lat="48.26698" lon="-3.60159">
        <ele>131.98562</ele>
        <time>2023-05-02T14:21:37.039Z</time>
      </trkpt>
      <trkpt lat="48.26687" lon="-3.60167">
        <ele>131.683122</ele>
        <time>2023-05-02T14:21:40.045Z</time>
      </trkpt>
      <trkpt lat="48.26676" lon="-3.60175">
        <ele>131.384444</ele>
        <time>2023-05-02T14:21:43.047Z</time>
      </trkpt>
      <trkpt lat="48.26666" lon="-3.60184">
        <ele>131.099766</ele>
        <time>2023-05-02T14:21:46.047Z</time>
      </trkpt>
      <trkpt lat="48.26658" lon="-3.60194">
        <ele>130.839527</ele>
        <time>2023-05-02T14:21:49.047Z</time>
      </trkpt>
      <trkpt lat="48.2665" lon="-3.60205">
        <ele>130.561114</ele>
        <time>2023-05-02T14:21:53.046Z</time>
      </trkpt>
      <trkpt lat="48.26646" lon="-3.6022">
        <ele>130.297205</ele>
        <time>2023-05-02T14:21:57.042Z</time>
      </trkpt>
      <trkpt lat="48.26639" lon="-3.60232">
        <ele>130.041983</ele>
        <time>2023-05-02T14:22:00.037Z</time>
      </trkpt>
      <trkpt lat="48.26628" lon="-3.60238">
        <ele>129.765482</ele>
        <time>2023-05-02T14:22:03.043Z</time>
      </trkpt>
      <trkpt lat="48.26617" lon="-3.60243">
        <ele>129.599952</ele>
        <time>2023-05-02T14:22:06.044Z</time>
      </trkpt>
      <trkpt lat="48.26607" lon="-3.60253">
        <ele>129.603457</ele>
        <time>2023-05-02T14:22:09.041Z</time>
      </trkpt>
      <trkpt lat="48.26599" lon="-3.60265">
        <ele>129.607087</ele>
        <time>2023-05-02T14:22:12.047Z</time>
      </trkpt>
      <trkpt lat="48.26591" lon="-3.60278">
        <ele>129.610371</ele>
        <time>2023-05-02T14:22:15.044Z</time>
      </trkpt>
      <trkpt lat="48.26584" lon="-3.6029">
        <ele>129.613664</ele>
        <time>2023-05-02T14:22:18.030Z</time>
      </trkpt>
      <trkpt lat="48.26577" lon="-3.603">
        <ele>129.616626</ele>
        <time>2023-05-02T14:22:21.058Z</time>
      </trkpt>
      <trkpt lat="48.26569" lon="-3.60312">
        <ele>129.620093</ele>
        <time>2023-05-02T14:22:24.054Z</time>
      </trkpt>
      <trkpt lat="48.26559" lon="-3.60324">
        <ele>129.623747</ele>
        <time>2023-05-02T14:22:27.045Z</time>
      </trkpt>
      <trkpt lat="48.26551" lon="-3.60335">
        <ele>129.627105</ele>
        <time>2023-05-02T14:22:30.050Z</time>
      </trkpt>
      <trkpt lat="48.26542" lon="-3.60347">
        <ele>129.630575</ele>
        <time>2023-05-02T14:22:33.058Z</time>
      </trkpt>
      <trkpt lat="48.26534" lon="-3.60359">
        <ele>129.63399</ele>
        <time>2023-05-02T14:22:36.048Z</time>
      </trkpt>
      <trkpt lat="48.26526" lon="-3.6037">
        <ele>129.637362</ele>
        <time>2023-05-02T14:22:39.039Z</time>
      </trkpt>
      <trkpt lat="48.26518" lon="-3.60381">
        <ele>129.640536</ele>
        <time>2023-05-02T14:22:42.038Z</time>
      </trkpt>
      <trkpt lat="48.2651" lon="-3.60394">
        <ele>129.644121</ele>
        <time>2023-05-02T14:22:45.052Z</time>
      </trkpt>
      <trkpt lat="48.26502" lon="-3.60407">
        <ele>129.647699</ele>
        <time>2023-05-02T14:22:48.047Z</time>
      </trkpt>
      <trkpt lat="48.26493" lon="-3.6042">
        <ele>129.651447</ele>
        <time>2023-05-02T14:22:51.050Z</time>
      </trkpt>
      <trkpt lat="48.26483" lon="-3.60433">
        <ele>129.792145</ele>
        <time>2023-05-02T14:22:54.045Z</time>
      </trkpt>
      <trkpt lat="48.26474" lon="-3.60447">
        <ele>129.983184</ele>
        <time>2023-05-02T14:22:57.043Z</time>
      </trkpt>
      <trkpt lat="48.26465" lon="-3.60462">
        <ele>130.184454</ele>
        <time>2023-05-02T14:23:00.049Z</time>
      </trkpt>
      <trkpt lat="48.26458" lon="-3.60472">
        <ele>130.328467</ele>
        <time>2023-05-02T14:23:02.053Z</time>
      </trkpt>
      <trkpt lat="48.26451" lon="-3.60482">
        <ele>130.471293</ele>
        <time>2023-05-02T14:23:04.049Z</time>
      </trkpt>
      <trkpt lat="48.26445" lon="-3.60492">
        <ele>130.612729</ele>
        <time>2023-05-02T14:23:06.051Z</time>
      </trkpt>
      <trkpt lat="48.26438" lon="-3.60502">
        <ele>130.757009</ele>
        <time>2023-05-02T14:23:08.046Z</time>
      </trkpt>
      <trkpt lat="48.26431" lon="-3.60511">
        <ele>130.895989</ele>
        <time>2023-05-02T14:23:10.056Z</time>
      </trkpt>
      <trkpt lat="48.26424" lon="-3.60521">
        <ele>131.030748</ele>
        <time>2023-05-02T14:23:12.051Z</time>
      </trkpt>
      <trkpt lat="48.26415" lon="-3.60535">
        <ele>131.226343</ele>
        <time>2023-05-02T14:23:15.049Z</time>
      </trkpt>
      <trkpt lat="48.26406" lon="-3.6055">
        <ele>131.430448</ele>
        <time>2023-05-02T14:23:18.043Z</time>
      </trkpt>
      <trkpt lat="48.26399" lon="-3.60559">
        <ele>131.564833</ele>
        <time>2023-05-02T14:23:20.047Z</time>
      </trkpt>
      <trkpt lat="48.26393" lon="-3.60568">
        <ele>131.699593</ele>
        <time>2023-05-02T14:23:22.048Z</time>
      </trkpt>
      <trkpt lat="48.26383" lon="-3.60582">
        <ele>131.893551</ele>
        <time>2023-05-02T14:23:25.052Z</time>
      </trkpt>
      <trkpt lat="48.26374" lon="-3.60596">
        <ele>132.091257</ele>
        <time>2023-05-02T14:23:28.032Z</time>
      </trkpt>
      <trkpt lat="48.26364" lon="-3.60609">
        <ele>132.287949</ele>
        <time>2023-05-02T14:23:31.046Z</time>
      </trkpt>
      <trkpt lat="48.26355" lon="-3.60623">
        <ele>132.339837</ele>
        <time>2023-05-02T14:23:34.050Z</time>
      </trkpt>
      <trkpt lat="48.26345" lon="-3.60636">
        <ele>132.341078</ele>
        <time>2023-05-02T14:23:37.043Z</time>
      </trkpt>
      <trkpt lat="48.26338" lon="-3.60646">
        <ele>132.341953</ele>
        <time>2023-05-02T14:23:39.042Z</time>
      </trkpt>
      <trkpt lat="48.26328" lon="-3.60658">
        <ele>132.343195</ele>
        <time>2023-05-02T14:23:42.049Z</time>
      </trkpt>
      <trkpt lat="48.26318" lon="-3.6067">
        <ele>132.344421</ele>
        <time>2023-05-02T14:23:45.051Z</time>
      </trkpt>
      <trkpt lat="48.26307" lon="-3.60682">
        <ele>132.345681</ele>
        <time>2023-05-02T14:23:48.048Z</time>
      </trkpt>
      <trkpt lat="48.26297" lon="-3.60694">
        <ele>132.346964</ele>
        <time>2023-05-02T14:23:51.050Z</time>
      </trkpt>
      <trkpt lat="48.26289" lon="-3.60703">
        <ele>132.347833</ele>
        <time>2023-05-02T14:23:53.043Z</time>
      </trkpt>
      <trkpt lat="48.26282" lon="-3.60711">
        <ele>132.348713</ele>
        <time>2023-05-02T14:23:55.051Z</time>
      </trkpt>
      <trkpt lat="48.26271" lon="-3.60721">
        <ele>132.349941</ele>
        <time>2023-05-02T14:23:58.045Z</time>
      </trkpt>
      <trkpt lat="48.2626" lon="-3.60732">
        <ele>132.35115</ele>
        <time>2023-05-02T14:24:01.040Z</time>
      </trkpt>
      <trkpt lat="48.26252" lon="-3.60738">
        <ele>132.352011</ele>
        <time>2023-05-02T14:24:03.045Z</time>
      </trkpt>
      <trkpt lat="48.26241" lon="-3.60748">
        <ele>132.353275</ele>
        <time>2023-05-02T14:24:06.049Z</time>
      </trkpt>
      <trkpt lat="48.26233" lon="-3.60755">
        <ele>132.354165</ele>
        <time>2023-05-02T14:24:08.049Z</time>
      </trkpt>
      <trkpt lat="48.26221" lon="-3.60763">
        <ele>132.355382</ele>
        <time>2023-05-02T14:24:11.049Z</time>
      </trkpt>
      <trkpt lat="48.2621" lon="-3.6077">
        <ele>132.21119</ele>
        <time>2023-05-02T14:24:14.031Z</time>
      </trkpt>
      <trkpt lat="48.26198" lon="-3.60776">
        <ele>131.904866</ele>
        <time>2023-05-02T14:24:17.044Z</time>
      </trkpt>
      <trkpt lat="48.26185" lon="-3.60783">
        <ele>131.576506</ele>
        <time>2023-05-02T14:24:20.049Z</time>
      </trkpt>
      <trkpt lat="48.26173" lon="-3.60789">
        <ele>131.24963</ele>
        <time>2023-05-02T14:24:23.047Z</time>
      </trkpt>
      <trkpt lat="48.2616" lon="-3.60793">
        <ele>130.92523</ele>
        <time>2023-05-02T14:24:26.044Z</time>
      </trkpt>
      <trkpt lat="48.26151" lon="-3.60796">
        <ele>130.698894</ele>
        <time>2023-05-02T14:24:28.046Z</time>
      </trkpt>
      <trkpt lat="48.26137" lon="-3.608">
        <ele>130.36358</ele>
        <time>2023-05-02T14:24:31.047Z</time>
      </trkpt>
      <trkpt lat="48.26128" lon="-3.60802">
        <ele>130.13694</ele>
        <time>2023-05-02T14:24:33.045Z</time>
      </trkpt>
      <trkpt lat="48.26119" lon="-3.60804">
        <ele>129.913895</ele>
        <time>2023-05-02T14:24:35.061Z</time>
      </trkpt>
      <trkpt lat="48.2611" lon="-3.60805">
        <ele>129.684742</ele>
        <time>2023-05-02T14:24:37.043Z</time>
      </trkpt>
      <trkpt lat="48.261" lon="-3.60805">
        <ele>129.446178</ele>
        <time>2023-05-02T14:24:39.045Z</time>
      </trkpt>
      <trkpt lat="48.26089" lon="-3.60806">
        <ele>129.15802</ele>
        <time>2023-05-02T14:24:42.044Z</time>
      </trkpt>
      <trkpt lat="48.26078" lon="-3.60806">
        <ele>128.885076</ele>
        <time>2023-05-02T14:24:45.049Z</time>
      </trkpt>
      <trkpt lat="48.26067" lon="-3.60805">
        <ele>128.624247</ele>
        <time>2023-05-02T14:24:48.052Z</time>
      </trkpt>
      <trkpt lat="48.26057" lon="-3.60804">
        <ele>128.374842</ele>
        <time>2023-05-02T14:24:51.050Z</time>
      </trkpt>
      <trkpt lat="48.26047" lon="-3.60802">
        <ele>128.137152</ele>
        <time>2023-05-02T14:24:54.050Z</time>
      </trkpt>
      <trkpt lat="48.26038" lon="-3.60801">
        <ele>127.938879</ele>
        <time>2023-05-02T14:24:57.040Z</time>
      </trkpt>
      <trkpt lat="48.26027" lon="-3.60798">
        <ele>128.007388</ele>
        <time>2023-05-02T14:25:01.044Z</time>
      </trkpt>
      <trkpt lat="48.26015" lon="-3.60793">
        <ele>128.077821</ele>
        <time>2023-05-02T14:25:05.051Z</time>
      </trkpt>
      <trkpt lat="48.26006" lon="-3.60789">
        <ele>128.13219</ele>
        <time>2023-05-02T14:25:08.052Z</time>
      </trkpt>
      <trkpt lat="48.25997" lon="-3.60785">
        <ele>128.187009</ele>
        <time>2023-05-02T14:25:11.049Z</time>
      </trkpt>
      <trkpt lat="48.25987" lon="-3.60781">
        <ele>128.24942</ele>
        <time>2023-05-02T14:25:14.047Z</time>
      </trkpt>
      <trkpt lat="48.25977" lon="-3.60775">
        <ele>128.314194</ele>
        <time>2023-05-02T14:25:17.040Z</time>
      </trkpt>
      <trkpt lat="48.25967" lon="-3.60769">
        <ele>128.376643</ele>
        <time>2023-05-02T14:25:20.049Z</time>
      </trkpt>
      <trkpt lat="48.25958" lon="-3.60763">
        <ele>128.434824</ele>
        <time>2023-05-02T14:25:23.049Z</time>
      </trkpt>
      <trkpt lat="48.25949" lon="-3.60757">
        <ele>128.493158</ele>
        <time>2023-05-02T14:25:26.042Z</time>
      </trkpt>
      <trkpt lat="48.2594" lon="-3.60753">
        <ele>128.54854</ele>
        <time>2023-05-02T14:25:29.049Z</time>
      </trkpt>
      <trkpt lat="48.25932" lon="-3.60747">
        <ele>128.603795</ele>
        <time>2023-05-02T14:25:32.049Z</time>
      </trkpt>
      <trkpt lat="48.25923" lon="-3.60741">
        <ele>128.658026</ele>
        <time>2023-05-02T14:25:35.046Z</time>
      </trkpt>
      <trkpt lat="48.25914" lon="-3.60735">
        <ele>128.716991</ele>
        <time>2023-05-02T14:25:38.043Z</time>
      </trkpt>
      <trkpt lat="48.25906" lon="-3.60728">
        <ele>128.773802</ele>
        <time>2023-05-02T14:25:41.033Z</time>
      </trkpt>
      <trkpt lat="48.25897" lon="-3.60721">
        <ele>128.832381</ele>
        <time>2023-05-02T14:25:44.045Z</time>
      </trkpt>
      <trkpt lat="48.25887" lon="-3.60713">
        <ele>128.90065</ele>
        <time>2023-05-02T14:25:48.053Z</time>
      </trkpt>
      <trkpt lat="48.25878" lon="-3.60707">
        <ele>128.95623</ele>
        <time>2023-05-02T14:25:51.045Z</time>
      </trkpt>
      <trkpt lat="48.25869" lon="-3.607">
        <ele>128.964355</ele>
        <time>2023-05-02T14:25:54.046Z</time>
      </trkpt>
      <trkpt lat="48.2586" lon="-3.60693">
        <ele>128.883623</ele>
        <time>2023-05-02T14:25:57.037Z</time>
      </trkpt>
      <trkpt lat="48.2585" lon="-3.60686">
        <ele>128.803129</ele>
        <time>2023-05-02T14:26:00.049Z</time>
      </trkpt>
      <trkpt lat="48.25842" lon="-3.6068">
        <ele>128.728666</ele>
        <time>2023-05-02T14:26:03.043Z</time>
      </trkpt>
      <trkpt lat="48.25832" lon="-3.60674">
        <ele>128.648465</ele>
        <time>2023-05-02T14:26:06.047Z</time>
      </trkpt>
      <trkpt lat="48.25822" lon="-3.60666">
        <ele>128.561237</ele>
        <time>2023-05-02T14:26:09.038Z</time>
      </trkpt>
      <trkpt lat="48.25811" lon="-3.6066">
        <ele>128.471073</ele>
        <time>2023-05-02T14:26:12.043Z</time>
      </trkpt>
      <trkpt lat="48.258" lon="-3.60653">
        <ele>128.374508</ele>
        <time>2023-05-02T14:26:15.041Z</time>
      </trkpt>
      <trkpt lat="48.25788" lon="-3.60646">
        <ele>128.278266</ele>
        <time>2023-05-02T14:26:18.038Z</time>
      </trkpt>
      <trkpt lat="48.25776" lon="-3.60639">
        <ele>128.176267</ele>
        <time>2023-05-02T14:26:21.047Z</time>
      </trkpt>
      <trkpt lat="48.25767" lon="-3.60634">
        <ele>128.103228</ele>
        <time>2023-05-02T14:26:23.046Z</time>
      </trkpt>
      <trkpt lat="48.25758" lon="-3.6063">
        <ele>128.030932</ele>
        <time>2023-05-02T14:26:25.044Z</time>
      </trkpt>
      <trkpt lat="48.25745" lon="-3.60625">
        <ele>127.926103</ele>
        <time>2023-05-02T14:26:28.047Z</time>
      </trkpt>
      <trkpt lat="48.25733" lon="-3.60619">
        <ele>127.826376</ele>
        <time>2023-05-02T14:26:31.055Z</time>
      </trkpt>
      <trkpt lat="48.2572" lon="-3.60614">
        <ele>127.721942</ele>
        <time>2023-05-02T14:26:34.050Z</time>
      </trkpt>
      <trkpt lat="48.25707" lon="-3.60609">
        <ele>127.61819</ele>
        <time>2023-05-02T14:26:37.043Z</time>
      </trkpt>
      <trkpt lat="48.25694" lon="-3.60606">
        <ele>127.476633</ele>
        <time>2023-05-02T14:26:40.052Z</time>
      </trkpt>
      <trkpt lat="48.25685" lon="-3.60605">
        <ele>127.37465</ele>
        <time>2023-05-02T14:26:42.050Z</time>
      </trkpt>
      <trkpt lat="48.25676" lon="-3.60604">
        <ele>127.272559</ele>
        <time>2023-05-02T14:26:44.047Z</time>
      </trkpt>
      <trkpt lat="48.25667" lon="-3.60603">
        <ele>127.170729</ele>
        <time>2023-05-02T14:26:46.053Z</time>
      </trkpt>
      <trkpt lat="48.25657" lon="-3.60603">
        <ele>127.06447</ele>
        <time>2023-05-02T14:26:48.055Z</time>
      </trkpt>
      <trkpt lat="48.25648" lon="-3.60602">
        <ele>126.96034</ele>
        <time>2023-05-02T14:26:50.032Z</time>
      </trkpt>
      <trkpt lat="48.25639" lon="-3.60601">
        <ele>126.856211</ele>
        <time>2023-05-02T14:26:52.054Z</time>
      </trkpt>
      <trkpt lat="48.25629" lon="-3.60601">
        <ele>126.753233</ele>
        <time>2023-05-02T14:26:54.050Z</time>
      </trkpt>
      <trkpt lat="48.2562" lon="-3.60602">
        <ele>126.651199</ele>
        <time>2023-05-02T14:26:56.044Z</time>
      </trkpt>
      <trkpt lat="48.25608" lon="-3.60604">
        <ele>126.508321</ele>
        <time>2023-05-02T14:26:59.043Z</time>
      </trkpt>
      <trkpt lat="48.25596" lon="-3.60608">
        <ele>126.372426</ele>
        <time>2023-05-02T14:27:02.055Z</time>
      </trkpt>
      <trkpt lat="48.25585" lon="-3.60615">
        <ele>126.239859</ele>
        <time>2023-05-02T14:27:05.048Z</time>
      </trkpt>
      <trkpt lat="48.25574" lon="-3.60617">
        <ele>126.118986</ele>
        <time>2023-05-02T14:27:08.044Z</time>
      </trkpt>
      <trkpt lat="48.25565" lon="-3.60606">
        <ele>125.987891</ele>
        <time>2023-05-02T14:27:12.044Z</time>
      </trkpt>
      <trkpt lat="48.25558" lon="-3.60597">
        <ele>125.884553</ele>
        <time>2023-05-02T14:27:15.047Z</time>
      </trkpt>
      <trkpt lat="48.25547" lon="-3.60595">
        <ele>125.765998</ele>
        <time>2023-05-02T14:27:18.044Z</time>
      </trkpt>
      <trkpt lat="48.25535" lon="-3.60595">
        <ele>125.631773</ele>
        <time>2023-05-02T14:27:21.050Z</time>
      </trkpt>
      <trkpt lat="48.25523" lon="-3.60596">
        <ele>125.480976</ele>
        <time>2023-05-02T14:27:24.050Z</time>
      </trkpt>
      <trkpt lat="48.2551" lon="-3.60596">
        <ele>125.319008</ele>
        <time>2023-05-02T14:27:27.042Z</time>
      </trkpt>
      <trkpt lat="48.25497" lon="-3.60596">
        <ele>125.161952</ele>
        <time>2023-05-02T14:27:30.052Z</time>
      </trkpt>
      <trkpt lat="48.25484" lon="-3.60597">
        <ele>124.999883</ele>
        <time>2023-05-02T14:27:33.046Z</time>
      </trkpt>
      <trkpt lat="48.2547" lon="-3.60597">
        <ele>124.832939</ele>
        <time>2023-05-02T14:27:36.045Z</time>
      </trkpt>
      <trkpt lat="48.25457" lon="-3.60597">
        <ele>124.669703</ele>
        <time>2023-05-02T14:27:39.045Z</time>
      </trkpt>
      <trkpt lat="48.25444" lon="-3.60597">
        <ele>124.504019</ele>
        <time>2023-05-02T14:27:42.048Z</time>
      </trkpt>
      <trkpt lat="48.2543" lon="-3.60598">
        <ele>124.339505</ele>
        <time>2023-05-02T14:27:45.035Z</time>
      </trkpt>
      <trkpt lat="48.25417" lon="-3.60598">
        <ele>124.179993</ele>
        <time>2023-05-02T14:27:48.057Z</time>
      </trkpt>
      <trkpt lat="48.25404" lon="-3.60599">
        <ele>124.017857</ele>
        <time>2023-05-02T14:27:51.047Z</time>
      </trkpt>
      <trkpt lat="48.25392" lon="-3.606">
        <ele>123.865345</ele>
        <time>2023-05-02T14:27:54.049Z</time>
      </trkpt>
      <trkpt lat="48.2538" lon="-3.60601">
        <ele>123.716867</ele>
        <time>2023-05-02T14:27:57.042Z</time>
      </trkpt>
      <trkpt lat="48.25368" lon="-3.60602">
        <ele>123.573107</ele>
        <time>2023-05-02T14:28:00.050Z</time>
      </trkpt>
      <trkpt lat="48.25357" lon="-3.60602">
        <ele>123.434622</ele>
        <time>2023-05-02T14:28:03.038Z</time>
      </trkpt>
      <trkpt lat="48.25346" lon="-3.60602">
        <ele>123.354196</ele>
        <time>2023-05-02T14:28:06.049Z</time>
      </trkpt>
      <trkpt lat="48.25333" lon="-3.60602">
        <ele>123.3407</ele>
        <time>2023-05-02T14:28:09.050Z</time>
      </trkpt>
      <trkpt lat="48.2532" lon="-3.60602">
        <ele>123.326887</ele>
        <time>2023-05-02T14:28:12.046Z</time>
      </trkpt>
      <trkpt lat="48.25311" lon="-3.60603">
        <ele>123.316967</ele>
        <time>2023-05-02T14:28:14.048Z</time>
      </trkpt>
      <trkpt lat="48.25301" lon="-3.60603">
        <ele>123.307161</ele>
        <time>2023-05-02T14:28:16.049Z</time>
      </trkpt>
      <trkpt lat="48.25291" lon="-3.60604">
        <ele>123.296609</ele>
        <time>2023-05-02T14:28:18.043Z</time>
      </trkpt>
      <trkpt lat="48.25281" lon="-3.60604">
        <ele>123.285536</ele>
        <time>2023-05-02T14:28:20.060Z</time>
      </trkpt>
      <trkpt lat="48.25271" lon="-3.60606">
        <ele>123.275516</ele>
        <time>2023-05-02T14:28:22.049Z</time>
      </trkpt>
      <trkpt lat="48.25262" lon="-3.60607">
        <ele>123.265359</ele>
        <time>2023-05-02T14:28:24.042Z</time>
      </trkpt>
      <trkpt lat="48.25251" lon="-3.60609">
        <ele>123.25414</ele>
        <time>2023-05-02T14:28:26.049Z</time>
      </trkpt>
      <trkpt lat="48.25241" lon="-3.60611">
        <ele>123.243254</ele>
        <time>2023-05-02T14:28:28.054Z</time>
      </trkpt>
      <trkpt lat="48.25231" lon="-3.60613">
        <ele>123.232399</ele>
        <time>2023-05-02T14:28:30.058Z</time>
      </trkpt>
      <trkpt lat="48.25221" lon="-3.60616">
        <ele>123.221985</ele>
        <time>2023-05-02T14:28:32.047Z</time>
      </trkpt>
      <trkpt lat="48.25211" lon="-3.60618">
        <ele>123.210721</ele>
        <time>2023-05-02T14:28:34.049Z</time>
      </trkpt>
      <trkpt lat="48.25201" lon="-3.6062">
        <ele>123.200887</ele>
        <time>2023-05-02T14:28:36.033Z</time>
      </trkpt>
      <trkpt lat="48.25191" lon="-3.60622">
        <ele>123.190155</ele>
        <time>2023-05-02T14:28:38.061Z</time>
      </trkpt>
      <trkpt lat="48.25181" lon="-3.60625">
        <ele>123.179546</ele>
        <time>2023-05-02T14:28:40.050Z</time>
      </trkpt>
      <trkpt lat="48.25171" lon="-3.60628">
        <ele>123.169165</ele>
        <time>2023-05-02T14:28:42.050Z</time>
      </trkpt>
      <trkpt lat="48.2516" lon="-3.6063">
        <ele>123.162576</ele>
        <time>2023-05-02T14:28:44.045Z</time>
      </trkpt>
      <trkpt lat="48.2515" lon="-3.60633">
        <ele>123.156279</ele>
        <time>2023-05-02T14:28:46.044Z</time>
      </trkpt>
      <trkpt lat="48.25141" lon="-3.60636">
        <ele>123.150016</ele>
        <time>2023-05-02T14:28:48.044Z</time>
      </trkpt>
      <trkpt lat="48.25131" lon="-3.6064">
        <ele>123.143901</ele>
        <time>2023-05-02T14:28:50.052Z</time>
      </trkpt>
      <trkpt lat="48.25121" lon="-3.60642">
        <ele>123.137947</ele>
        <time>2023-05-02T14:28:52.053Z</time>
      </trkpt>
      <trkpt lat="48.25112" lon="-3.60645">
        <ele>123.132136</ele>
        <time>2023-05-02T14:28:54.049Z</time>
      </trkpt>
      <trkpt lat="48.25102" lon="-3.60648">
        <ele>123.125735</ele>
        <time>2023-05-02T14:28:56.041Z</time>
      </trkpt>
      <trkpt lat="48.25093" lon="-3.60651">
        <ele>123.119971</ele>
        <time>2023-05-02T14:28:58.038Z</time>
      </trkpt>
      <trkpt lat="48.25084" lon="-3.60654">
        <ele>123.114251</ele>
        <time>2023-05-02T14:29:00.051Z</time>
      </trkpt>
      <trkpt lat="48.25074" lon="-3.60657">
        <ele>123.108356</ele>
        <time>2023-05-02T14:29:02.052Z</time>
      </trkpt>
      <trkpt lat="48.25064" lon="-3.6066">
        <ele>123.101742</ele>
        <time>2023-05-02T14:29:04.045Z</time>
      </trkpt>
      <trkpt lat="48.25054" lon="-3.60663">
        <ele>123.09553</ele>
        <time>2023-05-02T14:29:06.043Z</time>
      </trkpt>
      <trkpt lat="48.25043" lon="-3.60667">
        <ele>123.088846</ele>
        <time>2023-05-02T14:29:08.048Z</time>
      </trkpt>
      <trkpt lat="48.25033" lon="-3.60672">
        <ele>123.082146</ele>
        <time>2023-05-02T14:29:10.043Z</time>
      </trkpt>
      <trkpt lat="48.25022" lon="-3.60676">
        <ele>123.075366</ele>
        <time>2023-05-02T14:29:12.080Z</time>
      </trkpt>
      <trkpt lat="48.25011" lon="-3.60679">
        <ele>123.068554</ele>
        <time>2023-05-02T14:29:14.046Z</time>
      </trkpt>
      <trkpt lat="48.25002" lon="-3.60686">
        <ele>123.062239</ele>
        <time>2023-05-02T14:29:16.047Z</time>
      </trkpt>
      <trkpt lat="48.24992" lon="-3.60691">
        <ele>123.038244</ele>
        <time>2023-05-02T14:29:18.043Z</time>
      </trkpt>
      <trkpt lat="48.24983" lon="-3.60696">
        <ele>123.004342</ele>
        <time>2023-05-02T14:29:20.047Z</time>
      </trkpt>
      <trkpt lat="48.24974" lon="-3.60703">
        <ele>122.969584</ele>
        <time>2023-05-02T14:29:22.063Z</time>
      </trkpt>
      <trkpt lat="48.24965" lon="-3.60708">
        <ele>122.937479</ele>
        <time>2023-05-02T14:29:24.044Z</time>
      </trkpt>
      <trkpt lat="48.24953" lon="-3.60715">
        <ele>122.890495</ele>
        <time>2023-05-02T14:29:27.060Z</time>
      </trkpt>
      <trkpt lat="48.24944" lon="-3.60721">
        <ele>122.855165</ele>
        <time>2023-05-02T14:29:29.049Z</time>
      </trkpt>
      <trkpt lat="48.24934" lon="-3.60726">
        <ele>122.82118</ele>
        <time>2023-05-02T14:29:31.051Z</time>
      </trkpt>
      <trkpt lat="48.24926" lon="-3.60733">
        <ele>122.787256</ele>
        <time>2023-05-02T14:29:33.058Z</time>
      </trkpt>
      <trkpt lat="48.24917" lon="-3.6074">
        <ele>122.752584</ele>
        <time>2023-05-02T14:29:35.049Z</time>
      </trkpt>
      <trkpt lat="48.24908" lon="-3.60747">
        <ele>122.715648</ele>
        <time>2023-05-02T14:29:37.044Z</time>
      </trkpt>
      <trkpt lat="48.24898" lon="-3.60754">
        <ele>122.679233</ele>
        <time>2023-05-02T14:29:39.040Z</time>
      </trkpt>
      <trkpt lat="48.24889" lon="-3.60762">
        <ele>122.642053</ele>
        <time>2023-05-02T14:29:41.049Z</time>
      </trkpt>
      <trkpt lat="48.2488" lon="-3.6077">
        <ele>122.604946</ele>
        <time>2023-05-02T14:29:43.051Z</time>
      </trkpt>
      <trkpt lat="48.24871" lon="-3.60779">
        <ele>122.568969</ele>
        <time>2023-05-02T14:29:45.047Z</time>
      </trkpt>
      <trkpt lat="48.24863" lon="-3.60787">
        <ele>122.534126</ele>
        <time>2023-05-02T14:29:47.042Z</time>
      </trkpt>
      <trkpt lat="48.24855" lon="-3.60795">
        <ele>122.499767</ele>
        <time>2023-05-02T14:29:49.051Z</time>
      </trkpt>
      <trkpt lat="48.24845" lon="-3.60802">
        <ele>122.463339</ele>
        <time>2023-05-02T14:29:51.055Z</time>
      </trkpt>
      <trkpt lat="48.24837" lon="-3.60811">
        <ele>122.438351</ele>
        <time>2023-05-02T14:29:53.049Z</time>
      </trkpt>
      <trkpt lat="48.24829" lon="-3.60819">
        <ele>122.550182</ele>
        <time>2023-05-02T14:29:55.050Z</time>
      </trkpt>
      <trkpt lat="48.24822" lon="-3.60828">
        <ele>122.654385</ele>
        <time>2023-05-02T14:29:57.042Z</time>
      </trkpt>
      <trkpt lat="48.24815" lon="-3.60836">
        <ele>122.753297</ele>
        <time>2023-05-02T14:29:59.040Z</time>
      </trkpt>
      <trkpt lat="48.24805" lon="-3.60846">
        <ele>122.886027</ele>
        <time>2023-05-02T14:30:02.051Z</time>
      </trkpt>
      <trkpt lat="48.24795" lon="-3.60857">
        <ele>123.022165</ele>
        <time>2023-05-02T14:30:05.050Z</time>
      </trkpt>
      <trkpt lat="48.24785" lon="-3.60868">
        <ele>123.163173</ele>
        <time>2023-05-02T14:30:08.046Z</time>
      </trkpt>
      <trkpt lat="48.24774" lon="-3.6088">
        <ele>123.304201</ele>
        <time>2023-05-02T14:30:11.045Z</time>
      </trkpt>
      <trkpt lat="48.24764" lon="-3.60892">
        <ele>123.446697</ele>
        <time>2023-05-02T14:30:14.047Z</time>
      </trkpt>
      <trkpt lat="48.24754" lon="-3.60904">
        <ele>123.590049</ele>
        <time>2023-05-02T14:30:17.040Z</time>
      </trkpt>
      <trkpt lat="48.24744" lon="-3.60916">
        <ele>123.731949</ele>
        <time>2023-05-02T14:30:20.053Z</time>
      </trkpt>
      <trkpt lat="48.24734" lon="-3.60928">
        <ele>123.875647</ele>
        <time>2023-05-02T14:30:23.043Z</time>
      </trkpt>
      <trkpt lat="48.24723" lon="-3.60938">
        <ele>124.017688</ele>
        <time>2023-05-02T14:30:26.042Z</time>
      </trkpt>
      <trkpt lat="48.24712" lon="-3.60948">
        <ele>124.157455</ele>
        <time>2023-05-02T14:30:29.043Z</time>
      </trkpt>
      <trkpt lat="48.247" lon="-3.60956">
        <ele>124.303565</ele>
        <time>2023-05-02T14:30:32.050Z</time>
      </trkpt>
      <trkpt lat="48.24692" lon="-3.60961">
        <ele>124.40514</ele>
        <time>2023-05-02T14:30:34.049Z</time>
      </trkpt>
      <trkpt lat="48.24683" lon="-3.60965">
        <ele>124.531895</ele>
        <time>2023-05-02T14:30:36.044Z</time>
      </trkpt>
      <trkpt lat="48.24675" lon="-3.60969">
        <ele>124.663804</ele>
        <time>2023-05-02T14:30:38.047Z</time>
      </trkpt>
      <trkpt lat="48.24662" lon="-3.60972">
        <ele>124.855662</ele>
        <time>2023-05-02T14:30:41.047Z</time>
      </trkpt>
      <trkpt lat="48.24653" lon="-3.60974">
        <ele>124.988271</ele>
        <time>2023-05-02T14:30:43.031Z</time>
      </trkpt>
      <trkpt lat="48.24639" lon="-3.60973">
        <ele>125.181541</ele>
        <time>2023-05-02T14:30:46.040Z</time>
      </trkpt>
      <trkpt lat="48.24627" lon="-3.60971">
        <ele>125.364943</ele>
        <time>2023-05-02T14:30:49.065Z</time>
      </trkpt>
      <trkpt lat="48.24615" lon="-3.60966">
        <ele>125.55123</ele>
        <time>2023-05-02T14:30:52.050Z</time>
      </trkpt>
      <trkpt lat="48.24603" lon="-3.60958">
        <ele>125.732964</ele>
        <time>2023-05-02T14:30:55.043Z</time>
      </trkpt>
      <trkpt lat="48.24594" lon="-3.60952">
        <ele>125.88385</ele>
        <time>2023-05-02T14:30:58.042Z</time>
      </trkpt>
      <trkpt lat="48.24586" lon="-3.60943">
        <ele>126.03291</ele>
        <time>2023-05-02T14:31:01.044Z</time>
      </trkpt>
      <trkpt lat="48.24577" lon="-3.60932">
        <ele>126.202478</ele>
        <time>2023-05-02T14:31:04.044Z</time>
      </trkpt>
      <trkpt lat="48.24568" lon="-3.60918">
        <ele>126.389193</ele>
        <time>2023-05-02T14:31:07.049Z</time>
      </trkpt>
      <trkpt lat="48.2456" lon="-3.60904">
        <ele>126.568789</ele>
        <time>2023-05-02T14:31:10.046Z</time>
      </trkpt>
      <trkpt lat="48.24553" lon="-3.60888">
        <ele>126.751253</ele>
        <time>2023-05-02T14:31:13.046Z</time>
      </trkpt>
      <trkpt lat="48.24547" lon="-3.60871">
        <ele>126.937805</ele>
        <time>2023-05-02T14:31:16.032Z</time>
      </trkpt>
      <trkpt lat="48.24542" lon="-3.60854">
        <ele>127.081949</ele>
        <time>2023-05-02T14:31:19.038Z</time>
      </trkpt>
      <trkpt lat="48.24537" lon="-3.60836">
        <ele>127.161643</ele>
        <time>2023-05-02T14:31:22.048Z</time>
      </trkpt>
      <trkpt lat="48.24531" lon="-3.60819">
        <ele>127.237805</ele>
        <time>2023-05-02T14:31:25.029Z</time>
      </trkpt>
      <trkpt lat="48.24525" lon="-3.60801">
        <ele>127.317038</ele>
        <time>2023-05-02T14:31:28.051Z</time>
      </trkpt>
      <trkpt lat="48.2452" lon="-3.60782">
        <ele>127.397983</ele>
        <time>2023-05-02T14:31:31.050Z</time>
      </trkpt>
      <trkpt lat="48.24517" lon="-3.60769">
        <ele>127.452402</ele>
        <time>2023-05-02T14:31:33.048Z</time>
      </trkpt>
      <trkpt lat="48.24513" lon="-3.60756">
        <ele>127.508364</ele>
        <time>2023-05-02T14:31:35.043Z</time>
      </trkpt>
      <trkpt lat="48.24509" lon="-3.60744">
        <ele>127.563657</ele>
        <time>2023-05-02T14:31:37.040Z</time>
      </trkpt>
      <trkpt lat="48.24504" lon="-3.60727">
        <ele>127.637191</ele>
        <time>2023-05-02T14:31:40.039Z</time>
      </trkpt>
      <trkpt lat="48.24498" lon="-3.60711">
        <ele>127.708783</ele>
        <time>2023-05-02T14:31:43.043Z</time>
      </trkpt>
      <trkpt lat="48.24493" lon="-3.60696">
        <ele>127.777954</ele>
        <time>2023-05-02T14:31:46.048Z</time>
      </trkpt>
      <trkpt lat="48.24489" lon="-3.60681">
        <ele>127.842225</ele>
        <time>2023-05-02T14:31:49.050Z</time>
      </trkpt>
      <trkpt lat="48.24483" lon="-3.60665">
        <ele>127.914629</ele>
        <time>2023-05-02T14:31:52.048Z</time>
      </trkpt>
      <trkpt lat="48.24478" lon="-3.60647">
        <ele>127.991192</ele>
        <time>2023-05-02T14:31:55.046Z</time>
      </trkpt>
      <trkpt lat="48.24474" lon="-3.60634">
        <ele>128.049034</ele>
        <time>2023-05-02T14:31:57.036Z</time>
      </trkpt>
      <trkpt lat="48.24469" lon="-3.60616">
        <ele>128.126643</ele>
        <time>2023-05-02T14:32:00.044Z</time>
      </trkpt>
      <trkpt lat="48.24464" lon="-3.60597">
        <ele>127.986257</ele>
        <time>2023-05-02T14:32:03.046Z</time>
      </trkpt>
      <trkpt lat="48.2446" lon="-3.60585">
        <ele>127.879459</ele>
        <time>2023-05-02T14:32:05.046Z</time>
      </trkpt>
      <trkpt lat="48.24454" lon="-3.60568">
        <ele>127.730582</ele>
        <time>2023-05-02T14:32:08.045Z</time>
      </trkpt>
      <trkpt lat="48.2445" lon="-3.60555">
        <ele>127.619427</ele>
        <time>2023-05-02T14:32:10.050Z</time>
      </trkpt>
      <trkpt lat="48.24444" lon="-3.60537">
        <ele>127.465795</ele>
        <time>2023-05-02T14:32:13.049Z</time>
      </trkpt>
      <trkpt lat="48.24439" lon="-3.60525">
        <ele>127.36109</ele>
        <time>2023-05-02T14:32:15.047Z</time>
      </trkpt>
      <trkpt lat="48.24435" lon="-3.60512">
        <ele>127.251904</ele>
        <time>2023-05-02T14:32:17.042Z</time>
      </trkpt>
      <trkpt lat="48.2443" lon="-3.60499">
        <ele>127.138447</ele>
        <time>2023-05-02T14:32:19.023Z</time>
      </trkpt>
      <trkpt lat="48.24426" lon="-3.60487">
        <ele>127.032743</ele>
        <time>2023-05-02T14:32:21.022Z</time>
      </trkpt>
      <trkpt lat="48.24421" lon="-3.60476">
        <ele>126.926902</ele>
        <time>2023-05-02T14:32:23.027Z</time>
      </trkpt>
      <trkpt lat="48.24415" lon="-3.60459">
        <ele>126.779025</ele>
        <time>2023-05-02T14:32:26.030Z</time>
      </trkpt>
      <trkpt lat="48.24408" lon="-3.60442">
        <ele>126.630473</ele>
        <time>2023-05-02T14:32:29.040Z</time>
      </trkpt>
      <trkpt lat="48.24403" lon="-3.6043">
        <ele>126.526909</ele>
        <time>2023-05-02T14:32:31.038Z</time>
      </trkpt>
      <trkpt lat="48.24398" lon="-3.60418">
        <ele>126.41721</ele>
        <time>2023-05-02T14:32:33.042Z</time>
      </trkpt>
      <trkpt lat="48.24392" lon="-3.60401">
        <ele>126.263443</ele>
        <time>2023-05-02T14:32:36.040Z</time>
      </trkpt>
      <trkpt lat="48.24385" lon="-3.60385">
        <ele>126.120032</ele>
        <time>2023-05-02T14:32:39.042Z</time>
      </trkpt>
      <trkpt lat="48.24378" lon="-3.60372">
        <ele>126.051898</ele>
        <time>2023-05-02T14:32:42.041Z</time>
      </trkpt>
      <trkpt lat="48.24372" lon="-3.60358">
        <ele>126.03404</ele>
        <time>2023-05-02T14:32:45.041Z</time>
      </trkpt>
      <trkpt lat="48.24366" lon="-3.60345">
        <ele>126.01752</ele>
        <time>2023-05-02T14:32:48.049Z</time>
      </trkpt>
      <trkpt lat="48.2436" lon="-3.60334">
        <ele>126.001812</ele>
        <time>2023-05-02T14:32:51.046Z</time>
      </trkpt>
      <trkpt lat="48.24354" lon="-3.60321">
        <ele>125.984845</ele>
        <time>2023-05-02T14:32:54.039Z</time>
      </trkpt>
      <trkpt lat="48.24347" lon="-3.60309">
        <ele>125.967877</ele>
        <time>2023-05-02T14:32:57.037Z</time>
      </trkpt>
      <trkpt lat="48.2434" lon="-3.60298">
        <ele>125.950853</ele>
        <time>2023-05-02T14:33:00.034Z</time>
      </trkpt>
      <trkpt lat="48.24333" lon="-3.60285">
        <ele>125.933133</ele>
        <time>2023-05-02T14:33:03.041Z</time>
      </trkpt>
      <trkpt lat="48.24327" lon="-3.60274">
        <ele>125.917081</ele>
        <time>2023-05-02T14:33:06.039Z</time>
      </trkpt>
      <trkpt lat="48.2432" lon="-3.60264">
        <ele>125.902086</ele>
        <time>2023-05-02T14:33:09.041Z</time>
      </trkpt>
      <trkpt lat="48.24313" lon="-3.6025">
        <ele>125.882578</ele>
        <time>2023-05-02T14:33:13.034Z</time>
      </trkpt>
      <trkpt lat="48.24307" lon="-3.60239">
        <ele>125.867646</ele>
        <time>2023-05-02T14:33:16.040Z</time>
      </trkpt>
      <trkpt lat="48.24205" lon="-3.60166">
        <ele>125.140367</ele>
        <time>2023-05-02T14:36:34.053Z</time>
      </trkpt>
      <trkpt lat="48.24199" lon="-3.60152">
        <ele>125.008254</ele>
        <time>2023-05-02T14:36:36.061Z</time>
      </trkpt>
      <trkpt lat="48.24194" lon="-3.60139">
        <ele>124.890715</ele>
        <time>2023-05-02T14:36:38.061Z</time>
      </trkpt>
      <trkpt lat="48.24188" lon="-3.60125">
        <ele>124.754631</ele>
        <time>2023-05-02T14:36:41.046Z</time>
      </trkpt>
      <trkpt lat="48.24184" lon="-3.60112">
        <ele>124.636057</ele>
        <time>2023-05-02T14:36:45.054Z</time>
      </trkpt>
      <trkpt lat="48.24179" lon="-3.60093">
        <ele>124.47789</ele>
        <time>2023-05-02T14:37:27.040Z</time>
      </trkpt>
      <trkpt lat="48.24174" lon="-3.60083">
        <ele>124.368983</ele>
        <time>2023-05-02T14:38:18.049Z</time>
      </trkpt>
      <trkpt lat="48.24179" lon="-3.60071">
        <ele>124.254622</ele>
        <time>2023-05-02T14:39:33.046Z</time>
      </trkpt>
      <trkpt lat="48.24178" lon="-3.60057">
        <ele>124.137737</ele>
        <time>2023-05-02T14:39:50.036Z</time>
      </trkpt>
      <trkpt lat="48.24185" lon="-3.60028">
        <ele>123.901759</ele>
        <time>2023-05-02T14:40:23.036Z</time>
      </trkpt>
      <trkpt lat="48.24187" lon="-3.60011">
        <ele>123.760889</ele>
        <time>2023-05-02T14:40:26.050Z</time>
      </trkpt>
      <trkpt lat="48.24191" lon="-3.59995">
        <ele>123.621564</ele>
        <time>2023-05-02T14:40:30.047Z</time>
      </trkpt>
      <trkpt lat="48.24197" lon="-3.59981">
        <ele>123.748321</ele>
        <time>2023-05-02T14:40:34.045Z</time>
      </trkpt>
      <trkpt lat="48.24203" lon="-3.59969">
        <ele>123.874516</ele>
        <time>2023-05-02T14:40:37.043Z</time>
      </trkpt>
      <trkpt lat="48.24211" lon="-3.59955">
        <ele>124.024343</ele>
        <time>2023-05-02T14:40:40.050Z</time>
      </trkpt>
      <trkpt lat="48.24219" lon="-3.59942">
        <ele>124.171773</ele>
        <time>2023-05-02T14:40:43.039Z</time>
      </trkpt>
      <trkpt lat="48.24225" lon="-3.59928">
        <ele>124.311032</ele>
        <time>2023-05-02T14:40:46.045Z</time>
      </trkpt>
      <trkpt lat="48.24231" lon="-3.59917">
        <ele>124.432511</ele>
        <time>2023-05-02T14:40:49.032Z</time>
      </trkpt>
      <trkpt lat="48.24238" lon="-3.59904">
        <ele>124.566081</ele>
        <time>2023-05-02T14:40:53.046Z</time>
      </trkpt>
      <trkpt lat="48.24245" lon="-3.59892">
        <ele>124.698217</ele>
        <time>2023-05-02T14:40:57.046Z</time>
      </trkpt>
      <trkpt lat="48.24251" lon="-3.59878">
        <ele>124.839494</ele>
        <time>2023-05-02T14:41:01.044Z</time>
      </trkpt>
      <trkpt lat="48.24258" lon="-3.59867">
        <ele>124.963826</ele>
        <time>2023-05-02T14:41:05.057Z</time>
      </trkpt>
      <trkpt lat="48.24264" lon="-3.59854">
        <ele>125.099859</ele>
        <time>2023-05-02T14:41:09.044Z</time>
      </trkpt>
      <trkpt lat="48.2427" lon="-3.59842">
        <ele>125.221704</ele>
        <time>2023-05-02T14:41:13.044Z</time>
      </trkpt>
      <trkpt lat="48.24275" lon="-3.5983">
        <ele>125.338033</ele>
        <time>2023-05-02T14:41:17.045Z</time>
      </trkpt>
      <trkpt lat="48.24283" lon="-3.59817">
        <ele>125.486146</ele>
        <time>2023-05-02T14:41:21.045Z</time>
      </trkpt>
      <trkpt lat="48.2429" lon="-3.59803">
        <ele>125.629502</ele>
        <time>2023-05-02T14:41:25.051Z</time>
      </trkpt>
      <trkpt lat="48.24295" lon="-3.59789">
        <ele>125.762521</ele>
        <time>2023-05-02T14:41:29.041Z</time>
      </trkpt>
      <trkpt lat="48.24301" lon="-3.59776">
        <ele>125.820542</ele>
        <time>2023-05-02T14:41:34.054Z</time>
      </trkpt>
      <trkpt lat="48.24308" lon="-3.59764">
        <ele>125.638884</ele>
        <time>2023-05-02T14:41:39.050Z</time>
      </trkpt>
      <trkpt lat="48.24313" lon="-3.59752">
        <ele>125.474807</ele>
        <time>2023-05-02T14:41:43.046Z</time>
      </trkpt>
      <trkpt lat="48.24319" lon="-3.59738">
        <ele>125.276948</ele>
        <time>2023-05-02T14:41:48.042Z</time>
      </trkpt>
      <trkpt lat="48.24324" lon="-3.59726">
        <ele>125.115867</ele>
        <time>2023-05-02T14:41:51.040Z</time>
      </trkpt>
      <trkpt lat="48.24326" lon="-3.59712">
        <ele>124.950283</ele>
        <time>2023-05-02T14:41:54.048Z</time>
      </trkpt>
      <trkpt lat="48.24329" lon="-3.59698">
        <ele>124.784451</ele>
        <time>2023-05-02T14:41:57.043Z</time>
      </trkpt>
      <trkpt lat="48.24331" lon="-3.59683">
        <ele>124.610305</ele>
        <time>2023-05-02T14:42:00.035Z</time>
      </trkpt>
      <trkpt lat="48.24332" lon="-3.59669">
        <ele>124.442597</ele>
        <time>2023-05-02T14:42:03.040Z</time>
      </trkpt>
      <trkpt lat="48.24332" lon="-3.59655">
        <ele>124.281814</ele>
        <time>2023-05-02T14:42:06.048Z</time>
      </trkpt>
      <trkpt lat="48.24334" lon="-3.59641">
        <ele>124.117201</ele>
        <time>2023-05-02T14:42:09.041Z</time>
      </trkpt>
      <trkpt lat="48.24334" lon="-3.59626">
        <ele>123.943868</ele>
        <time>2023-05-02T14:42:12.055Z</time>
      </trkpt>
      <trkpt lat="48.24335" lon="-3.59611">
        <ele>123.761521</ele>
        <time>2023-05-02T14:42:16.038Z</time>
      </trkpt>
      <trkpt lat="48.24335" lon="-3.59595">
        <ele>123.579264</ele>
        <time>2023-05-02T14:42:20.044Z</time>
      </trkpt>
      <trkpt lat="48.24336" lon="-3.59578">
        <ele>123.388304</ele>
        <time>2023-05-02T14:42:24.039Z</time>
      </trkpt>
      <trkpt lat="48.24337" lon="-3.59563">
        <ele>123.208541</ele>
        <time>2023-05-02T14:42:28.046Z</time>
      </trkpt>
      <trkpt lat="48.24338" lon="-3.59548">
        <ele>123.029465</ele>
        <time>2023-05-02T14:42:34.030Z</time>
      </trkpt>
      <trkpt lat="48.24339" lon="-3.59532">
        <ele>122.842575</ele>
        <time>2023-05-02T14:42:40.039Z</time>
      </trkpt>
      <trkpt lat="48.24338" lon="-3.59516">
        <ele>122.754344</ele>
        <time>2023-05-02T14:42:45.051Z</time>
      </trkpt>
      <trkpt lat="48.24338" lon="-3.59501">
        <ele>122.814322</ele>
        <time>2023-05-02T14:42:50.049Z</time>
      </trkpt>
      <trkpt lat="48.2434" lon="-3.59485">
        <ele>122.877812</ele>
        <time>2023-05-02T14:42:55.042Z</time>
      </trkpt>
      <trkpt lat="48.24341" lon="-3.59471">
        <ele>122.935601</ele>
        <time>2023-05-02T14:42:59.042Z</time>
      </trkpt>
      <trkpt lat="48.24342" lon="-3.59456">
        <ele>122.992908</ele>
        <time>2023-05-02T14:43:03.039Z</time>
      </trkpt>
      <trkpt lat="48.24343" lon="-3.59441">
        <ele>123.054761</ele>
        <time>2023-05-02T14:43:07.040Z</time>
      </trkpt>
      <trkpt lat="48.24343" lon="-3.59426">
        <ele>123.113342</ele>
        <time>2023-05-02T14:43:11.043Z</time>
      </trkpt>
      <trkpt lat="48.24345" lon="-3.5941">
        <ele>123.176426</ele>
        <time>2023-05-02T14:43:16.046Z</time>
      </trkpt>
      <trkpt lat="48.24345" lon="-3.59395">
        <ele>123.23881</ele>
        <time>2023-05-02T14:43:20.049Z</time>
      </trkpt>
      <trkpt lat="48.24345" lon="-3.59379">
        <ele>123.29958</ele>
        <time>2023-05-02T14:43:24.049Z</time>
      </trkpt>
      <trkpt lat="48.24345" lon="-3.59366">
        <ele>123.353363</ele>
        <time>2023-05-02T14:43:28.045Z</time>
      </trkpt>
      <trkpt lat="48.24346" lon="-3.59351">
        <ele>123.412391</ele>
        <time>2023-05-02T14:43:32.047Z</time>
      </trkpt>
      <trkpt lat="48.24346" lon="-3.59334">
        <ele>123.479129</ele>
        <time>2023-05-02T14:43:36.031Z</time>
      </trkpt>
      <trkpt lat="48.24346" lon="-3.59319">
        <ele>123.541499</ele>
        <time>2023-05-02T14:43:40.044Z</time>
      </trkpt>
      <trkpt lat="48.24347" lon="-3.59304">
        <ele>123.598375</ele>
        <time>2023-05-02T14:43:44.045Z</time>
      </trkpt>
      <trkpt lat="48.24348" lon="-3.59289">
        <ele>123.660965</ele>
        <time>2023-05-02T14:43:49.058Z</time>
      </trkpt>
      <trkpt lat="48.24349" lon="-3.59273">
        <ele>123.724986</ele>
        <time>2023-05-02T14:43:54.047Z</time>
      </trkpt>
      <trkpt lat="48.24349" lon="-3.59258">
        <ele>123.784242</ele>
        <time>2023-05-02T14:43:59.045Z</time>
      </trkpt>
      <trkpt lat="48.2435" lon="-3.59242">
        <ele>123.865551</ele>
        <time>2023-05-02T14:44:04.033Z</time>
      </trkpt>
      <trkpt lat="48.24351" lon="-3.59227">
        <ele>123.94487</ele>
        <time>2023-05-02T14:44:08.035Z</time>
      </trkpt>
      <trkpt lat="48.24354" lon="-3.59212">
        <ele>124.033569</ele>
        <time>2023-05-02T14:44:12.041Z</time>
      </trkpt>
      <trkpt lat="48.24356" lon="-3.59197">
        <ele>124.116942</ele>
        <time>2023-05-02T14:44:16.039Z</time>
      </trkpt>
      <trkpt lat="48.2436" lon="-3.59184">
        <ele>124.194936</ele>
        <time>2023-05-02T14:44:20.054Z</time>
      </trkpt>
      <trkpt lat="48.24366" lon="-3.59171">
        <ele>124.282708</ele>
        <time>2023-05-02T14:44:25.056Z</time>
      </trkpt>
      <trkpt lat="48.24372" lon="-3.5916">
        <ele>124.357866</ele>
        <time>2023-05-02T14:44:29.035Z</time>
      </trkpt>
      <trkpt lat="48.2438" lon="-3.5915">
        <ele>124.441403</ele>
        <time>2023-05-02T14:44:33.042Z</time>
      </trkpt>
      <trkpt lat="48.24388" lon="-3.59143">
        <ele>124.517627</ele>
        <time>2023-05-02T14:44:37.036Z</time>
      </trkpt>
      <trkpt lat="48.24397" lon="-3.59138">
        <ele>124.601657</ele>
        <time>2023-05-02T14:44:41.035Z</time>
      </trkpt>
      <trkpt lat="48.24407" lon="-3.59133">
        <ele>124.683815</ele>
        <time>2023-05-02T14:44:45.049Z</time>
      </trkpt>
      <trkpt lat="48.24418" lon="-3.59128">
        <ele>124.779701</ele>
        <time>2023-05-02T14:44:50.040Z</time>
      </trkpt>
      <trkpt lat="48.24428" lon="-3.59127">
        <ele>124.86168</ele>
        <time>2023-05-02T14:44:54.036Z</time>
      </trkpt>
      <trkpt lat="48.24437" lon="-3.59126">
        <ele>124.938938</ele>
        <time>2023-05-02T14:44:57.036Z</time>
      </trkpt>
      <trkpt lat="48.24448" lon="-3.59126">
        <ele>125.030935</ele>
        <time>2023-05-02T14:45:01.037Z</time>
      </trkpt>
      <trkpt lat="48.24458" lon="-3.59127">
        <ele>125.113119</ele>
        <time>2023-05-02T14:45:06.044Z</time>
      </trkpt>
      <trkpt lat="48.2447" lon="-3.59128">
        <ele>125.20967</ele>
        <time>2023-05-02T14:45:11.047Z</time>
      </trkpt>
      <trkpt lat="48.2448" lon="-3.59129">
        <ele>125.295917</ele>
        <time>2023-05-02T14:45:15.045Z</time>
      </trkpt>
      <trkpt lat="48.24491" lon="-3.59129">
        <ele>125.416508</ele>
        <time>2023-05-02T14:45:19.042Z</time>
      </trkpt>
      <trkpt lat="48.24502" lon="-3.59129">
        <ele>125.545088</ele>
        <time>2023-05-02T14:45:24.044Z</time>
      </trkpt>
      <trkpt lat="48.24514" lon="-3.5913">
        <ele>125.672622</ele>
        <time>2023-05-02T14:45:28.043Z</time>
      </trkpt>
      <trkpt lat="48.24523" lon="-3.59131">
        <ele>125.776373</ele>
        <time>2023-05-02T14:45:31.044Z</time>
      </trkpt>
      <trkpt lat="48.24532" lon="-3.59132">
        <ele>125.88466</ele>
        <time>2023-05-02T14:45:35.049Z</time>
      </trkpt>
      <trkpt lat="48.24541" lon="-3.59134">
        <ele>125.987277</ele>
        <time>2023-05-02T14:45:39.042Z</time>
      </trkpt>
      <trkpt lat="48.24552" lon="-3.59135">
        <ele>126.105064</ele>
        <time>2023-05-02T14:45:43.037Z</time>
      </trkpt>
      <trkpt lat="48.24562" lon="-3.59137">
        <ele>126.22152</ele>
        <time>2023-05-02T14:45:47.046Z</time>
      </trkpt>
      <trkpt lat="48.24571" lon="-3.59137">
        <ele>126.325306</ele>
        <time>2023-05-02T14:45:52.044Z</time>
      </trkpt>
      <trkpt lat="48.24581" lon="-3.59137">
        <ele>126.434616</ele>
        <time>2023-05-02T14:45:56.037Z</time>
      </trkpt>
      <trkpt lat="48.2459" lon="-3.59136">
        <ele>126.542239</ele>
        <time>2023-05-02T14:46:00.050Z</time>
      </trkpt>
      <trkpt lat="48.24599" lon="-3.5913">
        <ele>126.650109</ele>
        <time>2023-05-02T14:46:04.029Z</time>
      </trkpt>
      <trkpt lat="48.24607" lon="-3.59124">
        <ele>126.751885</ele>
        <time>2023-05-02T14:46:08.054Z</time>
      </trkpt>
      <trkpt lat="48.24615" lon="-3.59117">
        <ele>126.858319</ele>
        <time>2023-05-02T14:46:13.050Z</time>
      </trkpt>
      <trkpt lat="48.24882" lon="-3.57245">
        <ele>127.389406</ele>
        <time>2023-05-02T15:04:18.017Z</time>
      </trkpt>
      <trkpt lat="48.2488" lon="-3.57229">
        <ele>127.562244</ele>
        <time>2023-05-02T15:04:47.027Z</time>
      </trkpt>
      <trkpt lat="48.24883" lon="-3.57215">
        <ele>127.705394</ele>
        <time>2023-05-02T15:04:50.034Z</time>
      </trkpt>
      <trkpt lat="48.24884" lon="-3.57198">
        <ele>127.886131</ele>
        <time>2023-05-02T15:04:54.042Z</time>
      </trkpt>
      <trkpt lat="48.24887" lon="-3.57181">
        <ele>128.080968</ele>
        <time>2023-05-02T15:04:58.042Z</time>
      </trkpt>
      <trkpt lat="48.2489" lon="-3.57166">
        <ele>128.254079</ele>
        <time>2023-05-02T15:05:02.031Z</time>
      </trkpt>
      <trkpt lat="48.24893" lon="-3.57147">
        <ele>128.463667</ele>
        <time>2023-05-02T15:05:06.039Z</time>
      </trkpt>
      <trkpt lat="48.24895" lon="-3.57133">
        <ele>128.624369</ele>
        <time>2023-05-02T15:05:09.037Z</time>
      </trkpt>
      <trkpt lat="48.24896" lon="-3.57119">
        <ele>128.776582</ele>
        <time>2023-05-02T15:05:12.030Z</time>
      </trkpt>
      <trkpt lat="48.24897" lon="-3.57104">
        <ele>128.93535</ele>
        <time>2023-05-02T15:05:15.022Z</time>
      </trkpt>
      <trkpt lat="48.24899" lon="-3.57091">
        <ele>129.08235</ele>
        <time>2023-05-02T15:05:18.042Z</time>
      </trkpt>
      <trkpt lat="48.24901" lon="-3.57077">
        <ele>129.238981</ele>
        <time>2023-05-02T15:05:21.038Z</time>
      </trkpt>
      <trkpt lat="48.24904" lon="-3.57064">
        <ele>129.389942</ele>
        <time>2023-05-02T15:05:24.044Z</time>
      </trkpt>
      <trkpt lat="48.2491" lon="-3.57052">
        <ele>129.552501</ele>
        <time>2023-05-02T15:05:27.039Z</time>
      </trkpt>
      <trkpt lat="48.24916" lon="-3.57041">
        <ele>129.711865</ele>
        <time>2023-05-02T15:05:30.039Z</time>
      </trkpt>
      <trkpt lat="48.24923" lon="-3.57031">
        <ele>129.865106</ele>
        <time>2023-05-02T15:05:33.024Z</time>
      </trkpt>
      <trkpt lat="48.24929" lon="-3.57022">
        <ele>130.014129</ele>
        <time>2023-05-02T15:05:36.045Z</time>
      </trkpt>
      <trkpt lat="48.24938" lon="-3.57013">
        <ele>130.181442</ele>
        <time>2023-05-02T15:05:39.038Z</time>
      </trkpt>
      <trkpt lat="48.24946" lon="-3.57005">
        <ele>130.343341</ele>
        <time>2023-05-02T15:05:42.041Z</time>
      </trkpt>
      <trkpt lat="48.24954" lon="-3.56997">
        <ele>130.492938</ele>
        <time>2023-05-02T15:05:45.035Z</time>
      </trkpt>
      <trkpt lat="48.24964" lon="-3.56988">
        <ele>130.687981</ele>
        <time>2023-05-02T15:05:49.038Z</time>
      </trkpt>
      <trkpt lat="48.24971" lon="-3.56979">
        <ele>130.831563</ele>
        <time>2023-05-02T15:05:53.031Z</time>
      </trkpt>
      <trkpt lat="48.2498" lon="-3.56969">
        <ele>130.987365</ele>
        <time>2023-05-02T15:05:57.040Z</time>
      </trkpt>
      <trkpt lat="48.24989" lon="-3.56958">
        <ele>131.154155</ele>
        <time>2023-05-02T15:06:02.035Z</time>
      </trkpt>
      <trkpt lat="48.24998" lon="-3.56949">
        <ele>131.304801</ele>
        <time>2023-05-02T15:06:06.041Z</time>
      </trkpt>
      <trkpt lat="48.25007" lon="-3.56939">
        <ele>131.475067</ele>
        <time>2023-05-02T15:06:10.037Z</time>
      </trkpt>
      <trkpt lat="48.25016" lon="-3.56928">
        <ele>131.641826</ele>
        <time>2023-05-02T15:06:14.040Z</time>
      </trkpt>
      <trkpt lat="48.25026" lon="-3.56919">
        <ele>131.806172</ele>
        <time>2023-05-02T15:06:18.039Z</time>
      </trkpt>
      <trkpt lat="48.25034" lon="-3.56912">
        <ele>131.938546</ele>
        <time>2023-05-02T15:06:21.039Z</time>
      </trkpt>
      <trkpt lat="48.25044" lon="-3.56903">
        <ele>132.103822</ele>
        <time>2023-05-02T15:06:25.045Z</time>
      </trkpt>
      <trkpt lat="48.25053" lon="-3.56895">
        <ele>132.260438</ele>
        <time>2023-05-02T15:06:29.038Z</time>
      </trkpt>
      <trkpt lat="48.25062" lon="-3.56884">
        <ele>132.433602</ele>
        <time>2023-05-02T15:06:33.036Z</time>
      </trkpt>
      <trkpt lat="48.25071" lon="-3.56875">
        <ele>132.584247</ele>
        <time>2023-05-02T15:06:37.036Z</time>
      </trkpt>
      <trkpt lat="48.25079" lon="-3.56867">
        <ele>132.713925</ele>
        <time>2023-05-02T15:06:41.036Z</time>
      </trkpt>
      <trkpt lat="48.25086" lon="-3.56856">
        <ele>132.86453</ele>
        <time>2023-05-02T15:06:45.042Z</time>
      </trkpt>
      <trkpt lat="48.25092" lon="-3.56845">
        <ele>133.004166</ele>
        <time>2023-05-02T15:06:49.038Z</time>
      </trkpt>
      <trkpt lat="48.25098" lon="-3.56832">
        <ele>133.157216</ele>
        <time>2023-05-02T15:06:53.031Z</time>
      </trkpt>
      <trkpt lat="48.25102" lon="-3.56818">
        <ele>133.299119</ele>
        <time>2023-05-02T15:06:58.040Z</time>
      </trkpt>
      <trkpt lat="48.25104" lon="-3.56804">
        <ele>133.555944</ele>
        <time>2023-05-02T15:07:02.039Z</time>
      </trkpt>
      <trkpt lat="48.25107" lon="-3.56789">
        <ele>133.816228</ele>
        <time>2023-05-02T15:07:06.048Z</time>
      </trkpt>
      <trkpt lat="48.25111" lon="-3.56773">
        <ele>134.110969</ele>
        <time>2023-05-02T15:07:10.023Z</time>
      </trkpt>
      <trkpt lat="48.25113" lon="-3.56755">
        <ele>134.425571</ele>
        <time>2023-05-02T15:07:15.044Z</time>
      </trkpt>
      <trkpt lat="48.25112" lon="-3.56738">
        <ele>134.719733</ele>
        <time>2023-05-02T15:07:19.032Z</time>
      </trkpt>
      <trkpt lat="48.25111" lon="-3.56722">
        <ele>135.007721</ele>
        <time>2023-05-02T15:07:23.036Z</time>
      </trkpt>
      <trkpt lat="48.2511" lon="-3.56706">
        <ele>135.285636</ele>
        <time>2023-05-02T15:07:27.039Z</time>
      </trkpt>
      <trkpt lat="48.2511" lon="-3.56689">
        <ele>135.572348</ele>
        <time>2023-05-02T15:07:31.015Z</time>
      </trkpt>
      <trkpt lat="48.25108" lon="-3.56674">
        <ele>135.836202</ele>
        <time>2023-05-02T15:07:35.030Z</time>
      </trkpt>
      <trkpt lat="48.25108" lon="-3.56659">
        <ele>136.105944</ele>
        <time>2023-05-02T15:07:39.043Z</time>
      </trkpt>
      <trkpt lat="48.25107" lon="-3.56642">
        <ele>136.392419</ele>
        <time>2023-05-02T15:07:43.025Z</time>
      </trkpt>
      <trkpt lat="48.25107" lon="-3.56627">
        <ele>136.656354</ele>
        <time>2023-05-02T15:07:47.038Z</time>
      </trkpt>
      <trkpt lat="48.25107" lon="-3.56613">
        <ele>136.894072</ele>
        <time>2023-05-02T15:07:51.022Z</time>
      </trkpt>
      <trkpt lat="48.25107" lon="-3.56598">
        <ele>137.156119</ele>
        <time>2023-05-02T15:07:56.043Z</time>
      </trkpt>
      <trkpt lat="48.25107" lon="-3.56575">
        <ele>137.555396</ele>
        <time>2023-05-02T15:09:58.028Z</time>
      </trkpt>
      <trkpt lat="48.25107" lon="-3.5656">
        <ele>137.820976</ele>
        <time>2023-05-02T15:10:02.033Z</time>
      </trkpt>
      <trkpt lat="48.25107" lon="-3.56543">
        <ele>137.96287</ele>
        <time>2023-05-02T15:10:06.039Z</time>
      </trkpt>
      <trkpt lat="48.25107" lon="-3.56526">
        <ele>137.888128</ele>
        <time>2023-05-02T15:10:10.026Z</time>
      </trkpt>
      <trkpt lat="48.25105" lon="-3.56509">
        <ele>137.812654</ele>
        <time>2023-05-02T15:10:14.040Z</time>
      </trkpt>
      <trkpt lat="48.25105" lon="-3.56495">
        <ele>137.753035</ele>
        <time>2023-05-02T15:10:17.035Z</time>
      </trkpt>
      <trkpt lat="48.25104" lon="-3.56481">
        <ele>137.692193</ele>
        <time>2023-05-02T15:10:20.033Z</time>
      </trkpt>
      <trkpt lat="48.25103" lon="-3.56467">
        <ele>137.630342</ele>
        <time>2023-05-02T15:10:23.041Z</time>
      </trkpt>
      <trkpt lat="48.25103" lon="-3.56452">
        <ele>137.565602</ele>
        <time>2023-05-02T15:10:26.040Z</time>
      </trkpt>
      <trkpt lat="48.25101" lon="-3.56437">
        <ele>137.498985</ele>
        <time>2023-05-02T15:10:29.042Z</time>
      </trkpt>
      <trkpt lat="48.25099" lon="-3.5642">
        <ele>137.419305</ele>
        <time>2023-05-02T15:10:33.032Z</time>
      </trkpt>
      <trkpt lat="48.25098" lon="-3.56405">
        <ele>137.35721</ele>
        <time>2023-05-02T15:10:36.037Z</time>
      </trkpt>
      <trkpt lat="48.25098" lon="-3.5639">
        <ele>137.28982</ele>
        <time>2023-05-02T15:10:39.042Z</time>
      </trkpt>
      <trkpt lat="48.25098" lon="-3.56374">
        <ele>137.218987</ele>
        <time>2023-05-02T15:10:42.041Z</time>
      </trkpt>
      <trkpt lat="48.25098" lon="-3.56358">
        <ele>137.15069</ele>
        <time>2023-05-02T15:10:45.042Z</time>
      </trkpt>
      <trkpt lat="48.25099" lon="-3.56342">
        <ele>137.08138</ele>
        <time>2023-05-02T15:10:48.043Z</time>
      </trkpt>
      <trkpt lat="48.25101" lon="-3.56326">
        <ele>137.010563</ele>
        <time>2023-05-02T15:10:51.028Z</time>
      </trkpt>
      <trkpt lat="48.25104" lon="-3.56312">
        <ele>136.943781</ele>
        <time>2023-05-02T15:10:54.037Z</time>
      </trkpt>
      <trkpt lat="48.25108" lon="-3.56299">
        <ele>136.878664</ele>
        <time>2023-05-02T15:10:57.034Z</time>
      </trkpt>
      <trkpt lat="48.25113" lon="-3.56285">
        <ele>136.813547</ele>
        <time>2023-05-02T15:11:00.050Z</time>
      </trkpt>
      <trkpt lat="48.25118" lon="-3.56272">
        <ele>136.606832</ele>
        <time>2023-05-02T15:11:03.041Z</time>
      </trkpt>
      <trkpt lat="48.25124" lon="-3.5626">
        <ele>136.398042</ele>
        <time>2023-05-02T15:11:06.040Z</time>
      </trkpt>
      <trkpt lat="48.2513" lon="-3.56247">
        <ele>136.186991</ele>
        <time>2023-05-02T15:11:09.018Z</time>
      </trkpt>
      <trkpt lat="48.25136" lon="-3.56234">
        <ele>135.971377</ele>
        <time>2023-05-02T15:11:12.032Z</time>
      </trkpt>
      <trkpt lat="48.25142" lon="-3.5622">
        <ele>135.730385</ele>
        <time>2023-05-02T15:11:15.047Z</time>
      </trkpt>
      <trkpt lat="48.25148" lon="-3.56207">
        <ele>135.515923</ele>
        <time>2023-05-02T15:11:18.043Z</time>
      </trkpt>
      <trkpt lat="48.25155" lon="-3.56194">
        <ele>135.293031</ele>
        <time>2023-05-02T15:11:21.039Z</time>
      </trkpt>
      <trkpt lat="48.2516" lon="-3.56183">
        <ele>135.091912</ele>
        <time>2023-05-02T15:11:24.039Z</time>
      </trkpt>
      <trkpt lat="48.25166" lon="-3.5617">
        <ele>134.887667</ele>
        <time>2023-05-02T15:11:27.043Z</time>
      </trkpt>
      <trkpt lat="48.25171" lon="-3.56158">
        <ele>134.691554</ele>
        <time>2023-05-02T15:11:30.036Z</time>
      </trkpt>
      <trkpt lat="48.25177" lon="-3.56145">
        <ele>134.475877</ele>
        <time>2023-05-02T15:11:33.031Z</time>
      </trkpt>
      <trkpt lat="48.25182" lon="-3.56132">
        <ele>134.262319</ele>
        <time>2023-05-02T15:11:36.035Z</time>
      </trkpt>
      <trkpt lat="48.25187" lon="-3.56119">
        <ele>134.057978</ele>
        <time>2023-05-02T15:11:39.041Z</time>
      </trkpt>
      <trkpt lat="48.25193" lon="-3.56104">
        <ele>133.80959</ele>
        <time>2023-05-02T15:11:43.033Z</time>
      </trkpt>
      <trkpt lat="48.25198" lon="-3.56092">
        <ele>133.615775</ele>
        <time>2023-05-02T15:11:46.034Z</time>
      </trkpt>
      <trkpt lat="48.25204" lon="-3.5608">
        <ele>133.421961</ele>
        <time>2023-05-02T15:11:49.037Z</time>
      </trkpt>
      <trkpt lat="48.25209" lon="-3.56066">
        <ele>133.197116</ele>
        <time>2023-05-02T15:11:52.033Z</time>
      </trkpt>
      <trkpt lat="48.25216" lon="-3.56053">
        <ele>133.119811</ele>
        <time>2023-05-02T15:11:55.036Z</time>
      </trkpt>
      <trkpt lat="48.25222" lon="-3.5604">
        <ele>133.170552</ele>
        <time>2023-05-02T15:11:58.037Z</time>
      </trkpt>
      <trkpt lat="48.25227" lon="-3.56028">
        <ele>133.218599</ele>
        <time>2023-05-02T15:12:01.041Z</time>
      </trkpt>
      <trkpt lat="48.25232" lon="-3.56016">
        <ele>133.26372</ele>
        <time>2023-05-02T15:12:04.022Z</time>
      </trkpt>
      <trkpt lat="48.25237" lon="-3.56004">
        <ele>133.309891</ele>
        <time>2023-05-02T15:12:07.040Z</time>
      </trkpt>
      <trkpt lat="48.25243" lon="-3.55992">
        <ele>133.359833</ele>
        <time>2023-05-02T15:12:10.039Z</time>
      </trkpt>
      <trkpt lat="48.25249" lon="-3.55978">
        <ele>133.411678</ele>
        <time>2023-05-02T15:12:13.031Z</time>
      </trkpt>
      <trkpt lat="48.25254" lon="-3.55965">
        <ele>133.461763</ele>
        <time>2023-05-02T15:12:16.037Z</time>
      </trkpt>
      <trkpt lat="48.2526" lon="-3.55952">
        <ele>133.513441</ele>
        <time>2023-05-02T15:12:20.040Z</time>
      </trkpt>
      <trkpt lat="48.25266" lon="-3.5594">
        <ele>133.559331</ele>
        <time>2023-05-02T15:12:24.043Z</time>
      </trkpt>
      <trkpt lat="48.25272" lon="-3.55925">
        <ele>133.615787</ele>
        <time>2023-05-02T15:12:28.027Z</time>
      </trkpt>
      <trkpt lat="48.25278" lon="-3.5591">
        <ele>133.675711</ele>
        <time>2023-05-02T15:12:31.026Z</time>
      </trkpt>
      <trkpt lat="48.25285" lon="-3.55894">
        <ele>133.73701</ele>
        <time>2023-05-02T15:12:34.038Z</time>
      </trkpt>
      <trkpt lat="48.25292" lon="-3.55879">
        <ele>133.796726</ele>
        <time>2023-05-02T15:12:37.041Z</time>
      </trkpt>
      <trkpt lat="48.25299" lon="-3.55864">
        <ele>133.855293</ele>
        <time>2023-05-02T15:12:40.039Z</time>
      </trkpt>
      <trkpt lat="48.25305" lon="-3.55851">
        <ele>133.906301</ele>
        <time>2023-05-02T15:12:43.030Z</time>
      </trkpt>
      <trkpt lat="48.2531" lon="-3.55839">
        <ele>133.952731</ele>
        <time>2023-05-02T15:12:46.042Z</time>
      </trkpt>
      <trkpt lat="48.25316" lon="-3.55825">
        <ele>134.174914</ele>
        <time>2023-05-02T15:12:50.036Z</time>
      </trkpt>
      <trkpt lat="48.25322" lon="-3.55812">
        <ele>134.425699</ele>
        <time>2023-05-02T15:12:54.034Z</time>
      </trkpt>
      <trkpt lat="48.25327" lon="-3.55801">
        <ele>134.653164</ele>
        <time>2023-05-02T15:12:57.043Z</time>
      </trkpt>
      <trkpt lat="48.25334" lon="-3.55787">
        <ele>134.930212</ele>
        <time>2023-05-02T15:13:01.040Z</time>
      </trkpt>
      <trkpt lat="48.2534" lon="-3.55773">
        <ele>135.225168</ele>
        <time>2023-05-02T15:13:05.039Z</time>
      </trkpt>
      <trkpt lat="48.25346" lon="-3.55759">
        <ele>135.50085</ele>
        <time>2023-05-02T15:13:09.041Z</time>
      </trkpt>
      <trkpt lat="48.25352" lon="-3.55747">
        <ele>135.746323</ele>
        <time>2023-05-02T15:13:13.031Z</time>
      </trkpt>
      <trkpt lat="48.25357" lon="-3.55733">
        <ele>136.001647</ele>
        <time>2023-05-02T15:13:17.037Z</time>
      </trkpt>
      <trkpt lat="48.25362" lon="-3.55719">
        <ele>136.266478</ele>
        <time>2023-05-02T15:13:22.029Z</time>
      </trkpt>
      <trkpt lat="48.25368" lon="-3.55705">
        <ele>136.540743</ele>
        <time>2023-05-02T15:13:27.034Z</time>
      </trkpt>
      <trkpt lat="48.25373" lon="-3.55693">
        <ele>136.784844</ele>
        <time>2023-05-02T15:13:32.031Z</time>
      </trkpt>
      <trkpt lat="48.25379" lon="-3.55681">
        <ele>137.019152</ele>
        <time>2023-05-02T15:13:37.036Z</time>
      </trkpt>
      <trkpt lat="48.25385" lon="-3.55669">
        <ele>137.267427</ele>
        <time>2023-05-02T15:13:42.039Z</time>
      </trkpt>
      <trkpt lat="48.2539" lon="-3.55658">
        <ele>137.495339</ele>
        <time>2023-05-02T15:13:46.036Z</time>
      </trkpt>
      <trkpt lat="48.25396" lon="-3.55643">
        <ele>137.771816</ele>
        <time>2023-05-02T15:13:50.038Z</time>
      </trkpt>
      <trkpt lat="48.25401" lon="-3.55631">
        <ele>138.006157</ele>
        <time>2023-05-02T15:13:53.034Z</time>
      </trkpt>
      <trkpt lat="48.25406" lon="-3.55616">
        <ele>138.289898</ele>
        <time>2023-05-02T15:13:57.039Z</time>
      </trkpt>
      <trkpt lat="48.25411" lon="-3.55603">
        <ele>138.511059</ele>
        <time>2023-05-02T15:14:01.041Z</time>
      </trkpt>
      <trkpt lat="48.25416" lon="-3.55592">
        <ele>138.672211</ele>
        <time>2023-05-02T15:14:05.034Z</time>
      </trkpt>
      <trkpt lat="48.25421" lon="-3.5558">
        <ele>138.84324</ele>
        <time>2023-05-02T15:14:09.038Z</time>
      </trkpt>
      <trkpt lat="48.25426" lon="-3.55568">
        <ele>139.010301</ele>
        <time>2023-05-02T15:14:13.032Z</time>
      </trkpt>
      <trkpt lat="48.25431" lon="-3.55555">
        <ele>139.193051</ele>
        <time>2023-05-02T15:14:17.035Z</time>
      </trkpt>
      <trkpt lat="48.25436" lon="-3.55543">
        <ele>139.35857</ele>
        <time>2023-05-02T15:14:21.026Z</time>
      </trkpt>
      <trkpt lat="48.25441" lon="-3.55528">
        <ele>139.553837</ele>
        <time>2023-05-02T15:14:25.022Z</time>
      </trkpt>
      <trkpt lat="48.25448" lon="-3.55515">
        <ele>139.750819</ele>
        <time>2023-05-02T15:14:29.031Z</time>
      </trkpt>
      <trkpt lat="48.25454" lon="-3.55502">
        <ele>139.931593</ele>
        <time>2023-05-02T15:14:33.026Z</time>
      </trkpt>
      <trkpt lat="48.25459" lon="-3.55485">
        <ele>140.15456</ele>
        <time>2023-05-02T15:14:37.028Z</time>
      </trkpt>
      <trkpt lat="48.25463" lon="-3.55469">
        <ele>140.358943</ele>
        <time>2023-05-02T15:14:41.028Z</time>
      </trkpt>
      <trkpt lat="48.25465" lon="-3.55455">
        <ele>140.532379</ele>
        <time>2023-05-02T15:14:45.034Z</time>
      </trkpt>
      <trkpt lat="48.25465" lon="-3.5544">
        <ele>140.708101</ele>
        <time>2023-05-02T15:14:50.028Z</time>
      </trkpt>
      <trkpt lat="48.25465" lon="-3.55426">
        <ele>140.876857</ele>
        <time>2023-05-02T15:14:54.032Z</time>
      </trkpt>
      <trkpt lat="48.25463" lon="-3.5541">
        <ele>141.068869</ele>
        <time>2023-05-02T15:14:58.029Z</time>
      </trkpt>
      <trkpt lat="48.25461" lon="-3.55393">
        <ele>141.276082</ele>
        <time>2023-05-02T15:15:02.027Z</time>
      </trkpt>
      <trkpt lat="48.25459" lon="-3.55377">
        <ele>141.463004</ele>
        <time>2023-05-02T15:15:06.030Z</time>
      </trkpt>
      <trkpt lat="48.25457" lon="-3.55363">
        <ele>141.639496</ele>
        <time>2023-05-02T15:15:10.027Z</time>
      </trkpt>
      <trkpt lat="48.25454" lon="-3.55348">
        <ele>141.618672</ele>
        <time>2023-05-02T15:15:14.028Z</time>
      </trkpt>
      <trkpt lat="48.25451" lon="-3.55333">
        <ele>141.591213</ele>
        <time>2023-05-02T15:15:18.009Z</time>
      </trkpt>
      <trkpt lat="48.25447" lon="-3.55317">
        <ele>141.559128</ele>
        <time>2023-05-02T15:15:22.027Z</time>
      </trkpt>
      <trkpt lat="48.25443" lon="-3.55304">
        <ele>141.534406</ele>
        <time>2023-05-02T15:15:25.030Z</time>
      </trkpt>
      <trkpt lat="48.25363" lon="-3.5476">
        <ele>138.583802</ele>
        <time>2023-05-02T15:17:59.041Z</time>
      </trkpt>
      <trkpt lat="48.25361" lon="-3.5474">
        <ele>138.297052</ele>
        <time>2023-05-02T15:19:01.021Z</time>
      </trkpt>
      <trkpt lat="48.2536" lon="-3.54725">
        <ele>138.070288</ele>
        <time>2023-05-02T15:19:05.041Z</time>
      </trkpt>
      <trkpt lat="48.25358" lon="-3.54708">
        <ele>137.827875</ele>
        <time>2023-05-02T15:19:09.039Z</time>
      </trkpt>
      <trkpt lat="48.25357" lon="-3.54692">
        <ele>137.582443</ele>
        <time>2023-05-02T15:19:13.035Z</time>
      </trkpt>
      <trkpt lat="48.25356" lon="-3.54675">
        <ele>137.33334</ele>
        <time>2023-05-02T15:19:17.033Z</time>
      </trkpt>
      <trkpt lat="48.25356" lon="-3.54661">
        <ele>137.129755</ele>
        <time>2023-05-02T15:19:20.027Z</time>
      </trkpt>
      <trkpt lat="48.25356" lon="-3.54643">
        <ele>136.875239</ele>
        <time>2023-05-02T15:19:24.023Z</time>
      </trkpt>
      <trkpt lat="48.25355" lon="-3.54626">
        <ele>136.617079</ele>
        <time>2023-05-02T15:19:28.033Z</time>
      </trkpt>
      <trkpt lat="48.25353" lon="-3.54609">
        <ele>136.372076</ele>
        <time>2023-05-02T15:19:32.030Z</time>
      </trkpt>
      <trkpt lat="48.25352" lon="-3.54595">
        <ele>136.168808</ele>
        <time>2023-05-02T15:19:35.039Z</time>
      </trkpt>
      <trkpt lat="48.25351" lon="-3.54581">
        <ele>135.958518</ele>
        <time>2023-05-02T15:19:38.023Z</time>
      </trkpt>
      <trkpt lat="48.25351" lon="-3.54567">
        <ele>135.802968</ele>
        <time>2023-05-02T15:19:41.012Z</time>
      </trkpt>
      <trkpt lat="48.25349" lon="-3.54553">
        <ele>135.879046</ele>
        <time>2023-05-02T15:19:44.032Z</time>
      </trkpt>
      <trkpt lat="48.25349" lon="-3.54538">
        <ele>135.955167</ele>
        <time>2023-05-02T15:19:47.060Z</time>
      </trkpt>
      <trkpt lat="48.25347" lon="-3.5452">
        <ele>136.047253</ele>
        <time>2023-05-02T15:19:51.042Z</time>
      </trkpt>
      <trkpt lat="48.25347" lon="-3.54506">
        <ele>136.119205</ele>
        <time>2023-05-02T15:19:54.032Z</time>
      </trkpt>
      <trkpt lat="48.25346" lon="-3.54492">
        <ele>136.19219</ele>
        <time>2023-05-02T15:19:57.031Z</time>
      </trkpt>
      <trkpt lat="48.25346" lon="-3.54477">
        <ele>136.271892</ele>
        <time>2023-05-02T15:20:01.039Z</time>
      </trkpt>
      <trkpt lat="48.25346" lon="-3.54461">
        <ele>136.355686</ele>
        <time>2023-05-02T15:20:05.026Z</time>
      </trkpt>
      <trkpt lat="48.25345" lon="-3.54447">
        <ele>136.427587</ele>
        <time>2023-05-02T15:20:08.032Z</time>
      </trkpt>
      <trkpt lat="48.25345" lon="-3.54432">
        <ele>136.503092</ele>
        <time>2023-05-02T15:20:11.027Z</time>
      </trkpt>
      <trkpt lat="48.25345" lon="-3.54417">
        <ele>136.582919</ele>
        <time>2023-05-02T15:20:14.025Z</time>
      </trkpt>
      <trkpt lat="48.25344" lon="-3.54403">
        <ele>136.655071</ele>
        <time>2023-05-02T15:20:17.029Z</time>
      </trkpt>
      <trkpt lat="48.25342" lon="-3.54389">
        <ele>136.725985</ele>
        <time>2023-05-02T15:20:20.024Z</time>
      </trkpt>
      <trkpt lat="48.25342" lon="-3.54376">
        <ele>136.797886</ele>
        <time>2023-05-02T15:20:23.030Z</time>
      </trkpt>
      <trkpt lat="48.25342" lon="-3.54359">
        <ele>136.883766</ele>
        <time>2023-05-02T15:20:27.037Z</time>
      </trkpt>
      <trkpt lat="48.25342" lon="-3.54341">
        <ele>136.975302</ele>
        <time>2023-05-02T15:20:31.035Z</time>
      </trkpt>
      <trkpt lat="48.25341" lon="-3.54324">
        <ele>137.064985</ele>
        <time>2023-05-02T15:20:35.033Z</time>
      </trkpt>
      <trkpt lat="48.25341" lon="-3.5431">
        <ele>137.137425</ele>
        <time>2023-05-02T15:20:38.022Z</time>
      </trkpt>
      <trkpt lat="48.25341" lon="-3.54296">
        <ele>137.20458</ele>
        <time>2023-05-02T15:20:41.025Z</time>
      </trkpt>
      <trkpt lat="48.2534" lon="-3.54282">
        <ele>137.269201</ele>
        <time>2023-05-02T15:20:44.033Z</time>
      </trkpt>
      <trkpt lat="48.2534" lon="-3.54268">
        <ele>137.329494</ele>
        <time>2023-05-02T15:20:47.024Z</time>
      </trkpt>
      <trkpt lat="48.2534" lon="-3.54253">
        <ele>137.394934</ele>
        <time>2023-05-02T15:20:50.039Z</time>
      </trkpt>
      <trkpt lat="48.25339" lon="-3.54236">
        <ele>137.470075</ele>
        <time>2023-05-02T15:20:54.041Z</time>
      </trkpt>
      <trkpt lat="48.25338" lon="-3.54218">
        <ele>137.548127</ele>
        <time>2023-05-02T15:20:58.017Z</time>
      </trkpt>
      <trkpt lat="48.25337" lon="-3.542">
        <ele>137.626551</ele>
        <time>2023-05-02T15:21:02.038Z</time>
      </trkpt>
      <trkpt lat="48.25337" lon="-3.54186">
        <ele>137.687632</ele>
        <time>2023-05-02T15:21:05.024Z</time>
      </trkpt>
      <trkpt lat="48.25336" lon="-3.54169">
        <ele>137.760936</ele>
        <time>2023-05-02T15:21:09.025Z</time>
      </trkpt>
      <trkpt lat="48.25336" lon="-3.54152">
        <ele>137.834302</ele>
        <time>2023-05-02T15:21:13.031Z</time>
      </trkpt>
      <trkpt lat="48.25334" lon="-3.54137">
        <ele>137.901113</ele>
        <time>2023-05-02T15:21:17.028Z</time>
      </trkpt>
      <trkpt lat="48.25333" lon="-3.5412">
        <ele>137.975899</ele>
        <time>2023-05-02T15:21:21.022Z</time>
      </trkpt>
      <trkpt lat="48.25334" lon="-3.54106">
        <ele>138.038288</ele>
        <time>2023-05-02T15:21:24.030Z</time>
      </trkpt>
      <trkpt lat="48.25332" lon="-3.54091">
        <ele>138.1048</ele>
        <time>2023-05-02T15:21:28.027Z</time>
      </trkpt>
      <trkpt lat="48.25331" lon="-3.54075">
        <ele>138.172956</ele>
        <time>2023-05-02T15:21:32.030Z</time>
      </trkpt>
      <trkpt lat="48.2533" lon="-3.54062">
        <ele>138.231781</ele>
        <time>2023-05-02T15:21:35.036Z</time>
      </trkpt>
      <trkpt lat="48.2533" lon="-3.54048">
        <ele>138.291553</ele>
        <time>2023-05-02T15:21:38.030Z</time>
      </trkpt>
      <trkpt lat="48.2533" lon="-3.5403">
        <ele>138.377966</ele>
        <time>2023-05-02T15:21:42.032Z</time>
      </trkpt>
      <trkpt lat="48.25334" lon="-3.54014">
        <ele>138.610389</ele>
        <time>2023-05-02T15:21:46.030Z</time>
      </trkpt>
      <trkpt lat="48.25339" lon="-3.53997">
        <ele>138.867911</ele>
        <time>2023-05-02T15:21:50.039Z</time>
      </trkpt>
      <trkpt lat="48.25346" lon="-3.53984">
        <ele>139.106611</ele>
        <time>2023-05-02T15:21:54.040Z</time>
      </trkpt>
      <trkpt lat="48.25352" lon="-3.53974">
        <ele>139.295482</ele>
        <time>2023-05-02T15:21:57.035Z</time>
      </trkpt>
      <trkpt lat="48.2536" lon="-3.53962">
        <ele>139.525906</ele>
        <time>2023-05-02T15:22:01.031Z</time>
      </trkpt>
      <trkpt lat="48.25367" lon="-3.5395">
        <ele>139.751281</ele>
        <time>2023-05-02T15:22:05.049Z</time>
      </trkpt>
      <trkpt lat="48.25376" lon="-3.53939">
        <ele>139.990097</ele>
        <time>2023-05-02T15:22:09.040Z</time>
      </trkpt>
      <trkpt lat="48.25382" lon="-3.53929">
        <ele>140.180095</ele>
        <time>2023-05-02T15:22:13.042Z</time>
      </trkpt>
      <trkpt lat="48.25388" lon="-3.53919">
        <ele>140.373468</ele>
        <time>2023-05-02T15:22:17.039Z</time>
      </trkpt>
      <trkpt lat="48.25396" lon="-3.53907">
        <ele>140.602762</ele>
        <time>2023-05-02T15:22:22.039Z</time>
      </trkpt>
      <trkpt lat="48.25404" lon="-3.53898">
        <ele>140.802504</ele>
        <time>2023-05-02T15:22:26.029Z</time>
      </trkpt>
      <trkpt lat="48.25412" lon="-3.53888">
        <ele>141.028509</ele>
        <time>2023-05-02T15:22:30.030Z</time>
      </trkpt>
      <trkpt lat="48.2542" lon="-3.53878">
        <ele>141.25184</ele>
        <time>2023-05-02T15:22:34.036Z</time>
      </trkpt>
      <trkpt lat="48.25428" lon="-3.53869">
        <ele>141.451844</ele>
        <time>2023-05-02T15:22:38.037Z</time>
      </trkpt>
      <trkpt lat="48.25437" lon="-3.5386">
        <ele>141.669396</ele>
        <time>2023-05-02T15:22:42.041Z</time>
      </trkpt>
      <trkpt lat="48.25444" lon="-3.5385">
        <ele>141.867576</ele>
        <time>2023-05-02T15:22:46.035Z</time>
      </trkpt>
      <trkpt lat="48.25453" lon="-3.5384">
        <ele>142.111738</ele>
        <time>2023-05-02T15:22:50.040Z</time>
      </trkpt>
      <trkpt lat="48.25461" lon="-3.53827">
        <ele>142.058442</ele>
        <time>2023-05-02T15:22:54.033Z</time>
      </trkpt>
      <trkpt lat="48.25469" lon="-3.53818">
        <ele>142.011996</ele>
        <time>2023-05-02T15:22:57.035Z</time>
      </trkpt>
      <trkpt lat="48.25476" lon="-3.53809">
        <ele>141.968377</ele>
        <time>2023-05-02T15:23:00.026Z</time>
      </trkpt>
      <trkpt lat="48.25483" lon="-3.53799">
        <ele>141.924032</ele>
        <time>2023-05-02T15:23:04.031Z</time>
      </trkpt>
      <trkpt lat="48.2549" lon="-3.5379">
        <ele>141.87867</ele>
        <time>2023-05-02T15:23:08.071Z</time>
      </trkpt>
      <trkpt lat="48.25498" lon="-3.53781">
        <ele>141.83217</ele>
        <time>2023-05-02T15:23:12.034Z</time>
      </trkpt>
      <trkpt lat="48.25506" lon="-3.53769">
        <ele>141.77767</ele>
        <time>2023-05-02T15:23:16.031Z</time>
      </trkpt>
      <trkpt lat="48.25513" lon="-3.5376">
        <ele>141.7316</ele>
        <time>2023-05-02T15:23:20.027Z</time>
      </trkpt>
      <trkpt lat="48.2552" lon="-3.5375">
        <ele>141.688766</ele>
        <time>2023-05-02T15:23:24.031Z</time>
      </trkpt>
      <trkpt lat="48.25526" lon="-3.5374">
        <ele>141.6429</ele>
        <time>2023-05-02T15:23:28.025Z</time>
      </trkpt>
      <trkpt lat="48.25533" lon="-3.53731">
        <ele>141.599471</ele>
        <time>2023-05-02T15:23:32.025Z</time>
      </trkpt>
      <trkpt lat="48.2554" lon="-3.53721">
        <ele>141.554266</ele>
        <time>2023-05-02T15:23:37.044Z</time>
      </trkpt>
      <trkpt lat="48.25548" lon="-3.53712">
        <ele>141.508436</ele>
        <time>2023-05-02T15:23:42.028Z</time>
      </trkpt>
      <trkpt lat="48.25556" lon="-3.53702">
        <ele>141.458321</ele>
        <time>2023-05-02T15:23:48.014Z</time>
      </trkpt>
      <trkpt lat="48.25563" lon="-3.53693">
        <ele>141.414162</ele>
        <time>2023-05-02T15:24:01.023Z</time>
      </trkpt>
      <trkpt lat="48.2557" lon="-3.5368">
        <ele>141.36031</ele>
        <time>2023-05-02T15:24:04.037Z</time>
      </trkpt>
      <trkpt lat="48.25576" lon="-3.53667">
        <ele>141.311747</ele>
        <time>2023-05-02T15:24:06.033Z</time>
      </trkpt>
      <trkpt lat="48.2558" lon="-3.53653">
        <ele>141.26333</ele>
        <time>2023-05-02T15:24:08.043Z</time>
      </trkpt>
      <trkpt lat="48.25584" lon="-3.5364">
        <ele>141.283807</ele>
        <time>2023-05-02T15:24:10.035Z</time>
      </trkpt>
      <trkpt lat="48.25587" lon="-3.53626">
        <ele>141.310646</ele>
        <time>2023-05-02T15:24:12.040Z</time>
      </trkpt>
      <trkpt lat="48.25589" lon="-3.53612">
        <ele>141.336882</ele>
        <time>2023-05-02T15:24:14.018Z</time>
      </trkpt>
      <trkpt lat="48.25591" lon="-3.53593">
        <ele>141.37407</ele>
        <time>2023-05-02T15:24:17.034Z</time>
      </trkpt>
      <trkpt lat="48.25593" lon="-3.53575">
        <ele>141.409487</ele>
        <time>2023-05-02T15:24:20.030Z</time>
      </trkpt>
      <trkpt lat="48.25594" lon="-3.53558">
        <ele>141.441166</ele>
        <time>2023-05-02T15:24:23.032Z</time>
      </trkpt>
      <trkpt lat="48.25595" lon="-3.53544">
        <ele>141.466788</ele>
        <time>2023-05-02T15:24:26.028Z</time>
      </trkpt>
      <trkpt lat="48.25595" lon="-3.53531">
        <ele>141.492576</ele>
        <time>2023-05-02T15:24:29.045Z</time>
      </trkpt>
      <trkpt lat="48.25596" lon="-3.53514">
        <ele>141.52518</ele>
        <time>2023-05-02T15:24:33.038Z</time>
      </trkpt>
      <trkpt lat="48.25595" lon="-3.53499">
        <ele>141.552121</ele>
        <time>2023-05-02T15:24:37.027Z</time>
      </trkpt>
      <trkpt lat="48.25597" lon="-3.53485">
        <ele>141.579792</ele>
        <time>2023-05-02T15:24:42.036Z</time>
      </trkpt>
      <trkpt lat="48.25598" lon="-3.5347">
        <ele>141.609351</ele>
        <time>2023-05-02T15:24:47.021Z</time>
      </trkpt>
      <trkpt lat="48.25599" lon="-3.53455">
        <ele>141.637216</ele>
        <time>2023-05-02T15:24:51.041Z</time>
      </trkpt>
      <trkpt lat="48.256" lon="-3.53437">
        <ele>141.670426</ele>
        <time>2023-05-02T15:24:55.033Z</time>
      </trkpt>
      <trkpt lat="48.25601" lon="-3.53423">
        <ele>141.698751</ele>
        <time>2023-05-02T15:24:59.025Z</time>
      </trkpt>
      <trkpt lat="48.25603" lon="-3.53406">
        <ele>141.729697</ele>
        <time>2023-05-02T15:25:03.038Z</time>
      </trkpt>
      <trkpt lat="48.25604" lon="-3.53391">
        <ele>141.758958</ele>
        <time>2023-05-02T15:25:07.033Z</time>
      </trkpt>
      <trkpt lat="48.25606" lon="-3.53375">
        <ele>141.858212</ele>
        <time>2023-05-02T15:25:11.024Z</time>
      </trkpt>
      <trkpt lat="48.25607" lon="-3.53362">
        <ele>141.976784</ele>
        <time>2023-05-02T15:25:15.032Z</time>
      </trkpt>
      <trkpt lat="48.25609" lon="-3.53349">
        <ele>142.095092</ele>
        <time>2023-05-02T15:25:20.028Z</time>
      </trkpt>
      <trkpt lat="48.2561" lon="-3.53332">
        <ele>142.23465</ele>
        <time>2023-05-02T15:25:25.015Z</time>
      </trkpt>
      <trkpt lat="48.25611" lon="-3.53317">
        <ele>142.36678</ele>
        <time>2023-05-02T15:25:29.029Z</time>
      </trkpt>
      <trkpt lat="48.25613" lon="-3.53302">
        <ele>142.499543</ele>
        <time>2023-05-02T15:25:33.040Z</time>
      </trkpt>
      <trkpt lat="48.25614" lon="-3.53288">
        <ele>142.626859</ele>
        <time>2023-05-02T15:25:37.031Z</time>
      </trkpt>
      <trkpt lat="48.25616" lon="-3.53274">
        <ele>142.744319</ele>
        <time>2023-05-02T15:25:41.024Z</time>
      </trkpt>
      <trkpt lat="48.25617" lon="-3.53258">
        <ele>142.884148</ele>
        <time>2023-05-02T15:25:46.032Z</time>
      </trkpt>
      <trkpt lat="48.25617" lon="-3.53244">
        <ele>143.01143</ele>
        <time>2023-05-02T15:25:50.030Z</time>
      </trkpt>
      <trkpt lat="48.25616" lon="-3.53228">
        <ele>143.148789</ele>
        <time>2023-05-02T15:25:54.028Z</time>
      </trkpt>
      <trkpt lat="48.25615" lon="-3.53211">
        <ele>143.291384</ele>
        <time>2023-05-02T15:25:58.028Z</time>
      </trkpt>
      <trkpt lat="48.25611" lon="-3.53196">
        <ele>143.43098</ele>
        <time>2023-05-02T15:26:02.017Z</time>
      </trkpt>
      <trkpt lat="48.25608" lon="-3.53183">
        <ele>143.548422</ele>
        <time>2023-05-02T15:26:06.036Z</time>
      </trkpt>
      <trkpt lat="48.25603" lon="-3.53168">
        <ele>143.694784</ele>
        <time>2023-05-02T15:26:11.031Z</time>
      </trkpt>
      <trkpt lat="48.25597" lon="-3.53155">
        <ele>143.836704</ele>
        <time>2023-05-02T15:26:15.032Z</time>
      </trkpt>
      <trkpt lat="48.25591" lon="-3.53143">
        <ele>143.964099</ele>
        <time>2023-05-02T15:26:19.025Z</time>
      </trkpt>
      <trkpt lat="48.25582" lon="-3.53134">
        <ele>144.105477</ele>
        <time>2023-05-02T15:26:23.041Z</time>
      </trkpt>
      <trkpt lat="48.25574" lon="-3.53125">
        <ele>144.153321</ele>
        <time>2023-05-02T15:26:27.028Z</time>
      </trkpt>
      <trkpt lat="48.25566" lon="-3.53117">
        <ele>144.195868</ele>
        <time>2023-05-02T15:26:32.035Z</time>
      </trkpt>
      <trkpt lat="48.25559" lon="-3.53108">
        <ele>144.240697</ele>
        <time>2023-05-02T15:26:37.038Z</time>
      </trkpt>
      <trkpt lat="48.25548" lon="-3.53102">
        <ele>144.294197</ele>
        <time>2023-05-02T15:26:41.031Z</time>
      </trkpt>
      <trkpt lat="48.25537" lon="-3.53096">
        <ele>144.347861</ele>
        <time>2023-05-02T15:26:45.030Z</time>
      </trkpt>
      <trkpt lat="48.25527" lon="-3.5309">
        <ele>144.398823</ele>
        <time>2023-05-02T15:26:49.036Z</time>
      </trkpt>
      <trkpt lat="48.25516" lon="-3.53084">
        <ele>144.449746</ele>
        <time>2023-05-02T15:26:53.036Z</time>
      </trkpt>
      <trkpt lat="48.25507" lon="-3.53079">
        <ele>144.493571</ele>
        <time>2023-05-02T15:26:57.035Z</time>
      </trkpt>
      <trkpt lat="48.25498" lon="-3.53072">
        <ele>144.540732</ele>
        <time>2023-05-02T15:27:01.020Z</time>
      </trkpt>
      <trkpt lat="48.25488" lon="-3.53067">
        <ele>144.591546</ele>
        <time>2023-05-02T15:27:05.043Z</time>
      </trkpt>
      <trkpt lat="48.25477" lon="-3.53062">
        <ele>144.64177</ele>
        <time>2023-05-02T15:27:09.034Z</time>
      </trkpt>
      <trkpt lat="48.25468" lon="-3.53056">
        <ele>144.688276</ele>
        <time>2023-05-02T15:27:13.032Z</time>
      </trkpt>
      <trkpt lat="48.25458" lon="-3.53051">
        <ele>144.735103</ele>
        <time>2023-05-02T15:27:17.030Z</time>
      </trkpt>
      <trkpt lat="48.25449" lon="-3.53045">
        <ele>144.780963</ele>
        <time>2023-05-02T15:27:21.030Z</time>
      </trkpt>
      <trkpt lat="48.25439" lon="-3.53042">
        <ele>144.828637</ele>
        <time>2023-05-02T15:27:25.030Z</time>
      </trkpt>
      <trkpt lat="48.2543" lon="-3.53039">
        <ele>144.87132</ele>
        <time>2023-05-02T15:27:28.040Z</time>
      </trkpt>
      <trkpt lat="48.25419" lon="-3.53033">
        <ele>144.922568</ele>
        <time>2023-05-02T15:27:32.026Z</time>
      </trkpt>
      <trkpt lat="48.2541" lon="-3.53028">
        <ele>144.923154</ele>
        <time>2023-05-02T15:27:36.030Z</time>
      </trkpt>
      <trkpt lat="48.25399" lon="-3.53021">
        <ele>144.904079</ele>
        <time>2023-05-02T15:27:40.030Z</time>
      </trkpt>
      <trkpt lat="48.2539" lon="-3.53014">
        <ele>144.886897</ele>
        <time>2023-05-02T15:27:44.039Z</time>
      </trkpt>
      <trkpt lat="48.2538" lon="-3.53008">
        <ele>144.870189</ele>
        <time>2023-05-02T15:27:48.033Z</time>
      </trkpt>
      <trkpt lat="48.25371" lon="-3.53002">
        <ele>144.854459</ele>
        <time>2023-05-02T15:27:53.032Z</time>
      </trkpt>
      <trkpt lat="48.25363" lon="-3.52998">
        <ele>144.839488</ele>
        <time>2023-05-02T15:27:59.019Z</time>
      </trkpt>
      <trkpt lat="48.25353" lon="-3.52992">
        <ele>144.823225</ele>
        <time>2023-05-02T15:28:05.025Z</time>
      </trkpt>
      <trkpt lat="48.25345" lon="-3.52986">
        <ele>144.808469</ele>
        <time>2023-05-02T15:28:10.024Z</time>
      </trkpt>
      <trkpt lat="48.25336" lon="-3.52981">
        <ele>144.792113</ele>
        <time>2023-05-02T15:28:15.024Z</time>
      </trkpt>
      <trkpt lat="48.25327" lon="-3.52977">
        <ele>144.776871</ele>
        <time>2023-05-02T15:28:19.025Z</time>
      </trkpt>
      <trkpt lat="48.25317" lon="-3.52971">
        <ele>144.759396</ele>
        <time>2023-05-02T15:28:23.036Z</time>
      </trkpt>
      <trkpt lat="48.25308" lon="-3.52966">
        <ele>144.74477</ele>
        <time>2023-05-02T15:28:26.038Z</time>
      </trkpt>
      <trkpt lat="48.25298" lon="-3.52961">
        <ele>144.727599</ele>
        <time>2023-05-02T15:28:30.030Z</time>
      </trkpt>
      <trkpt lat="48.25289" lon="-3.52953">
        <ele>144.710373</ele>
        <time>2023-05-02T15:28:35.026Z</time>
      </trkpt>
      <trkpt lat="48.2528" lon="-3.52945">
        <ele>144.692674</ele>
        <time>2023-05-02T15:28:40.025Z</time>
      </trkpt>
      <trkpt lat="48.25272" lon="-3.52935">
        <ele>144.675655</ele>
        <time>2023-05-02T15:28:44.014Z</time>
      </trkpt>
      <trkpt lat="48.25265" lon="-3.52924">
        <ele>144.659517</ele>
        <time>2023-05-02T15:28:48.024Z</time>
      </trkpt>
      <trkpt lat="48.25258" lon="-3.52911">
        <ele>144.648845</ele>
        <time>2023-05-02T15:28:52.024Z</time>
      </trkpt>
      <trkpt lat="48.25252" lon="-3.52897">
        <ele>144.759032</ele>
        <time>2023-05-02T15:28:56.023Z</time>
      </trkpt>
      <trkpt lat="48.25249" lon="-3.5288">
        <ele>144.871262</ele>
        <time>2023-05-02T15:29:00.022Z</time>
      </trkpt>
      <trkpt lat="48.25247" lon="-3.52864">
        <ele>144.980559</ele>
        <time>2023-05-02T15:29:04.021Z</time>
      </trkpt>
      <trkpt lat="48.25246" lon="-3.52847">
        <ele>145.088811</ele>
        <time>2023-05-02T15:29:08.027Z</time>
      </trkpt>
      <trkpt lat="48.25246" lon="-3.5283">
        <ele>145.20092</ele>
        <time>2023-05-02T15:29:12.014Z</time>
      </trkpt>
      <trkpt lat="48.25249" lon="-3.52813">
        <ele>145.310585</ele>
        <time>2023-05-02T15:29:16.022Z</time>
      </trkpt>
      <trkpt lat="48.25253" lon="-3.52798">
        <ele>145.417705</ele>
        <time>2023-05-02T15:29:20.025Z</time>
      </trkpt>
      <trkpt lat="48.25258" lon="-3.52784">
        <ele>145.52582</ele>
        <time>2023-05-02T15:29:24.023Z</time>
      </trkpt>
      <trkpt lat="48.25264" lon="-3.5277">
        <ele>145.633246</ele>
        <time>2023-05-02T15:29:28.023Z</time>
      </trkpt>
      <trkpt lat="48.25271" lon="-3.52757">
        <ele>145.738944</ele>
        <time>2023-05-02T15:29:32.022Z</time>
      </trkpt>
      <trkpt lat="48.25278" lon="-3.52747">
        <ele>145.834162</ele>
        <time>2023-05-02T15:29:36.024Z</time>
      </trkpt>
      <trkpt lat="48.25287" lon="-3.52739">
        <ele>145.934173</ele>
        <time>2023-05-02T15:29:41.022Z</time>
      </trkpt>
      <trkpt lat="48.25603" lon="-3.5095">
        <ele>155.033554</ele>
        <time>2023-05-02T15:44:20.024Z</time>
      </trkpt>
      <trkpt lat="48.256" lon="-3.50936">
        <ele>155.180631</ele>
        <time>2023-05-02T15:44:25.024Z</time>
      </trkpt>
      <trkpt lat="48.25595" lon="-3.50922">
        <ele>155.33446</ele>
        <time>2023-05-02T15:44:31.022Z</time>
      </trkpt>
      <trkpt lat="48.25591" lon="-3.50909">
        <ele>155.474055</ele>
        <time>2023-05-02T15:44:35.026Z</time>
      </trkpt>
      <trkpt lat="48.25589" lon="-3.50894">
        <ele>155.624948</ele>
        <time>2023-05-02T15:44:39.019Z</time>
      </trkpt>
      <trkpt lat="48.25584" lon="-3.50878">
        <ele>155.793184</ele>
        <time>2023-05-02T15:44:43.025Z</time>
      </trkpt>
      <trkpt lat="48.25581" lon="-3.50864">
        <ele>155.92922</ele>
        <time>2023-05-02T15:44:47.026Z</time>
      </trkpt>
      <trkpt lat="48.25579" lon="-3.5085">
        <ele>156.069806</ele>
        <time>2023-05-02T15:44:52.011Z</time>
      </trkpt>
      <trkpt lat="48.25575" lon="-3.50836">
        <ele>156.017938</ele>
        <time>2023-05-02T15:44:57.015Z</time>
      </trkpt>
      <trkpt lat="48.25572" lon="-3.50819">
        <ele>155.860506</ele>
        <time>2023-05-02T15:45:01.026Z</time>
      </trkpt>
      <trkpt lat="48.25569" lon="-3.50806">
        <ele>155.730351</ele>
        <time>2023-05-02T15:45:05.036Z</time>
      </trkpt>
      <trkpt lat="48.25565" lon="-3.50792">
        <ele>155.588568</ele>
        <time>2023-05-02T15:45:09.028Z</time>
      </trkpt>
      <trkpt lat="48.25564" lon="-3.50775">
        <ele>155.43227</ele>
        <time>2023-05-02T15:45:13.022Z</time>
      </trkpt>
      <trkpt lat="48.25566" lon="-3.50759">
        <ele>155.287071</ele>
        <time>2023-05-02T15:45:17.026Z</time>
      </trkpt>
      <trkpt lat="48.25567" lon="-3.50744">
        <ele>155.145448</ele>
        <time>2023-05-02T15:45:21.019Z</time>
      </trkpt>
      <trkpt lat="48.2557" lon="-3.50728">
        <ele>154.989852</ele>
        <time>2023-05-02T15:45:25.033Z</time>
      </trkpt>
      <trkpt lat="48.25576" lon="-3.50713">
        <ele>154.833308</ele>
        <time>2023-05-02T15:45:29.026Z</time>
      </trkpt>
      <trkpt lat="48.25582" lon="-3.50701">
        <ele>154.693494</ele>
        <time>2023-05-02T15:45:33.026Z</time>
      </trkpt>
      <trkpt lat="48.25589" lon="-3.5069">
        <ele>154.55225</ele>
        <time>2023-05-02T15:45:37.026Z</time>
      </trkpt>
      <trkpt lat="48.25596" lon="-3.50677">
        <ele>154.395867</ele>
        <time>2023-05-02T15:45:41.022Z</time>
      </trkpt>
      <trkpt lat="48.25602" lon="-3.50666">
        <ele>154.267462</ele>
        <time>2023-05-02T15:45:44.023Z</time>
      </trkpt>
      <trkpt lat="48.25609" lon="-3.50652">
        <ele>154.105342</ele>
        <time>2023-05-02T15:45:48.028Z</time>
      </trkpt>
      <trkpt lat="48.25615" lon="-3.50641">
        <ele>153.971678</ele>
        <time>2023-05-02T15:45:52.037Z</time>
      </trkpt>
      <trkpt lat="48.25621" lon="-3.50631">
        <ele>153.846876</ele>
        <time>2023-05-02T15:45:56.029Z</time>
      </trkpt>
      <trkpt lat="48.25615" lon="-3.50642">
        <ele>153.711809</ele>
        <time>2023-05-02T15:46:31.021Z</time>
      </trkpt>
      <trkpt lat="48.25607" lon="-3.50655">
        <ele>153.698118</ele>
        <time>2023-05-02T15:46:35.019Z</time>
      </trkpt>
      <trkpt lat="48.25602" lon="-3.50666">
        <ele>153.807614</ele>
        <time>2023-05-02T15:46:38.037Z</time>
      </trkpt>
      <trkpt lat="48.25594" lon="-3.50679">
        <ele>153.943522</ele>
        <time>2023-05-02T15:46:42.022Z</time>
      </trkpt>
      <trkpt lat="48.25584" lon="-3.50681">
        <ele>154.060695</ele>
        <time>2023-05-02T15:47:51.030Z</time>
      </trkpt>
      <trkpt lat="48.25591" lon="-3.5069">
        <ele>154.168991</ele>
        <time>2023-05-02T15:49:52.015Z</time>
      </trkpt>
      <trkpt lat="48.256" lon="-3.50667">
        <ele>154.376475</ele>
        <time>2023-05-02T15:51:14.024Z</time>
      </trkpt>
      <trkpt lat="48.25607" lon="-3.50655">
        <ele>154.502903</ele>
        <time>2023-05-02T15:51:18.024Z</time>
      </trkpt>
      <trkpt lat="48.25613" lon="-3.5064">
        <ele>154.639187</ele>
        <time>2023-05-02T15:51:23.024Z</time>
      </trkpt>
      <trkpt lat="48.2562" lon="-3.50628">
        <ele>154.76818</ele>
        <time>2023-05-02T15:51:27.031Z</time>
      </trkpt>
      <trkpt lat="48.25626" lon="-3.50615">
        <ele>154.899749</ele>
        <time>2023-05-02T15:51:31.024Z</time>
      </trkpt>
      <trkpt lat="48.25633" lon="-3.50602">
        <ele>155.031958</ele>
        <time>2023-05-02T15:51:35.026Z</time>
      </trkpt>
      <trkpt lat="48.2564" lon="-3.5059">
        <ele>155.160056</ele>
        <time>2023-05-02T15:51:39.016Z</time>
      </trkpt>
      <trkpt lat="48.25648" lon="-3.50577">
        <ele>155.295566</ele>
        <time>2023-05-02T15:51:43.024Z</time>
      </trkpt>
      <trkpt lat="48.25655" lon="-3.50563">
        <ele>155.438564</ele>
        <time>2023-05-02T15:51:47.024Z</time>
      </trkpt>
      <trkpt lat="48.25663" lon="-3.50549">
        <ele>155.578255</ele>
        <time>2023-05-02T15:51:51.031Z</time>
      </trkpt>
      <trkpt lat="48.25669" lon="-3.50539">
        <ele>155.692032</ele>
        <time>2023-05-02T15:51:54.026Z</time>
      </trkpt>
      <trkpt lat="48.25676" lon="-3.50525">
        <ele>155.766656</ele>
        <time>2023-05-02T15:51:58.030Z</time>
      </trkpt>
      <trkpt lat="48.25684" lon="-3.50511">
        <ele>155.748027</ele>
        <time>2023-05-02T15:52:02.023Z</time>
      </trkpt>
      <trkpt lat="48.2569" lon="-3.50501">
        <ele>155.733769</ele>
        <time>2023-05-02T15:52:05.032Z</time>
      </trkpt>
      <trkpt lat="48.25695" lon="-3.5049">
        <ele>155.719497</ele>
        <time>2023-05-02T15:52:08.029Z</time>
      </trkpt>
      <trkpt lat="48.25701" lon="-3.50476">
        <ele>155.702266</ele>
        <time>2023-05-02T15:52:12.026Z</time>
      </trkpt>
      <trkpt lat="48.25707" lon="-3.50464">
        <ele>155.687588</ele>
        <time>2023-05-02T15:52:15.030Z</time>
      </trkpt>
      <trkpt lat="48.25711" lon="-3.50451">
        <ele>155.672712</ele>
        <time>2023-05-02T15:52:18.024Z</time>
      </trkpt>
      <trkpt lat="48.25715" lon="-3.50434">
        <ele>155.654821</ele>
        <time>2023-05-02T15:52:22.020Z</time>
      </trkpt>
      <trkpt lat="48.25717" lon="-3.50421">
        <ele>155.640461</ele>
        <time>2023-05-02T15:52:25.021Z</time>
      </trkpt>
      <trkpt lat="48.25719" lon="-3.50407">
        <ele>155.626132</ele>
        <time>2023-05-02T15:52:28.028Z</time>
      </trkpt>
      <trkpt lat="48.2572" lon="-3.5039">
        <ele>155.60868</ele>
        <time>2023-05-02T15:52:32.032Z</time>
      </trkpt>
      <trkpt lat="48.2572" lon="-3.50374">
        <ele>155.591759</ele>
        <time>2023-05-02T15:52:36.040Z</time>
      </trkpt>
      <trkpt lat="48.25718" lon="-3.50358">
        <ele>155.575231</ele>
        <time>2023-05-02T15:52:40.019Z</time>
      </trkpt>
      <trkpt lat="48.25716" lon="-3.50343">
        <ele>155.559856</ele>
        <time>2023-05-02T15:52:44.024Z</time>
      </trkpt>
      <trkpt lat="48.25713" lon="-3.5033">
        <ele>155.545994</ele>
        <time>2023-05-02T15:52:48.026Z</time>
      </trkpt>
      <trkpt lat="48.25709" lon="-3.50318">
        <ele>155.532098</ele>
        <time>2023-05-02T15:52:52.025Z</time>
      </trkpt>
      <trkpt lat="48.25705" lon="-3.50304">
        <ele>155.515954</ele>
        <time>2023-05-02T15:52:56.025Z</time>
      </trkpt>
      <trkpt lat="48.25702" lon="-3.50291">
        <ele>155.502038</ele>
        <time>2023-05-02T15:53:00.018Z</time>
      </trkpt>
      <trkpt lat="48.25696" lon="-3.50276">
        <ele>155.620505</ele>
        <time>2023-05-02T15:53:05.022Z</time>
      </trkpt>
      <trkpt lat="48.25692" lon="-3.50262">
        <ele>155.803329</ele>
        <time>2023-05-02T15:53:10.020Z</time>
      </trkpt>
      <trkpt lat="48.25687" lon="-3.50248">
        <ele>155.979583</ele>
        <time>2023-05-02T15:53:16.030Z</time>
      </trkpt>
      <trkpt lat="48.25683" lon="-3.50234">
        <ele>156.151662</ele>
        <time>2023-05-02T15:53:21.018Z</time>
      </trkpt>
      <trkpt lat="48.25679" lon="-3.50222">
        <ele>156.305865</ele>
        <time>2023-05-02T15:53:25.028Z</time>
      </trkpt>
      <trkpt lat="48.25675" lon="-3.50208">
        <ele>156.470731</ele>
        <time>2023-05-02T15:53:29.014Z</time>
      </trkpt>
      <trkpt lat="48.25671" lon="-3.50194">
        <ele>156.648675</ele>
        <time>2023-05-02T15:53:33.033Z</time>
      </trkpt>
      <trkpt lat="48.25667" lon="-3.50179">
        <ele>156.83665</ele>
        <time>2023-05-02T15:53:37.030Z</time>
      </trkpt>
      <trkpt lat="48.25663" lon="-3.50166">
        <ele>156.997155</ele>
        <time>2023-05-02T15:53:40.019Z</time>
      </trkpt>
      <trkpt lat="48.25659" lon="-3.50153">
        <ele>157.152518</ele>
        <time>2023-05-02T15:53:43.016Z</time>
      </trkpt>
      <trkpt lat="48.25655" lon="-3.50138">
        <ele>157.340122</ele>
        <time>2023-05-02T15:53:47.023Z</time>
      </trkpt>
      <trkpt lat="48.2565" lon="-3.50124">
        <ele>157.518618</ele>
        <time>2023-05-02T15:53:50.017Z</time>
      </trkpt>
      <trkpt lat="48.25645" lon="-3.50112">
        <ele>157.675865</ele>
        <time>2023-05-02T15:53:53.022Z</time>
      </trkpt>
      <trkpt lat="48.25641" lon="-3.50099">
        <ele>157.842146</ele>
        <time>2023-05-02T15:53:56.023Z</time>
      </trkpt>
      <trkpt lat="48.25637" lon="-3.50086">
        <ele>158.004256</ele>
        <time>2023-05-02T15:53:59.023Z</time>
      </trkpt>
      <trkpt lat="48.25634" lon="-3.50071">
        <ele>158.187373</ele>
        <time>2023-05-02T15:54:03.022Z</time>
      </trkpt>
      <trkpt lat="48.25629" lon="-3.50056">
        <ele>158.368896</ele>
        <time>2023-05-02T15:54:07.023Z</time>
      </trkpt>
      <trkpt lat="48.25623" lon="-3.50041">
        <ele>158.53974</ele>
        <time>2023-05-02T15:54:11.018Z</time>
      </trkpt>
      <trkpt lat="48.25617" lon="-3.5003">
        <ele>158.410427</ele>
        <time>2023-05-02T15:54:14.025Z</time>
      </trkpt>
      <trkpt lat="48.25609" lon="-3.50019">
        <ele>158.271445</ele>
        <time>2023-05-02T15:54:17.031Z</time>
      </trkpt>
      <trkpt lat="48.25602" lon="-3.5001">
        <ele>158.144999</ele>
        <time>2023-05-02T15:54:20.021Z</time>
      </trkpt>
      <trkpt lat="48.25594" lon="-3.50003">
        <ele>158.012902</ele>
        <time>2023-05-02T15:54:24.033Z</time>
      </trkpt>
      <trkpt lat="48.25586" lon="-3.49996">
        <ele>157.883423</ele>
        <time>2023-05-02T15:54:28.026Z</time>
      </trkpt>
      <trkpt lat="48.25575" lon="-3.49991">
        <ele>157.73025</ele>
        <time>2023-05-02T15:54:32.024Z</time>
      </trkpt>
      <trkpt lat="48.25566" lon="-3.49986">
        <ele>157.596231</ele>
        <time>2023-05-02T15:54:36.030Z</time>
      </trkpt>
      <trkpt lat="48.25556" lon="-3.49978">
        <ele>157.446803</ele>
        <time>2023-05-02T15:54:40.024Z</time>
      </trkpt>
      <trkpt lat="48.25546" lon="-3.49971">
        <ele>157.29287</ele>
        <time>2023-05-02T15:54:44.031Z</time>
      </trkpt>
      <trkpt lat="48.25536" lon="-3.49965">
        <ele>157.143148</ele>
        <time>2023-05-02T15:54:48.024Z</time>
      </trkpt>
      <trkpt lat="48.25526" lon="-3.49957">
        <ele>156.997494</ele>
        <time>2023-05-02T15:54:52.030Z</time>
      </trkpt>
      <trkpt lat="48.25515" lon="-3.49951">
        <ele>156.834097</ele>
        <time>2023-05-02T15:54:56.024Z</time>
      </trkpt>
      <trkpt lat="48.25506" lon="-3.49945">
        <ele>156.696372</ele>
        <time>2023-05-02T15:55:00.031Z</time>
      </trkpt>
      <trkpt lat="48.25496" lon="-3.49937">
        <ele>156.537601</ele>
        <time>2023-05-02T15:55:04.029Z</time>
      </trkpt>
      <trkpt lat="48.25486" lon="-3.49931">
        <ele>156.394874</ele>
        <time>2023-05-02T15:55:07.011Z</time>
      </trkpt>
      <trkpt lat="48.25477" lon="-3.49924">
        <ele>156.265812</ele>
        <time>2023-05-02T15:55:10.022Z</time>
      </trkpt>
      <trkpt lat="48.25468" lon="-3.49918">
        <ele>156.128183</ele>
        <time>2023-05-02T15:55:13.023Z</time>
      </trkpt>
      <trkpt lat="48.25459" lon="-3.49911">
        <ele>156.142294</ele>
        <time>2023-05-02T15:55:16.027Z</time>
      </trkpt>
      <trkpt lat="48.25449" lon="-3.49903">
        <ele>156.205056</ele>
        <time>2023-05-02T15:55:19.024Z</time>
      </trkpt>
      <trkpt lat="48.2544" lon="-3.49898">
        <ele>156.259907</ele>
        <time>2023-05-02T15:55:22.024Z</time>
      </trkpt>
      <trkpt lat="48.25431" lon="-3.49892">
        <ele>156.31061</ele>
        <time>2023-05-02T15:55:25.030Z</time>
      </trkpt>
      <trkpt lat="48.25423" lon="-3.49886">
        <ele>156.364273</ele>
        <time>2023-05-02T15:55:28.026Z</time>
      </trkpt>
      <trkpt lat="48.25414" lon="-3.4988">
        <ele>156.419935</ele>
        <time>2023-05-02T15:55:31.025Z</time>
      </trkpt>
      <trkpt lat="48.25405" lon="-3.49873">
        <ele>156.472111</ele>
        <time>2023-05-02T15:55:34.014Z</time>
      </trkpt>
      <trkpt lat="48.25395" lon="-3.49868">
        <ele>156.530087</ele>
        <time>2023-05-02T15:55:37.032Z</time>
      </trkpt>
      <trkpt lat="48.25387" lon="-3.49862">
        <ele>156.583775</ele>
        <time>2023-05-02T15:55:40.020Z</time>
      </trkpt>
      <trkpt lat="48.25377" lon="-3.49852">
        <ele>156.650945</ele>
        <time>2023-05-02T15:55:44.022Z</time>
      </trkpt>
      <trkpt lat="48.25369" lon="-3.49842">
        <ele>156.705056</ele>
        <time>2023-05-02T15:55:48.030Z</time>
      </trkpt>
      <trkpt lat="48.25362" lon="-3.49831">
        <ele>156.764042</ele>
        <time>2023-05-02T15:55:51.040Z</time>
      </trkpt>
      <trkpt lat="48.25355" lon="-3.49817">
        <ele>156.826184</ele>
        <time>2023-05-02T15:55:55.031Z</time>
      </trkpt>
      <trkpt lat="48.25349" lon="-3.49804">
        <ele>156.885144</ele>
        <time>2023-05-02T15:55:58.032Z</time>
      </trkpt>
      <trkpt lat="48.25344" lon="-3.49789">
        <ele>156.946438</ele>
        <time>2023-05-02T15:56:01.021Z</time>
      </trkpt>
      <trkpt lat="48.2534" lon="-3.49774">
        <ele>157.005929</ele>
        <time>2023-05-02T15:56:04.022Z</time>
      </trkpt>
      <trkpt lat="48.25337" lon="-3.49758">
        <ele>157.068303</ele>
        <time>2023-05-02T15:56:07.015Z</time>
      </trkpt>
      <trkpt lat="48.25336" lon="-3.49741">
        <ele>157.234703</ele>
        <time>2023-05-02T15:56:10.024Z</time>
      </trkpt>
      <trkpt lat="48.25337" lon="-3.49726">
        <ele>157.462746</ele>
        <time>2023-05-02T15:56:13.021Z</time>
      </trkpt>
      <trkpt lat="48.25338" lon="-3.49712">
        <ele>157.667917</ele>
        <time>2023-05-02T15:56:16.026Z</time>
      </trkpt>
      <trkpt lat="48.25339" lon="-3.49696">
        <ele>157.917894</ele>
        <time>2023-05-02T15:56:20.021Z</time>
      </trkpt>
      <trkpt lat="48.25341" lon="-3.49679">
        <ele>158.167508</ele>
        <time>2023-05-02T15:56:25.026Z</time>
      </trkpt>
      <trkpt lat="48.25343" lon="-3.49665">
        <ele>158.382068</ele>
        <time>2023-05-02T15:56:29.029Z</time>
      </trkpt>
      <trkpt lat="48.25345" lon="-3.49648">
        <ele>158.62908</ele>
        <time>2023-05-02T15:56:33.030Z</time>
      </trkpt>
      <trkpt lat="48.25348" lon="-3.49633">
        <ele>158.867925</ele>
        <time>2023-05-02T15:56:37.026Z</time>
      </trkpt>
      <trkpt lat="48.2535" lon="-3.49619">
        <ele>159.0824</ele>
        <time>2023-05-02T15:56:41.025Z</time>
      </trkpt>
      <trkpt lat="48.25352" lon="-3.49603">
        <ele>159.314158</ele>
        <time>2023-05-02T15:56:45.019Z</time>
      </trkpt>
      <trkpt lat="48.25352" lon="-3.49586">
        <ele>159.573443</ele>
        <time>2023-05-02T15:56:49.034Z</time>
      </trkpt>
      <trkpt lat="48.25353" lon="-3.49572">
        <ele>159.772514</ele>
        <time>2023-05-02T15:56:52.025Z</time>
      </trkpt>
      <trkpt lat="48.25353" lon="-3.49556">
        <ele>160.010834</ele>
        <time>2023-05-02T15:56:56.031Z</time>
      </trkpt>
      <trkpt lat="48.25353" lon="-3.49542">
        <ele>160.219762</ele>
        <time>2023-05-02T15:56:59.030Z</time>
      </trkpt>
      <trkpt lat="48.25353" lon="-3.49527">
        <ele>160.440334</ele>
        <time>2023-05-02T15:57:03.019Z</time>
      </trkpt>
      <trkpt lat="48.25354" lon="-3.4951">
        <ele>160.696008</ele>
        <time>2023-05-02T15:57:07.029Z</time>
      </trkpt>
      <trkpt lat="48.25357" lon="-3.49495">
        <ele>160.924168</ele>
        <time>2023-05-02T15:57:11.020Z</time>
      </trkpt>
      <trkpt lat="48.2536" lon="-3.49481">
        <ele>161.071803</ele>
        <time>2023-05-02T15:57:15.024Z</time>
      </trkpt>
      <trkpt lat="48.25363" lon="-3.49467">
        <ele>160.979204</ele>
        <time>2023-05-02T15:57:19.029Z</time>
      </trkpt>
      <trkpt lat="48.25367" lon="-3.4945">
        <ele>160.877007</ele>
        <time>2023-05-02T15:57:23.022Z</time>
      </trkpt>
      <trkpt lat="48.25367" lon="-3.49436">
        <ele>160.79405</ele>
        <time>2023-05-02T15:57:27.033Z</time>
      </trkpt>
      <trkpt lat="48.25366" lon="-3.49422">
        <ele>160.710304</ele>
        <time>2023-05-02T15:57:30.031Z</time>
      </trkpt>
      <trkpt lat="48.25368" lon="-3.49408">
        <ele>160.623496</ele>
        <time>2023-05-02T15:57:34.027Z</time>
      </trkpt>
      <trkpt lat="48.25368" lon="-3.49393">
        <ele>160.53261</ele>
        <time>2023-05-02T15:57:38.030Z</time>
      </trkpt>
      <trkpt lat="48.2537" lon="-3.49378">
        <ele>160.44404</ele>
        <time>2023-05-02T15:57:42.024Z</time>
      </trkpt>
      <trkpt lat="48.25371" lon="-3.49364">
        <ele>160.362319</ele>
        <time>2023-05-02T15:57:45.028Z</time>
      </trkpt>
      <trkpt lat="48.25373" lon="-3.49348">
        <ele>160.264875</ele>
        <time>2023-05-02T15:57:48.029Z</time>
      </trkpt>
      <trkpt lat="48.25373" lon="-3.49335">
        <ele>160.183706</ele>
        <time>2023-05-02T15:57:51.025Z</time>
      </trkpt>
      <trkpt lat="48.25372" lon="-3.49318">
        <ele>160.084104</ele>
        <time>2023-05-02T15:57:55.029Z</time>
      </trkpt>
      <trkpt lat="48.2537" lon="-3.49302">
        <ele>159.98934</ele>
        <time>2023-05-02T15:57:59.026Z</time>
      </trkpt>
      <trkpt lat="48.25367" lon="-3.49286">
        <ele>159.890518</ele>
        <time>2023-05-02T15:58:04.027Z</time>
      </trkpt>
      <trkpt lat="48.25366" lon="-3.49269">
        <ele>159.787951</ele>
        <time>2023-05-02T15:58:08.030Z</time>
      </trkpt>
      <trkpt lat="48.25365" lon="-3.49254">
        <ele>159.696527</ele>
        <time>2023-05-02T15:58:11.025Z</time>
      </trkpt>
      <trkpt lat="48.25363" lon="-3.49238">
        <ele>159.599443</ele>
        <time>2023-05-02T15:58:15.026Z</time>
      </trkpt>
      <trkpt lat="48.25363" lon="-3.49225">
        <ele>159.518299</ele>
        <time>2023-05-02T15:58:18.032Z</time>
      </trkpt>
      <trkpt lat="48.25361" lon="-3.49209">
        <ele>159.391639</ele>
        <time>2023-05-02T15:58:22.024Z</time>
      </trkpt>
      <trkpt lat="48.2536" lon="-3.49196">
        <ele>159.255796</ele>
        <time>2023-05-02T15:58:25.027Z</time>
      </trkpt>
      <trkpt lat="48.25358" lon="-3.49178">
        <ele>159.07775</ele>
        <time>2023-05-02T15:58:29.031Z</time>
      </trkpt>
      <trkpt lat="48.25357" lon="-3.49163">
        <ele>158.926876</ele>
        <time>2023-05-02T15:58:33.030Z</time>
      </trkpt>
      <trkpt lat="48.25355" lon="-3.49146">
        <ele>158.750459</ele>
        <time>2023-05-02T15:58:37.027Z</time>
      </trkpt>
      <trkpt lat="48.25352" lon="-3.49128">
        <ele>158.57379</ele>
        <time>2023-05-02T15:58:41.021Z</time>
      </trkpt>
      <trkpt lat="48.25351" lon="-3.49115">
        <ele>158.438737</ele>
        <time>2023-05-02T15:58:44.026Z</time>
      </trkpt>
      <trkpt lat="48.2535" lon="-3.49101">
        <ele>158.299201</ele>
        <time>2023-05-02T15:58:47.030Z</time>
      </trkpt>
      <trkpt lat="48.25349" lon="-3.49087">
        <ele>158.159716</ele>
        <time>2023-05-02T15:58:50.031Z</time>
      </trkpt>
      <trkpt lat="48.25348" lon="-3.4907">
        <ele>157.993854</ele>
        <time>2023-05-02T15:58:54.030Z</time>
      </trkpt>
      <trkpt lat="48.25346" lon="-3.49053">
        <ele>157.821667</ele>
        <time>2023-05-02T15:58:58.028Z</time>
      </trkpt>
      <trkpt lat="48.25344" lon="-3.49036">
        <ele>157.647527</ele>
        <time>2023-05-02T15:59:02.022Z</time>
      </trkpt>
      <trkpt lat="48.25342" lon="-3.4902">
        <ele>157.481039</ele>
        <time>2023-05-02T15:59:06.035Z</time>
      </trkpt>
      <trkpt lat="48.2534" lon="-3.49003">
        <ele>157.312591</ele>
        <time>2023-05-02T15:59:10.025Z</time>
      </trkpt>
      <trkpt lat="48.25338" lon="-3.4899">
        <ele>157.17749</ele>
        <time>2023-05-02T15:59:13.030Z</time>
      </trkpt>
      <trkpt lat="48.25337" lon="-3.48976">
        <ele>157.04046</ele>
        <time>2023-05-02T15:59:16.031Z</time>
      </trkpt>
      <trkpt lat="48.25336" lon="-3.4896">
        <ele>156.880372</ele>
        <time>2023-05-02T15:59:20.027Z</time>
      </trkpt>
      <trkpt lat="48.25334" lon="-3.48943">
        <ele>156.857414</ele>
        <time>2023-05-02T15:59:24.028Z</time>
      </trkpt>
      <trkpt lat="48.25332" lon="-3.48927">
        <ele>156.993919</ele>
        <time>2023-05-02T15:59:28.029Z</time>
      </trkpt>
      <trkpt lat="48.25331" lon="-3.48913">
        <ele>157.10398</ele>
        <time>2023-05-02T15:59:31.029Z</time>
      </trkpt>
      <trkpt lat="48.2533" lon="-3.48899">
        <ele>157.215975</ele>
        <time>2023-05-02T15:59:34.033Z</time>
      </trkpt>
      <trkpt lat="48.25328" lon="-3.48886">
        <ele>157.326245</ele>
        <time>2023-05-02T15:59:37.026Z</time>
      </trkpt>
      <trkpt lat="48.25326" lon="-3.48871">
        <ele>157.450706</ele>
        <time>2023-05-02T15:59:41.021Z</time>
      </trkpt>
      <trkpt lat="48.25323" lon="-3.48854">
        <ele>157.584433</ele>
        <time>2023-05-02T15:59:46.031Z</time>
      </trkpt>
      <trkpt lat="48.25321" lon="-3.48838">
        <ele>157.714773</ele>
        <time>2023-05-02T15:59:50.030Z</time>
      </trkpt>
      <trkpt lat="48.25319" lon="-3.48822">
        <ele>157.846679</ele>
        <time>2023-05-02T15:59:54.021Z</time>
      </trkpt>
      <trkpt lat="48.25318" lon="-3.48806">
        <ele>157.98065</ele>
        <time>2023-05-02T15:59:58.027Z</time>
      </trkpt>
      <trkpt lat="48.25317" lon="-3.48792">
        <ele>158.092782</ele>
        <time>2023-05-02T16:00:01.026Z</time>
      </trkpt>
      <trkpt lat="48.25317" lon="-3.48775">
        <ele>158.224293</ele>
        <time>2023-05-02T16:00:05.017Z</time>
      </trkpt>
      <trkpt lat="48.25317" lon="-3.4876">
        <ele>158.348604</ele>
        <time>2023-05-02T16:00:09.030Z</time>
      </trkpt>
      <trkpt lat="48.25319" lon="-3.48745">
        <ele>158.468256</ele>
        <time>2023-05-02T16:00:13.026Z</time>
      </trkpt>
      <trkpt lat="48.25322" lon="-3.48732">
        <ele>158.578843</ele>
        <time>2023-05-02T16:00:17.003Z</time>
      </trkpt>
      <trkpt lat="48.25326" lon="-3.48718">
        <ele>158.70367</ele>
        <time>2023-05-02T16:00:22.025Z</time>
      </trkpt>
      <trkpt lat="48.25332" lon="-3.48706">
        <ele>158.82124</ele>
        <time>2023-05-02T16:00:26.020Z</time>
      </trkpt>
      <trkpt lat="48.2534" lon="-3.48694">
        <ele>158.957836</ele>
        <time>2023-05-02T16:00:30.028Z</time>
      </trkpt>
      <trkpt lat="48.25348" lon="-3.48682">
        <ele>159.048617</ele>
        <time>2023-05-02T16:00:34.021Z</time>
      </trkpt>
      <trkpt lat="48.25357" lon="-3.48672">
        <ele>159.147022</ele>
        <time>2023-05-02T16:00:38.018Z</time>
      </trkpt>
      <trkpt lat="48.25365" lon="-3.48663">
        <ele>159.231505</ele>
        <time>2023-05-02T16:00:42.020Z</time>
      </trkpt>
      <trkpt lat="48.25374" lon="-3.48653">
        <ele>159.319299</ele>
        <time>2023-05-02T16:00:46.022Z</time>
      </trkpt>
      <trkpt lat="48.25383" lon="-3.48643">
        <ele>159.410414</ele>
        <time>2023-05-02T16:00:50.019Z</time>
      </trkpt>
      <trkpt lat="48.2539" lon="-3.48634">
        <ele>159.48641</ele>
        <time>2023-05-02T16:00:54.023Z</time>
      </trkpt>
      <trkpt lat="48.25396" lon="-3.48623">
        <ele>159.568148</ele>
        <time>2023-05-02T16:01:02.030Z</time>
      </trkpt>
      <trkpt lat="48.25405" lon="-3.48615">
        <ele>159.653153</ele>
        <time>2023-05-02T16:01:07.022Z</time>
      </trkpt>
      <trkpt lat="48.25412" lon="-3.48606">
        <ele>159.728388</ele>
        <time>2023-05-02T16:01:11.021Z</time>
      </trkpt>
      <trkpt lat="48.2542" lon="-3.48596">
        <ele>159.814921</ele>
        <time>2023-05-02T16:01:16.019Z</time>
      </trkpt>
      <trkpt lat="48.25651" lon="-3.46523">
        <ele>171.517433</ele>
        <time>2023-05-02T16:16:13.026Z</time>
      </trkpt>
      <trkpt lat="48.25659" lon="-3.46517">
        <ele>171.287105</ele>
        <time>2023-05-02T16:27:04.243Z</time>
      </trkpt>
      <trkpt lat="48.25663" lon="-3.46503">
        <ele>170.999459</ele>
        <time>2023-05-02T16:29:09.010Z</time>
      </trkpt>
      <trkpt lat="48.25667" lon="-3.4649">
        <ele>170.755304</ele>
        <time>2023-05-02T16:29:13.011Z</time>
      </trkpt>
      <trkpt lat="48.2567" lon="-3.46475">
        <ele>170.491295</ele>
        <time>2023-05-02T16:29:17.012Z</time>
      </trkpt>
      <trkpt lat="48.25673" lon="-3.46458">
        <ele>170.18357</ele>
        <time>2023-05-02T16:29:21.013Z</time>
      </trkpt>
      <trkpt lat="48.25675" lon="-3.4644">
        <ele>169.866796</ele>
        <time>2023-05-02T16:29:25.012Z</time>
      </trkpt>
      <trkpt lat="48.25675" lon="-3.46422">
        <ele>169.553496</ele>
        <time>2023-05-02T16:29:29.013Z</time>
      </trkpt>
      <trkpt lat="48.25675" lon="-3.46409">
        <ele>169.313725</ele>
        <time>2023-05-02T16:29:32.010Z</time>
      </trkpt>
      <trkpt lat="48.25674" lon="-3.46394">
        <ele>169.059092</ele>
        <time>2023-05-02T16:29:35.020Z</time>
      </trkpt>
      <trkpt lat="48.25672" lon="-3.4638">
        <ele>168.80192</ele>
        <time>2023-05-02T16:29:38.015Z</time>
      </trkpt>
      <trkpt lat="48.25669" lon="-3.46367">
        <ele>168.558483</ele>
        <time>2023-05-02T16:29:41.017Z</time>
      </trkpt>
      <trkpt lat="48.25664" lon="-3.46354">
        <ele>168.504082</ele>
        <time>2023-05-02T16:29:44.014Z</time>
      </trkpt>
      <trkpt lat="48.2566" lon="-3.46341">
        <ele>168.556042</ele>
        <time>2023-05-02T16:29:47.006Z</time>
      </trkpt>
      <trkpt lat="48.25653" lon="-3.46327">
        <ele>168.613481</ele>
        <time>2023-05-02T16:29:50.010Z</time>
      </trkpt>
      <trkpt lat="48.25647" lon="-3.46315">
        <ele>168.669062</ele>
        <time>2023-05-02T16:29:53.015Z</time>
      </trkpt>
      <trkpt lat="48.2564" lon="-3.46306">
        <ele>168.71789</ele>
        <time>2023-05-02T16:29:56.023Z</time>
      </trkpt>
      <trkpt lat="48.25631" lon="-3.46296">
        <ele>168.773294</ele>
        <time>2023-05-02T16:30:00.014Z</time>
      </trkpt>
      <trkpt lat="48.25623" lon="-3.4629">
        <ele>168.820952</ele>
        <time>2023-05-02T16:30:03.010Z</time>
      </trkpt>
      <trkpt lat="48.25614" lon="-3.46284">
        <ele>168.873179</ele>
        <time>2023-05-02T16:30:06.003Z</time>
      </trkpt>
      <trkpt lat="48.25604" lon="-3.46279">
        <ele>168.926468</ele>
        <time>2023-05-02T16:30:09.006Z</time>
      </trkpt>
      <trkpt lat="48.25594" lon="-3.46274">
        <ele>168.980589</ele>
        <time>2023-05-02T16:30:12.005Z</time>
      </trkpt>
      <trkpt lat="48.25584" lon="-3.4627">
        <ele>169.033656</ele>
        <time>2023-05-02T16:30:15.018Z</time>
      </trkpt>
      <trkpt lat="48.25575" lon="-3.46264">
        <ele>169.086915</ele>
        <time>2023-05-02T16:30:18.015Z</time>
      </trkpt>
      <trkpt lat="48.25566" lon="-3.46258">
        <ele>169.137677</ele>
        <time>2023-05-02T16:30:21.013Z</time>
      </trkpt>
      <trkpt lat="48.25557" lon="-3.46251">
        <ele>169.189051</ele>
        <time>2023-05-02T16:30:24.024Z</time>
      </trkpt>
      <trkpt lat="48.25548" lon="-3.46245">
        <ele>169.240432</ele>
        <time>2023-05-02T16:30:27.016Z</time>
      </trkpt>
      <trkpt lat="48.25539" lon="-3.46239">
        <ele>169.291907</ele>
        <time>2023-05-02T16:30:30.013Z</time>
      </trkpt>
      <trkpt lat="48.25531" lon="-3.46233">
        <ele>169.340813</ele>
        <time>2023-05-02T16:30:33.013Z</time>
      </trkpt>
      <trkpt lat="48.25521" lon="-3.46226">
        <ele>169.399949</ele>
        <time>2023-05-02T16:30:37.015Z</time>
      </trkpt>
      <trkpt lat="48.25512" lon="-3.4622">
        <ele>169.504046</ele>
        <time>2023-05-02T16:30:40.025Z</time>
      </trkpt>
      <trkpt lat="48.25503" lon="-3.46213">
        <ele>169.619576</ele>
        <time>2023-05-02T16:30:43.018Z</time>
      </trkpt>
      <trkpt lat="48.25494" lon="-3.46206">
        <ele>169.737938</ele>
        <time>2023-05-02T16:30:46.021Z</time>
      </trkpt>
      <trkpt lat="48.25484" lon="-3.46201">
        <ele>169.85982</ele>
        <time>2023-05-02T16:30:49.013Z</time>
      </trkpt>
      <trkpt lat="48.25474" lon="-3.46194">
        <ele>169.985451</ele>
        <time>2023-05-02T16:30:52.024Z</time>
      </trkpt>
      <trkpt lat="48.25464" lon="-3.46186">
        <ele>170.121184</ele>
        <time>2023-05-02T16:30:55.015Z</time>
      </trkpt>
      <trkpt lat="48.25453" lon="-3.46178">
        <ele>170.264892</ele>
        <time>2023-05-02T16:30:58.018Z</time>
      </trkpt>
      <trkpt lat="48.25442" lon="-3.4617">
        <ele>170.404081</ele>
        <time>2023-05-02T16:31:01.016Z</time>
      </trkpt>
      <trkpt lat="48.25432" lon="-3.46164">
        <ele>170.525002</ele>
        <time>2023-05-02T16:31:04.015Z</time>
      </trkpt>
      <trkpt lat="48.25423" lon="-3.46156">
        <ele>170.652705</ele>
        <time>2023-05-02T16:31:08.034Z</time>
      </trkpt>
      <trkpt lat="48.25412" lon="-3.46149">
        <ele>170.788197</ele>
        <time>2023-05-02T16:31:12.016Z</time>
      </trkpt>
      <trkpt lat="48.25402" lon="-3.46143">
        <ele>170.91188</ele>
        <time>2023-05-02T16:31:16.011Z</time>
      </trkpt>
      <trkpt lat="48.25392" lon="-3.46137">
        <ele>171.040025</ele>
        <time>2023-05-02T16:31:20.017Z</time>
      </trkpt>
      <trkpt lat="48.25382" lon="-3.4613">
        <ele>171.174705</ele>
        <time>2023-05-02T16:31:24.016Z</time>
      </trkpt>
      <trkpt lat="48.25372" lon="-3.46121">
        <ele>171.307999</ele>
        <time>2023-05-02T16:31:28.020Z</time>
      </trkpt>
      <trkpt lat="48.25362" lon="-3.46113">
        <ele>171.439877</ele>
        <time>2023-05-02T16:31:32.014Z</time>
      </trkpt>
      <trkpt lat="48.25352" lon="-3.46106">
        <ele>171.545017</ele>
        <time>2023-05-02T16:31:36.015Z</time>
      </trkpt>
      <trkpt lat="48.25343" lon="-3.461">
        <ele>171.612092</ele>
        <time>2023-05-02T16:31:39.015Z</time>
      </trkpt>
      <trkpt lat="48.25334" lon="-3.46093">
        <ele>171.681686</ele>
        <time>2023-05-02T16:31:42.016Z</time>
      </trkpt>
      <trkpt lat="48.25326" lon="-3.46087">
        <ele>171.749815</ele>
        <time>2023-05-02T16:31:45.019Z</time>
      </trkpt>
      <trkpt lat="48.25317" lon="-3.46079">
        <ele>171.818916</ele>
        <time>2023-05-02T16:31:48.013Z</time>
      </trkpt>
      <trkpt lat="48.2531" lon="-3.4607">
        <ele>171.886984</ele>
        <time>2023-05-02T16:31:51.011Z</time>
      </trkpt>
      <trkpt lat="48.25302" lon="-3.46063">
        <ele>171.951862</ele>
        <time>2023-05-02T16:31:54.014Z</time>
      </trkpt>
      <trkpt lat="48.25292" lon="-3.46054">
        <ele>172.030599</ele>
        <time>2023-05-02T16:31:58.016Z</time>
      </trkpt>
      <trkpt lat="48.25285" lon="-3.46047">
        <ele>172.094884</ele>
        <time>2023-05-02T16:32:01.025Z</time>
      </trkpt>
      <trkpt lat="48.25277" lon="-3.46039">
        <ele>172.159881</ele>
        <time>2023-05-02T16:32:04.013Z</time>
      </trkpt>
      <trkpt lat="48.2527" lon="-3.4603">
        <ele>172.223929</ele>
        <time>2023-05-02T16:32:07.009Z</time>
      </trkpt>
      <trkpt lat="48.25263" lon="-3.46019">
        <ele>172.294178</ele>
        <time>2023-05-02T16:32:10.012Z</time>
      </trkpt>
      <trkpt lat="48.25255" lon="-3.46008">
        <ele>172.368225</ele>
        <time>2023-05-02T16:32:13.015Z</time>
      </trkpt>
      <trkpt lat="48.25249" lon="-3.45997">
        <ele>172.435225</ele>
        <time>2023-05-02T16:32:16.010Z</time>
      </trkpt>
      <trkpt lat="48.2524" lon="-3.45985">
        <ele>172.518415</ele>
        <time>2023-05-02T16:32:20.017Z</time>
      </trkpt>
      <trkpt lat="48.25233" lon="-3.45972">
        <ele>172.60257</ele>
        <time>2023-05-02T16:32:24.020Z</time>
      </trkpt>
      <trkpt lat="48.25225" lon="-3.45957">
        <ele>172.686516</ele>
        <time>2023-05-02T16:32:28.014Z</time>
      </trkpt>
      <trkpt lat="48.25219" lon="-3.45946">
        <ele>172.756972</ele>
        <time>2023-05-02T16:32:31.003Z</time>
      </trkpt>
      <trkpt lat="48.25213" lon="-3.45934">
        <ele>172.955429</ele>
        <time>2023-05-02T16:32:34.019Z</time>
      </trkpt>
      <trkpt lat="48.25207" lon="-3.45918">
        <ele>173.267105</ele>
        <time>2023-05-02T16:32:38.018Z</time>
      </trkpt>
      <trkpt lat="48.25202" lon="-3.45906">
        <ele>173.503485</ele>
        <time>2023-05-02T16:32:41.002Z</time>
      </trkpt>
      <trkpt lat="48.25196" lon="-3.45894">
        <ele>173.74672</ele>
        <time>2023-05-02T16:32:44.010Z</time>
      </trkpt>
      <trkpt lat="48.25191" lon="-3.45883">
        <ele>173.989143</ele>
        <time>2023-05-02T16:32:47.015Z</time>
      </trkpt>
      <trkpt lat="48.25184" lon="-3.45868">
        <ele>174.283873</ele>
        <time>2023-05-02T16:32:51.012Z</time>
      </trkpt>
      <trkpt lat="48.25179" lon="-3.45854">
        <ele>174.539429</ele>
        <time>2023-05-02T16:32:54.012Z</time>
      </trkpt>
      <trkpt lat="48.25176" lon="-3.45841">
        <ele>174.778583</ele>
        <time>2023-05-02T16:32:57.015Z</time>
      </trkpt>
      <trkpt lat="48.25171" lon="-3.45826">
        <ele>175.049806</ele>
        <time>2023-05-02T16:33:00.015Z</time>
      </trkpt>
      <trkpt lat="48.25167" lon="-3.45812">
        <ele>175.314399</ele>
        <time>2023-05-02T16:33:03.018Z</time>
      </trkpt>
      <trkpt lat="48.25163" lon="-3.45798">
        <ele>175.56127</ele>
        <time>2023-05-02T16:33:06.013Z</time>
      </trkpt>
      <trkpt lat="48.25161" lon="-3.45785">
        <ele>175.788828</ele>
        <time>2023-05-02T16:33:09.009Z</time>
      </trkpt>
      <trkpt lat="48.25158" lon="-3.45768">
        <ele>176.085551</ele>
        <time>2023-05-02T16:33:13.011Z</time>
      </trkpt>
      <trkpt lat="48.25156" lon="-3.45751">
        <ele>176.370896</ele>
        <time>2023-05-02T16:33:17.011Z</time>
      </trkpt>
      <trkpt lat="48.25154" lon="-3.45734">
        <ele>176.661637</ele>
        <time>2023-05-02T16:33:21.015Z</time>
      </trkpt>
      <trkpt lat="48.25152" lon="-3.45718">
        <ele>176.924836</ele>
        <time>2023-05-02T16:33:25.016Z</time>
      </trkpt>
      <trkpt lat="48.25151" lon="-3.45703">
        <ele>177.181447</ele>
        <time>2023-05-02T16:33:29.013Z</time>
      </trkpt>
      <trkpt lat="48.25151" lon="-3.45687">
        <ele>177.198988</ele>
        <time>2023-05-02T16:33:34.005Z</time>
      </trkpt>
      <trkpt lat="48.2515" lon="-3.45671">
        <ele>177.055075</ele>
        <time>2023-05-02T16:33:40.020Z</time>
      </trkpt>
      <trkpt lat="48.2515" lon="-3.45656">
        <ele>176.919468</ele>
        <time>2023-05-02T16:33:44.016Z</time>
      </trkpt>
      <trkpt lat="48.25149" lon="-3.45642">
        <ele>176.790459</ele>
        <time>2023-05-02T16:33:48.018Z</time>
      </trkpt>
      <trkpt lat="48.2515" lon="-3.45624">
        <ele>176.6362</ele>
        <time>2023-05-02T16:33:53.016Z</time>
      </trkpt>
      <trkpt lat="48.25151" lon="-3.45609">
        <ele>176.493744</ele>
        <time>2023-05-02T16:33:57.020Z</time>
      </trkpt>
      <trkpt lat="48.25153" lon="-3.45592">
        <ele>176.346781</ele>
        <time>2023-05-02T16:34:01.023Z</time>
      </trkpt>
      <trkpt lat="48.25153" lon="-3.45576">
        <ele>176.201383</ele>
        <time>2023-05-02T16:34:05.009Z</time>
      </trkpt>
      <trkpt lat="48.25152" lon="-3.45558">
        <ele>176.037488</ele>
        <time>2023-05-02T16:34:09.008Z</time>
      </trkpt>
      <trkpt lat="48.25151" lon="-3.45544">
        <ele>175.912497</ele>
        <time>2023-05-02T16:34:12.015Z</time>
      </trkpt>
      <trkpt lat="48.25151" lon="-3.45526">
        <ele>175.758092</ele>
        <time>2023-05-02T16:34:16.015Z</time>
      </trkpt>
      <trkpt lat="48.2515" lon="-3.45513">
        <ele>175.635628</ele>
        <time>2023-05-02T16:34:19.017Z</time>
      </trkpt>
      <trkpt lat="48.2515" lon="-3.45495">
        <ele>175.480332</ele>
        <time>2023-05-02T16:34:23.014Z</time>
      </trkpt>
      <trkpt lat="48.2515" lon="-3.45479">
        <ele>175.331318</ele>
        <time>2023-05-02T16:34:27.013Z</time>
      </trkpt>
      <trkpt lat="48.25151" lon="-3.45463">
        <ele>175.195826</ele>
        <time>2023-05-02T16:34:31.012Z</time>
      </trkpt>
      <trkpt lat="48.25151" lon="-3.45446">
        <ele>175.04419</ele>
        <time>2023-05-02T16:34:35.014Z</time>
      </trkpt>
      <trkpt lat="48.25151" lon="-3.45429">
        <ele>174.886288</ele>
        <time>2023-05-02T16:34:39.012Z</time>
      </trkpt>
      <trkpt lat="48.25151" lon="-3.45415">
        <ele>175.042555</ele>
        <time>2023-05-02T16:34:42.019Z</time>
      </trkpt>
      <trkpt lat="48.25152" lon="-3.45401">
        <ele>175.232805</ele>
        <time>2023-05-02T16:34:45.016Z</time>
      </trkpt>
      <trkpt lat="48.25153" lon="-3.45386">
        <ele>175.430665</ele>
        <time>2023-05-02T16:34:48.016Z</time>
      </trkpt>
      <trkpt lat="48.25154" lon="-3.45373">
        <ele>175.61843</ele>
        <time>2023-05-02T16:34:51.010Z</time>
      </trkpt>
      <trkpt lat="48.25156" lon="-3.45355">
        <ele>175.860324</ele>
        <time>2023-05-02T16:34:55.019Z</time>
      </trkpt>
      <trkpt lat="48.25156" lon="-3.45337">
        <ele>176.097348</ele>
        <time>2023-05-02T16:34:59.006Z</time>
      </trkpt>
      <trkpt lat="48.25156" lon="-3.45324">
        <ele>176.279998</ele>
        <time>2023-05-02T16:35:02.013Z</time>
      </trkpt>
      <trkpt lat="48.25157" lon="-3.45308">
        <ele>176.495412</ele>
        <time>2023-05-02T16:35:06.013Z</time>
      </trkpt>
      <trkpt lat="48.25157" lon="-3.45293">
        <ele>176.702404</ele>
        <time>2023-05-02T16:35:10.014Z</time>
      </trkpt>
      <trkpt lat="48.25157" lon="-3.45277">
        <ele>176.909367</ele>
        <time>2023-05-02T16:35:13.014Z</time>
      </trkpt>
      <trkpt lat="48.25157" lon="-3.45264">
        <ele>177.096041</ele>
        <time>2023-05-02T16:35:16.013Z</time>
      </trkpt>
      <trkpt lat="48.25159" lon="-3.45249">
        <ele>177.290845</ele>
        <time>2023-05-02T16:35:19.019Z</time>
      </trkpt>
      <trkpt lat="48.2516" lon="-3.45236">
        <ele>177.47535</ele>
        <time>2023-05-02T16:35:22.015Z</time>
      </trkpt>
      <trkpt lat="48.25162" lon="-3.4522">
        <ele>177.69229</ele>
        <time>2023-05-02T16:35:26.012Z</time>
      </trkpt>
      <trkpt lat="48.25165" lon="-3.45203">
        <ele>177.939983</ele>
        <time>2023-05-02T16:35:30.010Z</time>
      </trkpt>
      <trkpt lat="48.25169" lon="-3.45189">
        <ele>178.135942</ele>
        <time>2023-05-02T16:35:33.008Z</time>
      </trkpt>
      <trkpt lat="48.25174" lon="-3.45174">
        <ele>178.36163</ele>
        <time>2023-05-02T16:35:37.013Z</time>
      </trkpt>
      <trkpt lat="48.25181" lon="-3.45162">
        <ele>178.548427</ele>
        <time>2023-05-02T16:35:41.002Z</time>
      </trkpt>
      <trkpt lat="48.25189" lon="-3.4515">
        <ele>178.646385</ele>
        <time>2023-05-02T16:35:45.012Z</time>
      </trkpt>
      <trkpt lat="48.25197" lon="-3.4514">
        <ele>178.73786</ele>
        <time>2023-05-02T16:35:49.009Z</time>
      </trkpt>
      <trkpt lat="48.25206" lon="-3.45131">
        <ele>178.824634</ele>
        <time>2023-05-02T16:35:53.014Z</time>
      </trkpt>
      <trkpt lat="48.25215" lon="-3.45122">
        <ele>178.914794</ele>
        <time>2023-05-02T16:35:57.015Z</time>
      </trkpt>
      <trkpt lat="48.25223" lon="-3.45112">
        <ele>179.008389</ele>
        <time>2023-05-02T16:36:01.011Z</time>
      </trkpt>
      <trkpt lat="48.25231" lon="-3.45104">
        <ele>179.085648</ele>
        <time>2023-05-02T16:36:04.016Z</time>
      </trkpt>
      <trkpt lat="48.25241" lon="-3.45096">
        <ele>179.184002</ele>
        <time>2023-05-02T16:36:08.009Z</time>
      </trkpt>
      <trkpt lat="48.2525" lon="-3.45089">
        <ele>179.269438</ele>
        <time>2023-05-02T16:36:12.003Z</time>
      </trkpt>
      <trkpt lat="48.25259" lon="-3.45083">
        <ele>179.354365</ele>
        <time>2023-05-02T16:36:17.010Z</time>
      </trkpt>
      <trkpt lat="48.25269" lon="-3.45075">
        <ele>179.451194</ele>
        <time>2023-05-02T16:36:21.012Z</time>
      </trkpt>
      <trkpt lat="48.25279" lon="-3.45068">
        <ele>179.545998</ele>
        <time>2023-05-02T16:36:24.012Z</time>
      </trkpt>
      <trkpt lat="48.25288" lon="-3.45062">
        <ele>179.626879</ele>
        <time>2023-05-02T16:36:27.013Z</time>
      </trkpt>
      <trkpt lat="48.25296" lon="-3.45055">
        <ele>179.70607</ele>
        <time>2023-05-02T16:36:30.008Z</time>
      </trkpt>
      <trkpt lat="48.25303" lon="-3.45047">
        <ele>179.783929</ele>
        <time>2023-05-02T16:36:33.017Z</time>
      </trkpt>
      <trkpt lat="48.25312" lon="-3.45039">
        <ele>179.869127</ele>
        <time>2023-05-02T16:36:36.020Z</time>
      </trkpt>
      <trkpt lat="48.25321" lon="-3.45032">
        <ele>179.958693</ele>
        <time>2023-05-02T16:36:39.016Z</time>
      </trkpt>
      <trkpt lat="48.2533" lon="-3.45025">
        <ele>180.040566</ele>
        <time>2023-05-02T16:36:42.021Z</time>
      </trkpt>
      <trkpt lat="48.25338" lon="-3.45018">
        <ele>180.109792</ele>
        <time>2023-05-02T16:36:45.008Z</time>
      </trkpt>
      <trkpt lat="48.2535" lon="-3.45011">
        <ele>180.188441</ele>
        <time>2023-05-02T16:36:49.013Z</time>
      </trkpt>
      <trkpt lat="48.25358" lon="-3.45004">
        <ele>180.253036</ele>
        <time>2023-05-02T16:36:52.020Z</time>
      </trkpt>
      <trkpt lat="48.25368" lon="-3.44995">
        <ele>180.327103</ele>
        <time>2023-05-02T16:36:56.013Z</time>
      </trkpt>
      <trkpt lat="48.25379" lon="-3.44987">
        <ele>180.404478</ele>
        <time>2023-05-02T16:37:00.011Z</time>
      </trkpt>
      <trkpt lat="48.25387" lon="-3.4498">
        <ele>180.467703</ele>
        <time>2023-05-02T16:37:03.016Z</time>
      </trkpt>
      <trkpt lat="48.25397" lon="-3.44971">
        <ele>180.54133</ele>
        <time>2023-05-02T16:37:07.012Z</time>
      </trkpt>
      <trkpt lat="48.25406" lon="-3.44964">
        <ele>180.603291</ele>
        <time>2023-05-02T16:37:10.010Z</time>
      </trkpt>
      <trkpt lat="48.25413" lon="-3.44956">
        <ele>180.66398</ele>
        <time>2023-05-02T16:37:13.015Z</time>
      </trkpt>
      <trkpt lat="48.25423" lon="-3.44947">
        <ele>180.741496</ele>
        <time>2023-05-02T16:37:17.015Z</time>
      </trkpt>
      <trkpt lat="48.25431" lon="-3.4494">
        <ele>180.80066</ele>
        <time>2023-05-02T16:37:20.016Z</time>
      </trkpt>
      <trkpt lat="48.25441" lon="-3.44933">
        <ele>180.868529</ele>
        <time>2023-05-02T16:37:24.016Z</time>
      </trkpt>
      <trkpt lat="48.25449" lon="-3.44925">
        <ele>180.93559</ele>
        <time>2023-05-02T16:37:28.020Z</time>
      </trkpt>
      <trkpt lat="48.25458" lon="-3.44918">
        <ele>180.997286</ele>
        <time>2023-05-02T16:37:32.014Z</time>
      </trkpt>
      <trkpt lat="48.25467" lon="-3.44911">
        <ele>181.065605</ele>
        <time>2023-05-02T16:37:37.019Z</time>
      </trkpt>
      <trkpt lat="48.25475" lon="-3.44903">
        <ele>181.124904</ele>
        <time>2023-05-02T16:37:41.016Z</time>
      </trkpt>
      <trkpt lat="48.25485" lon="-3.44895">
        <ele>181.200005</ele>
        <time>2023-05-02T16:37:45.021Z</time>
      </trkpt>
      <trkpt lat="48.25495" lon="-3.44885">
        <ele>181.377468</ele>
        <time>2023-05-02T16:37:49.009Z</time>
      </trkpt>
      <trkpt lat="48.25503" lon="-3.44879">
        <ele>181.552652</ele>
        <time>2023-05-02T16:37:52.014Z</time>
      </trkpt>
      <trkpt lat="48.25512" lon="-3.44872">
        <ele>181.747921</ele>
        <time>2023-05-02T16:37:55.015Z</time>
      </trkpt>
      <trkpt lat="48.25522" lon="-3.44865">
        <ele>181.965478</ele>
        <time>2023-05-02T16:37:59.010Z</time>
      </trkpt>
      <trkpt lat="48.25531" lon="-3.44855">
        <ele>182.1659</ele>
        <time>2023-05-02T16:38:03.016Z</time>
      </trkpt>
      <trkpt lat="48.2554" lon="-3.44846">
        <ele>182.375869</ele>
        <time>2023-05-02T16:38:08.013Z</time>
      </trkpt>
      <trkpt lat="48.25549" lon="-3.44838">
        <ele>182.588248</ele>
        <time>2023-05-02T16:38:12.003Z</time>
      </trkpt>
      <trkpt lat="48.25559" lon="-3.44829">
        <ele>182.806238</ele>
        <time>2023-05-02T16:38:16.013Z</time>
      </trkpt>
      <trkpt lat="48.25569" lon="-3.44822">
        <ele>183.015768</ele>
        <time>2023-05-02T16:38:20.021Z</time>
      </trkpt>
      <trkpt lat="48.25577" lon="-3.44812">
        <ele>183.223107</ele>
        <time>2023-05-02T16:38:24.007Z</time>
      </trkpt>
      <trkpt lat="48.25586" lon="-3.44804">
        <ele>183.417413</ele>
        <time>2023-05-02T16:38:28.013Z</time>
      </trkpt>
      <trkpt lat="48.25593" lon="-3.44795">
        <ele>183.604775</ele>
        <time>2023-05-02T16:38:31.998Z</time>
      </trkpt>
      <trkpt lat="48.25601" lon="-3.44783">
        <ele>183.806263</ele>
        <time>2023-05-02T16:38:36.009Z</time>
      </trkpt>
      <trkpt lat="48.25607" lon="-3.4477">
        <ele>184.017141</ele>
        <time>2023-05-02T16:38:40.019Z</time>
      </trkpt>
      <trkpt lat="48.25611" lon="-3.44758">
        <ele>184.192529</ele>
        <time>2023-05-02T16:38:43.008Z</time>
      </trkpt>
      <trkpt lat="48.25615" lon="-3.44742">
        <ele>184.402023</ele>
        <time>2023-05-02T16:38:47.016Z</time>
      </trkpt>
      <trkpt lat="48.25617" lon="-3.44728">
        <ele>184.595525</ele>
        <time>2023-05-02T16:38:51.007Z</time>
      </trkpt>
      <trkpt lat="48.25619" lon="-3.44712">
        <ele>184.743532</ele>
        <time>2023-05-02T16:38:55.018Z</time>
      </trkpt>
      <trkpt lat="48.2562" lon="-3.44694">
        <ele>184.865363</ele>
        <time>2023-05-02T16:38:59.004Z</time>
      </trkpt>
      <trkpt lat="48.2562" lon="-3.4468">
        <ele>184.965647</ele>
        <time>2023-05-02T16:39:02.014Z</time>
      </trkpt>
      <trkpt lat="48.2562" lon="-3.44663">
        <ele>185.078276</ele>
        <time>2023-05-02T16:39:06.011Z</time>
      </trkpt>
      <trkpt lat="48.25619" lon="-3.44649">
        <ele>185.17856</ele>
        <time>2023-05-02T16:39:10.007Z</time>
      </trkpt>
      <trkpt lat="48.25619" lon="-3.44635">
        <ele>185.27216</ele>
        <time>2023-05-02T16:39:14.015Z</time>
      </trkpt>
      <trkpt lat="48.25619" lon="-3.44621">
        <ele>185.369698</ele>
        <time>2023-05-02T16:39:18.013Z</time>
      </trkpt>
      <trkpt lat="48.2562" lon="-3.44607">
        <ele>185.463524</ele>
        <time>2023-05-02T16:39:24.006Z</time>
      </trkpt>
      <trkpt lat="48.25619" lon="-3.44591">
        <ele>185.573109</ele>
        <time>2023-05-02T16:39:30.010Z</time>
      </trkpt>
      <trkpt lat="48.25618" lon="-3.44577">
        <ele>185.675079</ele>
        <time>2023-05-02T16:39:34.014Z</time>
      </trkpt>
      <trkpt lat="48.25617" lon="-3.44561">
        <ele>185.78509</ele>
        <time>2023-05-02T16:39:38.016Z</time>
      </trkpt>
      <trkpt lat="48.25616" lon="-3.44546">
        <ele>185.886675</ele>
        <time>2023-05-02T16:39:42.015Z</time>
      </trkpt>
      <trkpt lat="48.25616" lon="-3.4453">
        <ele>185.993119</ele>
        <time>2023-05-02T16:39:47.015Z</time>
      </trkpt>
      <trkpt lat="48.25615" lon="-3.44515">
        <ele>186.102484</ele>
        <time>2023-05-02T16:39:53.015Z</time>
      </trkpt>
      <trkpt lat="48.25614" lon="-3.44498">
        <ele>186.218632</ele>
        <time>2023-05-02T16:39:58.019Z</time>
      </trkpt>
      <trkpt lat="48.25613" lon="-3.44481">
        <ele>186.335348</ele>
        <time>2023-05-02T16:40:02.008Z</time>
      </trkpt>
      <trkpt lat="48.25612" lon="-3.44464">
        <ele>186.454224</ele>
        <time>2023-05-02T16:40:06.017Z</time>
      </trkpt>
      <trkpt lat="48.25612" lon="-3.44446">
        <ele>186.5924</ele>
        <time>2023-05-02T16:40:10.006Z</time>
      </trkpt>
      <trkpt lat="48.25611" lon="-3.44432">
        <ele>186.725358</ele>
        <time>2023-05-02T16:40:13.016Z</time>
      </trkpt>
      <trkpt lat="48.2561" lon="-3.44418">
        <ele>186.856247</ele>
        <time>2023-05-02T16:40:16.020Z</time>
      </trkpt>
      <trkpt lat="48.25609" lon="-3.44403">
        <ele>187.003179</ele>
        <time>2023-05-02T16:40:20.016Z</time>
      </trkpt>
      <trkpt lat="48.25608" lon="-3.44387">
        <ele>187.152715</ele>
        <time>2023-05-02T16:40:25.011Z</time>
      </trkpt>
      <trkpt lat="48.25608" lon="-3.44371">
        <ele>187.300511</ele>
        <time>2023-05-02T16:40:30.013Z</time>
      </trkpt>
      <trkpt lat="48.25608" lon="-3.44355">
        <ele>187.451148</ele>
        <time>2023-05-02T16:40:34.015Z</time>
      </trkpt>
      <trkpt lat="48.25607" lon="-3.44341">
        <ele>187.591614</ele>
        <time>2023-05-02T16:40:37.009Z</time>
      </trkpt>
      <trkpt lat="48.25605" lon="-3.44326">
        <ele>187.735293</ele>
        <time>2023-05-02T16:40:41.009Z</time>
      </trkpt>
      <trkpt lat="48.25604" lon="-3.44308">
        <ele>187.906174</ele>
        <time>2023-05-02T16:40:45.004Z</time>
      </trkpt>
      <trkpt lat="48.25604" lon="-3.44292">
        <ele>188.055325</ele>
        <time>2023-05-02T16:40:48.012Z</time>
      </trkpt>
      <trkpt lat="48.25603" lon="-3.44277">
        <ele>188.202704</ele>
        <time>2023-05-02T16:40:50.998Z</time>
      </trkpt>
      <trkpt lat="48.25602" lon="-3.44261">
        <ele>188.348327</ele>
        <time>2023-05-02T16:40:54.019Z</time>
      </trkpt>
      <trkpt lat="48.256" lon="-3.44247">
        <ele>188.483127</ele>
        <time>2023-05-02T16:40:57.004Z</time>
      </trkpt>
      <trkpt lat="48.25597" lon="-3.44233">
        <ele>188.62537</ele>
        <time>2023-05-02T16:41:00.013Z</time>
      </trkpt>
      <trkpt lat="48.25594" lon="-3.44217">
        <ele>188.780854</ele>
        <time>2023-05-02T16:41:04.013Z</time>
      </trkpt>
      <trkpt lat="48.2559" lon="-3.44205">
        <ele>188.913951</ele>
        <time>2023-05-02T16:41:07.025Z</time>
      </trkpt>
      <trkpt lat="48.25584" lon="-3.44191">
        <ele>189.069469</ele>
        <time>2023-05-02T16:41:11.010Z</time>
      </trkpt>
      <trkpt lat="48.25577" lon="-3.44176">
        <ele>189.024933</ele>
        <time>2023-05-02T16:41:15.009Z</time>
      </trkpt>
      <trkpt lat="48.25569" lon="-3.44163">
        <ele>188.950048</ele>
        <time>2023-05-02T16:41:19.010Z</time>
      </trkpt>
      <trkpt lat="48.25562" lon="-3.44149">
        <ele>188.872301</ele>
        <time>2023-05-02T16:41:23.013Z</time>
      </trkpt>
      <trkpt lat="48.25556" lon="-3.44137">
        <ele>188.805597</ele>
        <time>2023-05-02T16:41:26.016Z</time>
      </trkpt>
      <trkpt lat="48.2555" lon="-3.44126">
        <ele>188.741785</ele>
        <time>2023-05-02T16:41:29.012Z</time>
      </trkpt>
      <trkpt lat="48.25544" lon="-3.44115">
        <ele>188.678221</ele>
        <time>2023-05-02T16:41:32.005Z</time>
      </trkpt>
      <trkpt lat="48.25538" lon="-3.44104">
        <ele>188.614924</ele>
        <time>2023-05-02T16:41:35.015Z</time>
      </trkpt>
      <trkpt lat="48.25532" lon="-3.44089">
        <ele>188.540216</ele>
        <time>2023-05-02T16:41:39.015Z</time>
      </trkpt>
      <trkpt lat="48.25525" lon="-3.44077">
        <ele>188.472598</ele>
        <time>2023-05-02T16:41:42.018Z</time>
      </trkpt>
      <trkpt lat="48.2552" lon="-3.44064">
        <ele>188.404859</ele>
        <time>2023-05-02T16:41:45.016Z</time>
      </trkpt>
      <trkpt lat="48.25515" lon="-3.44052">
        <ele>188.341977</ele>
        <time>2023-05-02T16:41:48.002Z</time>
      </trkpt>
      <trkpt lat="48.25509" lon="-3.44036">
        <ele>188.263582</ele>
        <time>2023-05-02T16:41:52.016Z</time>
      </trkpt>
      <trkpt lat="48.25504" lon="-3.44021">
        <ele>188.19039</ele>
        <time>2023-05-02T16:41:56.020Z</time>
      </trkpt>
      <trkpt lat="48.25498" lon="-3.44008">
        <ele>188.120824</ele>
        <time>2023-05-02T16:42:00.003Z</time>
      </trkpt>
      <trkpt lat="48.25493" lon="-3.43996">
        <ele>188.056753</ele>
        <time>2023-05-02T16:42:04.015Z</time>
      </trkpt>
      <trkpt lat="48.25487" lon="-3.43985">
        <ele>187.993189</ele>
        <time>2023-05-02T16:42:08.014Z</time>
      </trkpt>
      <trkpt lat="48.25481" lon="-3.43972">
        <ele>187.922898</ele>
        <time>2023-05-02T16:42:12.014Z</time>
      </trkpt>
      <trkpt lat="48.25474" lon="-3.43959">
        <ele>187.957357</ele>
        <time>2023-05-02T16:42:16.017Z</time>
      </trkpt>
      <trkpt lat="48.25468" lon="-3.43947">
        <ele>188.024146</ele>
        <time>2023-05-02T16:42:20.013Z</time>
      </trkpt>
      <trkpt lat="48.25462" lon="-3.43933">
        <ele>188.093769</ele>
        <time>2023-05-02T16:42:24.012Z</time>
      </trkpt>
      <trkpt lat="48.25456" lon="-3.43919">
        <ele>188.168084</ele>
        <time>2023-05-02T16:42:29.012Z</time>
      </trkpt>
      <trkpt lat="48.2545" lon="-3.43907">
        <ele>188.231882</ele>
        <time>2023-05-02T16:42:33.018Z</time>
      </trkpt>
      <trkpt lat="48.25443" lon="-3.43894">
        <ele>188.305655</ele>
        <time>2023-05-02T16:42:38.014Z</time>
      </trkpt>
      <trkpt lat="48.25437" lon="-3.43879">
        <ele>188.379944</ele>
        <time>2023-05-02T16:42:42.016Z</time>
      </trkpt>
      <trkpt lat="48.25431" lon="-3.43865">
        <ele>188.452819</ele>
        <time>2023-05-02T16:42:46.016Z</time>
      </trkpt>
      <trkpt lat="48.25425" lon="-3.43851">
        <ele>188.524677</ele>
        <time>2023-05-02T16:42:50.011Z</time>
      </trkpt>
      <trkpt lat="48.25419" lon="-3.43838">
        <ele>188.592153</ele>
        <time>2023-05-02T16:42:54.013Z</time>
      </trkpt>
      <trkpt lat="48.25412" lon="-3.43824">
        <ele>188.66645</ele>
        <time>2023-05-02T16:42:59.009Z</time>
      </trkpt>
      <trkpt lat="48.25406" lon="-3.43809">
        <ele>188.742937</ele>
        <time>2023-05-02T16:43:03.016Z</time>
      </trkpt>
      <trkpt lat="48.25401" lon="-3.43798">
        <ele>188.802639</ele>
        <time>2023-05-02T16:43:06.021Z</time>
      </trkpt>
      <trkpt lat="48.25394" lon="-3.43783">
        <ele>188.878754</ele>
        <time>2023-05-02T16:43:10.010Z</time>
      </trkpt>
      <trkpt lat="48.25387" lon="-3.4377">
        <ele>188.948848</ele>
        <time>2023-05-02T16:43:14.014Z</time>
      </trkpt>
      <trkpt lat="48.25382" lon="-3.43759">
        <ele>189.008469</ele>
        <time>2023-05-02T16:43:17.014Z</time>
      </trkpt>
      <trkpt lat="48.25376" lon="-3.43746">
        <ele>189.063203</ele>
        <time>2023-05-02T16:43:21.013Z</time>
      </trkpt>
      <trkpt lat="48.2537" lon="-3.43734">
        <ele>189.013563</ele>
        <time>2023-05-02T16:43:26.014Z</time>
      </trkpt>
      <trkpt lat="48.25365" lon="-3.43722">
        <ele>188.961857</ele>
        <time>2023-05-02T16:43:32.005Z</time>
      </trkpt>
      <trkpt lat="48.25358" lon="-3.43709">
        <ele>188.902467</ele>
        <time>2023-05-02T16:43:37.020Z</time>
      </trkpt>
      <trkpt lat="48.25352" lon="-3.43697">
        <ele>188.851604</ele>
        <time>2023-05-02T16:43:41.011Z</time>
      </trkpt>
      <trkpt lat="48.25346" lon="-3.43683">
        <ele>188.794279</ele>
        <time>2023-05-02T16:43:46.015Z</time>
      </trkpt>
      <trkpt lat="48.2534" lon="-3.43671">
        <ele>188.743222</ele>
        <time>2023-05-02T16:43:51.012Z</time>
      </trkpt>
      <trkpt lat="48.25335" lon="-3.43659">
        <ele>188.691253</ele>
        <time>2023-05-02T16:43:57.011Z</time>
      </trkpt>
      <trkpt lat="48.25329" lon="-3.43648">
        <ele>188.64361</ele>
        <time>2023-05-02T16:44:02.010Z</time>
      </trkpt>
      <trkpt lat="48.2532" lon="-3.43623">
        <ele>188.544203</ele>
        <time>2023-05-02T16:47:09.013Z</time>
      </trkpt>
      <trkpt lat="48.25315" lon="-3.43612">
        <ele>188.495134</ele>
        <time>2023-05-02T16:47:14.017Z</time>
      </trkpt>
      <trkpt lat="48.25309" lon="-3.436">
        <ele>188.445453</ele>
        <time>2023-05-02T16:47:18.022Z</time>
      </trkpt>
      <trkpt lat="48.25303" lon="-3.43584">
        <ele>188.38259</ele>
        <time>2023-05-02T16:47:22.015Z</time>
      </trkpt>
      <trkpt lat="48.25297" lon="-3.43573">
        <ele>188.332318</ele>
        <time>2023-05-02T16:47:25.020Z</time>
      </trkpt>
      <trkpt lat="48.25293" lon="-3.43561">
        <ele>188.284337</ele>
        <time>2023-05-02T16:47:28.020Z</time>
      </trkpt>
      <trkpt lat="48.25287" lon="-3.43549">
        <ele>188.233713</ele>
        <time>2023-05-02T16:47:31.011Z</time>
      </trkpt>
      <trkpt lat="48.25281" lon="-3.43534">
        <ele>188.172695</ele>
        <time>2023-05-02T16:47:35.024Z</time>
      </trkpt>
      <trkpt lat="48.25275" lon="-3.43522">
        <ele>188.178168</ele>
        <time>2023-05-02T16:47:38.003Z</time>
      </trkpt>
      <trkpt lat="48.25267" lon="-3.43509">
        <ele>188.493308</ele>
        <time>2023-05-02T16:47:41.023Z</time>
      </trkpt>
      <trkpt lat="48.2526" lon="-3.43496">
        <ele>188.772925</ele>
        <time>2023-05-02T16:47:44.026Z</time>
      </trkpt>
      <trkpt lat="48.25254" lon="-3.43481">
        <ele>189.083035</ele>
        <time>2023-05-02T16:47:48.030Z</time>
      </trkpt>
      <trkpt lat="48.25248" lon="-3.43469">
        <ele>189.343493</ele>
        <time>2023-05-02T16:47:51.015Z</time>
      </trkpt>
      <trkpt lat="48.25243" lon="-3.43456">
        <ele>189.620723</ele>
        <time>2023-05-02T16:47:54.021Z</time>
      </trkpt>
      <trkpt lat="48.25237" lon="-3.43443">
        <ele>189.892148</ele>
        <time>2023-05-02T16:47:57.026Z</time>
      </trkpt>
      <trkpt lat="48.2523" lon="-3.43431">
        <ele>190.164142</ele>
        <time>2023-05-02T16:48:00.027Z</time>
      </trkpt>
      <trkpt lat="48.25223" lon="-3.43417">
        <ele>190.469279</ele>
        <time>2023-05-02T16:48:04.022Z</time>
      </trkpt>
      <trkpt lat="48.25217" lon="-3.43405">
        <ele>190.735293</ele>
        <time>2023-05-02T16:48:07.024Z</time>
      </trkpt>
      <trkpt lat="48.2521" lon="-3.4339">
        <ele>191.05798</ele>
        <time>2023-05-02T16:48:10.016Z</time>
      </trkpt>
      <trkpt lat="48.25204" lon="-3.43377">
        <ele>191.332316</ele>
        <time>2023-05-02T16:48:13.023Z</time>
      </trkpt>
      <trkpt lat="48.25198" lon="-3.43365">
        <ele>191.59498</ele>
        <time>2023-05-02T16:48:16.020Z</time>
      </trkpt>
      <trkpt lat="48.25192" lon="-3.4335">
        <ele>191.901458</ele>
        <time>2023-05-02T16:48:20.019Z</time>
      </trkpt>
      <trkpt lat="48.25187" lon="-3.43337">
        <ele>192.16451</ele>
        <time>2023-05-02T16:48:25.022Z</time>
      </trkpt>
      <trkpt lat="48.2518" lon="-3.43325">
        <ele>192.446076</ele>
        <time>2023-05-02T16:48:30.013Z</time>
      </trkpt>
      <trkpt lat="48.25174" lon="-3.43311">
        <ele>192.736547</ele>
        <time>2023-05-02T16:48:34.014Z</time>
      </trkpt>
      <trkpt lat="48.25168" lon="-3.43299">
        <ele>192.85771</ele>
        <time>2023-05-02T16:48:37.017Z</time>
      </trkpt>
      <trkpt lat="48.25163" lon="-3.43287">
        <ele>192.847825</ele>
        <time>2023-05-02T16:48:40.023Z</time>
      </trkpt>
      <trkpt lat="48.25157" lon="-3.43276">
        <ele>192.838374</ele>
        <time>2023-05-02T16:48:43.016Z</time>
      </trkpt>
      <trkpt lat="48.25151" lon="-3.43261">
        <ele>192.826823</ele>
        <time>2023-05-02T16:48:47.022Z</time>
      </trkpt>
      <trkpt lat="48.25144" lon="-3.43248">
        <ele>192.81568</ele>
        <time>2023-05-02T16:48:51.011Z</time>
      </trkpt>
      <trkpt lat="48.25138" lon="-3.43234">
        <ele>192.804779</ele>
        <time>2023-05-02T16:48:55.017Z</time>
      </trkpt>
      <trkpt lat="48.25131" lon="-3.43221">
        <ele>192.793202</ele>
        <time>2023-05-02T16:48:59.019Z</time>
      </trkpt>
      <trkpt lat="48.25123" lon="-3.43212">
        <ele>192.783546</ele>
        <time>2023-05-02T16:49:02.012Z</time>
      </trkpt>
      <trkpt lat="48.25114" lon="-3.43202">
        <ele>192.772518</ele>
        <time>2023-05-02T16:49:06.020Z</time>
      </trkpt>
      <trkpt lat="48.25105" lon="-3.43196">
        <ele>192.762048</ele>
        <time>2023-05-02T16:49:09.010Z</time>
      </trkpt>
      <trkpt lat="48.25095" lon="-3.43191">
        <ele>192.751985</ele>
        <time>2023-05-02T16:49:12.020Z</time>
      </trkpt>
      <trkpt lat="48.25087" lon="-3.43184">
        <ele>192.742578</ele>
        <time>2023-05-02T16:49:15.017Z</time>
      </trkpt>
      <trkpt lat="48.25078" lon="-3.43177">
        <ele>192.732809</ele>
        <time>2023-05-02T16:49:18.020Z</time>
      </trkpt>
      <trkpt lat="48.2507" lon="-3.43172">
        <ele>192.723377</ele>
        <time>2023-05-02T16:49:21.004Z</time>
      </trkpt>
      <trkpt lat="48.2506" lon="-3.43166">
        <ele>192.713365</ele>
        <time>2023-05-02T16:49:24.031Z</time>
      </trkpt>
      <trkpt lat="48.25052" lon="-3.4316">
        <ele>192.703618</ele>
        <time>2023-05-02T16:49:27.014Z</time>
      </trkpt>
      <trkpt lat="48.25043" lon="-3.43154">
        <ele>192.694279</ele>
        <time>2023-05-02T16:49:30.016Z</time>
      </trkpt>
      <trkpt lat="48.25033" lon="-3.43149">
        <ele>192.683985</ele>
        <time>2023-05-02T16:49:34.016Z</time>
      </trkpt>
      <trkpt lat="48.25024" lon="-3.43142">
        <ele>192.683702</ele>
        <time>2023-05-02T16:49:38.019Z</time>
      </trkpt>
      <trkpt lat="48.25014" lon="-3.43136">
        <ele>192.685026</ele>
        <time>2023-05-02T16:49:41.020Z</time>
      </trkpt>
      <trkpt lat="48.25005" lon="-3.4313">
        <ele>192.686366</ele>
        <time>2023-05-02T16:49:44.017Z</time>
      </trkpt>
      <trkpt lat="48.24994" lon="-3.43122">
        <ele>192.687876</ele>
        <time>2023-05-02T16:49:48.021Z</time>
      </trkpt>
      <trkpt lat="48.24985" lon="-3.43116">
        <ele>192.689153</ele>
        <time>2023-05-02T16:49:51.012Z</time>
      </trkpt>
      <trkpt lat="48.24976" lon="-3.43109">
        <ele>192.690448</ele>
        <time>2023-05-02T16:49:54.026Z</time>
      </trkpt>
      <trkpt lat="48.24967" lon="-3.43103">
        <ele>192.691722</ele>
        <time>2023-05-02T16:49:57.045Z</time>
      </trkpt>
      <trkpt lat="48.24957" lon="-3.43097">
        <ele>192.693122</ele>
        <time>2023-05-02T16:50:00.003Z</time>
      </trkpt>
      <trkpt lat="48.24947" lon="-3.43089">
        <ele>192.69462</ele>
        <time>2023-05-02T16:50:03.017Z</time>
      </trkpt>
      <trkpt lat="48.24938" lon="-3.43083">
        <ele>192.695908</ele>
        <time>2023-05-02T16:50:06.006Z</time>
      </trkpt>
      <trkpt lat="48.24929" lon="-3.43077">
        <ele>192.697157</ele>
        <time>2023-05-02T16:50:09.017Z</time>
      </trkpt>
      <trkpt lat="48.24918" lon="-3.4307">
        <ele>192.698628</ele>
        <time>2023-05-02T16:50:13.030Z</time>
      </trkpt>
      <trkpt lat="48.24909" lon="-3.43065">
        <ele>192.699931</ele>
        <time>2023-05-02T16:50:17.017Z</time>
      </trkpt>
      <trkpt lat="48.24899" lon="-3.43058">
        <ele>192.701298</ele>
        <time>2023-05-02T16:50:22.001Z</time>
      </trkpt>
      <trkpt lat="48.24889" lon="-3.43053">
        <ele>192.702634</ele>
        <time>2023-05-02T16:50:27.020Z</time>
      </trkpt>
      <trkpt lat="48.24879" lon="-3.43047">
        <ele>192.704025</ele>
        <time>2023-05-02T16:50:32.012Z</time>
      </trkpt>
      <trkpt lat="48.24869" lon="-3.43039">
        <ele>192.705486</ele>
        <time>2023-05-02T16:50:37.015Z</time>
      </trkpt>
      <trkpt lat="48.2486" lon="-3.43033">
        <ele>192.882374</ele>
        <time>2023-05-02T16:50:41.020Z</time>
      </trkpt>
      <trkpt lat="48.24849" lon="-3.43026">
        <ele>193.10489</ele>
        <time>2023-05-02T16:50:45.014Z</time>
      </trkpt>
      <trkpt lat="48.2484" lon="-3.4302">
        <ele>193.307095</ele>
        <time>2023-05-02T16:50:49.012Z</time>
      </trkpt>
      <trkpt lat="48.2483" lon="-3.43013">
        <ele>193.525901</ele>
        <time>2023-05-02T16:50:53.022Z</time>
      </trkpt>
      <trkpt lat="48.24821" lon="-3.43007">
        <ele>193.709158</ele>
        <time>2023-05-02T16:50:56.019Z</time>
      </trkpt>
      <trkpt lat="48.24812" lon="-3.43001">
        <ele>193.906508</ele>
        <time>2023-05-02T16:50:59.011Z</time>
      </trkpt>
      <trkpt lat="48.24804" lon="-3.42993">
        <ele>194.089909</ele>
        <time>2023-05-02T16:51:02.019Z</time>
      </trkpt>
      <trkpt lat="48.24796" lon="-3.42985">
        <ele>194.283441</ele>
        <time>2023-05-02T16:51:06.017Z</time>
      </trkpt>
      <trkpt lat="48.24788" lon="-3.42974">
        <ele>194.497492</ele>
        <time>2023-05-02T16:51:10.016Z</time>
      </trkpt>
      <trkpt lat="48.24782" lon="-3.42959">
        <ele>194.720172</ele>
        <time>2023-05-02T16:51:14.018Z</time>
      </trkpt>
      <trkpt lat="48.24775" lon="-3.42946">
        <ele>194.930866</ele>
        <time>2023-05-02T16:51:18.017Z</time>
      </trkpt>
      <trkpt lat="48.2477" lon="-3.42934">
        <ele>195.121916</ele>
        <time>2023-05-02T16:51:21.019Z</time>
      </trkpt>
      <trkpt lat="48.24765" lon="-3.42921">
        <ele>195.317171</ele>
        <time>2023-05-02T16:51:24.022Z</time>
      </trkpt>
      <trkpt lat="48.2476" lon="-3.42908">
        <ele>195.520773</ele>
        <time>2023-05-02T16:51:27.022Z</time>
      </trkpt>
      <trkpt lat="48.24755" lon="-3.42894">
        <ele>195.729518</ele>
        <time>2023-05-02T16:51:30.018Z</time>
      </trkpt>
      <trkpt lat="48.2475" lon="-3.4288">
        <ele>195.933336</ele>
        <time>2023-05-02T16:51:33.012Z</time>
      </trkpt>
      <trkpt lat="48.24744" lon="-3.42866">
        <ele>196.140702</ele>
        <time>2023-05-02T16:51:36.020Z</time>
      </trkpt>
      <trkpt lat="48.24739" lon="-3.42854">
        <ele>196.272154</ele>
        <time>2023-05-02T16:51:39.017Z</time>
      </trkpt>
      <trkpt lat="48.24734" lon="-3.42842">
        <ele>196.358205</ele>
        <time>2023-05-02T16:51:42.020Z</time>
      </trkpt>
      <trkpt lat="48.24729" lon="-3.42831">
        <ele>196.444208</ele>
        <time>2023-05-02T16:51:45.016Z</time>
      </trkpt>
      <trkpt lat="48.24724" lon="-3.42817">
        <ele>196.537355</ele>
        <time>2023-05-02T16:51:48.024Z</time>
      </trkpt>
      <trkpt lat="48.2472" lon="-3.42805">
        <ele>196.626101</ele>
        <time>2023-05-02T16:51:51.000Z</time>
      </trkpt>
      <trkpt lat="48.24714" lon="-3.4279">
        <ele>196.731417</ele>
        <time>2023-05-02T16:51:55.017Z</time>
      </trkpt>
      <trkpt lat="48.24709" lon="-3.42775">
        <ele>196.832263</ele>
        <time>2023-05-02T16:51:59.018Z</time>
      </trkpt>
      <trkpt lat="48.24703" lon="-3.42761">
        <ele>196.933643</ele>
        <time>2023-05-02T16:52:03.016Z</time>
      </trkpt>
      <trkpt lat="48.24698" lon="-3.42746">
        <ele>197.037976</ele>
        <time>2023-05-02T16:52:07.029Z</time>
      </trkpt>
      <trkpt lat="48.24691" lon="-3.42732">
        <ele>197.144985</ele>
        <time>2023-05-02T16:52:11.003Z</time>
      </trkpt>
      <trkpt lat="48.24686" lon="-3.4272">
        <ele>197.231508</ele>
        <time>2023-05-02T16:52:14.015Z</time>
      </trkpt>
      <trkpt lat="48.24682" lon="-3.42708">
        <ele>197.317736</ele>
        <time>2023-05-02T16:52:17.027Z</time>
      </trkpt>
      <trkpt lat="48.24676" lon="-3.42694">
        <ele>197.419616</ele>
        <time>2023-05-02T16:52:21.016Z</time>
      </trkpt>
      <trkpt lat="48.2467" lon="-3.42679">
        <ele>197.522653</ele>
        <time>2023-05-02T16:52:25.017Z</time>
      </trkpt>
      <trkpt lat="48.24665" lon="-3.42664">
        <ele>197.627208</ele>
        <time>2023-05-02T16:52:30.014Z</time>
      </trkpt>
      <trkpt lat="48.24659" lon="-3.42649">
        <ele>197.733889</ele>
        <time>2023-05-02T16:52:34.022Z</time>
      </trkpt>
      <trkpt lat="48.24655" lon="-3.42637">
        <ele>197.817159</ele>
        <time>2023-05-02T16:52:37.016Z</time>
      </trkpt>
      <trkpt lat="48.2465" lon="-3.42622">
        <ele>197.9064</ele>
        <time>2023-05-02T16:52:41.018Z</time>
      </trkpt>
      <trkpt lat="48.24645" lon="-3.42606">
        <ele>197.958317</ele>
        <time>2023-05-02T16:52:45.017Z</time>
      </trkpt>
      <trkpt lat="48.2464" lon="-3.42593">
        <ele>198.005494</ele>
        <time>2023-05-02T16:52:49.025Z</time>
      </trkpt>
      <trkpt lat="48.24635" lon="-3.4258">
        <ele>198.048561</ele>
        <time>2023-05-02T16:55:22.022Z</time>
      </trkpt>
      <trkpt lat="48.2463" lon="-3.42567">
        <ele>198.094265</ele>
        <time>2023-05-02T16:55:27.020Z</time>
      </trkpt>
      <trkpt lat="48.24624" lon="-3.42553">
        <ele>198.14492</ele>
        <time>2023-05-02T16:55:31.013Z</time>
      </trkpt>
      <trkpt lat="48.24619" lon="-3.42538">
        <ele>198.197682</ele>
        <time>2023-05-02T16:55:35.023Z</time>
      </trkpt>
      <trkpt lat="48.24612" lon="-3.42523">
        <ele>198.253389</ele>
        <time>2023-05-02T16:55:39.019Z</time>
      </trkpt>
      <trkpt lat="48.24606" lon="-3.4251">
        <ele>198.301253</ele>
        <time>2023-05-02T16:55:42.024Z</time>
      </trkpt>
      <trkpt lat="48.24601" lon="-3.42497">
        <ele>198.345901</ele>
        <time>2023-05-02T16:55:45.016Z</time>
      </trkpt>
      <trkpt lat="48.24596" lon="-3.42486">
        <ele>198.387987</ele>
        <time>2023-05-02T16:55:48.024Z</time>
      </trkpt>
      <trkpt lat="48.24588" lon="-3.42474">
        <ele>198.438562</ele>
        <time>2023-05-02T16:55:52.020Z</time>
      </trkpt>
      <trkpt lat="48.24581" lon="-3.42465">
        <ele>198.479883</ele>
        <time>2023-05-02T16:55:55.017Z</time>
      </trkpt>
      <trkpt lat="48.24573" lon="-3.42457">
        <ele>198.523667</ele>
        <time>2023-05-02T16:55:58.020Z</time>
      </trkpt>
      <trkpt lat="48.24565" lon="-3.42451">
        <ele>198.566057</ele>
        <time>2023-05-02T16:56:01.019Z</time>
      </trkpt>
      <trkpt lat="48.24556" lon="-3.42445">
        <ele>198.609373</ele>
        <time>2023-05-02T16:56:04.018Z</time>
      </trkpt>
      <trkpt lat="48.24547" lon="-3.4244">
        <ele>198.655356</ele>
        <time>2023-05-02T16:56:07.020Z</time>
      </trkpt>
      <trkpt lat="48.24538" lon="-3.42436">
        <ele>198.698118</ele>
        <time>2023-05-02T16:56:10.015Z</time>
      </trkpt>
      <trkpt lat="48.24526" lon="-3.42435">
        <ele>198.892458</ele>
        <time>2023-05-02T16:56:14.020Z</time>
      </trkpt>
      <trkpt lat="48.24517" lon="-3.42436">
        <ele>199.085912</ele>
        <time>2023-05-02T16:56:17.020Z</time>
      </trkpt>
      <trkpt lat="48.24505" lon="-3.42438">
        <ele>199.324649</ele>
        <time>2023-05-02T16:56:21.011Z</time>
      </trkpt>
      <trkpt lat="48.24493" lon="-3.4244">
        <ele>199.56902</ele>
        <time>2023-05-02T16:56:25.024Z</time>
      </trkpt>
      <trkpt lat="48.24484" lon="-3.42441">
        <ele>199.752602</ele>
        <time>2023-05-02T16:56:28.008Z</time>
      </trkpt>
      <trkpt lat="48.24475" lon="-3.42442">
        <ele>199.942145</ele>
        <time>2023-05-02T16:56:31.013Z</time>
      </trkpt>
      <trkpt lat="48.24466" lon="-3.42443">
        <ele>200.124237</ele>
        <time>2023-05-02T16:56:34.017Z</time>
      </trkpt>
      <trkpt lat="48.24454" lon="-3.42445">
        <ele>200.357388</ele>
        <time>2023-05-02T16:56:38.019Z</time>
      </trkpt>
      <trkpt lat="48.24443" lon="-3.42447">
        <ele>200.59054</ele>
        <time>2023-05-02T16:56:42.020Z</time>
      </trkpt>
      <trkpt lat="48.24433" lon="-3.42449">
        <ele>200.778373</ele>
        <time>2023-05-02T16:56:45.019Z</time>
      </trkpt>
      <trkpt lat="48.24424" lon="-3.42451">
        <ele>200.964242</ele>
        <time>2023-05-02T16:56:48.025Z</time>
      </trkpt>
      <trkpt lat="48.24415" lon="-3.42452">
        <ele>201.148923</ele>
        <time>2023-05-02T16:56:51.016Z</time>
      </trkpt>
      <trkpt lat="48.24406" lon="-3.42455">
        <ele>201.335234</ele>
        <time>2023-05-02T16:56:54.022Z</time>
      </trkpt>
      <trkpt lat="48.24395" lon="-3.42456">
        <ele>201.557679</ele>
        <time>2023-05-02T16:56:58.018Z</time>
      </trkpt>
      <trkpt lat="48.24385" lon="-3.42458">
        <ele>201.767969</ele>
        <time>2023-05-02T16:57:02.015Z</time>
      </trkpt>
      <trkpt lat="48.24373" lon="-3.42459">
        <ele>201.999887</ele>
        <time>2023-05-02T16:57:06.015Z</time>
      </trkpt>
      <trkpt lat="48.24364" lon="-3.42461">
        <ele>202.187101</ele>
        <time>2023-05-02T16:57:09.011Z</time>
      </trkpt>
      <trkpt lat="48.24354" lon="-3.42463">
        <ele>202.364065</ele>
        <time>2023-05-02T16:57:12.018Z</time>
      </trkpt>
      <trkpt lat="48.24344" lon="-3.42465">
        <ele>202.486036</ele>
        <time>2023-05-02T16:57:15.014Z</time>
      </trkpt>
      <trkpt lat="48.24334" lon="-3.42467">
        <ele>202.601246</ele>
        <time>2023-05-02T16:57:18.021Z</time>
      </trkpt>
      <trkpt lat="48.24325" lon="-3.42469">
        <ele>202.709845</ele>
        <time>2023-05-02T16:57:21.020Z</time>
      </trkpt>
      <trkpt lat="48.24314" lon="-3.42471">
        <ele>202.842049</ele>
        <time>2023-05-02T16:57:25.021Z</time>
      </trkpt>
      <trkpt lat="48.24303" lon="-3.42472">
        <ele>202.966163</ele>
        <time>2023-05-02T16:57:29.010Z</time>
      </trkpt>
      <trkpt lat="48.24294" lon="-3.42473">
        <ele>203.072209</ele>
        <time>2023-05-02T16:57:33.018Z</time>
      </trkpt>
      <trkpt lat="48.24285" lon="-3.42475">
        <ele>203.18331</ele>
        <time>2023-05-02T16:57:37.017Z</time>
      </trkpt>
      <trkpt lat="48.24274" lon="-3.42477">
        <ele>203.309091</ele>
        <time>2023-05-02T16:57:41.020Z</time>
      </trkpt>
      <trkpt lat="48.24265" lon="-3.42478">
        <ele>203.417365</ele>
        <time>2023-05-02T16:57:44.020Z</time>
      </trkpt>
      <trkpt lat="48.24255" lon="-3.4248">
        <ele>203.534481</ele>
        <time>2023-05-02T16:57:47.015Z</time>
      </trkpt>
      <trkpt lat="48.24246" lon="-3.42482">
        <ele>203.646091</ele>
        <time>2023-05-02T16:57:50.013Z</time>
      </trkpt>
      <trkpt lat="48.24234" lon="-3.42484">
        <ele>203.783047</ele>
        <time>2023-05-02T16:57:54.019Z</time>
      </trkpt>
      <trkpt lat="48.24223" lon="-3.42485">
        <ele>203.909256</ele>
        <time>2023-05-02T16:57:58.019Z</time>
      </trkpt>
      <trkpt lat="48.24212" lon="-3.42487">
        <ele>204.043524</ele>
        <time>2023-05-02T16:58:02.016Z</time>
      </trkpt>
      <trkpt lat="48.24203" lon="-3.42487">
        <ele>204.150535</ele>
        <time>2023-05-02T16:58:05.014Z</time>
      </trkpt>
      <trkpt lat="48.24193" lon="-3.42487">
        <ele>204.262104</ele>
        <time>2023-05-02T16:58:08.018Z</time>
      </trkpt>
      <trkpt lat="48.24184" lon="-3.42486">
        <ele>204.369799</ele>
        <time>2023-05-02T16:58:11.013Z</time>
      </trkpt>
      <trkpt lat="48.24175" lon="-3.42482">
        <ele>204.414995</ele>
        <time>2023-05-02T16:58:14.016Z</time>
      </trkpt>
      <trkpt lat="48.24166" lon="-3.42476">
        <ele>204.337082</ele>
        <time>2023-05-02T16:58:17.019Z</time>
      </trkpt>
      <trkpt lat="48.24158" lon="-3.42469">
        <ele>204.264049</ele>
        <time>2023-05-02T16:58:20.016Z</time>
      </trkpt>
      <trkpt lat="48.2415" lon="-3.42463">
        <ele>204.18938</ele>
        <time>2023-05-02T16:58:23.011Z</time>
      </trkpt>
      <trkpt lat="48.2414" lon="-3.42455">
        <ele>204.099495</ele>
        <time>2023-05-02T16:58:27.016Z</time>
      </trkpt>
      <trkpt lat="48.24129" lon="-3.4245">
        <ele>204.008106</ele>
        <time>2023-05-02T16:58:31.009Z</time>
      </trkpt>
      <trkpt lat="48.24118" lon="-3.42443">
        <ele>203.914065</ele>
        <time>2023-05-02T16:58:35.015Z</time>
      </trkpt>
      <trkpt lat="48.2411" lon="-3.42436">
        <ele>203.841784</ele>
        <time>2023-05-02T16:58:38.015Z</time>
      </trkpt>
      <trkpt lat="48.24099" lon="-3.4243">
        <ele>203.750454</ele>
        <time>2023-05-02T16:58:42.018Z</time>
      </trkpt>
      <trkpt lat="48.2409" lon="-3.42424">
        <ele>203.671599</ele>
        <time>2023-05-02T16:58:46.021Z</time>
      </trkpt>
      <trkpt lat="48.2408" lon="-3.42419">
        <ele>203.588147</ele>
        <time>2023-05-02T16:58:50.016Z</time>
      </trkpt>
      <trkpt lat="48.24072" lon="-3.42413">
        <ele>203.516293</ele>
        <time>2023-05-02T16:58:53.016Z</time>
      </trkpt>
      <trkpt lat="48.24064" lon="-3.42407">
        <ele>203.440682</ele>
        <time>2023-05-02T16:58:56.017Z</time>
      </trkpt>
      <trkpt lat="48.24055" lon="-3.42401">
        <ele>203.367372</ele>
        <time>2023-05-02T16:58:59.010Z</time>
      </trkpt>
      <trkpt lat="48.24045" lon="-3.42395">
        <ele>203.277179</ele>
        <time>2023-05-02T16:59:03.018Z</time>
      </trkpt>
      <trkpt lat="48.24034" lon="-3.42388">
        <ele>203.184883</ele>
        <time>2023-05-02T16:59:07.018Z</time>
      </trkpt>
      <trkpt lat="48.24025" lon="-3.42382">
        <ele>203.102733</ele>
        <time>2023-05-02T16:59:10.012Z</time>
      </trkpt>
      <trkpt lat="48.24015" lon="-3.42376">
        <ele>203.018348</ele>
        <time>2023-05-02T16:59:13.018Z</time>
      </trkpt>
      <trkpt lat="48.24005" lon="-3.42371">
        <ele>203.066309</ele>
        <time>2023-05-02T16:59:16.020Z</time>
      </trkpt>
      <trkpt lat="48.23996" lon="-3.42364">
        <ele>203.133871</ele>
        <time>2023-05-02T16:59:19.017Z</time>
      </trkpt>
      <trkpt lat="48.23987" lon="-3.42358">
        <ele>203.199528</ele>
        <time>2023-05-02T16:59:22.018Z</time>
      </trkpt>
      <trkpt lat="48.23977" lon="-3.42352">
        <ele>203.268905</ele>
        <time>2023-05-02T16:59:25.017Z</time>
      </trkpt>
      <trkpt lat="48.23967" lon="-3.42346">
        <ele>203.337655</ele>
        <time>2023-05-02T16:59:28.017Z</time>
      </trkpt>
      <trkpt lat="48.23957" lon="-3.42339">
        <ele>203.413509</ele>
        <time>2023-05-02T16:59:31.018Z</time>
      </trkpt>
      <trkpt lat="48.23946" lon="-3.42332">
        <ele>203.491505</ele>
        <time>2023-05-02T16:59:34.019Z</time>
      </trkpt>
      <trkpt lat="48.23936" lon="-3.42326">
        <ele>203.55935</ele>
        <time>2023-05-02T16:59:37.021Z</time>
      </trkpt>
      <trkpt lat="48.23925" lon="-3.4232">
        <ele>203.633616</ele>
        <time>2023-05-02T16:59:41.022Z</time>
      </trkpt>
      <trkpt lat="48.23915" lon="-3.42313">
        <ele>203.704871</ele>
        <time>2023-05-02T16:59:45.022Z</time>
      </trkpt>
      <trkpt lat="48.23905" lon="-3.42306">
        <ele>203.777863</ele>
        <time>2023-05-02T16:59:49.019Z</time>
      </trkpt>
      <trkpt lat="48.23896" lon="-3.423">
        <ele>203.845316</ele>
        <time>2023-05-02T16:59:53.020Z</time>
      </trkpt>
      <trkpt lat="48.23886" lon="-3.42294">
        <ele>203.914085</ele>
        <time>2023-05-02T16:59:57.018Z</time>
      </trkpt>
      <trkpt lat="48.23876" lon="-3.42287">
        <ele>203.9863</ele>
        <time>2023-05-02T17:00:01.030Z</time>
      </trkpt>
      <trkpt lat="48.23866" lon="-3.42281">
        <ele>204.059035</ele>
        <time>2023-05-02T17:00:05.019Z</time>
      </trkpt>
      <trkpt lat="48.23857" lon="-3.42275">
        <ele>204.122726</ele>
        <time>2023-05-02T17:00:09.011Z</time>
      </trkpt>
      <trkpt lat="48.23846" lon="-3.4227">
        <ele>204.263886</ele>
        <time>2023-05-02T17:00:14.022Z</time>
      </trkpt>
      <trkpt lat="48.23837" lon="-3.42264">
        <ele>204.712582</ele>
        <time>2023-05-02T17:00:18.015Z</time>
      </trkpt>
      <trkpt lat="48.23827" lon="-3.42256">
        <ele>205.239789</ele>
        <time>2023-05-02T17:00:22.017Z</time>
      </trkpt>
      <trkpt lat="48.23816" lon="-3.42249">
        <ele>205.772619</ele>
        <time>2023-05-02T17:00:26.019Z</time>
      </trkpt>
      <trkpt lat="48.23807" lon="-3.4224">
        <ele>206.280369</ele>
        <time>2023-05-02T17:00:30.011Z</time>
      </trkpt>
      <trkpt lat="48.238" lon="-3.42229">
        <ele>206.746071</ele>
        <time>2023-05-02T17:00:34.019Z</time>
      </trkpt>
      <trkpt lat="48.23794" lon="-3.42218">
        <ele>207.166452</ele>
        <time>2023-05-02T17:00:38.020Z</time>
      </trkpt>
      <trkpt lat="48.23789" lon="-3.42205">
        <ele>207.637547</ele>
        <time>2023-05-02T17:00:42.024Z</time>
      </trkpt>
      <trkpt lat="48.23784" lon="-3.42193">
        <ele>208.065678</ele>
        <time>2023-05-02T17:00:46.012Z</time>
      </trkpt>
      <trkpt lat="48.23781" lon="-3.42177">
        <ele>208.572476</ele>
        <time>2023-05-02T17:00:51.014Z</time>
      </trkpt>
      <trkpt lat="48.23778" lon="-3.42164">
        <ele>208.987687</ele>
        <time>2023-05-02T17:00:55.015Z</time>
      </trkpt>
      <trkpt lat="48.23776" lon="-3.42149">
        <ele>209.457143</ele>
        <time>2023-05-02T17:01:00.010Z</time>
      </trkpt>
      <trkpt lat="48.23773" lon="-3.42134">
        <ele>209.911171</ele>
        <time>2023-05-02T17:01:05.021Z</time>
      </trkpt>
      <trkpt lat="48.2377" lon="-3.4212">
        <ele>210.365916</ele>
        <time>2023-05-02T17:01:11.001Z</time>
      </trkpt>
      <trkpt lat="48.23768" lon="-3.42105">
        <ele>210.826501</ele>
        <time>2023-05-02T17:01:19.020Z</time>
      </trkpt>
      <trkpt lat="48.23766" lon="-3.42092">
        <ele>211.247593</ele>
        <time>2023-05-02T17:01:26.024Z</time>
      </trkpt>
      <trkpt lat="48.2333" lon="-3.41357">
        <ele>224.287607</ele>
        <time>2023-05-02T17:09:42.018Z</time>
      </trkpt>
      <trkpt lat="48.23318" lon="-3.41343">
        <ele>224.254359</ele>
        <time>2023-05-02T17:12:04.020Z</time>
      </trkpt>
      <trkpt lat="48.23309" lon="-3.41334">
        <ele>224.229618</ele>
        <time>2023-05-02T17:12:08.009Z</time>
      </trkpt>
      <trkpt lat="48.23301" lon="-3.41327">
        <ele>224.209289</ele>
        <time>2023-05-02T17:12:11.017Z</time>
      </trkpt>
      <trkpt lat="48.23293" lon="-3.4132">
        <ele>224.188666</ele>
        <time>2023-05-02T17:12:14.021Z</time>
      </trkpt>
      <trkpt lat="48.23284" lon="-3.41312">
        <ele>224.164441</ele>
        <time>2023-05-02T17:12:18.015Z</time>
      </trkpt>
      <trkpt lat="48.23274" lon="-3.41304">
        <ele>224.139481</ele>
        <time>2023-05-02T17:12:22.012Z</time>
      </trkpt>
      <trkpt lat="48.23266" lon="-3.41297">
        <ele>224.118691</ele>
        <time>2023-05-02T17:12:25.018Z</time>
      </trkpt>
      <trkpt lat="48.23258" lon="-3.41285">
        <ele>224.092809</ele>
        <time>2023-05-02T17:12:29.019Z</time>
      </trkpt>
      <trkpt lat="48.23252" lon="-3.41271">
        <ele>224.285468</ele>
        <time>2023-05-02T17:12:34.013Z</time>
      </trkpt>
      <trkpt lat="48.23246" lon="-3.41259">
        <ele>224.511404</ele>
        <time>2023-05-02T17:12:39.028Z</time>
      </trkpt>
      <trkpt lat="48.23241" lon="-3.41248">
        <ele>224.718399</ele>
        <time>2023-05-02T17:12:56.020Z</time>
      </trkpt>
      <trkpt lat="48.23234" lon="-3.41234">
        <ele>224.973423</ele>
        <time>2023-05-02T17:14:32.019Z</time>
      </trkpt>
      <trkpt lat="48.23229" lon="-3.41224">
        <ele>225.17936</ele>
        <time>2023-05-02T17:14:39.011Z</time>
      </trkpt>
      <trkpt lat="48.23226" lon="-3.4121">
        <ele>225.389954</ele>
        <time>2023-05-02T17:14:55.008Z</time>
      </trkpt>
      <trkpt lat="48.23218" lon="-3.4119">
        <ele>225.738342</ele>
        <time>2023-05-02T17:16:20.006Z</time>
      </trkpt>
      <trkpt lat="48.23213" lon="-3.41178">
        <ele>225.961608</ele>
        <time>2023-05-02T17:16:26.010Z</time>
      </trkpt>
      <trkpt lat="48.23207" lon="-3.41165">
        <ele>226.209978</ele>
        <time>2023-05-02T17:16:30.011Z</time>
      </trkpt>
      <trkpt lat="48.23202" lon="-3.41152">
        <ele>226.428168</ele>
        <time>2023-05-02T17:16:34.011Z</time>
      </trkpt>
      <trkpt lat="48.23195" lon="-3.41138">
        <ele>226.687986</ele>
        <time>2023-05-02T17:16:39.021Z</time>
      </trkpt>
      <trkpt lat="48.23188" lon="-3.41126">
        <ele>226.925494</ele>
        <time>2023-05-02T17:16:43.015Z</time>
      </trkpt>
      <trkpt lat="48.23182" lon="-3.41115">
        <ele>227.146426</ele>
        <time>2023-05-02T17:16:47.022Z</time>
      </trkpt>
      <trkpt lat="48.23177" lon="-3.41102">
        <ele>227.374837</ele>
        <time>2023-05-02T17:16:52.018Z</time>
      </trkpt>
      <trkpt lat="48.23172" lon="-3.41089">
        <ele>227.596804</ele>
        <time>2023-05-02T17:16:57.006Z</time>
      </trkpt>
      <trkpt lat="48.23166" lon="-3.41075">
        <ele>227.849132</ele>
        <time>2023-05-02T17:17:02.014Z</time>
      </trkpt>
      <trkpt lat="48.23161" lon="-3.41063">
        <ele>228.068845</ele>
        <time>2023-05-02T17:17:07.013Z</time>
      </trkpt>
      <trkpt lat="48.23155" lon="-3.41051">
        <ele>228.416034</ele>
        <time>2023-05-02T17:17:11.017Z</time>
      </trkpt>
      <trkpt lat="48.2315" lon="-3.41039">
        <ele>228.857388</ele>
        <time>2023-05-02T17:17:15.018Z</time>
      </trkpt>
      <trkpt lat="48.23143" lon="-3.41025">
        <ele>229.358415</ele>
        <time>2023-05-02T17:17:19.024Z</time>
      </trkpt>
      <trkpt lat="48.23137" lon="-3.4101">
        <ele>229.874365</ele>
        <time>2023-05-02T17:17:23.019Z</time>
      </trkpt>
      <trkpt lat="48.23131" lon="-3.40999">
        <ele>230.306056</ele>
        <time>2023-05-02T17:17:27.020Z</time>
      </trkpt>
      <trkpt lat="48.23126" lon="-3.40987">
        <ele>230.730035</ele>
        <time>2023-05-02T17:17:32.019Z</time>
      </trkpt>
      <trkpt lat="48.2312" lon="-3.40976">
        <ele>231.141675</ele>
        <time>2023-05-02T17:17:37.010Z</time>
      </trkpt>
      <trkpt lat="48.23116" lon="-3.40964">
        <ele>231.554527</ele>
        <time>2023-05-02T17:17:42.024Z</time>
      </trkpt>
      <trkpt lat="48.23109" lon="-3.40952">
        <ele>232.027537</ele>
        <time>2023-05-02T17:17:47.008Z</time>
      </trkpt>
      <trkpt lat="48.23105" lon="-3.40939">
        <ele>232.461571</ele>
        <time>2023-05-02T17:17:52.012Z</time>
      </trkpt>
      <trkpt lat="48.23101" lon="-3.40927">
        <ele>232.865754</ele>
        <time>2023-05-02T17:17:57.008Z</time>
      </trkpt>
      <trkpt lat="48.23095" lon="-3.40915">
        <ele>233.301343</ele>
        <time>2023-05-02T17:18:03.024Z</time>
      </trkpt>
      <trkpt lat="48.23089" lon="-3.40902">
        <ele>233.787633</ele>
        <time>2023-05-02T17:18:08.018Z</time>
      </trkpt>
      <trkpt lat="48.23084" lon="-3.4089">
        <ele>234.206462</ele>
        <time>2023-05-02T17:18:12.010Z</time>
      </trkpt>
      <trkpt lat="48.23079" lon="-3.40878">
        <ele>234.632899</ele>
        <time>2023-05-02T17:18:17.010Z</time>
      </trkpt>
      <trkpt lat="48.23074" lon="-3.40864">
        <ele>235.097046</ele>
        <time>2023-05-02T17:18:22.006Z</time>
      </trkpt>
      <trkpt lat="48.23067" lon="-3.40853">
        <ele>235.550889</ele>
        <time>2023-05-02T17:18:27.011Z</time>
      </trkpt>
      <trkpt lat="48.2306" lon="-3.40841">
        <ele>236.024885</ele>
        <time>2023-05-02T17:18:32.020Z</time>
      </trkpt>
      <trkpt lat="48.23054" lon="-3.40828">
        <ele>236.571942</ele>
        <time>2023-05-02T17:18:37.009Z</time>
      </trkpt>
      <trkpt lat="48.2305" lon="-3.40816">
        <ele>237.073867</ele>
        <time>2023-05-02T17:18:41.013Z</time>
      </trkpt>
      <trkpt lat="48.23047" lon="-3.40801">
        <ele>237.644868</ele>
        <time>2023-05-02T17:18:46.012Z</time>
      </trkpt>
      <trkpt lat="48.23047" lon="-3.40785">
        <ele>238.221933</ele>
        <time>2023-05-02T17:18:51.000Z</time>
      </trkpt>
      <trkpt lat="48.23049" lon="-3.40771">
        <ele>238.718606</ele>
        <time>2023-05-02T17:18:57.007Z</time>
      </trkpt>
      <trkpt lat="48.23053" lon="-3.40758">
        <ele>239.252064</ele>
        <time>2023-05-02T17:19:04.019Z</time>
      </trkpt>
      <trkpt lat="48.23056" lon="-3.40745">
        <ele>239.75703</ele>
        <time>2023-05-02T17:19:11.009Z</time>
      </trkpt>
      <trkpt lat="48.23061" lon="-3.40732">
        <ele>240.301692</ele>
        <time>2023-05-02T17:19:18.006Z</time>
      </trkpt>
      <trkpt lat="48.23069" lon="-3.40723">
        <ele>240.826514</ele>
        <time>2023-05-02T17:19:23.007Z</time>
      </trkpt>
      <trkpt lat="48.23077" lon="-3.40712">
        <ele>241.401895</ele>
        <time>2023-05-02T17:19:28.013Z</time>
      </trkpt>
      <trkpt lat="48.23084" lon="-3.40702">
        <ele>241.955098</ele>
        <time>2023-05-02T17:19:34.019Z</time>
      </trkpt>
      <trkpt lat="48.23092" lon="-3.40695">
        <ele>242.462729</ele>
        <time>2023-05-02T17:19:50.005Z</time>
      </trkpt>
      <trkpt lat="48.23231" lon="-3.40514">
        <ele>249.756623</ele>
        <time>2023-05-02T17:25:34.007Z</time>
      </trkpt>
      <trkpt lat="48.23241" lon="-3.40504">
        <ele>250.127786</ele>
        <time>2023-05-02T17:28:36.013Z</time>
      </trkpt>
      <trkpt lat="48.23246" lon="-3.4049">
        <ele>250.452832</ele>
        <time>2023-05-02T17:28:54.001Z</time>
      </trkpt>
      <trkpt lat="48.23254" lon="-3.40481">
        <ele>250.773455</ele>
        <time>2023-05-02T17:29:01.012Z</time>
      </trkpt>
      <trkpt lat="48.23261" lon="-3.40472">
        <ele>251.064056</ele>
        <time>2023-05-02T17:29:05.021Z</time>
      </trkpt>
      <trkpt lat="48.23271" lon="-3.40462">
        <ele>251.435452</ele>
        <time>2023-05-02T17:29:09.016Z</time>
      </trkpt>
      <trkpt lat="48.23279" lon="-3.40452">
        <ele>251.700616</ele>
        <time>2023-05-02T17:29:12.007Z</time>
      </trkpt>
      <trkpt lat="48.23285" lon="-3.40441">
        <ele>251.647014</ele>
        <time>2023-05-02T17:29:15.013Z</time>
      </trkpt>
      <trkpt lat="48.23292" lon="-3.40427">
        <ele>251.585908</ele>
        <time>2023-05-02T17:29:19.019Z</time>
      </trkpt>
      <trkpt lat="48.23297" lon="-3.40416">
        <ele>251.536021</ele>
        <time>2023-05-02T17:29:22.021Z</time>
      </trkpt>
      <trkpt lat="48.23303" lon="-3.40405">
        <ele>251.483034</ele>
        <time>2023-05-02T17:29:26.024Z</time>
      </trkpt>
      <trkpt lat="48.2331" lon="-3.40393">
        <ele>251.428797</ele>
        <time>2023-05-02T17:29:29.019Z</time>
      </trkpt>
      <trkpt lat="48.23317" lon="-3.40382">
        <ele>251.372414</ele>
        <time>2023-05-02T17:29:32.006Z</time>
      </trkpt>
      <trkpt lat="48.23326" lon="-3.40371">
        <ele>251.30891</ele>
        <time>2023-05-02T17:29:36.019Z</time>
      </trkpt>
      <trkpt lat="48.23335" lon="-3.40358">
        <ele>251.245118</ele>
        <time>2023-05-02T17:29:39.010Z</time>
      </trkpt>
      <trkpt lat="48.23343" lon="-3.40351">
        <ele>251.196293</ele>
        <time>2023-05-02T17:29:42.015Z</time>
      </trkpt>
      <trkpt lat="48.2335" lon="-3.40343">
        <ele>251.146539</ele>
        <time>2023-05-02T17:29:44.013Z</time>
      </trkpt>
      <trkpt lat="48.23359" lon="-3.40332">
        <ele>251.084952</ele>
        <time>2023-05-02T17:29:47.006Z</time>
      </trkpt>
      <trkpt lat="48.23367" lon="-3.40318">
        <ele>251.018823</ele>
        <time>2023-05-02T17:29:50.021Z</time>
      </trkpt>
      <trkpt lat="48.23374" lon="-3.40306">
        <ele>250.960471</ele>
        <time>2023-05-02T17:29:53.006Z</time>
      </trkpt>
      <trkpt lat="48.23383" lon="-3.40296">
        <ele>250.899777</ele>
        <time>2023-05-02T17:29:56.006Z</time>
      </trkpt>
      <trkpt lat="48.23392" lon="-3.40284">
        <ele>250.837501</ele>
        <time>2023-05-02T17:30:00.024Z</time>
      </trkpt>
      <trkpt lat="48.23399" lon="-3.40275">
        <ele>250.786072</ele>
        <time>2023-05-02T17:30:03.012Z</time>
      </trkpt>
      <trkpt lat="48.23406" lon="-3.40264">
        <ele>250.78865</ele>
        <time>2023-05-02T17:30:07.020Z</time>
      </trkpt>
      <trkpt lat="48.23414" lon="-3.40253">
        <ele>251.052943</ele>
        <time>2023-05-02T17:30:11.007Z</time>
      </trkpt>
      <trkpt lat="48.23422" lon="-3.40241">
        <ele>251.338612</ele>
        <time>2023-05-02T17:30:16.020Z</time>
      </trkpt>
      <trkpt lat="48.2343" lon="-3.40229">
        <ele>251.625899</ele>
        <time>2023-05-02T17:30:19.015Z</time>
      </trkpt>
      <trkpt lat="48.23437" lon="-3.40217">
        <ele>251.894691</ele>
        <time>2023-05-02T17:30:22.020Z</time>
      </trkpt>
      <trkpt lat="48.23445" lon="-3.402">
        <ele>252.249064</ele>
        <time>2023-05-02T17:30:25.009Z</time>
      </trkpt>
      <trkpt lat="48.23454" lon="-3.40185">
        <ele>252.587155</ele>
        <time>2023-05-02T17:30:28.012Z</time>
      </trkpt>
      <trkpt lat="48.2346" lon="-3.40174">
        <ele>252.817785</ele>
        <time>2023-05-02T17:30:30.012Z</time>
      </trkpt>
      <trkpt lat="48.23466" lon="-3.40158">
        <ele>253.130834</ele>
        <time>2023-05-02T17:30:33.010Z</time>
      </trkpt>
      <trkpt lat="48.23471" lon="-3.40145">
        <ele>253.387519</ele>
        <time>2023-05-02T17:30:36.018Z</time>
      </trkpt>
      <trkpt lat="48.23477" lon="-3.40131">
        <ele>253.661015</ele>
        <time>2023-05-02T17:30:39.001Z</time>
      </trkpt>
      <trkpt lat="48.23482" lon="-3.40115">
        <ele>253.974942</ele>
        <time>2023-05-02T17:30:44.007Z</time>
      </trkpt>
      <trkpt lat="48.23491" lon="-3.40099">
        <ele>254.308486</ele>
        <time>2023-05-02T17:30:47.013Z</time>
      </trkpt>
      <trkpt lat="48.23498" lon="-3.40084">
        <ele>254.630276</ele>
        <time>2023-05-02T17:30:50.010Z</time>
      </trkpt>
      <trkpt lat="48.23505" lon="-3.40068">
        <ele>254.947315</ele>
        <time>2023-05-02T17:30:53.009Z</time>
      </trkpt>
      <trkpt lat="48.23512" lon="-3.40053">
        <ele>255.253061</ele>
        <time>2023-05-02T17:30:56.013Z</time>
      </trkpt>
      <trkpt lat="48.23519" lon="-3.40038">
        <ele>255.345048</ele>
        <time>2023-05-02T17:30:59.004Z</time>
      </trkpt>
      <trkpt lat="48.23524" lon="-3.40024">
        <ele>255.395732</ele>
        <time>2023-05-02T17:31:02.011Z</time>
      </trkpt>
      <trkpt lat="48.23529" lon="-3.4001">
        <ele>255.450693</ele>
        <time>2023-05-02T17:31:05.011Z</time>
      </trkpt>
      <trkpt lat="48.23534" lon="-3.39993">
        <ele>255.510626</ele>
        <time>2023-05-02T17:31:09.007Z</time>
      </trkpt>
      <trkpt lat="48.23538" lon="-3.3998">
        <ele>255.558104</ele>
        <time>2023-05-02T17:31:12.009Z</time>
      </trkpt>
      <trkpt lat="48.23543" lon="-3.39968">
        <ele>255.60627</ele>
        <time>2023-05-02T17:31:15.013Z</time>
      </trkpt>
      <trkpt lat="48.23549" lon="-3.39954">
        <ele>255.662993</ele>
        <time>2023-05-02T17:31:18.011Z</time>
      </trkpt>
      <trkpt lat="48.23558" lon="-3.39942">
        <ele>255.719658</ele>
        <time>2023-05-02T17:31:21.015Z</time>
      </trkpt>
      <trkpt lat="48.23562" lon="-3.3993">
        <ele>255.766873</ele>
        <time>2023-05-02T17:31:24.021Z</time>
      </trkpt>
      <trkpt lat="48.23567" lon="-3.39916">
        <ele>255.82063</ele>
        <time>2023-05-02T17:31:27.015Z</time>
      </trkpt>
      <trkpt lat="48.23574" lon="-3.39898">
        <ele>255.887501</ele>
        <time>2023-05-02T17:31:30.008Z</time>
      </trkpt>
      <trkpt lat="48.2358" lon="-3.39887">
        <ele>255.936351</ele>
        <time>2023-05-02T17:31:32.007Z</time>
      </trkpt>
      <trkpt lat="48.23587" lon="-3.39872">
        <ele>255.996419</ele>
        <time>2023-05-02T17:31:35.012Z</time>
      </trkpt>
      <trkpt lat="48.23594" lon="-3.39858">
        <ele>256.056287</ele>
        <time>2023-05-02T17:31:38.012Z</time>
      </trkpt>
      <trkpt lat="48.23603" lon="-3.39844">
        <ele>256.118706</ele>
        <time>2023-05-02T17:31:41.013Z</time>
      </trkpt>
      <trkpt lat="48.2361" lon="-3.39834">
        <ele>256.167263</ele>
        <time>2023-05-02T17:31:44.011Z</time>
      </trkpt>
      <trkpt lat="48.23617" lon="-3.39821">
        <ele>256.221946</ele>
        <time>2023-05-02T17:31:47.009Z</time>
      </trkpt>
      <trkpt lat="48.23623" lon="-3.3981">
        <ele>256.269678</ele>
        <time>2023-05-02T17:31:50.013Z</time>
      </trkpt>
      <trkpt lat="48.23628" lon="-3.39797">
        <ele>256.321119</ele>
        <time>2023-05-02T17:31:56.004Z</time>
      </trkpt>
      <trkpt lat="48.23634" lon="-3.39785">
        <ele>256.368336</ele>
        <time>2023-05-02T17:32:24.019Z</time>
      </trkpt>
      <trkpt lat="48.23649" lon="-3.39757">
        <ele>256.490567</ele>
        <time>2023-05-02T17:38:05.017Z</time>
      </trkpt>
      <trkpt lat="48.23652" lon="-3.3974">
        <ele>256.547752</ele>
        <time>2023-05-02T17:38:10.008Z</time>
      </trkpt>
      <trkpt lat="48.23657" lon="-3.39725">
        <ele>256.600002</ele>
        <time>2023-05-02T17:38:14.009Z</time>
      </trkpt>
      <trkpt lat="48.23663" lon="-3.39712">
        <ele>256.653307</ele>
        <time>2023-05-02T17:38:17.025Z</time>
      </trkpt>
      <trkpt lat="48.23669" lon="-3.39703">
        <ele>256.698484</ele>
        <time>2023-05-02T17:38:20.009Z</time>
      </trkpt>
      <trkpt lat="48.23676" lon="-3.3969">
        <ele>256.753803</ele>
        <time>2023-05-02T17:38:23.006Z</time>
      </trkpt>
      <trkpt lat="48.23682" lon="-3.39676">
        <ele>256.809572</ele>
        <time>2023-05-02T17:38:27.005Z</time>
      </trkpt>
      <trkpt lat="48.23689" lon="-3.39661">
        <ele>256.866996</ele>
        <time>2023-05-02T17:38:32.005Z</time>
      </trkpt>
      <trkpt lat="48.23696" lon="-3.39648">
        <ele>256.922187</ele>
        <time>2023-05-02T17:38:36.019Z</time>
      </trkpt>
      <trkpt lat="48.23701" lon="-3.39637">
        <ele>256.967758</ele>
        <time>2023-05-02T17:38:39.023Z</time>
      </trkpt>
      <trkpt lat="48.23707" lon="-3.39622">
        <ele>257.027393</ele>
        <time>2023-05-02T17:38:42.021Z</time>
      </trkpt>
      <trkpt lat="48.23715" lon="-3.39607">
        <ele>257.075895</ele>
        <time>2023-05-02T17:38:45.015Z</time>
      </trkpt>
      <trkpt lat="48.23721" lon="-3.39594">
        <ele>256.963584</ele>
        <time>2023-05-02T17:38:48.016Z</time>
      </trkpt>
      <trkpt lat="48.23725" lon="-3.39577">
        <ele>256.836341</ele>
        <time>2023-05-02T17:38:51.004Z</time>
      </trkpt>
      <trkpt lat="48.23728" lon="-3.39562">
        <ele>256.729018</ele>
        <time>2023-05-02T17:38:53.008Z</time>
      </trkpt>
      <trkpt lat="48.23733" lon="-3.3955">
        <ele>256.630533</ele>
        <time>2023-05-02T17:38:55.004Z</time>
      </trkpt>
      <trkpt lat="48.23739" lon="-3.39532">
        <ele>256.497931</ele>
        <time>2023-05-02T17:38:58.015Z</time>
      </trkpt>
      <trkpt lat="48.23745" lon="-3.39519">
        <ele>256.388626</ele>
        <time>2023-05-02T17:39:01.014Z</time>
      </trkpt>
      <trkpt lat="48.23751" lon="-3.39505">
        <ele>256.27475</ele>
        <time>2023-05-02T17:39:04.007Z</time>
      </trkpt>
      <trkpt lat="48.23757" lon="-3.39494">
        <ele>256.172376</ele>
        <time>2023-05-02T17:39:07.017Z</time>
      </trkpt>
      <trkpt lat="48.23764" lon="-3.3948">
        <ele>256.053355</ele>
        <time>2023-05-02T17:39:10.007Z</time>
      </trkpt>
      <trkpt lat="48.23769" lon="-3.39468">
        <ele>255.9559</ele>
        <time>2023-05-02T17:39:13.008Z</time>
      </trkpt>
      <trkpt lat="48.23776" lon="-3.39456">
        <ele>255.845151</ele>
        <time>2023-05-02T17:39:16.011Z</time>
      </trkpt>
      <trkpt lat="48.23782" lon="-3.39443">
        <ele>255.737999</ele>
        <time>2023-05-02T17:39:19.023Z</time>
      </trkpt>
      <trkpt lat="48.23788" lon="-3.3943">
        <ele>255.633283</ele>
        <time>2023-05-02T17:39:21.018Z</time>
      </trkpt>
      <trkpt lat="48.23794" lon="-3.39415">
        <ele>255.509432</ele>
        <time>2023-05-02T17:39:24.009Z</time>
      </trkpt>
      <trkpt lat="48.23798" lon="-3.39403">
        <ele>255.414905</ele>
        <time>2023-05-02T17:39:27.013Z</time>
      </trkpt>
      <trkpt lat="48.23805" lon="-3.39387">
        <ele>255.288424</ele>
        <time>2023-05-02T17:39:30.016Z</time>
      </trkpt>
      <trkpt lat="48.23811" lon="-3.39374">
        <ele>255.036985</ele>
        <time>2023-05-02T17:39:32.997Z</time>
      </trkpt>
      <trkpt lat="48.23816" lon="-3.39359">
        <ele>254.599882</ele>
        <time>2023-05-02T17:39:36.044Z</time>
      </trkpt>
      <trkpt lat="48.23823" lon="-3.39343">
        <ele>254.086765</ele>
        <time>2023-05-02T17:39:40.012Z</time>
      </trkpt>
      <trkpt lat="48.23829" lon="-3.39332">
        <ele>253.696713</ele>
        <time>2023-05-02T17:39:43.015Z</time>
      </trkpt>
      <trkpt lat="48.23837" lon="-3.3932">
        <ele>253.248364</ele>
        <time>2023-05-02T17:39:46.018Z</time>
      </trkpt>
      <trkpt lat="48.23845" lon="-3.39306">
        <ele>252.765938</ele>
        <time>2023-05-02T17:39:49.016Z</time>
      </trkpt>
      <trkpt lat="48.2385" lon="-3.39291">
        <ele>252.32129</ele>
        <time>2023-05-02T17:39:52.007Z</time>
      </trkpt>
      <trkpt lat="48.23856" lon="-3.39279">
        <ele>251.920988</ele>
        <time>2023-05-02T17:39:54.011Z</time>
      </trkpt>
      <trkpt lat="48.23862" lon="-3.39262">
        <ele>251.422967</ele>
        <time>2023-05-02T17:39:57.014Z</time>
      </trkpt>
      <trkpt lat="48.23867" lon="-3.39247">
        <ele>250.95215</ele>
        <time>2023-05-02T17:40:00.021Z</time>
      </trkpt>
      <trkpt lat="48.23873" lon="-3.39235">
        <ele>250.5574</ele>
        <time>2023-05-02T17:40:03.014Z</time>
      </trkpt>
      <trkpt lat="48.2388" lon="-3.39222">
        <ele>250.132608</ele>
        <time>2023-05-02T17:40:06.020Z</time>
      </trkpt>
      <trkpt lat="48.23885" lon="-3.39211">
        <ele>249.764024</ele>
        <time>2023-05-02T17:40:08.015Z</time>
      </trkpt>
      <trkpt lat="48.23891" lon="-3.392">
        <ele>249.390202</ele>
        <time>2023-05-02T17:40:10.019Z</time>
      </trkpt>
      <trkpt lat="48.23895" lon="-3.39187">
        <ele>249.018789</ele>
        <time>2023-05-02T17:40:12.009Z</time>
      </trkpt>
      <trkpt lat="48.23899" lon="-3.39175">
        <ele>248.652082</ele>
        <time>2023-05-02T17:40:14.008Z</time>
      </trkpt>
      <trkpt lat="48.23906" lon="-3.3916">
        <ele>248.167831</ele>
        <time>2023-05-02T17:40:17.025Z</time>
      </trkpt>
      <trkpt lat="48.23912" lon="-3.39144">
        <ele>248.248132</ele>
        <time>2023-05-02T17:40:20.021Z</time>
      </trkpt>
      <trkpt lat="48.23919" lon="-3.39127">
        <ele>248.515919</ele>
        <time>2023-05-02T17:40:23.012Z</time>
      </trkpt>
      <trkpt lat="48.23924" lon="-3.39115">
        <ele>248.714263</ele>
        <time>2023-05-02T17:40:26.013Z</time>
      </trkpt>
      <trkpt lat="48.23931" lon="-3.391">
        <ele>248.969359</ele>
        <time>2023-05-02T17:40:29.019Z</time>
      </trkpt>
      <trkpt lat="48.23938" lon="-3.39085">
        <ele>249.220991</ele>
        <time>2023-05-02T17:40:32.012Z</time>
      </trkpt>
      <trkpt lat="48.23946" lon="-3.39068">
        <ele>249.505757</ele>
        <time>2023-05-02T17:40:35.013Z</time>
      </trkpt>
      <trkpt lat="48.23952" lon="-3.39052">
        <ele>249.759079</ele>
        <time>2023-05-02T17:40:38.020Z</time>
      </trkpt>
      <trkpt lat="48.23958" lon="-3.39039">
        <ele>249.986277</ele>
        <time>2023-05-02T17:40:41.022Z</time>
      </trkpt>
      <trkpt lat="48.23964" lon="-3.39024">
        <ele>250.231908</ele>
        <time>2023-05-02T17:40:45.012Z</time>
      </trkpt>
      <trkpt lat="48.2397" lon="-3.39009">
        <ele>250.46619</ele>
        <time>2023-05-02T17:40:48.022Z</time>
      </trkpt>
      <trkpt lat="48.23975" lon="-3.38997">
        <ele>250.672564</ele>
        <time>2023-05-02T17:40:51.005Z</time>
      </trkpt>
      <trkpt lat="48.23979" lon="-3.38981">
        <ele>250.901341</ele>
        <time>2023-05-02T17:40:55.013Z</time>
      </trkpt>
      <trkpt lat="48.23984" lon="-3.38964">
        <ele>251.158072</ele>
        <time>2023-05-02T17:40:58.000Z</time>
      </trkpt>
      <trkpt lat="48.23988" lon="-3.38946">
        <ele>251.421243</ele>
        <time>2023-05-02T17:41:01.007Z</time>
      </trkpt>
      <trkpt lat="48.23992" lon="-3.38933">
        <ele>251.625525</ele>
        <time>2023-05-02T17:41:04.011Z</time>
      </trkpt>
      <trkpt lat="48.23997" lon="-3.38914">
        <ele>251.670609</ele>
        <time>2023-05-02T17:41:07.008Z</time>
      </trkpt>
      <trkpt lat="48.24" lon="-3.38896">
        <ele>251.351535</ele>
        <time>2023-05-02T17:41:10.008Z</time>
      </trkpt>
      <trkpt lat="48.24003" lon="-3.38879">
        <ele>251.056546</ele>
        <time>2023-05-02T17:41:13.021Z</time>
      </trkpt>
      <trkpt lat="48.24004" lon="-3.38863">
        <ele>250.802037</ele>
        <time>2023-05-02T17:41:16.012Z</time>
      </trkpt>
      <trkpt lat="48.24004" lon="-3.38849">
        <ele>250.561938</ele>
        <time>2023-05-02T17:41:18.998Z</time>
      </trkpt>
      <trkpt lat="48.24005" lon="-3.38832">
        <ele>250.280228</ele>
        <time>2023-05-02T17:41:23.007Z</time>
      </trkpt>
      <trkpt lat="48.24007" lon="-3.38816">
        <ele>250.008628</ele>
        <time>2023-05-02T17:41:26.011Z</time>
      </trkpt>
      <trkpt lat="48.24009" lon="-3.38799">
        <ele>249.728562</ele>
        <time>2023-05-02T17:41:29.010Z</time>
      </trkpt>
      <trkpt lat="48.24009" lon="-3.38782">
        <ele>249.443805</ele>
        <time>2023-05-02T17:41:32.011Z</time>
      </trkpt>
      <trkpt lat="48.2401" lon="-3.38763">
        <ele>249.125327</ele>
        <time>2023-05-02T17:41:35.004Z</time>
      </trkpt>
      <trkpt lat="48.2401" lon="-3.38748">
        <ele>248.873678</ele>
        <time>2023-05-02T17:41:38.006Z</time>
      </trkpt>
      <trkpt lat="48.2401" lon="-3.38729">
        <ele>248.570711</ele>
        <time>2023-05-02T17:41:41.011Z</time>
      </trkpt>
      <trkpt lat="48.24011" lon="-3.38716">
        <ele>248.343902</ele>
        <time>2023-05-02T17:41:43.007Z</time>
      </trkpt>
      <trkpt lat="48.24013" lon="-3.38697">
        <ele>248.026521</ele>
        <time>2023-05-02T17:41:46.007Z</time>
      </trkpt>
      <trkpt lat="48.24012" lon="-3.38682">
        <ele>247.776491</ele>
        <time>2023-05-02T17:41:48.013Z</time>
      </trkpt>
      <trkpt lat="48.24014" lon="-3.38663">
        <ele>247.462401</ele>
        <time>2023-05-02T17:41:51.017Z</time>
      </trkpt>
      <trkpt lat="48.24016" lon="-3.38645">
        <ele>247.224505</ele>
        <time>2023-05-02T17:41:54.010Z</time>
      </trkpt>
      <trkpt lat="48.24018" lon="-3.38631">
        <ele>247.083137</ele>
        <time>2023-05-02T17:41:56.011Z</time>
      </trkpt>
      <trkpt lat="48.24018" lon="-3.38615">
        <ele>246.916226</ele>
        <time>2023-05-02T17:41:59.004Z</time>
      </trkpt>
      <trkpt lat="48.2402" lon="-3.38596">
        <ele>246.72115</ele>
        <time>2023-05-02T17:42:02.009Z</time>
      </trkpt>
      <trkpt lat="48.2402" lon="-3.38582">
        <ele>246.584142</ele>
        <time>2023-05-02T17:42:04.010Z</time>
      </trkpt>
      <trkpt lat="48.2402" lon="-3.38562">
        <ele>246.381228</ele>
        <time>2023-05-02T17:42:07.012Z</time>
      </trkpt>
      <trkpt lat="48.24022" lon="-3.38542">
        <ele>246.169675</ele>
        <time>2023-05-02T17:42:10.016Z</time>
      </trkpt>
      <trkpt lat="48.24022" lon="-3.38527">
        <ele>246.022592</ele>
        <time>2023-05-02T17:42:12.009Z</time>
      </trkpt>
      <trkpt lat="48.24021" lon="-3.38513">
        <ele>245.881529</ele>
        <time>2023-05-02T17:42:14.010Z</time>
      </trkpt>
      <trkpt lat="48.24022" lon="-3.38499">
        <ele>245.732658</ele>
        <time>2023-05-02T17:42:16.009Z</time>
      </trkpt>
      <trkpt lat="48.24024" lon="-3.38479">
        <ele>245.535738</ele>
        <time>2023-05-02T17:42:19.005Z</time>
      </trkpt>
      <trkpt lat="48.24025" lon="-3.38459">
        <ele>245.332305</ele>
        <time>2023-05-02T17:42:22.011Z</time>
      </trkpt>
      <trkpt lat="48.24025" lon="-3.38445">
        <ele>245.190294</ele>
        <time>2023-05-02T17:42:24.009Z</time>
      </trkpt>
      <trkpt lat="48.24025" lon="-3.38426">
        <ele>244.998371</ele>
        <time>2023-05-02T17:42:27.005Z</time>
      </trkpt>
      <trkpt lat="48.24028" lon="-3.38406">
        <ele>244.788693</ele>
        <time>2023-05-02T17:42:30.011Z</time>
      </trkpt>
      <trkpt lat="48.2403" lon="-3.38387">
        <ele>244.596081</ele>
        <time>2023-05-02T17:42:33.006Z</time>
      </trkpt>
      <trkpt lat="48.24032" lon="-3.38374">
        <ele>244.50916</ele>
        <time>2023-05-02T17:42:35.002Z</time>
      </trkpt>
      <trkpt lat="48.24033" lon="-3.38354">
        <ele>244.389102</ele>
        <time>2023-05-02T17:42:38.004Z</time>
      </trkpt>
      <trkpt lat="48.24034" lon="-3.38339">
        <ele>244.297784</ele>
        <time>2023-05-02T17:42:40.004Z</time>
      </trkpt>
      <trkpt lat="48.24036" lon="-3.38324">
        <ele>244.20634</ele>
        <time>2023-05-02T17:42:42.012Z</time>
      </trkpt>
      <trkpt lat="48.24038" lon="-3.38307">
        <ele>244.102148</ele>
        <time>2023-05-02T17:42:45.010Z</time>
      </trkpt>
      <trkpt lat="48.24036" lon="-3.38288">
        <ele>243.988549</ele>
        <time>2023-05-02T17:42:48.009Z</time>
      </trkpt>
      <trkpt lat="48.24037" lon="-3.38267">
        <ele>243.862141</ele>
        <time>2023-05-02T17:42:51.006Z</time>
      </trkpt>
      <trkpt lat="48.24038" lon="-3.38253">
        <ele>243.78011</ele>
        <time>2023-05-02T17:42:53.015Z</time>
      </trkpt>
      <trkpt lat="48.24039" lon="-3.38235">
        <ele>243.670468</ele>
        <time>2023-05-02T17:42:55.008Z</time>
      </trkpt>
      <trkpt lat="48.24039" lon="-3.38219">
        <ele>243.578391</ele>
        <time>2023-05-02T17:42:57.013Z</time>
      </trkpt>
      <trkpt lat="48.24043" lon="-3.38199">
        <ele>243.452795</ele>
        <time>2023-05-02T17:43:00.003Z</time>
      </trkpt>
      <trkpt lat="48.24044" lon="-3.38183">
        <ele>243.358123</ele>
        <time>2023-05-02T17:43:02.004Z</time>
      </trkpt>
      <trkpt lat="48.24046" lon="-3.3817">
        <ele>243.275163</ele>
        <time>2023-05-02T17:43:04.015Z</time>
      </trkpt>
      <trkpt lat="48.24047" lon="-3.38154">
        <ele>243.181275</ele>
        <time>2023-05-02T17:43:06.010Z</time>
      </trkpt>
      <trkpt lat="48.24047" lon="-3.38138">
        <ele>243.084421</ele>
        <time>2023-05-02T17:43:08.009Z</time>
      </trkpt>
      <trkpt lat="48.24049" lon="-3.38123">
        <ele>242.99564</ele>
        <time>2023-05-02T17:43:10.010Z</time>
      </trkpt>
      <trkpt lat="48.24046" lon="-3.38106">
        <ele>242.737987</ele>
        <time>2023-05-02T17:43:13.011Z</time>
      </trkpt>
      <trkpt lat="48.24048" lon="-3.38088">
        <ele>242.412581</ele>
        <time>2023-05-02T17:43:16.014Z</time>
      </trkpt>
      <trkpt lat="48.24047" lon="-3.38068">
        <ele>242.062763</ele>
        <time>2023-05-02T17:43:19.003Z</time>
      </trkpt>
      <trkpt lat="48.24048" lon="-3.38054">
        <ele>241.814791</ele>
        <time>2023-05-02T17:43:21.016Z</time>
      </trkpt>
      <trkpt lat="48.24048" lon="-3.3804">
        <ele>241.575115</ele>
        <time>2023-05-02T17:43:23.010Z</time>
      </trkpt>
      <trkpt lat="48.24049" lon="-3.38023">
        <ele>241.285006</ele>
        <time>2023-05-02T17:43:26.012Z</time>
      </trkpt>
      <trkpt lat="48.24048" lon="-3.38009">
        <ele>241.033066</ele>
        <time>2023-05-02T17:43:29.010Z</time>
      </trkpt>
      <trkpt lat="48.24044" lon="-3.37996">
        <ele>240.773294</ele>
        <time>2023-05-02T17:43:32.010Z</time>
      </trkpt>
      <trkpt lat="48.24038" lon="-3.37981">
        <ele>240.464342</ele>
        <time>2023-05-02T17:43:36.019Z</time>
      </trkpt>
      <trkpt lat="48.24033" lon="-3.37969">
        <ele>240.219537</ele>
        <time>2023-05-02T17:43:39.008Z</time>
      </trkpt>
      <trkpt lat="48.24026" lon="-3.37956">
        <ele>239.919415</ele>
        <time>2023-05-02T17:43:42.009Z</time>
      </trkpt>
      <trkpt lat="48.24016" lon="-3.37943">
        <ele>239.586575</ele>
        <time>2023-05-02T17:43:45.010Z</time>
      </trkpt>
      <trkpt lat="48.24006" lon="-3.3793">
        <ele>239.231051</ele>
        <time>2023-05-02T17:43:48.012Z</time>
      </trkpt>
      <trkpt lat="48.23998" lon="-3.37922">
        <ele>238.980978</ele>
        <time>2023-05-02T17:43:50.010Z</time>
      </trkpt>
      <trkpt lat="48.23988" lon="-3.3791">
        <ele>238.631576</ele>
        <time>2023-05-02T17:43:53.012Z</time>
      </trkpt>
      <trkpt lat="48.23978" lon="-3.37898">
        <ele>238.29079</ele>
        <time>2023-05-02T17:43:56.006Z</time>
      </trkpt>
      <trkpt lat="48.23968" lon="-3.37886">
        <ele>238.128198</ele>
        <time>2023-05-02T17:43:59.002Z</time>
      </trkpt>
      <trkpt lat="48.23959" lon="-3.37875">
        <ele>238.016511</ele>
        <time>2023-05-02T17:44:02.012Z</time>
      </trkpt>
      <trkpt lat="48.2395" lon="-3.37865">
        <ele>237.908659</ele>
        <time>2023-05-02T17:44:05.013Z</time>
      </trkpt>
      <trkpt lat="48.23941" lon="-3.37854">
        <ele>237.804187</ele>
        <time>2023-05-02T17:44:08.010Z</time>
      </trkpt>
      <trkpt lat="48.23933" lon="-3.37845">
        <ele>237.711873</ele>
        <time>2023-05-02T17:44:11.007Z</time>
      </trkpt>
      <trkpt lat="48.23925" lon="-3.37836">
        <ele>237.609712</ele>
        <time>2023-05-02T17:44:14.000Z</time>
      </trkpt>
      <trkpt lat="48.23915" lon="-3.37826">
        <ele>237.503316</ele>
        <time>2023-05-02T17:44:17.011Z</time>
      </trkpt>
      <trkpt lat="48.23907" lon="-3.37815">
        <ele>237.397466</ele>
        <time>2023-05-02T17:44:20.005Z</time>
      </trkpt>
      <trkpt lat="48.23899" lon="-3.37806">
        <ele>237.303253</ele>
        <time>2023-05-02T17:44:23.011Z</time>
      </trkpt>
      <trkpt lat="48.23891" lon="-3.37798">
        <ele>237.209073</ele>
        <time>2023-05-02T17:44:26.009Z</time>
      </trkpt>
      <trkpt lat="48.23883" lon="-3.37785">
        <ele>237.098562</ele>
        <time>2023-05-02T17:44:30.011Z</time>
      </trkpt>
      <trkpt lat="48.23878" lon="-3.37774">
        <ele>237.011899</ele>
        <time>2023-05-02T17:44:33.003Z</time>
      </trkpt>
      <trkpt lat="48.23873" lon="-3.3776">
        <ele>236.910614</ele>
        <time>2023-05-02T17:44:36.007Z</time>
      </trkpt>
      <trkpt lat="48.23869" lon="-3.37745">
        <ele>236.810978</ele>
        <time>2023-05-02T17:44:40.006Z</time>
      </trkpt>
      <trkpt lat="48.23865" lon="-3.37731">
        <ele>236.713944</ele>
        <time>2023-05-02T17:44:44.008Z</time>
      </trkpt>
      <trkpt lat="48.23861" lon="-3.37719">
        <ele>236.628076</ele>
        <time>2023-05-02T17:44:47.011Z</time>
      </trkpt>
      <trkpt lat="48.23856" lon="-3.37703">
        <ele>236.517737</ele>
        <time>2023-05-02T17:44:51.005Z</time>
      </trkpt>
      <trkpt lat="48.23852" lon="-3.37691">
        <ele>236.534322</ele>
        <time>2023-05-02T17:44:54.009Z</time>
      </trkpt>
      <trkpt lat="48.23846" lon="-3.37676">
        <ele>236.559403</ele>
        <time>2023-05-02T17:44:58.001Z</time>
      </trkpt>
      <trkpt lat="48.23841" lon="-3.37663">
        <ele>236.581341</ele>
        <time>2023-05-02T17:45:02.012Z</time>
      </trkpt>
      <trkpt lat="48.23837" lon="-3.37648">
        <ele>236.604921</ele>
        <time>2023-05-02T17:45:06.010Z</time>
      </trkpt>
      <trkpt lat="48.23834" lon="-3.37633">
        <ele>236.628486</ele>
        <time>2023-05-02T17:45:10.014Z</time>
      </trkpt>
      <trkpt lat="48.23829" lon="-3.37617">
        <ele>236.653994</ele>
        <time>2023-05-02T17:45:14.008Z</time>
      </trkpt>
      <trkpt lat="48.23826" lon="-3.37601">
        <ele>236.678798</ele>
        <time>2023-05-02T17:45:18.003Z</time>
      </trkpt>
      <trkpt lat="48.23823" lon="-3.37585">
        <ele>236.702645</ele>
        <time>2023-05-02T17:45:22.012Z</time>
      </trkpt>
      <trkpt lat="48.23822" lon="-3.37569">
        <ele>236.726561</ele>
        <time>2023-05-02T17:45:26.009Z</time>
      </trkpt>
      <trkpt lat="48.2382" lon="-3.37554">
        <ele>236.748842</ele>
        <time>2023-05-02T17:45:30.014Z</time>
      </trkpt>
      <trkpt lat="48.23818" lon="-3.37537">
        <ele>236.774411</ele>
        <time>2023-05-02T17:45:34.010Z</time>
      </trkpt>
      <trkpt lat="48.23819" lon="-3.37521">
        <ele>236.798367</ele>
        <time>2023-05-02T17:45:39.005Z</time>
      </trkpt>
      <trkpt lat="48.23824" lon="-3.37507">
        <ele>236.8221</ele>
        <time>2023-05-02T17:45:45.014Z</time>
      </trkpt>
      <trkpt lat="48.23817" lon="-3.37497">
        <ele>236.843929</ele>
        <time>2023-05-02T17:46:04.003Z</time>
      </trkpt>
      <trkpt lat="48.23813" lon="-3.37469">
        <ele>236.885465</ele>
        <time>2023-05-02T17:48:25.006Z</time>
      </trkpt>
      <trkpt lat="48.23811" lon="-3.37449">
        <ele>236.896073</ele>
        <time>2023-05-02T17:48:28.011Z</time>
      </trkpt>
      <trkpt lat="48.23809" lon="-3.37434">
        <ele>236.802661</ele>
        <time>2023-05-02T17:48:30.007Z</time>
      </trkpt>
      <trkpt lat="48.23807" lon="-3.37419">
        <ele>236.702419</ele>
        <time>2023-05-02T17:48:32.004Z</time>
      </trkpt>
      <trkpt lat="48.23806" lon="-3.37404">
        <ele>236.611325</ele>
        <time>2023-05-02T17:48:34.010Z</time>
      </trkpt>
      <trkpt lat="48.23804" lon="-3.37388">
        <ele>236.510453</ele>
        <time>2023-05-02T17:48:36.007Z</time>
      </trkpt>
      <trkpt lat="48.23802" lon="-3.37375">
        <ele>236.421389</ele>
        <time>2023-05-02T17:48:38.003Z</time>
      </trkpt>
      <trkpt lat="48.23799" lon="-3.37356">
        <ele>236.299947</ele>
        <time>2023-05-02T17:48:41.006Z</time>
      </trkpt>
      <trkpt lat="48.23796" lon="-3.3734">
        <ele>236.197776</ele>
        <time>2023-05-02T17:48:44.004Z</time>
      </trkpt>
      <trkpt lat="48.23792" lon="-3.37326">
        <ele>236.10624</ele>
        <time>2023-05-02T17:48:47.003Z</time>
      </trkpt>
      <trkpt lat="48.23789" lon="-3.37312">
        <ele>236.011491</ele>
        <time>2023-05-02T17:48:50.013Z</time>
      </trkpt>
      <trkpt lat="48.23784" lon="-3.37297">
        <ele>235.905062</ele>
        <time>2023-05-02T17:48:53.005Z</time>
      </trkpt>
      <trkpt lat="48.23778" lon="-3.37281">
        <ele>235.790011</ele>
        <time>2023-05-02T17:48:56.005Z</time>
      </trkpt>
      <trkpt lat="48.23772" lon="-3.37265">
        <ele>235.680158</ele>
        <time>2023-05-02T17:48:59.003Z</time>
      </trkpt>
      <trkpt lat="48.23767" lon="-3.3725">
        <ele>235.570551</ele>
        <time>2023-05-02T17:49:02.012Z</time>
      </trkpt>
      <trkpt lat="48.23761" lon="-3.37234">
        <ele>235.45705</ele>
        <time>2023-05-02T17:49:05.010Z</time>
      </trkpt>
      <trkpt lat="48.23754" lon="-3.3722">
        <ele>235.348658</ele>
        <time>2023-05-02T17:49:08.012Z</time>
      </trkpt>
      <trkpt lat="48.23746" lon="-3.37212">
        <ele>235.254211</ele>
        <time>2023-05-02T17:49:11.016Z</time>
      </trkpt>
      <trkpt lat="48.23736" lon="-3.3721">
        <ele>235.233648</ele>
        <time>2023-05-02T17:49:14.006Z</time>
      </trkpt>
      <trkpt lat="48.23724" lon="-3.3721">
        <ele>235.255784</ele>
        <time>2023-05-02T17:49:17.997Z</time>
      </trkpt>
      <trkpt lat="48.23715" lon="-3.37208">
        <ele>235.273622</ele>
        <time>2023-05-02T17:49:22.008Z</time>
      </trkpt>
      <trkpt lat="48.23706" lon="-3.37208">
        <ele>235.291542</ele>
        <time>2023-05-02T17:49:26.009Z</time>
      </trkpt>
      <trkpt lat="48.23694" lon="-3.37207">
        <ele>235.314259</ele>
        <time>2023-05-02T17:49:30.005Z</time>
      </trkpt>
      <trkpt lat="48.23685" lon="-3.37206">
        <ele>235.331794</ele>
        <time>2023-05-02T17:49:33.001Z</time>
      </trkpt>
      <trkpt lat="48.23673" lon="-3.37206">
        <ele>235.353756</ele>
        <time>2023-05-02T17:49:37.012Z</time>
      </trkpt>
      <trkpt lat="48.23664" lon="-3.37204">
        <ele>235.372317</ele>
        <time>2023-05-02T17:49:40.003Z</time>
      </trkpt>
      <trkpt lat="48.23653" lon="-3.37203">
        <ele>235.392975</ele>
        <time>2023-05-02T17:49:43.009Z</time>
      </trkpt>
      <trkpt lat="48.23642" lon="-3.37202">
        <ele>235.414751</ele>
        <time>2023-05-02T17:49:46.012Z</time>
      </trkpt>
      <trkpt lat="48.23631" lon="-3.37201">
        <ele>235.436511</ele>
        <time>2023-05-02T17:49:49.011Z</time>
      </trkpt>
      <trkpt lat="48.23619" lon="-3.37202">
        <ele>235.458643</ele>
        <time>2023-05-02T17:49:52.009Z</time>
      </trkpt>
      <trkpt lat="48.23608" lon="-3.37201">
        <ele>235.479081</ele>
        <time>2023-05-02T17:49:55.007Z</time>
      </trkpt>
      <trkpt lat="48.23596" lon="-3.372">
        <ele>235.503522</ele>
        <time>2023-05-02T17:49:59.009Z</time>
      </trkpt>
      <trkpt lat="48.23585" lon="-3.37202">
        <ele>235.523449</ele>
        <time>2023-05-02T17:50:02.008Z</time>
      </trkpt>
      <trkpt lat="48.23574" lon="-3.37204">
        <ele>235.544934</ele>
        <time>2023-05-02T17:50:05.006Z</time>
      </trkpt>
      <trkpt lat="48.23564" lon="-3.37206">
        <ele>235.564844</ele>
        <time>2023-05-02T17:50:08.008Z</time>
      </trkpt>
      <trkpt lat="48.23553" lon="-3.37211">
        <ele>235.549187</ele>
        <time>2023-05-02T17:50:11.006Z</time>
      </trkpt>
      <trkpt lat="48.23541" lon="-3.37217">
        <ele>235.526404</ele>
        <time>2023-05-02T17:50:14.008Z</time>
      </trkpt>
      <trkpt lat="48.23529" lon="-3.37225">
        <ele>235.502737</ele>
        <time>2023-05-02T17:50:17.010Z</time>
      </trkpt>
      <trkpt lat="48.23521" lon="-3.37232">
        <ele>235.485397</ele>
        <time>2023-05-02T17:50:19.003Z</time>
      </trkpt>
      <trkpt lat="48.23511" lon="-3.37242">
        <ele>235.465179</ele>
        <time>2023-05-02T17:50:22.006Z</time>
      </trkpt>
      <trkpt lat="48.23501" lon="-3.37252">
        <ele>235.443784</ele>
        <time>2023-05-02T17:50:25.010Z</time>
      </trkpt>
      <trkpt lat="48.23491" lon="-3.37261">
        <ele>235.422692</ele>
        <time>2023-05-02T17:50:28.009Z</time>
      </trkpt>
      <trkpt lat="48.2348" lon="-3.37269">
        <ele>235.399784</ele>
        <time>2023-05-02T17:50:31.012Z</time>
      </trkpt>
      <trkpt lat="48.23469" lon="-3.37272">
        <ele>235.380161</ele>
        <time>2023-05-02T17:50:34.011Z</time>
      </trkpt>
      <trkpt lat="48.23459" lon="-3.37273">
        <ele>235.36222</ele>
        <time>2023-05-02T17:50:37.013Z</time>
      </trkpt>
      <trkpt lat="48.2345" lon="-3.37274">
        <ele>235.345993</ele>
        <time>2023-05-02T17:50:40.004Z</time>
      </trkpt>
      <trkpt lat="48.23439" lon="-3.37277">
        <ele>235.326238</ele>
        <time>2023-05-02T17:50:43.007Z</time>
      </trkpt>
      <trkpt lat="48.23427" lon="-3.37281">
        <ele>235.304025</ele>
        <time>2023-05-02T17:50:46.008Z</time>
      </trkpt>
      <trkpt lat="48.23415" lon="-3.37282">
        <ele>235.283812</ele>
        <time>2023-05-02T17:50:50.010Z</time>
      </trkpt>
      <trkpt lat="48.23406" lon="-3.37284">
        <ele>235.266267</ele>
        <time>2023-05-02T17:50:53.011Z</time>
      </trkpt>
      <trkpt lat="48.23395" lon="-3.37288">
        <ele>235.247864</ele>
        <time>2023-05-02T17:50:56.008Z</time>
      </trkpt>
      <trkpt lat="48.23385" lon="-3.3729">
        <ele>235.181912</ele>
        <time>2023-05-02T17:50:59.005Z</time>
      </trkpt>
      <trkpt lat="48.23372" lon="-3.37292">
        <ele>235.08893</ele>
        <time>2023-05-02T17:51:02.005Z</time>
      </trkpt>
      <trkpt lat="48.23363" lon="-3.37294">
        <ele>235.026135</ele>
        <time>2023-05-02T17:51:04.008Z</time>
      </trkpt>
      <trkpt lat="48.23352" lon="-3.37296">
        <ele>234.946051</ele>
        <time>2023-05-02T17:51:07.005Z</time>
      </trkpt>
      <trkpt lat="48.23341" lon="-3.37296">
        <ele>234.869603</ele>
        <time>2023-05-02T17:51:10.002Z</time>
      </trkpt>
      <trkpt lat="48.23329" lon="-3.37294">
        <ele>234.788087</ele>
        <time>2023-05-02T17:51:13.011Z</time>
      </trkpt>
      <trkpt lat="48.23318" lon="-3.37291">
        <ele>234.712127</ele>
        <time>2023-05-02T17:51:16.011Z</time>
      </trkpt>
      <trkpt lat="48.2331" lon="-3.37284">
        <ele>234.645256</ele>
        <time>2023-05-02T17:51:18.991Z</time>
      </trkpt>
      <trkpt lat="48.233" lon="-3.37276">
        <ele>234.568001</ele>
        <time>2023-05-02T17:51:22.003Z</time>
      </trkpt>
      <trkpt lat="48.2329" lon="-3.37268">
        <ele>234.491358</ele>
        <time>2023-05-02T17:51:25.010Z</time>
      </trkpt>
      <trkpt lat="48.23281" lon="-3.3726">
        <ele>234.416083</ele>
        <time>2023-05-02T17:51:28.008Z</time>
      </trkpt>
      <trkpt lat="48.23271" lon="-3.37252">
        <ele>234.339145</ele>
        <time>2023-05-02T17:51:31.007Z</time>
      </trkpt>
      <trkpt lat="48.23262" lon="-3.37244">
        <ele>234.264774</ele>
        <time>2023-05-02T17:51:34.015Z</time>
      </trkpt>
      <trkpt lat="48.23253" lon="-3.37238">
        <ele>234.196435</ele>
        <time>2023-05-02T17:51:37.008Z</time>
      </trkpt>
      <trkpt lat="48.23242" lon="-3.37234">
        <ele>234.119699</ele>
        <time>2023-05-02T17:51:40.005Z</time>
      </trkpt>
      <trkpt lat="48.23231" lon="-3.37233">
        <ele>234.043679</ele>
        <time>2023-05-02T17:51:43.014Z</time>
      </trkpt>
      <trkpt lat="48.23221" lon="-3.37231">
        <ele>233.997628</ele>
        <time>2023-05-02T17:51:45.997Z</time>
      </trkpt>
      <trkpt lat="48.23211" lon="-3.37226">
        <ele>233.998791</ele>
        <time>2023-05-02T17:51:49.019Z</time>
      </trkpt>
      <trkpt lat="48.23202" lon="-3.37221">
        <ele>233.999907</ele>
        <time>2023-05-02T17:51:52.011Z</time>
      </trkpt>
      <trkpt lat="48.23193" lon="-3.37215">
        <ele>234.001</ele>
        <time>2023-05-02T17:51:55.014Z</time>
      </trkpt>
      <trkpt lat="48.23184" lon="-3.37207">
        <ele>234.002163</ele>
        <time>2023-05-02T17:51:58.009Z</time>
      </trkpt>
      <trkpt lat="48.23176" lon="-3.37198">
        <ele>234.003283</ele>
        <time>2023-05-02T17:52:01.014Z</time>
      </trkpt>
      <trkpt lat="48.23167" lon="-3.37189">
        <ele>234.004483</ele>
        <time>2023-05-02T17:52:04.013Z</time>
      </trkpt>
      <trkpt lat="48.23159" lon="-3.37178">
        <ele>234.005695</ele>
        <time>2023-05-02T17:52:07.021Z</time>
      </trkpt>
      <trkpt lat="48.23151" lon="-3.37167">
        <ele>234.006893</ele>
        <time>2023-05-02T17:52:10.012Z</time>
      </trkpt>
      <trkpt lat="48.23145" lon="-3.37154">
        <ele>234.008123</ele>
        <time>2023-05-02T17:52:13.009Z</time>
      </trkpt>
      <trkpt lat="48.2314" lon="-3.3714">
        <ele>234.009305</ele>
        <time>2023-05-02T17:52:16.014Z</time>
      </trkpt>
      <trkpt lat="48.23135" lon="-3.37126">
        <ele>234.010492</ele>
        <time>2023-05-02T17:52:19.008Z</time>
      </trkpt>
      <trkpt lat="48.20511" lon="-3.3047">
        <ele>212.119727</ele>
        <time>2023-05-02T18:24:09.080Z</time>
      </trkpt>
      <trkpt lat="48.2051" lon="-3.30453">
        <ele>211.871885</ele>
        <time>2023-05-02T18:24:14.007Z</time>
      </trkpt>
      <trkpt lat="48.20512" lon="-3.30436">
        <ele>211.616818</ele>
        <time>2023-05-02T18:24:18.012Z</time>
      </trkpt>
      <trkpt lat="48.20512" lon="-3.30418">
        <ele>211.345256</ele>
        <time>2023-05-02T18:24:22.007Z</time>
      </trkpt>
      <trkpt lat="48.20512" lon="-3.30402">
        <ele>211.102882</ele>
        <time>2023-05-02T18:24:25.006Z</time>
      </trkpt>
      <trkpt lat="48.20513" lon="-3.30386">
        <ele>210.863776</ele>
        <time>2023-05-02T18:24:28.007Z</time>
      </trkpt>
      <trkpt lat="48.20512" lon="-3.30372">
        <ele>210.661041</ele>
        <time>2023-05-02T18:24:31.005Z</time>
      </trkpt>
      <trkpt lat="48.20511" lon="-3.30359">
        <ele>210.456619</ele>
        <time>2023-05-02T18:24:34.006Z</time>
      </trkpt>
      <trkpt lat="48.20511" lon="-3.30342">
        <ele>210.202171</ele>
        <time>2023-05-02T18:24:38.010Z</time>
      </trkpt>
      <trkpt lat="48.2051" lon="-3.30325">
        <ele>209.954329</ele>
        <time>2023-05-02T18:24:41.996Z</time>
      </trkpt>
      <trkpt lat="48.20509" lon="-3.30308">
        <ele>209.699882</ele>
        <time>2023-05-02T18:24:46.009Z</time>
      </trkpt>
      <trkpt lat="48.20508" lon="-3.30291">
        <ele>209.441137</ele>
        <time>2023-05-02T18:24:49.996Z</time>
      </trkpt>
      <trkpt lat="48.20508" lon="-3.30276">
        <ele>209.241977</ele>
        <time>2023-05-02T18:24:53.013Z</time>
      </trkpt>
      <trkpt lat="48.20507" lon="-3.3026">
        <ele>209.05589</ele>
        <time>2023-05-02T18:24:56.012Z</time>
      </trkpt>
      <trkpt lat="48.20506" lon="-3.30245">
        <ele>208.882478</ele>
        <time>2023-05-02T18:24:59.005Z</time>
      </trkpt>
      <trkpt lat="48.20505" lon="-3.30228">
        <ele>208.684354</ele>
        <time>2023-05-02T18:25:03.014Z</time>
      </trkpt>
      <trkpt lat="48.20503" lon="-3.30212">
        <ele>208.494174</ele>
        <time>2023-05-02T18:25:07.010Z</time>
      </trkpt>
      <trkpt lat="48.20502" lon="-3.30198">
        <ele>208.330158</ele>
        <time>2023-05-02T18:25:10.004Z</time>
      </trkpt>
      <trkpt lat="48.20502" lon="-3.30182">
        <ele>208.138044</ele>
        <time>2023-05-02T18:25:13.010Z</time>
      </trkpt>
      <trkpt lat="48.20502" lon="-3.30166">
        <ele>207.950739</ele>
        <time>2023-05-02T18:25:16.011Z</time>
      </trkpt>
      <trkpt lat="48.20501" lon="-3.3015">
        <ele>207.767884</ele>
        <time>2023-05-02T18:25:19.006Z</time>
      </trkpt>
      <trkpt lat="48.205" lon="-3.30133">
        <ele>207.556981</ele>
        <time>2023-05-02T18:25:23.015Z</time>
      </trkpt>
      <trkpt lat="48.20498" lon="-3.30118">
        <ele>207.387847</ele>
        <time>2023-05-02T18:25:26.002Z</time>
      </trkpt>
      <trkpt lat="48.20497" lon="-3.30104">
        <ele>207.223296</ele>
        <time>2023-05-02T18:25:29.007Z</time>
      </trkpt>
      <trkpt lat="48.20496" lon="-3.3009">
        <ele>207.050553</ele>
        <time>2023-05-02T18:25:32.007Z</time>
      </trkpt>
      <trkpt lat="48.20495" lon="-3.30075">
        <ele>206.879571</ele>
        <time>2023-05-02T18:25:35.008Z</time>
      </trkpt>
      <trkpt lat="48.20492" lon="-3.30061">
        <ele>206.702875</ele>
        <time>2023-05-02T18:25:38.006Z</time>
      </trkpt>
      <trkpt lat="48.2049" lon="-3.30043">
        <ele>206.499134</ele>
        <time>2023-05-02T18:25:41.015Z</time>
      </trkpt>
      <trkpt lat="48.20491" lon="-3.30028">
        <ele>206.317617</ele>
        <time>2023-05-02T18:25:44.016Z</time>
      </trkpt>
      <trkpt lat="48.20491" lon="-3.30014">
        <ele>206.204443</ele>
        <time>2023-05-02T18:25:47.010Z</time>
      </trkpt>
      <trkpt lat="48.2049" lon="-3.3">
        <ele>206.402988</ele>
        <time>2023-05-02T18:25:50.013Z</time>
      </trkpt>
      <trkpt lat="48.20489" lon="-3.29985">
        <ele>206.600753</ele>
        <time>2023-05-02T18:25:53.016Z</time>
      </trkpt>
      <trkpt lat="48.20488" lon="-3.2997">
        <ele>206.812409</ele>
        <time>2023-05-02T18:25:57.022Z</time>
      </trkpt>
      <trkpt lat="48.20488" lon="-3.29953">
        <ele>207.041352</ele>
        <time>2023-05-02T18:26:01.014Z</time>
      </trkpt>
      <trkpt lat="48.20486" lon="-3.29937">
        <ele>207.253785</ele>
        <time>2023-05-02T18:26:04.009Z</time>
      </trkpt>
      <trkpt lat="48.20486" lon="-3.29923">
        <ele>207.447498</ele>
        <time>2023-05-02T18:26:07.005Z</time>
      </trkpt>
      <trkpt lat="48.20485" lon="-3.29908">
        <ele>207.641805</ele>
        <time>2023-05-02T18:26:09.992Z</time>
      </trkpt>
      <trkpt lat="48.20484" lon="-3.29893">
        <ele>207.854974</ele>
        <time>2023-05-02T18:26:12.996Z</time>
      </trkpt>
      <trkpt lat="48.20483" lon="-3.29878">
        <ele>208.050212</ele>
        <time>2023-05-02T18:26:16.007Z</time>
      </trkpt>
      <trkpt lat="48.20483" lon="-3.29864">
        <ele>208.251775</ele>
        <time>2023-05-02T18:26:19.014Z</time>
      </trkpt>
      <trkpt lat="48.20482" lon="-3.29848">
        <ele>208.4617</ele>
        <time>2023-05-02T18:26:22.007Z</time>
      </trkpt>
      <trkpt lat="48.20482" lon="-3.29834">
        <ele>208.655668</ele>
        <time>2023-05-02T18:26:25.009Z</time>
      </trkpt>
      <trkpt lat="48.20481" lon="-3.2982">
        <ele>208.83969</ele>
        <time>2023-05-02T18:26:28.014Z</time>
      </trkpt>
      <trkpt lat="48.2048" lon="-3.29802">
        <ele>209.085622</ele>
        <time>2023-05-02T18:26:32.003Z</time>
      </trkpt>
      <trkpt lat="48.20479" lon="-3.29788">
        <ele>209.281276</ele>
        <time>2023-05-02T18:26:35.015Z</time>
      </trkpt>
      <trkpt lat="48.20477" lon="-3.29774">
        <ele>209.470109</ele>
        <time>2023-05-02T18:26:38.018Z</time>
      </trkpt>
      <trkpt lat="48.20477" lon="-3.29759">
        <ele>209.679236</ele>
        <time>2023-05-02T18:26:41.012Z</time>
      </trkpt>
      <trkpt lat="48.20476" lon="-3.29743">
        <ele>209.825222</ele>
        <time>2023-05-02T18:26:44.007Z</time>
      </trkpt>
      <trkpt lat="48.20475" lon="-3.29727">
        <ele>209.805586</ele>
        <time>2023-05-02T18:26:47.011Z</time>
      </trkpt>
      <trkpt lat="48.20474" lon="-3.29709">
        <ele>209.78243</ele>
        <time>2023-05-02T18:26:51.003Z</time>
      </trkpt>
      <trkpt lat="48.20473" lon="-3.29695">
        <ele>209.765093</ele>
        <time>2023-05-02T18:26:54.011Z</time>
      </trkpt>
      <trkpt lat="48.20472" lon="-3.29678">
        <ele>209.743985</ele>
        <time>2023-05-02T18:26:58.001Z</time>
      </trkpt>
      <trkpt lat="48.20471" lon="-3.29661">
        <ele>209.722397</ele>
        <time>2023-05-02T18:27:02.017Z</time>
      </trkpt>
      <trkpt lat="48.2047" lon="-3.29645">
        <ele>209.702553</ele>
        <time>2023-05-02T18:27:05.012Z</time>
      </trkpt>
      <trkpt lat="48.20469" lon="-3.29627">
        <ele>209.680325</ele>
        <time>2023-05-02T18:27:09.008Z</time>
      </trkpt>
      <trkpt lat="48.20467" lon="-3.29611">
        <ele>209.659528</ele>
        <time>2023-05-02T18:27:13.013Z</time>
      </trkpt>
      <trkpt lat="48.20465" lon="-3.29597">
        <ele>209.642194</ele>
        <time>2023-05-02T18:27:16.019Z</time>
      </trkpt>
      <trkpt lat="48.20463" lon="-3.29583">
        <ele>209.624142</ele>
        <time>2023-05-02T18:27:19.008Z</time>
      </trkpt>
      <trkpt lat="48.20459" lon="-3.29566">
        <ele>209.601841</ele>
        <time>2023-05-02T18:27:23.006Z</time>
      </trkpt>
      <trkpt lat="48.20455" lon="-3.29554">
        <ele>209.584196</ele>
        <time>2023-05-02T18:27:26.007Z</time>
      </trkpt>
      <trkpt lat="48.2045" lon="-3.29539">
        <ele>209.563533</ele>
        <time>2023-05-02T18:27:29.002Z</time>
      </trkpt>
      <trkpt lat="48.20445" lon="-3.29524">
        <ele>209.542276</ele>
        <time>2023-05-02T18:27:32.003Z</time>
      </trkpt>
      <trkpt lat="48.2044" lon="-3.29511">
        <ele>209.523439</ele>
        <time>2023-05-02T18:27:35.003Z</time>
      </trkpt>
      <trkpt lat="48.20432" lon="-3.29497">
        <ele>209.501175</ele>
        <time>2023-05-02T18:27:39.017Z</time>
      </trkpt>
      <trkpt lat="48.20426" lon="-3.29486">
        <ele>209.54339</ele>
        <time>2023-05-02T18:27:42.012Z</time>
      </trkpt>
      <trkpt lat="48.20421" lon="-3.29474">
        <ele>209.638333</ele>
        <time>2023-05-02T18:27:45.006Z</time>
      </trkpt>
      <trkpt lat="48.20415" lon="-3.29463">
        <ele>209.725443</ele>
        <time>2023-05-02T18:27:48.006Z</time>
      </trkpt>
      <trkpt lat="48.2041" lon="-3.29451">
        <ele>209.817307</ele>
        <time>2023-05-02T18:27:51.005Z</time>
      </trkpt>
      <trkpt lat="48.20402" lon="-3.29439">
        <ele>209.921757</ele>
        <time>2023-05-02T18:27:55.015Z</time>
      </trkpt>
      <trkpt lat="48.20394" lon="-3.29428">
        <ele>210.026253</ele>
        <time>2023-05-02T18:27:59.014Z</time>
      </trkpt>
      <trkpt lat="48.20386" lon="-3.29417">
        <ele>210.130742</ele>
        <time>2023-05-02T18:28:03.011Z</time>
      </trkpt>
      <trkpt lat="48.20378" lon="-3.29407">
        <ele>210.230558</ele>
        <time>2023-05-02T18:28:06.007Z</time>
      </trkpt>
      <trkpt lat="48.20371" lon="-3.29392">
        <ele>210.343493</ele>
        <time>2023-05-02T18:28:10.002Z</time>
      </trkpt>
      <trkpt lat="48.20364" lon="-3.29379">
        <ele>210.448667</ele>
        <time>2023-05-02T18:28:14.013Z</time>
      </trkpt>
      <trkpt lat="48.20358" lon="-3.29367">
        <ele>210.540659</ele>
        <time>2023-05-02T18:28:17.000Z</time>
      </trkpt>
      <trkpt lat="48.20352" lon="-3.29355">
        <ele>210.640754</ele>
        <time>2023-05-02T18:28:20.006Z</time>
      </trkpt>
      <trkpt lat="48.20345" lon="-3.29345">
        <ele>210.731654</ele>
        <time>2023-05-02T18:28:23.008Z</time>
      </trkpt>
      <trkpt lat="48.20337" lon="-3.29335">
        <ele>210.829344</ele>
        <time>2023-05-02T18:28:26.010Z</time>
      </trkpt>
      <trkpt lat="48.20331" lon="-3.29323">
        <ele>210.925873</ele>
        <time>2023-05-02T18:28:29.003Z</time>
      </trkpt>
      <trkpt lat="48.20324" lon="-3.29311">
        <ele>211.026173</ele>
        <time>2023-05-02T18:28:32.002Z</time>
      </trkpt>
      <trkpt lat="48.20317" lon="-3.29301">
        <ele>211.124708</ele>
        <time>2023-05-02T18:28:35.010Z</time>
      </trkpt>
      <trkpt lat="48.2031" lon="-3.2929">
        <ele>211.233106</ele>
        <time>2023-05-02T18:28:38.002Z</time>
      </trkpt>
      <trkpt lat="48.20303" lon="-3.29279">
        <ele>211.415306</ele>
        <time>2023-05-02T18:28:41.010Z</time>
      </trkpt>
      <trkpt lat="48.20294" lon="-3.29267">
        <ele>211.632046</ele>
        <time>2023-05-02T18:28:44.011Z</time>
      </trkpt>
      <trkpt lat="48.20286" lon="-3.29254">
        <ele>211.853626</ele>
        <time>2023-05-02T18:28:47.005Z</time>
      </trkpt>
      <trkpt lat="48.20278" lon="-3.2924">
        <ele>212.072207</ele>
        <time>2023-05-02T18:28:50.005Z</time>
      </trkpt>
      <trkpt lat="48.20271" lon="-3.29226">
        <ele>212.287981</ele>
        <time>2023-05-02T18:28:53.001Z</time>
      </trkpt>
      <trkpt lat="48.20265" lon="-3.29213">
        <ele>212.48079</ele>
        <time>2023-05-02T18:28:56.006Z</time>
      </trkpt>
      <trkpt lat="48.20259" lon="-3.29202">
        <ele>212.654937</ele>
        <time>2023-05-02T18:28:59.020Z</time>
      </trkpt>
      <trkpt lat="48.2025" lon="-3.2919">
        <ele>212.874295</ele>
        <time>2023-05-02T18:29:03.012Z</time>
      </trkpt>
      <trkpt lat="48.20243" lon="-3.29177">
        <ele>213.073901</ele>
        <time>2023-05-02T18:29:07.009Z</time>
      </trkpt>
      <trkpt lat="48.20238" lon="-3.29166">
        <ele>213.242578</ele>
        <time>2023-05-02T18:29:10.005Z</time>
      </trkpt>
      <trkpt lat="48.20231" lon="-3.29152">
        <ele>213.449692</ele>
        <time>2023-05-02T18:29:13.007Z</time>
      </trkpt>
      <trkpt lat="48.20222" lon="-3.29136">
        <ele>213.714477</ele>
        <time>2023-05-02T18:29:16.008Z</time>
      </trkpt>
      <trkpt lat="48.20214" lon="-3.29125">
        <ele>213.901438</ele>
        <time>2023-05-02T18:29:18.014Z</time>
      </trkpt>
      <trkpt lat="48.20206" lon="-3.29117">
        <ele>214.091862</ele>
        <time>2023-05-02T18:29:20.013Z</time>
      </trkpt>
      <trkpt lat="48.20199" lon="-3.29108">
        <ele>214.260427</ele>
        <time>2023-05-02T18:29:22.007Z</time>
      </trkpt>
      <trkpt lat="48.20192" lon="-3.29098">
        <ele>214.43608</ele>
        <time>2023-05-02T18:29:24.005Z</time>
      </trkpt>
      <trkpt lat="48.20183" lon="-3.29085">
        <ele>214.332732</ele>
        <time>2023-05-02T18:29:27.005Z</time>
      </trkpt>
      <trkpt lat="48.20177" lon="-3.29069">
        <ele>214.109123</ele>
        <time>2023-05-02T18:29:30.002Z</time>
      </trkpt>
      <trkpt lat="48.2017" lon="-3.29058">
        <ele>213.905876</ele>
        <time>2023-05-02T18:29:33.001Z</time>
      </trkpt>
      <trkpt lat="48.20163" lon="-3.29046">
        <ele>213.717209</ele>
        <time>2023-05-02T18:29:36.019Z</time>
      </trkpt>
      <trkpt lat="48.20158" lon="-3.29035">
        <ele>213.538838</ele>
        <time>2023-05-02T18:29:39.010Z</time>
      </trkpt>
      <trkpt lat="48.20152" lon="-3.29023">
        <ele>213.350973</ele>
        <time>2023-05-02T18:29:42.013Z</time>
      </trkpt>
      <trkpt lat="48.20146" lon="-3.29012">
        <ele>213.168711</ele>
        <time>2023-05-02T18:29:45.009Z</time>
      </trkpt>
      <trkpt lat="48.20142" lon="-3.28997">
        <ele>212.970002</ele>
        <time>2023-05-02T18:29:48.003Z</time>
      </trkpt>
      <trkpt lat="48.20137" lon="-3.28985">
        <ele>212.785199</ele>
        <time>2023-05-02T18:29:51.001Z</time>
      </trkpt>
      <trkpt lat="48.20133" lon="-3.28971">
        <ele>212.603496</ele>
        <time>2023-05-02T18:29:54.016Z</time>
      </trkpt>
      <trkpt lat="48.2013" lon="-3.28958">
        <ele>212.417914</ele>
        <time>2023-05-02T18:29:57.014Z</time>
      </trkpt>
      <trkpt lat="48.20128" lon="-3.28944">
        <ele>212.237067</ele>
        <time>2023-05-02T18:30:00.016Z</time>
      </trkpt>
      <trkpt lat="48.20126" lon="-3.28929">
        <ele>212.046636</ele>
        <time>2023-05-02T18:30:03.015Z</time>
      </trkpt>
      <trkpt lat="48.20126" lon="-3.28913">
        <ele>211.850438</ele>
        <time>2023-05-02T18:30:06.017Z</time>
      </trkpt>
      <trkpt lat="48.20127" lon="-3.28898">
        <ele>211.659801</ele>
        <time>2023-05-02T18:30:09.008Z</time>
      </trkpt>
      <trkpt lat="48.20127" lon="-3.28881">
        <ele>211.434482</ele>
        <time>2023-05-02T18:30:13.017Z</time>
      </trkpt>
      <trkpt lat="48.20127" lon="-3.28864">
        <ele>211.224223</ele>
        <time>2023-05-02T18:30:17.014Z</time>
      </trkpt>
      <trkpt lat="48.20128" lon="-3.28849">
        <ele>211.044017</ele>
        <time>2023-05-02T18:30:20.015Z</time>
      </trkpt>
      <trkpt lat="48.20126" lon="-3.28836">
        <ele>210.881023</ele>
        <time>2023-05-02T18:30:23.003Z</time>
      </trkpt>
      <trkpt lat="48.20125" lon="-3.2882">
        <ele>210.694127</ele>
        <time>2023-05-02T18:30:26.009Z</time>
      </trkpt>
      <trkpt lat="48.20125" lon="-3.28806">
        <ele>210.532891</ele>
        <time>2023-05-02T18:30:29.002Z</time>
      </trkpt>
      <trkpt lat="48.20125" lon="-3.28789">
        <ele>210.337829</ele>
        <time>2023-05-02T18:30:32.005Z</time>
      </trkpt>
      <trkpt lat="48.20124" lon="-3.28774">
        <ele>210.162659</ele>
        <time>2023-05-02T18:30:35.009Z</time>
      </trkpt>
      <trkpt lat="48.20124" lon="-3.28759">
        <ele>209.979363</ele>
        <time>2023-05-02T18:30:38.007Z</time>
      </trkpt>
      <trkpt lat="48.20124" lon="-3.2874">
        <ele>209.763409</ele>
        <time>2023-05-02T18:30:41.010Z</time>
      </trkpt>
      <trkpt lat="48.20123" lon="-3.28722">
        <ele>209.554107</ele>
        <time>2023-05-02T18:30:44.010Z</time>
      </trkpt>
      <trkpt lat="48.20126" lon="-3.28705">
        <ele>209.35391</ele>
        <time>2023-05-02T18:30:47.011Z</time>
      </trkpt>
      <trkpt lat="48.20129" lon="-3.28689">
        <ele>209.156524</ele>
        <time>2023-05-02T18:30:50.003Z</time>
      </trkpt>
      <trkpt lat="48.20133" lon="-3.28673">
        <ele>208.94567</ele>
        <time>2023-05-02T18:30:53.007Z</time>
      </trkpt>
      <trkpt lat="48.20139" lon="-3.28657">
        <ele>208.74481</ele>
        <time>2023-05-02T18:30:56.010Z</time>
      </trkpt>
      <trkpt lat="48.20146" lon="-3.28645">
        <ele>208.549656</ele>
        <time>2023-05-02T18:30:59.007Z</time>
      </trkpt>
      <trkpt lat="48.20156" lon="-3.28634">
        <ele>208.333197</ele>
        <time>2023-05-02T18:31:02.010Z</time>
      </trkpt>
      <trkpt lat="48.20167" lon="-3.28625">
        <ele>208.127442</ele>
        <time>2023-05-02T18:31:05.014Z</time>
      </trkpt>
      <trkpt lat="48.20177" lon="-3.28619">
        <ele>207.941496</ele>
        <time>2023-05-02T18:31:08.015Z</time>
      </trkpt>
      <trkpt lat="48.20187" lon="-3.28614">
        <ele>208.082182</ele>
        <time>2023-05-02T18:31:11.003Z</time>
      </trkpt>
      <trkpt lat="48.20198" lon="-3.28609">
        <ele>208.232188</ele>
        <time>2023-05-02T18:31:14.008Z</time>
      </trkpt>
      <trkpt lat="48.20209" lon="-3.28602">
        <ele>208.400108</ele>
        <time>2023-05-02T18:31:17.004Z</time>
      </trkpt>
      <trkpt lat="48.20221" lon="-3.28596">
        <ele>208.568716</ele>
        <time>2023-05-02T18:31:20.008Z</time>
      </trkpt>
      <trkpt lat="48.2023" lon="-3.2859">
        <ele>208.693322</ele>
        <time>2023-05-02T18:31:22.006Z</time>
      </trkpt>
      <trkpt lat="48.2024" lon="-3.28586">
        <ele>208.843014</ele>
        <time>2023-05-02T18:31:24.995Z</time>
      </trkpt>
      <trkpt lat="48.20252" lon="-3.28578">
        <ele>209.009407</ele>
        <time>2023-05-02T18:31:28.009Z</time>
      </trkpt>
      <trkpt lat="48.20263" lon="-3.28573">
        <ele>209.164375</ele>
        <time>2023-05-02T18:31:30.999Z</time>
      </trkpt>
      <trkpt lat="48.20272" lon="-3.28572">
        <ele>209.29695</ele>
        <time>2023-05-02T18:31:34.009Z</time>
      </trkpt>
      <trkpt lat="48.20284" lon="-3.28567">
        <ele>209.459938</ele>
        <time>2023-05-02T18:31:37.003Z</time>
      </trkpt>
      <trkpt lat="48.20296" lon="-3.28561">
        <ele>209.633228</ele>
        <time>2023-05-02T18:31:40.004Z</time>
      </trkpt>
      <trkpt lat="48.20309" lon="-3.28555">
        <ele>209.809935</ele>
        <time>2023-05-02T18:31:43.013Z</time>
      </trkpt>
      <trkpt lat="48.20319" lon="-3.28548">
        <ele>209.963908</ele>
        <time>2023-05-02T18:31:46.009Z</time>
      </trkpt>
      <trkpt lat="48.20329" lon="-3.28544">
        <ele>210.096397</ele>
        <time>2023-05-02T18:31:49.006Z</time>
      </trkpt>
      <trkpt lat="48.20339" lon="-3.28539">
        <ele>210.239313</ele>
        <time>2023-05-02T18:31:52.004Z</time>
      </trkpt>
      <trkpt lat="48.20349" lon="-3.28533">
        <ele>210.295421</ele>
        <time>2023-05-02T18:31:55.005Z</time>
      </trkpt>
      <trkpt lat="48.20359" lon="-3.28529">
        <ele>210.019677</ele>
        <time>2023-05-02T18:31:58.014Z</time>
      </trkpt>
      <trkpt lat="48.20371" lon="-3.28522">
        <ele>209.688163</ele>
        <time>2023-05-02T18:32:00.999Z</time>
      </trkpt>
      <trkpt lat="48.20384" lon="-3.28515">
        <ele>209.342076</ele>
        <time>2023-05-02T18:32:04.014Z</time>
      </trkpt>
      <trkpt lat="48.20395" lon="-3.2851">
        <ele>209.039869</ele>
        <time>2023-05-02T18:32:07.011Z</time>
      </trkpt>
      <trkpt lat="48.20407" lon="-3.28505">
        <ele>208.715176</ele>
        <time>2023-05-02T18:32:11.002Z</time>
      </trkpt>
      <trkpt lat="48.20417" lon="-3.285">
        <ele>208.441398</ele>
        <time>2023-05-02T18:32:14.016Z</time>
      </trkpt>
      <trkpt lat="48.20428" lon="-3.28494">
        <ele>208.13681</ele>
        <time>2023-05-02T18:32:17.009Z</time>
      </trkpt>
      <trkpt lat="48.20438" lon="-3.28489">
        <ele>207.846541</ele>
        <time>2023-05-02T18:32:20.016Z</time>
      </trkpt>
      <trkpt lat="48.20449" lon="-3.28483">
        <ele>207.546671</ele>
        <time>2023-05-02T18:32:23.007Z</time>
      </trkpt>
      <trkpt lat="48.20459" lon="-3.28479">
        <ele>207.271937</ele>
        <time>2023-05-02T18:32:26.013Z</time>
      </trkpt>
      <trkpt lat="48.20469" lon="-3.28474">
        <ele>207.003655</ele>
        <time>2023-05-02T18:32:29.006Z</time>
      </trkpt>
      <trkpt lat="48.20478" lon="-3.28469">
        <ele>206.761226</ele>
        <time>2023-05-02T18:32:32.003Z</time>
      </trkpt>
      <trkpt lat="48.20488" lon="-3.28465">
        <ele>206.479466</ele>
        <time>2023-05-02T18:32:36.017Z</time>
      </trkpt>
      <trkpt lat="48.20497" lon="-3.28457">
        <ele>206.218321</ele>
        <time>2023-05-02T18:32:39.014Z</time>
      </trkpt>
      <trkpt lat="48.20506" lon="-3.28448">
        <ele>205.936954</ele>
        <time>2023-05-02T18:32:42.003Z</time>
      </trkpt>
      <trkpt lat="48.20515" lon="-3.28438">
        <ele>205.645525</ele>
        <time>2023-05-02T18:32:45.016Z</time>
      </trkpt>
      <trkpt lat="48.20524" lon="-3.28428">
        <ele>205.46534</ele>
        <time>2023-05-02T18:32:48.011Z</time>
      </trkpt>
      <trkpt lat="48.20532" lon="-3.28416">
        <ele>205.275426</ele>
        <time>2023-05-02T18:32:51.005Z</time>
      </trkpt>
      <trkpt lat="48.20539" lon="-3.28402">
        <ele>205.084116</ele>
        <time>2023-05-02T18:32:54.010Z</time>
      </trkpt>
      <trkpt lat="48.20545" lon="-3.28384">
        <ele>204.864413</ele>
        <time>2023-05-02T18:32:57.017Z</time>
      </trkpt>
      <trkpt lat="48.20549" lon="-3.28367">
        <ele>204.656524</ele>
        <time>2023-05-02T18:33:00.010Z</time>
      </trkpt>
      <trkpt lat="48.20552" lon="-3.28349">
        <ele>204.453671</ele>
        <time>2023-05-02T18:33:03.013Z</time>
      </trkpt>
      <trkpt lat="48.20554" lon="-3.28331">
        <ele>204.248197</ele>
        <time>2023-05-02T18:33:06.016Z</time>
      </trkpt>
      <trkpt lat="48.20554" lon="-3.28313">
        <ele>204.053457</ele>
        <time>2023-05-02T18:33:09.002Z</time>
      </trkpt>
      <trkpt lat="48.20556" lon="-3.28295">
        <ele>203.849269</ele>
        <time>2023-05-02T18:33:12.003Z</time>
      </trkpt>
      <trkpt lat="48.20557" lon="-3.28277">
        <ele>203.647563</ele>
        <time>2023-05-02T18:33:15.012Z</time>
      </trkpt>
      <trkpt lat="48.20558" lon="-3.28257">
        <ele>203.426265</ele>
        <time>2023-05-02T18:33:18.014Z</time>
      </trkpt>
      <trkpt lat="48.20559" lon="-3.28239">
        <ele>203.223782</ele>
        <time>2023-05-02T18:33:21.015Z</time>
      </trkpt>
      <trkpt lat="48.2056" lon="-3.28223">
        <ele>203.050572</ele>
        <time>2023-05-02T18:33:24.012Z</time>
      </trkpt>
      <trkpt lat="48.19959" lon="-3.27037">
        <ele>208.583548</ele>
        <time>2023-05-02T18:42:54.010Z</time>
      </trkpt>
      <trkpt lat="48.19946" lon="-3.27034">
        <ele>208.528113</ele>
        <time>2023-05-02T18:42:58.015Z</time>
      </trkpt>
      <trkpt lat="48.19937" lon="-3.27031">
        <ele>208.48751</ele>
        <time>2023-05-02T18:43:00.006Z</time>
      </trkpt>
      <trkpt lat="48.19926" lon="-3.27029">
        <ele>208.442656</ele>
        <time>2023-05-02T18:43:03.030Z</time>
      </trkpt>
      <trkpt lat="48.19915" lon="-3.27028">
        <ele>208.395438</ele>
        <time>2023-05-02T18:43:06.016Z</time>
      </trkpt>
      <trkpt lat="48.19902" lon="-3.27028">
        <ele>208.340645</ele>
        <time>2023-05-02T18:43:10.021Z</time>
      </trkpt>
      <trkpt lat="48.19892" lon="-3.2703">
        <ele>208.298707</ele>
        <time>2023-05-02T18:43:13.012Z</time>
      </trkpt>
      <trkpt lat="48.19881" lon="-3.27032">
        <ele>208.253713</ele>
        <time>2023-05-02T18:43:16.009Z</time>
      </trkpt>
      <trkpt lat="48.19872" lon="-3.27035">
        <ele>208.211319</ele>
        <time>2023-05-02T18:43:18.993Z</time>
      </trkpt>
      <trkpt lat="48.19862" lon="-3.27041">
        <ele>208.168108</ele>
        <time>2023-05-02T18:43:22.013Z</time>
      </trkpt>
      <trkpt lat="48.19853" lon="-3.27047">
        <ele>208.12651</ele>
        <time>2023-05-02T18:43:25.012Z</time>
      </trkpt>
      <trkpt lat="48.19843" lon="-3.27057">
        <ele>208.010999</ele>
        <time>2023-05-02T18:43:29.011Z</time>
      </trkpt>
      <trkpt lat="48.19835" lon="-3.27066">
        <ele>207.915562</ele>
        <time>2023-05-02T18:43:32.012Z</time>
      </trkpt>
      <trkpt lat="48.19826" lon="-3.27079">
        <ele>207.789883</ele>
        <time>2023-05-02T18:43:35.024Z</time>
      </trkpt>
      <trkpt lat="48.19818" lon="-3.27091">
        <ele>207.676947</ele>
        <time>2023-05-02T18:43:38.013Z</time>
      </trkpt>
      <trkpt lat="48.1981" lon="-3.27105">
        <ele>207.564365</ele>
        <time>2023-05-02T18:43:41.006Z</time>
      </trkpt>
      <trkpt lat="48.19804" lon="-3.27118">
        <ele>207.461817</ele>
        <time>2023-05-02T18:43:44.014Z</time>
      </trkpt>
      <trkpt lat="48.19799" lon="-3.27132">
        <ele>207.355083</ele>
        <time>2023-05-02T18:43:47.009Z</time>
      </trkpt>
      <trkpt lat="48.19794" lon="-3.27144">
        <ele>207.261191</ele>
        <time>2023-05-02T18:43:56.011Z</time>
      </trkpt>
      <trkpt lat="48.19788" lon="-3.27159">
        <ele>207.151541</ele>
        <time>2023-05-02T18:44:00.006Z</time>
      </trkpt>
      <trkpt lat="48.19783" lon="-3.27175">
        <ele>207.033882</ele>
        <time>2023-05-02T18:44:04.004Z</time>
      </trkpt>
      <trkpt lat="48.19778" lon="-3.27188">
        <ele>206.932436</ele>
        <time>2023-05-02T18:44:07.017Z</time>
      </trkpt>
      <trkpt lat="48.19773" lon="-3.27203">
        <ele>206.825232</ele>
        <time>2023-05-02T18:44:10.009Z</time>
      </trkpt>
      <trkpt lat="48.19767" lon="-3.27216">
        <ele>206.723617</ele>
        <time>2023-05-02T18:44:13.020Z</time>
      </trkpt>
      <trkpt lat="48.19762" lon="-3.2723">
        <ele>206.616649</ele>
        <time>2023-05-02T18:44:16.007Z</time>
      </trkpt>
      <trkpt lat="48.19755" lon="-3.27245">
        <ele>206.503852</ele>
        <time>2023-05-02T18:44:19.029Z</time>
      </trkpt>
      <trkpt lat="48.19747" lon="-3.27255">
        <ele>206.394271</ele>
        <time>2023-05-02T18:44:22.003Z</time>
      </trkpt>
      <trkpt lat="48.19737" lon="-3.27263">
        <ele>206.307883</ele>
        <time>2023-05-02T18:44:25.010Z</time>
      </trkpt>
      <trkpt lat="48.19725" lon="-3.27269">
        <ele>206.22378</ele>
        <time>2023-05-02T18:44:28.013Z</time>
      </trkpt>
      <trkpt lat="48.19714" lon="-3.27273">
        <ele>206.141636</ele>
        <time>2023-05-02T18:44:31.011Z</time>
      </trkpt>
      <trkpt lat="48.19703" lon="-3.27274">
        <ele>206.063031</ele>
        <time>2023-05-02T18:44:34.018Z</time>
      </trkpt>
      <trkpt lat="48.19692" lon="-3.27272">
        <ele>205.984591</ele>
        <time>2023-05-02T18:44:37.016Z</time>
      </trkpt>
      <trkpt lat="48.1968" lon="-3.27266">
        <ele>205.898424</ele>
        <time>2023-05-02T18:44:40.005Z</time>
      </trkpt>
      <trkpt lat="48.19671" lon="-3.27257">
        <ele>205.824147</ele>
        <time>2023-05-02T18:44:43.015Z</time>
      </trkpt>
      <trkpt lat="48.19663" lon="-3.27245">
        <ele>205.743117</ele>
        <time>2023-05-02T18:44:46.016Z</time>
      </trkpt>
      <trkpt lat="48.19657" lon="-3.27229">
        <ele>205.657666</ele>
        <time>2023-05-02T18:44:49.012Z</time>
      </trkpt>
      <trkpt lat="48.19655" lon="-3.27213">
        <ele>205.580964</ele>
        <time>2023-05-02T18:44:52.011Z</time>
      </trkpt>
      <trkpt lat="48.19653" lon="-3.27194">
        <ele>205.492027</ele>
        <time>2023-05-02T18:44:55.018Z</time>
      </trkpt>
      <trkpt lat="48.19654" lon="-3.2718">
        <ele>205.424967</ele>
        <time>2023-05-02T18:44:56.998Z</time>
      </trkpt>
      <trkpt lat="48.19656" lon="-3.27163">
        <ele>205.34331</ele>
        <time>2023-05-02T18:45:00.012Z</time>
      </trkpt>
      <trkpt lat="48.1966" lon="-3.27147">
        <ele>205.265138</ele>
        <time>2023-05-02T18:45:02.998Z</time>
      </trkpt>
      <trkpt lat="48.19664" lon="-3.27133">
        <ele>205.191905</ele>
        <time>2023-05-02T18:45:06.016Z</time>
      </trkpt>
      <trkpt lat="48.19667" lon="-3.27119">
        <ele>205.122022</ele>
        <time>2023-05-02T18:45:09.013Z</time>
      </trkpt>
      <trkpt lat="48.19671" lon="-3.27103">
        <ele>205.154257</ele>
        <time>2023-05-02T18:45:12.014Z</time>
      </trkpt>
      <trkpt lat="48.19674" lon="-3.27088">
        <ele>205.219816</ele>
        <time>2023-05-02T18:45:15.010Z</time>
      </trkpt>
      <trkpt lat="48.19679" lon="-3.27071">
        <ele>205.290083</ele>
        <time>2023-05-02T18:45:18.012Z</time>
      </trkpt>
      <trkpt lat="48.19682" lon="-3.27058">
        <ele>205.346413</ele>
        <time>2023-05-02T18:45:21.009Z</time>
      </trkpt>
      <trkpt lat="48.19685" lon="-3.27042">
        <ele>205.41137</ele>
        <time>2023-05-02T18:45:25.004Z</time>
      </trkpt>
      <trkpt lat="48.19688" lon="-3.27029">
        <ele>205.464879</ele>
        <time>2023-05-02T18:45:28.012Z</time>
      </trkpt>
      <trkpt lat="48.19691" lon="-3.27016">
        <ele>205.520278</ele>
        <time>2023-05-02T18:45:31.019Z</time>
      </trkpt>
      <trkpt lat="48.19693" lon="-3.27">
        <ele>205.585698</ele>
        <time>2023-05-02T18:45:34.017Z</time>
      </trkpt>
      <trkpt lat="48.19695" lon="-3.26984">
        <ele>205.646692</ele>
        <time>2023-05-02T18:45:37.011Z</time>
      </trkpt>
      <trkpt lat="48.19695" lon="-3.2697">
        <ele>205.705661</ele>
        <time>2023-05-02T18:45:40.004Z</time>
      </trkpt>
      <trkpt lat="48.19696" lon="-3.26953">
        <ele>205.772016</ele>
        <time>2023-05-02T18:45:43.006Z</time>
      </trkpt>
      <trkpt lat="48.19695" lon="-3.26936">
        <ele>205.838427</ele>
        <time>2023-05-02T18:45:46.012Z</time>
      </trkpt>
      <trkpt lat="48.19693" lon="-3.26921">
        <ele>205.898964</ele>
        <time>2023-05-02T18:45:49.012Z</time>
      </trkpt>
      <trkpt lat="48.19689" lon="-3.26905">
        <ele>205.968049</ele>
        <time>2023-05-02T18:45:52.009Z</time>
      </trkpt>
      <trkpt lat="48.19685" lon="-3.2689">
        <ele>206.031029</ele>
        <time>2023-05-02T18:45:55.013Z</time>
      </trkpt>
      <trkpt lat="48.19681" lon="-3.26877">
        <ele>206.087944</ele>
        <time>2023-05-02T18:45:58.010Z</time>
      </trkpt>
      <trkpt lat="48.19678" lon="-3.26863">
        <ele>206.14823</ele>
        <time>2023-05-02T18:46:01.015Z</time>
      </trkpt>
      <trkpt lat="48.19674" lon="-3.26846">
        <ele>205.989128</ele>
        <time>2023-05-02T18:46:04.010Z</time>
      </trkpt>
      <trkpt lat="48.1967" lon="-3.2683">
        <ele>205.72474</ele>
        <time>2023-05-02T18:46:07.007Z</time>
      </trkpt>
      <trkpt lat="48.19667" lon="-3.26817">
        <ele>205.50217</ele>
        <time>2023-05-02T18:46:10.011Z</time>
      </trkpt>
      <trkpt lat="48.19664" lon="-3.26801">
        <ele>205.239767</ele>
        <time>2023-05-02T18:46:14.012Z</time>
      </trkpt>
      <trkpt lat="48.1966" lon="-3.26786">
        <ele>204.994816</ele>
        <time>2023-05-02T18:46:19.015Z</time>
      </trkpt>
      <trkpt lat="48.19656" lon="-3.26771">
        <ele>204.737862</ele>
        <time>2023-05-02T18:46:22.006Z</time>
      </trkpt>
      <trkpt lat="48.19653" lon="-3.26758">
        <ele>204.513936</ele>
        <time>2023-05-02T18:46:24.009Z</time>
      </trkpt>
      <trkpt lat="48.1965" lon="-3.26745">
        <ele>204.295254</ele>
        <time>2023-05-02T18:46:26.017Z</time>
      </trkpt>
      <trkpt lat="48.19647" lon="-3.26731">
        <ele>204.076572</ele>
        <time>2023-05-02T18:46:28.016Z</time>
      </trkpt>
      <trkpt lat="48.19644" lon="-3.26714">
        <ele>203.787431</ele>
        <time>2023-05-02T18:46:31.019Z</time>
      </trkpt>
      <trkpt lat="48.1964" lon="-3.267">
        <ele>203.549856</ele>
        <time>2023-05-02T18:46:34.023Z</time>
      </trkpt>
      <trkpt lat="48.19637" lon="-3.26685">
        <ele>203.294171</ele>
        <time>2023-05-02T18:46:37.012Z</time>
      </trkpt>
      <trkpt lat="48.19633" lon="-3.2667">
        <ele>203.043501</ele>
        <time>2023-05-02T18:46:40.022Z</time>
      </trkpt>
      <trkpt lat="48.19629" lon="-3.26654">
        <ele>202.772369</ele>
        <time>2023-05-02T18:46:43.010Z</time>
      </trkpt>
      <trkpt lat="48.19625" lon="-3.26637">
        <ele>202.497318</ele>
        <time>2023-05-02T18:46:46.009Z</time>
      </trkpt>
      <trkpt lat="48.1962" lon="-3.26621">
        <ele>202.215472</ele>
        <time>2023-05-02T18:46:49.010Z</time>
      </trkpt>
      <trkpt lat="48.19615" lon="-3.26604">
        <ele>201.924349</ele>
        <time>2023-05-02T18:46:52.014Z</time>
      </trkpt>
      <trkpt lat="48.19612" lon="-3.26587">
        <ele>201.753918</ele>
        <time>2023-05-02T18:46:55.019Z</time>
      </trkpt>
      <trkpt lat="48.19608" lon="-3.26571">
        <ele>201.587966</ele>
        <time>2023-05-02T18:46:58.012Z</time>
      </trkpt>
      <trkpt lat="48.19605" lon="-3.26557">
        <ele>201.448847</ele>
        <time>2023-05-02T18:47:01.010Z</time>
      </trkpt>
      <trkpt lat="48.19602" lon="-3.2654">
        <ele>201.287217</ele>
        <time>2023-05-02T18:47:05.015Z</time>
      </trkpt>
      <trkpt lat="48.19599" lon="-3.26524">
        <ele>201.13351</ele>
        <time>2023-05-02T18:47:08.019Z</time>
      </trkpt>
      <trkpt lat="48.19599" lon="-3.26511">
        <ele>201.005004</ele>
        <time>2023-05-02T18:47:10.011Z</time>
      </trkpt>
      <trkpt lat="48.19597" lon="-3.26491">
        <ele>200.820233</ele>
        <time>2023-05-02T18:47:12.997Z</time>
      </trkpt>
      <trkpt lat="48.19596" lon="-3.26473">
        <ele>200.645922</ele>
        <time>2023-05-02T18:47:16.014Z</time>
      </trkpt>
      <trkpt lat="48.19596" lon="-3.26457">
        <ele>200.493887</ele>
        <time>2023-05-02T18:47:19.012Z</time>
      </trkpt>
      <trkpt lat="48.19594" lon="-3.26443">
        <ele>200.360893</ele>
        <time>2023-05-02T18:47:22.012Z</time>
      </trkpt>
      <trkpt lat="48.19593" lon="-3.26428">
        <ele>200.21818</ele>
        <time>2023-05-02T18:47:26.014Z</time>
      </trkpt>
      <trkpt lat="48.19592" lon="-3.26412">
        <ele>200.073089</ele>
        <time>2023-05-02T18:47:29.014Z</time>
      </trkpt>
      <trkpt lat="48.1959" lon="-3.26395">
        <ele>199.904915</ele>
        <time>2023-05-02T18:47:32.013Z</time>
      </trkpt>
      <trkpt lat="48.19587" lon="-3.26379">
        <ele>199.751474</ele>
        <time>2023-05-02T18:47:35.008Z</time>
      </trkpt>
      <trkpt lat="48.19585" lon="-3.26361">
        <ele>199.580586</ele>
        <time>2023-05-02T18:47:38.017Z</time>
      </trkpt>
      <trkpt lat="48.19581" lon="-3.26347">
        <ele>199.434699</ele>
        <time>2023-05-02T18:47:41.007Z</time>
      </trkpt>
      <trkpt lat="48.19578" lon="-3.26332">
        <ele>199.476994</ele>
        <time>2023-05-02T18:47:45.013Z</time>
      </trkpt>
      <trkpt lat="48.19572" lon="-3.26316">
        <ele>199.689592</ele>
        <time>2023-05-02T18:47:49.010Z</time>
      </trkpt>
      <trkpt lat="48.19568" lon="-3.26303">
        <ele>199.862986</ele>
        <time>2023-05-02T18:47:51.015Z</time>
      </trkpt>
      <trkpt lat="48.19562" lon="-3.26289">
        <ele>200.066389</ele>
        <time>2023-05-02T18:47:54.016Z</time>
      </trkpt>
      <trkpt lat="48.19556" lon="-3.26273">
        <ele>200.285695</ele>
        <time>2023-05-02T18:47:57.012Z</time>
      </trkpt>
      <trkpt lat="48.19551" lon="-3.26257">
        <ele>200.498678</ele>
        <time>2023-05-02T18:48:00.014Z</time>
      </trkpt>
      <trkpt lat="48.19545" lon="-3.26243">
        <ele>200.699605</ele>
        <time>2023-05-02T18:48:03.025Z</time>
      </trkpt>
      <trkpt lat="48.19539" lon="-3.26232">
        <ele>200.865719</ele>
        <time>2023-05-02T18:48:05.015Z</time>
      </trkpt>
      <trkpt lat="48.19531" lon="-3.26224">
        <ele>201.040527</ele>
        <time>2023-05-02T18:48:08.012Z</time>
      </trkpt>
      <trkpt lat="48.19522" lon="-3.26214">
        <ele>201.245615</ele>
        <time>2023-05-02T18:48:11.019Z</time>
      </trkpt>
      <trkpt lat="48.19513" lon="-3.26202">
        <ele>201.465234</ele>
        <time>2023-05-02T18:48:14.021Z</time>
      </trkpt>
      <trkpt lat="48.19501" lon="-3.26193">
        <ele>201.703152</ele>
        <time>2023-05-02T18:48:17.016Z</time>
      </trkpt>
      <trkpt lat="48.19491" lon="-3.26183">
        <ele>201.917796</ele>
        <time>2023-05-02T18:48:20.011Z</time>
      </trkpt>
      <trkpt lat="48.19482" lon="-3.26171">
        <ele>202.142774</ele>
        <time>2023-05-02T18:48:23.013Z</time>
      </trkpt>
      <trkpt lat="48.19472" lon="-3.2616">
        <ele>202.365181</ele>
        <time>2023-05-02T18:48:26.013Z</time>
      </trkpt>
      <trkpt lat="48.19462" lon="-3.26149">
        <ele>202.583289</ele>
        <time>2023-05-02T18:48:29.062Z</time>
      </trkpt>
      <trkpt lat="48.19454" lon="-3.2614">
        <ele>202.408486</ele>
        <time>2023-05-02T18:48:32.018Z</time>
      </trkpt>
      <trkpt lat="48.19445" lon="-3.26131">
        <ele>202.171721</ele>
        <time>2023-05-02T18:48:35.023Z</time>
      </trkpt>
      <trkpt lat="48.19439" lon="-3.26119">
        <ele>201.935408</ele>
        <time>2023-05-02T18:48:38.011Z</time>
      </trkpt>
      <trkpt lat="48.19435" lon="-3.26105">
        <ele>201.683737</ele>
        <time>2023-05-02T18:48:41.011Z</time>
      </trkpt>
      <trkpt lat="48.19434" lon="-3.26088">
        <ele>201.417658</ele>
        <time>2023-05-02T18:48:44.019Z</time>
      </trkpt>
      <trkpt lat="48.19436" lon="-3.26069">
        <ele>201.125578</ele>
        <time>2023-05-02T18:48:47.013Z</time>
      </trkpt>
      <trkpt lat="48.1944" lon="-3.26052">
        <ele>200.839028</ele>
        <time>2023-05-02T18:48:50.005Z</time>
      </trkpt>
      <trkpt lat="48.19447" lon="-3.26038">
        <ele>200.569122</ele>
        <time>2023-05-02T18:48:53.019Z</time>
      </trkpt>
      <trkpt lat="48.19455" lon="-3.26028">
        <ele>200.314285</ele>
        <time>2023-05-02T18:48:56.011Z</time>
      </trkpt>
      <trkpt lat="48.19464" lon="-3.26018">
        <ele>200.057589</ele>
        <time>2023-05-02T18:48:59.022Z</time>
      </trkpt>
      <trkpt lat="48.19474" lon="-3.26008">
        <ele>199.781336</ele>
        <time>2023-05-02T18:49:02.006Z</time>
      </trkpt>
      <trkpt lat="48.19484" lon="-3.26">
        <ele>199.523578</ele>
        <time>2023-05-02T18:49:05.013Z</time>
      </trkpt>
      <trkpt lat="48.19493" lon="-3.25992">
        <ele>199.265821</ele>
        <time>2023-05-02T18:49:08.012Z</time>
      </trkpt>
      <trkpt lat="48.19501" lon="-3.25985">
        <ele>199.041875</ele>
        <time>2023-05-02T18:49:11.010Z</time>
      </trkpt>
      <trkpt lat="48.1951" lon="-3.25976">
        <ele>198.791892</ele>
        <time>2023-05-02T18:49:14.009Z</time>
      </trkpt>
      <trkpt lat="48.19518" lon="-3.25967">
        <ele>198.571246</ele>
        <time>2023-05-02T18:49:17.018Z</time>
      </trkpt>
      <trkpt lat="48.19527" lon="-3.25958">
        <ele>198.282785</ele>
        <time>2023-05-02T18:49:21.008Z</time>
      </trkpt>
      <trkpt lat="48.19535" lon="-3.25951">
        <ele>198.003382</ele>
        <time>2023-05-02T18:49:29.016Z</time>
      </trkpt>
      <trkpt lat="48.19544" lon="-3.25945">
        <ele>197.719662</ele>
        <time>2023-05-02T18:49:40.010Z</time>
      </trkpt>
      <trkpt lat="48.19552" lon="-3.25937">
        <ele>197.431316</ele>
        <time>2023-05-02T18:49:49.048Z</time>
      </trkpt>
      <trkpt lat="48.1956" lon="-3.25927">
        <ele>197.127024</ele>
        <time>2023-05-02T18:51:07.003Z</time>
      </trkpt>
      <trkpt lat="48.19569" lon="-3.25918">
        <ele>196.814684</ele>
        <time>2023-05-02T18:51:10.000Z</time>
      </trkpt>
      <trkpt lat="48.19577" lon="-3.2591">
        <ele>196.528787</ele>
        <time>2023-05-02T18:51:12.011Z</time>
      </trkpt>
      <trkpt lat="48.19585" lon="-3.25903">
        <ele>196.261273</ele>
        <time>2023-05-02T18:51:14.013Z</time>
      </trkpt>
      <trkpt lat="48.19593" lon="-3.25894">
        <ele>195.97698</ele>
        <time>2023-05-02T18:51:16.011Z</time>
      </trkpt>
      <trkpt lat="48.19601" lon="-3.25888">
        <ele>195.709781</ele>
        <time>2023-05-02T18:51:18.012Z</time>
      </trkpt>
      <trkpt lat="48.19608" lon="-3.25879">
        <ele>195.438049</ele>
        <time>2023-05-02T18:51:20.006Z</time>
      </trkpt>
      <trkpt lat="48.19615" lon="-3.25868">
        <ele>195.140248</ele>
        <time>2023-05-02T18:51:22.007Z</time>
      </trkpt>
      <trkpt lat="48.19623" lon="-3.25853">
        <ele>194.757747</ele>
        <time>2023-05-02T18:51:25.012Z</time>
      </trkpt>
      <trkpt lat="48.19629" lon="-3.25838">
        <ele>194.422282</ele>
        <time>2023-05-02T18:51:28.006Z</time>
      </trkpt>
      <trkpt lat="48.19631" lon="-3.25824">
        <ele>194.143896</ele>
        <time>2023-05-02T18:51:31.015Z</time>
      </trkpt>
      <trkpt lat="48.19631" lon="-3.2581">
        <ele>193.867723</ele>
        <time>2023-05-02T18:51:35.031Z</time>
      </trkpt>
      <trkpt lat="48.1963" lon="-3.25794">
        <ele>193.551662</ele>
        <time>2023-05-02T18:51:38.019Z</time>
      </trkpt>
      <trkpt lat="48.19628" lon="-3.25778">
        <ele>193.231573</ele>
        <time>2023-05-02T18:51:41.010Z</time>
      </trkpt>
      <trkpt lat="48.19626" lon="-3.25763">
        <ele>193.189188</ele>
        <time>2023-05-02T18:51:44.014Z</time>
      </trkpt>
      <trkpt lat="48.19623" lon="-3.25749">
        <ele>193.314498</ele>
        <time>2023-05-02T18:51:47.011Z</time>
      </trkpt>
      <trkpt lat="48.1962" lon="-3.25737">
        <ele>193.433287</ele>
        <time>2023-05-02T18:51:50.003Z</time>
      </trkpt>
      <trkpt lat="48.19617" lon="-3.25724">
        <ele>193.552754</ele>
        <time>2023-05-02T18:51:53.006Z</time>
      </trkpt>
      <trkpt lat="48.19614" lon="-3.25708">
        <ele>193.694273</ele>
        <time>2023-05-02T18:51:56.013Z</time>
      </trkpt>
      <trkpt lat="48.19611" lon="-3.25693">
        <ele>193.826148</ele>
        <time>2023-05-02T18:51:59.013Z</time>
      </trkpt>
      <trkpt lat="48.19608" lon="-3.25674">
        <ele>193.997935</ele>
        <time>2023-05-02T18:52:02.019Z</time>
      </trkpt>
      <trkpt lat="48.19606" lon="-3.25659">
        <ele>194.131221</ele>
        <time>2023-05-02T18:52:04.014Z</time>
      </trkpt>
      <trkpt lat="48.19603" lon="-3.25644">
        <ele>194.272716</ele>
        <time>2023-05-02T18:52:06.012Z</time>
      </trkpt>
      <trkpt lat="48.19599" lon="-3.25628">
        <ele>194.420727</ele>
        <time>2023-05-02T18:52:08.015Z</time>
      </trkpt>
      <trkpt lat="48.19596" lon="-3.25612">
        <ele>194.567519</ele>
        <time>2023-05-02T18:52:10.009Z</time>
      </trkpt>
      <trkpt lat="48.19593" lon="-3.25596">
        <ele>194.702801</ele>
        <time>2023-05-02T18:52:12.015Z</time>
      </trkpt>
      <trkpt lat="48.1959" lon="-3.25581">
        <ele>194.844664</ele>
        <time>2023-05-02T18:52:14.017Z</time>
      </trkpt>
      <trkpt lat="48.19587" lon="-3.25562">
        <ele>195.017643</ele>
        <time>2023-05-02T18:52:17.009Z</time>
      </trkpt>
      <trkpt lat="48.19584" lon="-3.25543">
        <ele>195.185263</ele>
        <time>2023-05-02T18:52:20.012Z</time>
      </trkpt>
      <trkpt lat="48.19579" lon="-3.25525">
        <ele>195.35354</ele>
        <time>2023-05-02T18:52:23.011Z</time>
      </trkpt>
      <trkpt lat="48.19576" lon="-3.25509">
        <ele>195.485218</ele>
        <time>2023-05-02T18:52:26.005Z</time>
      </trkpt>
      <trkpt lat="48.19573" lon="-3.25492">
        <ele>195.580228</ele>
        <time>2023-05-02T18:52:29.023Z</time>
      </trkpt>
      <trkpt lat="48.19569" lon="-3.25475">
        <ele>195.682466</ele>
        <time>2023-05-02T18:52:32.014Z</time>
      </trkpt>
      <trkpt lat="48.19566" lon="-3.25461">
        <ele>195.763063</ele>
        <time>2023-05-02T18:52:34.996Z</time>
      </trkpt>
      <trkpt lat="48.19563" lon="-3.25446">
        <ele>195.846328</ele>
        <time>2023-05-02T18:52:38.012Z</time>
      </trkpt>
      <trkpt lat="48.19561" lon="-3.25427">
        <ele>195.950301</ele>
        <time>2023-05-02T18:52:41.011Z</time>
      </trkpt>
      <trkpt lat="48.19558" lon="-3.2541">
        <ele>196.047148</ele>
        <time>2023-05-02T18:52:44.006Z</time>
      </trkpt>
      <trkpt lat="48.19556" lon="-3.25395">
        <ele>196.132932</ele>
        <time>2023-05-02T18:52:47.006Z</time>
      </trkpt>
      <trkpt lat="48.19554" lon="-3.25381">
        <ele>196.212311</ele>
        <time>2023-05-02T18:52:50.008Z</time>
      </trkpt>
      <trkpt lat="48.19551" lon="-3.25367">
        <ele>196.291356</ele>
        <time>2023-05-02T18:52:53.011Z</time>
      </trkpt>
      <trkpt lat="48.19547" lon="-3.25352">
        <ele>196.379524</ele>
        <time>2023-05-02T18:52:56.008Z</time>
      </trkpt>
      <trkpt lat="48.19545" lon="-3.25336">
        <ele>196.467124</ele>
        <time>2023-05-02T18:52:59.013Z</time>
      </trkpt>
      <trkpt lat="48.19542" lon="-3.25321">
        <ele>196.554723</ele>
        <time>2023-05-02T18:53:02.020Z</time>
      </trkpt>
      <trkpt lat="48.1954" lon="-3.25306">
        <ele>196.640529</ele>
        <time>2023-05-02T18:53:05.011Z</time>
      </trkpt>
      <trkpt lat="48.19537" lon="-3.2529">
        <ele>196.729531</ele>
        <time>2023-05-02T18:53:08.014Z</time>
      </trkpt>
      <trkpt lat="48.19534" lon="-3.25274">
        <ele>196.819491</ele>
        <time>2023-05-02T18:53:11.018Z</time>
      </trkpt>
      <trkpt lat="48.19531" lon="-3.25259">
        <ele>196.904204</ele>
        <time>2023-05-02T18:53:14.018Z</time>
      </trkpt>
      <trkpt lat="48.19529" lon="-3.25241">
        <ele>196.919997</ele>
        <time>2023-05-02T18:53:18.008Z</time>
      </trkpt>
      <trkpt lat="48.19526" lon="-3.25226">
        <ele>196.891114</ele>
        <time>2023-05-02T18:53:21.012Z</time>
      </trkpt>
      <trkpt lat="48.19523" lon="-3.25211">
        <ele>196.86208</ele>
        <time>2023-05-02T18:53:24.010Z</time>
      </trkpt>
      <trkpt lat="48.1952" lon="-3.25195">
        <ele>196.832089</ele>
        <time>2023-05-02T18:53:27.015Z</time>
      </trkpt>
      <trkpt lat="48.19517" lon="-3.25179">
        <ele>196.801747</ele>
        <time>2023-05-02T18:53:30.017Z</time>
      </trkpt>
      <trkpt lat="48.19514" lon="-3.25162">
        <ele>196.768759</ele>
        <time>2023-05-02T18:53:33.009Z</time>
      </trkpt>
      <trkpt lat="48.19689" lon="-3.24206">
        <ele>194.230044</ele>
        <time>2023-05-02T19:01:07.021Z</time>
      </trkpt>
      <trkpt lat="48.197" lon="-3.24201">
        <ele>194.041921</ele>
        <time>2023-05-02T19:01:09.015Z</time>
      </trkpt>
      <trkpt lat="48.19712" lon="-3.24196">
        <ele>193.843526</ele>
        <time>2023-05-02T19:01:11.030Z</time>
      </trkpt>
      <trkpt lat="48.19725" lon="-3.24193">
        <ele>193.639014</ele>
        <time>2023-05-02T19:01:13.006Z</time>
      </trkpt>
      <trkpt lat="48.19737" lon="-3.24188">
        <ele>193.439326</ele>
        <time>2023-05-02T19:01:15.019Z</time>
      </trkpt>
      <trkpt lat="48.19748" lon="-3.24183">
        <ele>193.249663</ele>
        <time>2023-05-02T19:01:17.020Z</time>
      </trkpt>
      <trkpt lat="48.1976" lon="-3.24177">
        <ele>193.054631</ele>
        <time>2023-05-02T19:01:19.018Z</time>
      </trkpt>
      <trkpt lat="48.1977" lon="-3.24171">
        <ele>192.871201</ele>
        <time>2023-05-02T19:01:21.020Z</time>
      </trkpt>
      <trkpt lat="48.1978" lon="-3.24165">
        <ele>192.702449</ele>
        <time>2023-05-02T19:01:23.010Z</time>
      </trkpt>
      <trkpt lat="48.19789" lon="-3.24161">
        <ele>192.552091</ele>
        <time>2023-05-02T19:01:25.016Z</time>
      </trkpt>
      <trkpt lat="48.19798" lon="-3.24155">
        <ele>192.398264</ele>
        <time>2023-05-02T19:01:27.022Z</time>
      </trkpt>
      <trkpt lat="48.1981" lon="-3.24146">
        <ele>192.184698</ele>
        <time>2023-05-02T19:01:30.010Z</time>
      </trkpt>
      <trkpt lat="48.1982" lon="-3.24134">
        <ele>191.977066</ele>
        <time>2023-05-02T19:01:33.005Z</time>
      </trkpt>
      <trkpt lat="48.19829" lon="-3.24125">
        <ele>191.798253</ele>
        <time>2023-05-02T19:01:36.022Z</time>
      </trkpt>
      <trkpt lat="48.19838" lon="-3.24116">
        <ele>191.632698</ele>
        <time>2023-05-02T19:01:39.020Z</time>
      </trkpt>
      <trkpt lat="48.19849" lon="-3.24106">
        <ele>191.430201</ele>
        <time>2023-05-02T19:01:42.022Z</time>
      </trkpt>
      <trkpt lat="48.19856" lon="-3.24098">
        <ele>191.409613</ele>
        <time>2023-05-02T19:01:44.014Z</time>
      </trkpt>
      <trkpt lat="48.19864" lon="-3.24091">
        <ele>191.403125</ele>
        <time>2023-05-02T19:01:46.025Z</time>
      </trkpt>
      <trkpt lat="48.19874" lon="-3.2408">
        <ele>191.394057</ele>
        <time>2023-05-02T19:01:49.016Z</time>
      </trkpt>
      <trkpt lat="48.19884" lon="-3.24069">
        <ele>191.38558</ele>
        <time>2023-05-02T19:01:52.021Z</time>
      </trkpt>
      <trkpt lat="48.19894" lon="-3.24059">
        <ele>191.376644</ele>
        <time>2023-05-02T19:01:55.012Z</time>
      </trkpt>
      <trkpt lat="48.19905" lon="-3.24048">
        <ele>191.367909</ele>
        <time>2023-05-02T19:01:58.013Z</time>
      </trkpt>
      <trkpt lat="48.19914" lon="-3.24039">
        <ele>191.360008</ele>
        <time>2023-05-02T19:02:01.031Z</time>
      </trkpt>
      <trkpt lat="48.19924" lon="-3.24029">
        <ele>191.351769</ele>
        <time>2023-05-02T19:02:04.019Z</time>
      </trkpt>
      <trkpt lat="48.19934" lon="-3.24019">
        <ele>191.343537</ele>
        <time>2023-05-02T19:02:07.020Z</time>
      </trkpt>
      <trkpt lat="48.19943" lon="-3.24009">
        <ele>191.335089</ele>
        <time>2023-05-02T19:02:10.017Z</time>
      </trkpt>
      <trkpt lat="48.19953" lon="-3.23998">
        <ele>191.326584</ele>
        <time>2023-05-02T19:02:13.009Z</time>
      </trkpt>
      <trkpt lat="48.19963" lon="-3.23988">
        <ele>191.317817</ele>
        <time>2023-05-02T19:02:16.013Z</time>
      </trkpt>
      <trkpt lat="48.19973" lon="-3.23977">
        <ele>191.309144</ele>
        <time>2023-05-02T19:02:19.022Z</time>
      </trkpt>
      <trkpt lat="48.19983" lon="-3.23966">
        <ele>191.30078</ele>
        <time>2023-05-02T19:02:22.015Z</time>
      </trkpt>
      <trkpt lat="48.19993" lon="-3.23957">
        <ele>191.292727</ele>
        <time>2023-05-02T19:02:25.012Z</time>
      </trkpt>
      <trkpt lat="48.20002" lon="-3.23948">
        <ele>191.251521</ele>
        <time>2023-05-02T19:02:28.020Z</time>
      </trkpt>
      <trkpt lat="48.20012" lon="-3.23938">
        <ele>191.173979</ele>
        <time>2023-05-02T19:02:31.015Z</time>
      </trkpt>
      <trkpt lat="48.20021" lon="-3.23928">
        <ele>191.093192</ele>
        <time>2023-05-02T19:02:34.013Z</time>
      </trkpt>
      <trkpt lat="48.20031" lon="-3.23918">
        <ele>191.013081</ele>
        <time>2023-05-02T19:02:37.014Z</time>
      </trkpt>
      <trkpt lat="48.20041" lon="-3.23908">
        <ele>190.933461</ele>
        <time>2023-05-02T19:02:40.020Z</time>
      </trkpt>
      <trkpt lat="48.2005" lon="-3.23899">
        <ele>190.857311</ele>
        <time>2023-05-02T19:02:43.016Z</time>
      </trkpt>
      <trkpt lat="48.2006" lon="-3.23889">
        <ele>190.782201</ele>
        <time>2023-05-02T19:02:46.011Z</time>
      </trkpt>
      <trkpt lat="48.20069" lon="-3.2388">
        <ele>190.707523</ele>
        <time>2023-05-02T19:02:49.014Z</time>
      </trkpt>
      <trkpt lat="48.20079" lon="-3.23872">
        <ele>190.631722</ele>
        <time>2023-05-02T19:02:52.018Z</time>
      </trkpt>
      <trkpt lat="48.20088" lon="-3.23862">
        <ele>190.554682</ele>
        <time>2023-05-02T19:02:55.014Z</time>
      </trkpt>
      <trkpt lat="48.20098" lon="-3.23852">
        <ele>190.47587</ele>
        <time>2023-05-02T19:02:58.018Z</time>
      </trkpt>
      <trkpt lat="48.20108" lon="-3.23841">
        <ele>190.392197</ele>
        <time>2023-05-02T19:03:01.021Z</time>
      </trkpt>
      <trkpt lat="48.20117" lon="-3.23831">
        <ele>190.312163</ele>
        <time>2023-05-02T19:03:04.014Z</time>
      </trkpt>
      <trkpt lat="48.20127" lon="-3.23821">
        <ele>190.230566</ele>
        <time>2023-05-02T19:03:07.013Z</time>
      </trkpt>
      <trkpt lat="48.20138" lon="-3.2381">
        <ele>190.14415</ele>
        <time>2023-05-02T19:03:10.023Z</time>
      </trkpt>
      <trkpt lat="48.20149" lon="-3.238">
        <ele>190.107558</ele>
        <time>2023-05-02T19:03:13.014Z</time>
      </trkpt>
      <trkpt lat="48.2016" lon="-3.23789">
        <ele>190.294858</ele>
        <time>2023-05-02T19:03:16.018Z</time>
      </trkpt>
      <trkpt lat="48.2017" lon="-3.2378">
        <ele>190.465443</ele>
        <time>2023-05-02T19:03:19.020Z</time>
      </trkpt>
      <trkpt lat="48.20179" lon="-3.2377">
        <ele>190.625131</ele>
        <time>2023-05-02T19:03:22.012Z</time>
      </trkpt>
      <trkpt lat="48.20188" lon="-3.23761">
        <ele>190.778289</ele>
        <time>2023-05-02T19:03:25.015Z</time>
      </trkpt>
      <trkpt lat="48.20196" lon="-3.23752">
        <ele>190.924864</ele>
        <time>2023-05-02T19:03:28.017Z</time>
      </trkpt>
      <trkpt lat="48.20205" lon="-3.23741">
        <ele>191.079446</ele>
        <time>2023-05-02T19:03:31.018Z</time>
      </trkpt>
      <trkpt lat="48.20214" lon="-3.23732">
        <ele>191.238308</ele>
        <time>2023-05-02T19:03:34.010Z</time>
      </trkpt>
      <trkpt lat="48.20223" lon="-3.23722">
        <ele>191.402891</ele>
        <time>2023-05-02T19:03:37.026Z</time>
      </trkpt>
      <trkpt lat="48.20233" lon="-3.2371">
        <ele>191.579306</ele>
        <time>2023-05-02T19:03:40.022Z</time>
      </trkpt>
      <trkpt lat="48.20242" lon="-3.23701">
        <ele>191.725694</ele>
        <time>2023-05-02T19:03:42.016Z</time>
      </trkpt>
      <trkpt lat="48.20251" lon="-3.23693">
        <ele>191.871619</ele>
        <time>2023-05-02T19:03:44.012Z</time>
      </trkpt>
      <trkpt lat="48.2026" lon="-3.23686">
        <ele>192.02512</ele>
        <time>2023-05-02T19:03:46.014Z</time>
      </trkpt>
      <trkpt lat="48.20272" lon="-3.2368">
        <ele>192.197744</ele>
        <time>2023-05-02T19:03:48.006Z</time>
      </trkpt>
      <trkpt lat="48.20282" lon="-3.23675">
        <ele>192.349627</ele>
        <time>2023-05-02T19:03:50.031Z</time>
      </trkpt>
      <trkpt lat="48.20291" lon="-3.23673">
        <ele>192.484273</ele>
        <time>2023-05-02T19:03:52.016Z</time>
      </trkpt>
      <trkpt lat="48.20301" lon="-3.23674">
        <ele>192.621893</ele>
        <time>2023-05-02T19:03:54.010Z</time>
      </trkpt>
      <trkpt lat="48.20311" lon="-3.23674">
        <ele>192.59042</ele>
        <time>2023-05-02T19:03:56.019Z</time>
      </trkpt>
      <trkpt lat="48.20324" lon="-3.23676">
        <ele>192.542655</ele>
        <time>2023-05-02T19:03:59.022Z</time>
      </trkpt>
      <trkpt lat="48.20335" lon="-3.23677">
        <ele>192.502089</ele>
        <time>2023-05-02T19:04:02.016Z</time>
      </trkpt>
      <trkpt lat="48.20345" lon="-3.2368">
        <ele>192.464264</ele>
        <time>2023-05-02T19:04:05.019Z</time>
      </trkpt>
      <trkpt lat="48.20356" lon="-3.23683">
        <ele>192.424042</ele>
        <time>2023-05-02T19:04:08.011Z</time>
      </trkpt>
      <trkpt lat="48.20368" lon="-3.23686">
        <ele>192.379372</ele>
        <time>2023-05-02T19:04:11.014Z</time>
      </trkpt>
      <trkpt lat="48.2038" lon="-3.23689">
        <ele>192.336297</ele>
        <time>2023-05-02T19:04:14.017Z</time>
      </trkpt>
      <trkpt lat="48.20391" lon="-3.23693">
        <ele>192.297084</ele>
        <time>2023-05-02T19:04:17.014Z</time>
      </trkpt>
      <trkpt lat="48.204" lon="-3.23696">
        <ele>192.263282</ele>
        <time>2023-05-02T19:04:21.025Z</time>
      </trkpt>
      <trkpt lat="48.20409" lon="-3.23696">
        <ele>192.229457</ele>
        <time>2023-05-02T19:04:36.013Z</time>
      </trkpt>
      <trkpt lat="48.20417" lon="-3.237">
        <ele>192.19665</ele>
        <time>2023-05-02T19:04:40.014Z</time>
      </trkpt>
      <trkpt lat="48.20427" lon="-3.23704">
        <ele>192.162495</ele>
        <time>2023-05-02T19:04:44.019Z</time>
      </trkpt>
      <trkpt lat="48.20438" lon="-3.23707">
        <ele>192.12149</ele>
        <time>2023-05-02T19:04:47.014Z</time>
      </trkpt>
      <trkpt lat="48.20448" lon="-3.23711">
        <ele>192.081631</ele>
        <time>2023-05-02T19:04:50.013Z</time>
      </trkpt>
      <trkpt lat="48.20459" lon="-3.23714">
        <ele>192.04075</ele>
        <time>2023-05-02T19:04:54.002Z</time>
      </trkpt>
      <trkpt lat="48.20471" lon="-3.23718">
        <ele>191.998395</ele>
        <time>2023-05-02T19:04:58.019Z</time>
      </trkpt>
      <trkpt lat="48.2048" lon="-3.23722">
        <ele>191.927019</ele>
        <time>2023-05-02T19:05:01.021Z</time>
      </trkpt>
      <trkpt lat="48.20491" lon="-3.23726">
        <ele>191.669385</ele>
        <time>2023-05-02T19:05:05.018Z</time>
      </trkpt>
      <trkpt lat="48.20501" lon="-3.23728">
        <ele>191.438546</ele>
        <time>2023-05-02T19:05:08.013Z</time>
      </trkpt>
      <trkpt lat="48.20512" lon="-3.23729">
        <ele>191.19349</ele>
        <time>2023-05-02T19:05:11.021Z</time>
      </trkpt>
      <trkpt lat="48.20522" lon="-3.2373">
        <ele>190.95953</ele>
        <time>2023-05-02T19:05:14.009Z</time>
      </trkpt>
      <trkpt lat="48.20533" lon="-3.23729">
        <ele>190.712035</ele>
        <time>2023-05-02T19:05:17.019Z</time>
      </trkpt>
      <trkpt lat="48.20543" lon="-3.23729">
        <ele>190.480894</ele>
        <time>2023-05-02T19:05:20.022Z</time>
      </trkpt>
      <trkpt lat="48.20556" lon="-3.23726">
        <ele>190.203482</ele>
        <time>2023-05-02T19:05:23.016Z</time>
      </trkpt>
      <trkpt lat="48.20566" lon="-3.23721">
        <ele>189.953708</ele>
        <time>2023-05-02T19:05:26.018Z</time>
      </trkpt>
      <trkpt lat="48.20576" lon="-3.23713">
        <ele>189.699948</ele>
        <time>2023-05-02T19:05:29.019Z</time>
      </trkpt>
      <trkpt lat="48.20585" lon="-3.23704">
        <ele>189.461307</ele>
        <time>2023-05-02T19:05:32.003Z</time>
      </trkpt>
      <trkpt lat="48.20593" lon="-3.23696">
        <ele>189.238638</ele>
        <time>2023-05-02T19:05:35.012Z</time>
      </trkpt>
      <trkpt lat="48.20603" lon="-3.23686">
        <ele>188.988668</ele>
        <time>2023-05-02T19:05:38.020Z</time>
      </trkpt>
      <trkpt lat="48.20612" lon="-3.23676">
        <ele>188.718504</ele>
        <time>2023-05-02T19:05:41.020Z</time>
      </trkpt>
      <trkpt lat="48.20622" lon="-3.23666">
        <ele>188.466876</ele>
        <time>2023-05-02T19:05:44.020Z</time>
      </trkpt>
      <trkpt lat="48.20629" lon="-3.23658">
        <ele>188.255959</ele>
        <time>2023-05-02T19:05:47.019Z</time>
      </trkpt>
      <trkpt lat="48.20637" lon="-3.23647">
        <ele>188.009425</ele>
        <time>2023-05-02T19:05:50.016Z</time>
      </trkpt>
      <trkpt lat="48.20647" lon="-3.23638">
        <ele>188.013893</ele>
        <time>2023-05-02T19:05:53.020Z</time>
      </trkpt>
      <trkpt lat="48.20656" lon="-3.23627">
        <ele>188.126281</ele>
        <time>2023-05-02T19:05:56.021Z</time>
      </trkpt>
      <trkpt lat="48.20664" lon="-3.23619">
        <ele>188.214869</ele>
        <time>2023-05-02T19:05:59.024Z</time>
      </trkpt>
      <trkpt lat="48.20675" lon="-3.23609">
        <ele>188.339396</ele>
        <time>2023-05-02T19:06:03.024Z</time>
      </trkpt>
      <trkpt lat="48.20686" lon="-3.23598">
        <ele>188.460964</ele>
        <time>2023-05-02T19:06:06.023Z</time>
      </trkpt>
      <trkpt lat="48.20695" lon="-3.23586">
        <ele>188.574953</ele>
        <time>2023-05-02T19:06:09.025Z</time>
      </trkpt>
      <trkpt lat="48.20704" lon="-3.23577">
        <ele>188.683699</ele>
        <time>2023-05-02T19:06:12.028Z</time>
      </trkpt>
      <trkpt lat="48.20712" lon="-3.23568">
        <ele>188.775896</ele>
        <time>2023-05-02T19:06:15.019Z</time>
      </trkpt>
      <trkpt lat="48.20721" lon="-3.23559">
        <ele>188.879203</ele>
        <time>2023-05-02T19:06:18.023Z</time>
      </trkpt>
      <trkpt lat="48.2073" lon="-3.23551">
        <ele>188.981</ele>
        <time>2023-05-02T19:06:21.018Z</time>
      </trkpt>
      <trkpt lat="48.20739" lon="-3.23542">
        <ele>189.082296</ele>
        <time>2023-05-02T19:06:24.025Z</time>
      </trkpt>
      <trkpt lat="48.20747" lon="-3.23532">
        <ele>189.17858</ele>
        <time>2023-05-02T19:06:27.018Z</time>
      </trkpt>
      <trkpt lat="48.20756" lon="-3.2352">
        <ele>189.294111</ele>
        <time>2023-05-02T19:06:31.018Z</time>
      </trkpt>
      <trkpt lat="48.20764" lon="-3.23508">
        <ele>189.398044</ele>
        <time>2023-05-02T19:06:34.009Z</time>
      </trkpt>
      <trkpt lat="48.20772" lon="-3.23497">
        <ele>189.507393</ele>
        <time>2023-05-02T19:06:37.025Z</time>
      </trkpt>
      <trkpt lat="48.20779" lon="-3.23484">
        <ele>189.608843</ele>
        <time>2023-05-02T19:06:40.018Z</time>
      </trkpt>
      <trkpt lat="48.20785" lon="-3.2347">
        <ele>189.779086</ele>
        <time>2023-05-02T19:06:43.024Z</time>
      </trkpt>
      <trkpt lat="48.2079" lon="-3.23455">
        <ele>189.98338</ele>
        <time>2023-05-02T19:06:46.018Z</time>
      </trkpt>
      <trkpt lat="48.20794" lon="-3.23442">
        <ele>190.15637</ele>
        <time>2023-05-02T19:06:49.022Z</time>
      </trkpt>
      <trkpt lat="48.20796" lon="-3.23428">
        <ele>190.327746</ele>
        <time>2023-05-02T19:06:52.015Z</time>
      </trkpt>
      <trkpt lat="48.20798" lon="-3.23413">
        <ele>190.504146</ele>
        <time>2023-05-02T19:06:55.011Z</time>
      </trkpt>
      <trkpt lat="48.20797" lon="-3.23396">
        <ele>190.710319</ele>
        <time>2023-05-02T19:06:59.019Z</time>
      </trkpt>
      <trkpt lat="48.20796" lon="-3.2338">
        <ele>190.902117</ele>
        <time>2023-05-02T19:07:02.019Z</time>
      </trkpt>
      <trkpt lat="48.20796" lon="-3.23365">
        <ele>191.081435</ele>
        <time>2023-05-02T19:07:05.014Z</time>
      </trkpt>
      <trkpt lat="48.20794" lon="-3.23349">
        <ele>191.286358</ele>
        <time>2023-05-02T19:07:09.006Z</time>
      </trkpt>
      <trkpt lat="48.20791" lon="-3.23331">
        <ele>191.507041</ele>
        <time>2023-05-02T19:07:13.018Z</time>
      </trkpt>
      <trkpt lat="48.20791" lon="-3.23314">
        <ele>191.702993</ele>
        <time>2023-05-02T19:07:16.032Z</time>
      </trkpt>
      <trkpt lat="48.20791" lon="-3.233">
        <ele>191.880891</ele>
        <time>2023-05-02T19:07:19.018Z</time>
      </trkpt>
      <trkpt lat="48.20789" lon="-3.23286">
        <ele>192.046733</ele>
        <time>2023-05-02T19:07:22.015Z</time>
      </trkpt>
      <trkpt lat="48.20788" lon="-3.23271">
        <ele>192.231514</ele>
        <time>2023-05-02T19:07:25.022Z</time>
      </trkpt>
      <trkpt lat="48.20787" lon="-3.23255">
        <ele>192.427963</ele>
        <time>2023-05-02T19:07:28.024Z</time>
      </trkpt>
      <trkpt lat="48.20787" lon="-3.2324">
        <ele>192.604687</ele>
        <time>2023-05-02T19:07:31.030Z</time>
      </trkpt>
      <trkpt lat="48.20788" lon="-3.23224">
        <ele>192.794809</ele>
        <time>2023-05-02T19:07:34.015Z</time>
      </trkpt>
      <trkpt lat="48.20787" lon="-3.23207">
        <ele>192.84196</ele>
        <time>2023-05-02T19:07:37.032Z</time>
      </trkpt>
      <trkpt lat="48.20786" lon="-3.23192">
        <ele>192.758029</ele>
        <time>2023-05-02T19:07:40.023Z</time>
      </trkpt>
      <trkpt lat="48.20785" lon="-3.23174">
        <ele>192.6561</ele>
        <time>2023-05-02T19:07:43.015Z</time>
      </trkpt>
      <trkpt lat="48.20784" lon="-3.2316">
        <ele>192.578738</ele>
        <time>2023-05-02T19:07:45.019Z</time>
      </trkpt>
      <trkpt lat="48.20783" lon="-3.23143">
        <ele>192.483669</ele>
        <time>2023-05-02T19:07:48.019Z</time>
      </trkpt>
      <trkpt lat="48.20782" lon="-3.23128">
        <ele>192.398233</ele>
        <time>2023-05-02T19:07:51.022Z</time>
      </trkpt>
      <trkpt lat="48.20781" lon="-3.23109">
        <ele>192.294489</ele>
        <time>2023-05-02T19:07:54.017Z</time>
      </trkpt>
      <trkpt lat="48.20781" lon="-3.23091">
        <ele>192.19237</ele>
        <time>2023-05-02T19:07:57.020Z</time>
      </trkpt>
      <trkpt lat="48.20781" lon="-3.23076">
        <ele>192.10447</ele>
        <time>2023-05-02T19:08:00.016Z</time>
      </trkpt>
      <trkpt lat="48.20778" lon="-3.23059">
        <ele>192.007001</ele>
        <time>2023-05-02T19:08:04.021Z</time>
      </trkpt>
      <trkpt lat="48.20776" lon="-3.23045">
        <ele>191.928103</ele>
        <time>2023-05-02T19:08:07.022Z</time>
      </trkpt>
      <trkpt lat="48.20773" lon="-3.23029">
        <ele>191.836238</ele>
        <time>2023-05-02T19:08:10.007Z</time>
      </trkpt>
      <trkpt lat="48.20771" lon="-3.23012">
        <ele>191.739282</ele>
        <time>2023-05-02T19:08:14.014Z</time>
      </trkpt>
      <trkpt lat="48.20768" lon="-3.22997">
        <ele>191.64999</ele>
        <time>2023-05-02T19:08:17.016Z</time>
      </trkpt>
      <trkpt lat="48.20765" lon="-3.22981">
        <ele>191.55921</ele>
        <time>2023-05-02T19:08:20.020Z</time>
      </trkpt>
      <trkpt lat="48.20761" lon="-3.22964">
        <ele>191.456582</ele>
        <time>2023-05-02T19:08:23.024Z</time>
      </trkpt>
      <trkpt lat="48.20758" lon="-3.22948">
        <ele>191.360171</ele>
        <time>2023-05-02T19:08:26.014Z</time>
      </trkpt>
      <trkpt lat="48.20754" lon="-3.22932">
        <ele>191.251098</ele>
        <time>2023-05-02T19:08:29.031Z</time>
      </trkpt>
      <trkpt lat="48.2075" lon="-3.22916">
        <ele>191.13694</ele>
        <time>2023-05-02T19:08:32.015Z</time>
      </trkpt>
      <trkpt lat="48.20745" lon="-3.22899">
        <ele>191.02107</ele>
        <time>2023-05-02T19:08:35.011Z</time>
      </trkpt>
      <trkpt lat="48.20741" lon="-3.22885">
        <ele>190.920102</ele>
        <time>2023-05-02T19:08:38.018Z</time>
      </trkpt>
      <trkpt lat="48.20737" lon="-3.22869">
        <ele>190.81217</ele>
        <time>2023-05-02T19:08:41.020Z</time>
      </trkpt>
      <trkpt lat="48.20733" lon="-3.22853">
        <ele>190.70316</ele>
        <time>2023-05-02T19:08:44.026Z</time>
      </trkpt>
      <trkpt lat="48.20728" lon="-3.22837">
        <ele>190.589829</ele>
        <time>2023-05-02T19:08:47.025Z</time>
      </trkpt>
      <trkpt lat="48.20724" lon="-3.22823">
        <ele>190.486544</ele>
        <time>2023-05-02T19:08:50.026Z</time>
      </trkpt>
      <trkpt lat="48.20719" lon="-3.22807">
        <ele>190.376583</ele>
        <time>2023-05-02T19:08:53.012Z</time>
      </trkpt>
      <trkpt lat="48.20714" lon="-3.22791">
        <ele>190.260127</ele>
        <time>2023-05-02T19:08:56.021Z</time>
      </trkpt>
      <trkpt lat="48.20709" lon="-3.22775">
        <ele>190.146424</ele>
        <time>2023-05-02T19:08:59.021Z</time>
      </trkpt>
      <trkpt lat="48.20705" lon="-3.22761">
        <ele>190.052982</ele>
        <time>2023-05-02T19:09:02.027Z</time>
      </trkpt>
      <trkpt lat="48.20701" lon="-3.22745">
        <ele>189.941424</ele>
        <time>2023-05-02T19:09:05.023Z</time>
      </trkpt>
      <trkpt lat="48.20697" lon="-3.2273">
        <ele>189.837198</ele>
        <time>2023-05-02T19:09:08.016Z</time>
      </trkpt>
      <trkpt lat="48.20692" lon="-3.22713">
        <ele>189.714746</ele>
        <time>2023-05-02T19:09:12.017Z</time>
      </trkpt>
      <trkpt lat="48.20687" lon="-3.22697">
        <ele>189.649493</ele>
        <time>2023-05-02T19:09:15.005Z</time>
      </trkpt>
      <trkpt lat="48.20683" lon="-3.22682">
        <ele>189.676758</ele>
        <time>2023-05-02T19:09:18.018Z</time>
      </trkpt>
      <trkpt lat="48.20678" lon="-3.22666">
        <ele>189.706467</ele>
        <time>2023-05-02T19:09:21.039Z</time>
      </trkpt>
      <trkpt lat="48.20673" lon="-3.2265">
        <ele>189.738</ele>
        <time>2023-05-02T19:09:24.021Z</time>
      </trkpt>
      <trkpt lat="48.20669" lon="-3.22634">
        <ele>189.766484</ele>
        <time>2023-05-02T19:09:27.017Z</time>
      </trkpt>
      <trkpt lat="48.20666" lon="-3.22621">
        <ele>189.790636</ele>
        <time>2023-05-02T19:09:30.029Z</time>
      </trkpt>
      <trkpt lat="48.20661" lon="-3.22604">
        <ele>189.821376</ele>
        <time>2023-05-02T19:09:34.008Z</time>
      </trkpt>
      <trkpt lat="48.20657" lon="-3.22589">
        <ele>189.850053</ele>
        <time>2023-05-02T19:09:38.012Z</time>
      </trkpt>
      <trkpt lat="48.20654" lon="-3.22576">
        <ele>189.873495</ele>
        <time>2023-05-02T19:09:41.016Z</time>
      </trkpt>
      <trkpt lat="48.2065" lon="-3.22563">
        <ele>189.896872</ele>
        <time>2023-05-02T19:09:44.015Z</time>
      </trkpt>
      <trkpt lat="48.20644" lon="-3.22546">
        <ele>189.929288</ele>
        <time>2023-05-02T19:09:47.026Z</time>
      </trkpt>
      <trkpt lat="48.2064" lon="-3.22532">
        <ele>189.955252</ele>
        <time>2023-05-02T19:09:50.015Z</time>
      </trkpt>
      <trkpt lat="48.20636" lon="-3.22516">
        <ele>189.984562</ele>
        <time>2023-05-02T19:09:53.010Z</time>
      </trkpt>
      <trkpt lat="48.20632" lon="-3.22501">
        <ele>190.012921</ele>
        <time>2023-05-02T19:09:56.021Z</time>
      </trkpt>
      <trkpt lat="48.20629" lon="-3.22488">
        <ele>190.037125</ele>
        <time>2023-05-02T19:09:59.021Z</time>
      </trkpt>
      <trkpt lat="48.20624" lon="-3.22472">
        <ele>190.066009</ele>
        <time>2023-05-02T19:10:03.023Z</time>
      </trkpt>
      <trkpt lat="48.20621" lon="-3.22459">
        <ele>190.090571</ele>
        <time>2023-05-02T19:10:06.028Z</time>
      </trkpt>
      <trkpt lat="48.20616" lon="-3.22444">
        <ele>190.064402</ele>
        <time>2023-05-02T19:10:09.020Z</time>
      </trkpt>
      <trkpt lat="48.20611" lon="-3.22427">
        <ele>190.000646</ele>
        <time>2023-05-02T19:10:13.010Z</time>
      </trkpt>
      <trkpt lat="48.20607" lon="-3.22415">
        <ele>189.953165</ele>
        <time>2023-05-02T19:10:16.012Z</time>
      </trkpt>
      <trkpt lat="48.20602" lon="-3.22398">
        <ele>189.891651</ele>
        <time>2023-05-02T19:10:19.025Z</time>
      </trkpt>
      <trkpt lat="48.20596" lon="-3.22383">
        <ele>189.832864</ele>
        <time>2023-05-02T19:10:22.024Z</time>
      </trkpt>
      <trkpt lat="48.20591" lon="-3.22368">
        <ele>189.774379</ele>
        <time>2023-05-02T19:10:25.021Z</time>
      </trkpt>
      <trkpt lat="48.20586" lon="-3.22353">
        <ele>189.720906</ele>
        <time>2023-05-02T19:10:29.025Z</time>
      </trkpt>
      <trkpt lat="48.20583" lon="-3.22339">
        <ele>189.66828</ele>
        <time>2023-05-02T19:10:33.008Z</time>
      </trkpt>
      <trkpt lat="48.20578" lon="-3.22324">
        <ele>189.61455</ele>
        <time>2023-05-02T19:10:36.012Z</time>
      </trkpt>
      <trkpt lat="48.20574" lon="-3.22309">
        <ele>189.558653</ele>
        <time>2023-05-02T19:10:39.022Z</time>
      </trkpt>
      <trkpt lat="48.2057" lon="-3.22294">
        <ele>189.500885</ele>
        <time>2023-05-02T19:10:41.998Z</time>
      </trkpt>
      <trkpt lat="48.20565" lon="-3.22277">
        <ele>189.44084</ele>
        <time>2023-05-02T19:10:45.023Z</time>
      </trkpt>
      <trkpt lat="48.20562" lon="-3.2226">
        <ele>189.380179</ele>
        <time>2023-05-02T19:10:48.014Z</time>
      </trkpt>
      <trkpt lat="48.20558" lon="-3.22245">
        <ele>189.325785</ele>
        <time>2023-05-02T19:10:51.020Z</time>
      </trkpt>
      <trkpt lat="48.20555" lon="-3.22229">
        <ele>189.268653</ele>
        <time>2023-05-02T19:10:54.017Z</time>
      </trkpt>
      <trkpt lat="48.20554" lon="-3.22214">
        <ele>189.217184</ele>
        <time>2023-05-02T19:10:59.015Z</time>
      </trkpt>
      <trkpt lat="48.20553" lon="-3.22195">
        <ele>189.15842</ele>
        <time>2023-05-02T19:11:03.018Z</time>
      </trkpt>
      <trkpt lat="48.20554" lon="-3.22178">
        <ele>189.107789</ele>
        <time>2023-05-02T19:11:06.015Z</time>
      </trkpt>
      <trkpt lat="48.20555" lon="-3.22165">
        <ele>189.066637</ele>
        <time>2023-05-02T19:11:09.019Z</time>
      </trkpt>
      <trkpt lat="48.20556" lon="-3.22151">
        <ele>189.026243</ele>
        <time>2023-05-02T19:11:12.016Z</time>
      </trkpt>
      <trkpt lat="48.20558" lon="-3.22135">
        <ele>188.978284</ele>
        <time>2023-05-02T19:11:16.016Z</time>
      </trkpt>
      <trkpt lat="48.20561" lon="-3.2212">
        <ele>188.930787</ele>
        <time>2023-05-02T19:11:20.012Z</time>
      </trkpt>
      <trkpt lat="48.21991" lon="-3.20029">
        <ele>179.485637</ele>
        <time>2023-05-02T19:23:18.022Z</time>
      </trkpt>
      <trkpt lat="48.21997" lon="-3.20017">
        <ele>179.360256</ele>
        <time>2023-05-02T19:23:22.018Z</time>
      </trkpt>
      <trkpt lat="48.22002" lon="-3.20004">
        <ele>179.241533</ele>
        <time>2023-05-02T19:23:25.013Z</time>
      </trkpt>
      <trkpt lat="48.22007" lon="-3.19992">
        <ele>179.120229</ele>
        <time>2023-05-02T19:23:28.015Z</time>
      </trkpt>
      <trkpt lat="48.22014" lon="-3.19979">
        <ele>178.988526</ele>
        <time>2023-05-02T19:23:31.017Z</time>
      </trkpt>
      <trkpt lat="48.2202" lon="-3.19967">
        <ele>178.864626</ele>
        <time>2023-05-02T19:23:34.017Z</time>
      </trkpt>
      <trkpt lat="48.22027" lon="-3.19952">
        <ele>178.72028</ele>
        <time>2023-05-02T19:23:37.013Z</time>
      </trkpt>
      <trkpt lat="48.22033" lon="-3.19937">
        <ele>178.573172</ele>
        <time>2023-05-02T19:23:40.016Z</time>
      </trkpt>
      <trkpt lat="48.2204" lon="-3.19923">
        <ele>178.434887</ele>
        <time>2023-05-02T19:23:43.018Z</time>
      </trkpt>
      <trkpt lat="48.22045" lon="-3.1991">
        <ele>178.309448</ele>
        <time>2023-05-02T19:23:46.021Z</time>
      </trkpt>
      <trkpt lat="48.22051" lon="-3.19897">
        <ele>178.187298</ele>
        <time>2023-05-02T19:23:49.026Z</time>
      </trkpt>
      <trkpt lat="48.22057" lon="-3.19884">
        <ele>178.094942</ele>
        <time>2023-05-02T19:23:52.016Z</time>
      </trkpt>
      <trkpt lat="48.22064" lon="-3.1987">
        <ele>177.994877</ele>
        <time>2023-05-02T19:23:55.019Z</time>
      </trkpt>
      <trkpt lat="48.22072" lon="-3.19858">
        <ele>177.893951</ele>
        <time>2023-05-02T19:23:58.026Z</time>
      </trkpt>
      <trkpt lat="48.22081" lon="-3.19846">
        <ele>177.784286</ele>
        <time>2023-05-02T19:24:01.022Z</time>
      </trkpt>
      <trkpt lat="48.22091" lon="-3.19835">
        <ele>177.677723</ele>
        <time>2023-05-02T19:24:04.014Z</time>
      </trkpt>
      <trkpt lat="48.221" lon="-3.19823">
        <ele>177.568</ele>
        <time>2023-05-02T19:24:07.020Z</time>
      </trkpt>
      <trkpt lat="48.2211" lon="-3.19811">
        <ele>177.453008</ele>
        <time>2023-05-02T19:24:10.020Z</time>
      </trkpt>
      <trkpt lat="48.22121" lon="-3.19798">
        <ele>177.337379</ele>
        <time>2023-05-02T19:24:13.014Z</time>
      </trkpt>
      <trkpt lat="48.22131" lon="-3.19786">
        <ele>177.225237</ele>
        <time>2023-05-02T19:24:16.018Z</time>
      </trkpt>
      <trkpt lat="48.2214" lon="-3.19775">
        <ele>177.11736</ele>
        <time>2023-05-02T19:24:19.030Z</time>
      </trkpt>
      <trkpt lat="48.2215" lon="-3.19763">
        <ele>177.009368</ele>
        <time>2023-05-02T19:24:22.013Z</time>
      </trkpt>
      <trkpt lat="48.22159" lon="-3.19752">
        <ele>176.90603</ele>
        <time>2023-05-02T19:24:25.017Z</time>
      </trkpt>
      <trkpt lat="48.22169" lon="-3.19741">
        <ele>176.794287</ele>
        <time>2023-05-02T19:24:28.024Z</time>
      </trkpt>
      <trkpt lat="48.22178" lon="-3.19729">
        <ele>176.684002</ele>
        <time>2023-05-02T19:24:31.016Z</time>
      </trkpt>
      <trkpt lat="48.22188" lon="-3.19716">
        <ele>176.694967</ele>
        <time>2023-05-02T19:24:34.022Z</time>
      </trkpt>
      <trkpt lat="48.22197" lon="-3.19704">
        <ele>176.894203</ele>
        <time>2023-05-02T19:24:37.018Z</time>
      </trkpt>
      <trkpt lat="48.22206" lon="-3.1969">
        <ele>177.092921</ele>
        <time>2023-05-02T19:24:40.014Z</time>
      </trkpt>
      <trkpt lat="48.22212" lon="-3.19675">
        <ele>177.281422</ele>
        <time>2023-05-02T19:24:43.001Z</time>
      </trkpt>
      <trkpt lat="48.22217" lon="-3.1966">
        <ele>177.45533</ele>
        <time>2023-05-02T19:24:46.020Z</time>
      </trkpt>
      <trkpt lat="48.2222" lon="-3.19646">
        <ele>177.614975</ele>
        <time>2023-05-02T19:24:49.022Z</time>
      </trkpt>
      <trkpt lat="48.22224" lon="-3.1963">
        <ele>177.794793</ele>
        <time>2023-05-02T19:24:53.022Z</time>
      </trkpt>
      <trkpt lat="48.2223" lon="-3.19616">
        <ele>177.970884</ele>
        <time>2023-05-02T19:24:56.011Z</time>
      </trkpt>
      <trkpt lat="48.22236" lon="-3.19601">
        <ele>178.153147</ele>
        <time>2023-05-02T19:24:59.021Z</time>
      </trkpt>
      <trkpt lat="48.22244" lon="-3.19587">
        <ele>178.353349</ele>
        <time>2023-05-02T19:25:02.022Z</time>
      </trkpt>
      <trkpt lat="48.22253" lon="-3.19572">
        <ele>178.55769</ele>
        <time>2023-05-02T19:25:05.011Z</time>
      </trkpt>
      <trkpt lat="48.2226" lon="-3.19557">
        <ele>178.760454</ele>
        <time>2023-05-02T19:25:08.021Z</time>
      </trkpt>
      <trkpt lat="48.22266" lon="-3.19541">
        <ele>178.95317</ele>
        <time>2023-05-02T19:25:11.021Z</time>
      </trkpt>
      <trkpt lat="48.22272" lon="-3.19524">
        <ele>179.15003</ele>
        <time>2023-05-02T19:25:14.019Z</time>
      </trkpt>
      <trkpt lat="48.22276" lon="-3.19506">
        <ele>179.352811</ele>
        <time>2023-05-02T19:25:17.019Z</time>
      </trkpt>
      <trkpt lat="48.22281" lon="-3.19489">
        <ele>179.38348</ele>
        <time>2023-05-02T19:25:20.014Z</time>
      </trkpt>
      <trkpt lat="48.22285" lon="-3.19473">
        <ele>179.179411</ele>
        <time>2023-05-02T19:25:23.010Z</time>
      </trkpt>
      <trkpt lat="48.2229" lon="-3.19456">
        <ele>178.961253</ele>
        <time>2023-05-02T19:25:26.019Z</time>
      </trkpt>
      <trkpt lat="48.22295" lon="-3.19439">
        <ele>178.740223</ele>
        <time>2023-05-02T19:25:29.023Z</time>
      </trkpt>
      <trkpt lat="48.22301" lon="-3.19422">
        <ele>178.522027</ele>
        <time>2023-05-02T19:25:32.019Z</time>
      </trkpt>
      <trkpt lat="48.22308" lon="-3.19407">
        <ele>178.296882</ele>
        <time>2023-05-02T19:25:35.023Z</time>
      </trkpt>
      <trkpt lat="48.22316" lon="-3.19394">
        <ele>178.088639</ele>
        <time>2023-05-02T19:25:38.023Z</time>
      </trkpt>
      <trkpt lat="48.22323" lon="-3.19382">
        <ele>177.891535</ele>
        <time>2023-05-02T19:25:41.024Z</time>
      </trkpt>
      <trkpt lat="48.22331" lon="-3.1937">
        <ele>177.7057</ele>
        <time>2023-05-02T19:25:44.013Z</time>
      </trkpt>
      <trkpt lat="48.22337" lon="-3.19361">
        <ele>177.537512</ele>
        <time>2023-05-02T19:25:47.020Z</time>
      </trkpt>
      <trkpt lat="48.22344" lon="-3.19351">
        <ele>177.378209</ele>
        <time>2023-05-02T19:25:50.019Z</time>
      </trkpt>
      <trkpt lat="48.22352" lon="-3.19341">
        <ele>177.192599</ele>
        <time>2023-05-02T19:25:53.026Z</time>
      </trkpt>
      <trkpt lat="48.22359" lon="-3.1933">
        <ele>177.008513</ele>
        <time>2023-05-02T19:25:56.020Z</time>
      </trkpt>
      <trkpt lat="48.22367" lon="-3.19317">
        <ele>176.797008</ele>
        <time>2023-05-02T19:25:59.024Z</time>
      </trkpt>
      <trkpt lat="48.22376" lon="-3.19304">
        <ele>176.583639</ele>
        <time>2023-05-02T19:26:02.020Z</time>
      </trkpt>
      <trkpt lat="48.22385" lon="-3.19291">
        <ele>176.359659</ele>
        <time>2023-05-02T19:26:05.010Z</time>
      </trkpt>
      <trkpt lat="48.22394" lon="-3.19278">
        <ele>176.18756</ele>
        <time>2023-05-02T19:26:08.020Z</time>
      </trkpt>
      <trkpt lat="48.22402" lon="-3.19264">
        <ele>176.044985</ele>
        <time>2023-05-02T19:26:11.020Z</time>
      </trkpt>
      <trkpt lat="48.22412" lon="-3.19251">
        <ele>175.894139</ele>
        <time>2023-05-02T19:26:14.021Z</time>
      </trkpt>
      <trkpt lat="48.22422" lon="-3.19236">
        <ele>175.739914</ele>
        <time>2023-05-02T19:26:17.021Z</time>
      </trkpt>
      <trkpt lat="48.22428" lon="-3.19227">
        <ele>175.638136</ele>
        <time>2023-05-02T19:26:19.024Z</time>
      </trkpt>
      <trkpt lat="48.22435" lon="-3.19218">
        <ele>175.535171</ele>
        <time>2023-05-02T19:26:21.025Z</time>
      </trkpt>
      <trkpt lat="48.22444" lon="-3.19205">
        <ele>175.398964</ele>
        <time>2023-05-02T19:26:24.042Z</time>
      </trkpt>
      <trkpt lat="48.22449" lon="-3.19191">
        <ele>175.280897</ele>
        <time>2023-05-02T19:26:27.019Z</time>
      </trkpt>
      <trkpt lat="48.22456" lon="-3.19179">
        <ele>175.164125</ele>
        <time>2023-05-02T19:26:30.015Z</time>
      </trkpt>
      <trkpt lat="48.22461" lon="-3.19167">
        <ele>175.05169</ele>
        <time>2023-05-02T19:26:33.021Z</time>
      </trkpt>
      <trkpt lat="48.22467" lon="-3.19154">
        <ele>174.931783</ele>
        <time>2023-05-02T19:26:36.039Z</time>
      </trkpt>
      <trkpt lat="48.22474" lon="-3.19139">
        <ele>174.801855</ele>
        <time>2023-05-02T19:26:39.022Z</time>
      </trkpt>
      <trkpt lat="48.2248" lon="-3.19125">
        <ele>174.669426</ele>
        <time>2023-05-02T19:26:42.017Z</time>
      </trkpt>
      <trkpt lat="48.22486" lon="-3.19113">
        <ele>174.561865</ele>
        <time>2023-05-02T19:26:44.019Z</time>
      </trkpt>
      <trkpt lat="48.22492" lon="-3.19097">
        <ele>174.42266</ele>
        <time>2023-05-02T19:26:47.022Z</time>
      </trkpt>
      <trkpt lat="48.22497" lon="-3.19082">
        <ele>174.292318</ele>
        <time>2023-05-02T19:26:50.016Z</time>
      </trkpt>
      <trkpt lat="48.22502" lon="-3.19065">
        <ele>174.271592</ele>
        <time>2023-05-02T19:26:53.014Z</time>
      </trkpt>
      <trkpt lat="48.22505" lon="-3.19047">
        <ele>174.30847</ele>
        <time>2023-05-02T19:26:56.021Z</time>
      </trkpt>
      <trkpt lat="48.22508" lon="-3.19027">
        <ele>174.347063</ele>
        <time>2023-05-02T19:26:59.020Z</time>
      </trkpt>
      <trkpt lat="48.22509" lon="-3.19008">
        <ele>174.385064</ele>
        <time>2023-05-02T19:27:02.015Z</time>
      </trkpt>
      <trkpt lat="48.22512" lon="-3.1899">
        <ele>174.42156</ele>
        <time>2023-05-02T19:27:05.011Z</time>
      </trkpt>
      <trkpt lat="48.22515" lon="-3.18976">
        <ele>174.450413</ele>
        <time>2023-05-02T19:27:08.034Z</time>
      </trkpt>
      <trkpt lat="48.2252" lon="-3.18963">
        <ele>174.478751</ele>
        <time>2023-05-02T19:27:11.019Z</time>
      </trkpt>
      <trkpt lat="48.22526" lon="-3.18947">
        <ele>174.515033</ele>
        <time>2023-05-02T19:27:14.022Z</time>
      </trkpt>
      <trkpt lat="48.22531" lon="-3.18936">
        <ele>174.541867</ele>
        <time>2023-05-02T19:27:16.029Z</time>
      </trkpt>
      <trkpt lat="48.2254" lon="-3.18921">
        <ele>174.580336</ele>
        <time>2023-05-02T19:27:19.027Z</time>
      </trkpt>
      <trkpt lat="48.2255" lon="-3.18908">
        <ele>174.619484</ele>
        <time>2023-05-02T19:27:22.020Z</time>
      </trkpt>
      <trkpt lat="48.22557" lon="-3.18899">
        <ele>174.646381</ele>
        <time>2023-05-02T19:27:24.019Z</time>
      </trkpt>
      <trkpt lat="48.22567" lon="-3.18885">
        <ele>174.685309</ele>
        <time>2023-05-02T19:27:27.013Z</time>
      </trkpt>
      <trkpt lat="48.22576" lon="-3.18872">
        <ele>174.722696</ele>
        <time>2023-05-02T19:27:30.015Z</time>
      </trkpt>
      <trkpt lat="48.22585" lon="-3.18859">
        <ele>174.758981</ele>
        <time>2023-05-02T19:27:33.018Z</time>
      </trkpt>
      <trkpt lat="48.22593" lon="-3.18848">
        <ele>175.026002</ele>
        <time>2023-05-02T19:27:36.021Z</time>
      </trkpt>
      <trkpt lat="48.22601" lon="-3.18838">
        <ele>175.493014</ele>
        <time>2023-05-02T19:27:39.022Z</time>
      </trkpt>
      <trkpt lat="48.22608" lon="-3.18828">
        <ele>175.926516</ele>
        <time>2023-05-02T19:27:42.020Z</time>
      </trkpt>
      <trkpt lat="48.22615" lon="-3.18816">
        <ele>176.418403</ele>
        <time>2023-05-02T19:27:45.010Z</time>
      </trkpt>
      <trkpt lat="48.22622" lon="-3.18805">
        <ele>176.904433</ele>
        <time>2023-05-02T19:27:48.019Z</time>
      </trkpt>
      <trkpt lat="48.22628" lon="-3.1879">
        <ele>177.433479</ele>
        <time>2023-05-02T19:27:52.023Z</time>
      </trkpt>
      <trkpt lat="48.2263" lon="-3.18774">
        <ele>177.916262</ele>
        <time>2023-05-02T19:27:55.019Z</time>
      </trkpt>
      <trkpt lat="48.22631" lon="-3.1876">
        <ele>178.338595</ele>
        <time>2023-05-02T19:27:58.024Z</time>
      </trkpt>
      <trkpt lat="48.22631" lon="-3.18744">
        <ele>178.835253</ele>
        <time>2023-05-02T19:28:02.016Z</time>
      </trkpt>
      <trkpt lat="48.2263" lon="-3.18727">
        <ele>179.347917</ele>
        <time>2023-05-02T19:28:06.017Z</time>
      </trkpt>
      <trkpt lat="48.22628" lon="-3.18711">
        <ele>179.852988</ele>
        <time>2023-05-02T19:28:10.018Z</time>
      </trkpt>
      <trkpt lat="48.22626" lon="-3.18698">
        <ele>180.265616</ele>
        <time>2023-05-02T19:28:13.032Z</time>
      </trkpt>
      <trkpt lat="48.22622" lon="-3.18684">
        <ele>180.708217</ele>
        <time>2023-05-02T19:28:16.021Z</time>
      </trkpt>
      <trkpt lat="48.22619" lon="-3.1867">
        <ele>181.153434</ele>
        <time>2023-05-02T19:28:19.019Z</time>
      </trkpt>
      <trkpt lat="48.22616" lon="-3.18657">
        <ele>181.591428</ele>
        <time>2023-05-02T19:28:22.022Z</time>
      </trkpt>
      <trkpt lat="48.22612" lon="-3.18643">
        <ele>182.072073</ele>
        <time>2023-05-02T19:28:25.018Z</time>
      </trkpt>
      <trkpt lat="48.22608" lon="-3.18629">
        <ele>182.514676</ele>
        <time>2023-05-02T19:28:28.012Z</time>
      </trkpt>
      <trkpt lat="48.22605" lon="-3.18613">
        <ele>183.013981</ele>
        <time>2023-05-02T19:28:31.026Z</time>
      </trkpt>
      <trkpt lat="48.22602" lon="-3.18599">
        <ele>183.24312</ele>
        <time>2023-05-02T19:28:34.022Z</time>
      </trkpt>
      <trkpt lat="48.22598" lon="-3.18584">
        <ele>183.483909</ele>
        <time>2023-05-02T19:28:37.020Z</time>
      </trkpt>
      <trkpt lat="48.22593" lon="-3.18568">
        <ele>183.746374</ele>
        <time>2023-05-02T19:28:40.017Z</time>
      </trkpt>
      <trkpt lat="48.22588" lon="-3.18553">
        <ele>183.998981</ele>
        <time>2023-05-02T19:28:43.010Z</time>
      </trkpt>
      <trkpt lat="48.22583" lon="-3.18539">
        <ele>184.241429</ele>
        <time>2023-05-02T19:28:46.021Z</time>
      </trkpt>
      <trkpt lat="48.22579" lon="-3.18526">
        <ele>184.456474</ele>
        <time>2023-05-02T19:28:49.015Z</time>
      </trkpt>
      <trkpt lat="48.22575" lon="-3.18513">
        <ele>184.685767</ele>
        <time>2023-05-02T19:28:52.016Z</time>
      </trkpt>
      <trkpt lat="48.2257" lon="-3.18497">
        <ele>184.951022</ele>
        <time>2023-05-02T19:28:56.024Z</time>
      </trkpt>
      <trkpt lat="48.22566" lon="-3.18484">
        <ele>185.156857</ele>
        <time>2023-05-02T19:28:59.029Z</time>
      </trkpt>
      <trkpt lat="48.22562" lon="-3.1847">
        <ele>185.390501</ele>
        <time>2023-05-02T19:29:02.027Z</time>
      </trkpt>
      <trkpt lat="48.22557" lon="-3.18456">
        <ele>185.627625</ele>
        <time>2023-05-02T19:29:05.014Z</time>
      </trkpt>
      <trkpt lat="48.22554" lon="-3.18443">
        <ele>185.839681</ele>
        <time>2023-05-02T19:29:08.026Z</time>
      </trkpt>
      <trkpt lat="48.2255" lon="-3.18428">
        <ele>186.083939</ele>
        <time>2023-05-02T19:29:12.030Z</time>
      </trkpt>
      <trkpt lat="48.22547" lon="-3.18414">
        <ele>186.303731</ele>
        <time>2023-05-02T19:29:15.019Z</time>
      </trkpt>
      <trkpt lat="48.22545" lon="-3.18399">
        <ele>186.541216</ele>
        <time>2023-05-02T19:29:18.019Z</time>
      </trkpt>
      <trkpt lat="48.22541" lon="-3.18383">
        <ele>186.800002</ele>
        <time>2023-05-02T19:29:21.020Z</time>
      </trkpt>
      <trkpt lat="48.22536" lon="-3.18367">
        <ele>187.058425</ele>
        <time>2023-05-02T19:29:25.011Z</time>
      </trkpt>
      <trkpt lat="48.22529" lon="-3.18337">
        <ele>186.823183</ele>
        <time>2023-05-02T19:30:05.012Z</time>
      </trkpt>
      <trkpt lat="48.22525" lon="-3.18319">
        <ele>186.665776</ele>
        <time>2023-05-02T19:30:09.015Z</time>
      </trkpt>
      <trkpt lat="48.22521" lon="-3.18304">
        <ele>186.519652</ele>
        <time>2023-05-02T19:30:12.011Z</time>
      </trkpt>
      <trkpt lat="48.22516" lon="-3.18287">
        <ele>186.363027</ele>
        <time>2023-05-02T19:30:15.000Z</time>
      </trkpt>
      <trkpt lat="48.22512" lon="-3.18271">
        <ele>186.219068</ele>
        <time>2023-05-02T19:30:18.022Z</time>
      </trkpt>
      <trkpt lat="48.22507" lon="-3.18255">
        <ele>186.064306</ele>
        <time>2023-05-02T19:30:21.036Z</time>
      </trkpt>
      <trkpt lat="48.22502" lon="-3.18238">
        <ele>185.904524</ele>
        <time>2023-05-02T19:30:24.013Z</time>
      </trkpt>
      <trkpt lat="48.22497" lon="-3.1822">
        <ele>185.739028</ele>
        <time>2023-05-02T19:30:27.019Z</time>
      </trkpt>
      <trkpt lat="48.22492" lon="-3.18203">
        <ele>185.577198</ele>
        <time>2023-05-02T19:30:30.028Z</time>
      </trkpt>
      <trkpt lat="48.22488" lon="-3.18188">
        <ele>185.434644</ele>
        <time>2023-05-02T19:30:33.026Z</time>
      </trkpt>
      <trkpt lat="48.22483" lon="-3.18172">
        <ele>185.292975</ele>
        <time>2023-05-02T19:30:36.021Z</time>
      </trkpt>
      <trkpt lat="48.22479" lon="-3.18158">
        <ele>185.160211</ele>
        <time>2023-05-02T19:30:39.032Z</time>
      </trkpt>
      <trkpt lat="48.22475" lon="-3.18142">
        <ele>185.009746</ele>
        <time>2023-05-02T19:30:43.018Z</time>
      </trkpt>
      <trkpt lat="48.22472" lon="-3.18129">
        <ele>184.891058</ele>
        <time>2023-05-02T19:30:46.029Z</time>
      </trkpt>
      <trkpt lat="48.2247" lon="-3.18114">
        <ele>184.758097</ele>
        <time>2023-05-02T19:30:49.007Z</time>
      </trkpt>
      <trkpt lat="48.22466" lon="-3.18101">
        <ele>184.63566</ele>
        <time>2023-05-02T19:30:52.022Z</time>
      </trkpt>
      <trkpt lat="48.22462" lon="-3.18085">
        <ele>184.480733</ele>
        <time>2023-05-02T19:30:56.020Z</time>
      </trkpt>
      <trkpt lat="48.22459" lon="-3.18069">
        <ele>184.334001</ele>
        <time>2023-05-02T19:31:00.016Z</time>
      </trkpt>
      <trkpt lat="48.22457" lon="-3.18054">
        <ele>184.206959</ele>
        <time>2023-05-02T19:31:04.010Z</time>
      </trkpt>
      <trkpt lat="48.22455" lon="-3.18041">
        <ele>184.087586</ele>
        <time>2023-05-02T19:31:08.020Z</time>
      </trkpt>
      <trkpt lat="48.22453" lon="-3.18027">
        <ele>183.956548</ele>
        <time>2023-05-02T19:31:12.020Z</time>
      </trkpt>
      <trkpt lat="48.2245" lon="-3.18011">
        <ele>183.812107</ele>
        <time>2023-05-02T19:31:16.023Z</time>
      </trkpt>
      <trkpt lat="48.22446" lon="-3.17995">
        <ele>183.656634</ele>
        <time>2023-05-02T19:31:20.023Z</time>
      </trkpt>
      <trkpt lat="48.22445" lon="-3.17979">
        <ele>183.519429</ele>
        <time>2023-05-02T19:31:25.014Z</time>
      </trkpt>
      <trkpt lat="48.22444" lon="-3.17966">
        <ele>183.398528</ele>
        <time>2023-05-02T19:31:29.038Z</time>
      </trkpt>
      <trkpt lat="48.22441" lon="-3.17948">
        <ele>183.238947</ele>
        <time>2023-05-02T19:31:33.022Z</time>
      </trkpt>
      <trkpt lat="48.2244" lon="-3.17934">
        <ele>183.114349</ele>
        <time>2023-05-02T19:31:36.019Z</time>
      </trkpt>
      <trkpt lat="48.2244" lon="-3.1792">
        <ele>182.990462</ele>
        <time>2023-05-02T19:31:39.024Z</time>
      </trkpt>
      <trkpt lat="48.2244" lon="-3.17902">
        <ele>182.835397</ele>
        <time>2023-05-02T19:31:43.012Z</time>
      </trkpt>
      <trkpt lat="48.2244" lon="-3.17887">
        <ele>182.702634</ele>
        <time>2023-05-02T19:31:47.022Z</time>
      </trkpt>
      <trkpt lat="48.2244" lon="-3.17872">
        <ele>182.567184</ele>
        <time>2023-05-02T19:31:51.027Z</time>
      </trkpt>
      <trkpt lat="48.2244" lon="-3.17856">
        <ele>182.421168</ele>
        <time>2023-05-02T19:31:55.017Z</time>
      </trkpt>
      <trkpt lat="48.2244" lon="-3.1784">
        <ele>182.357676</ele>
        <time>2023-05-02T19:32:00.023Z</time>
      </trkpt>
      <trkpt lat="48.22449" lon="-3.17832">
        <ele>182.32777</ele>
        <time>2023-05-02T19:32:07.015Z</time>
      </trkpt>
      <trkpt lat="48.22459" lon="-3.17835">
        <ele>182.298479</ele>
        <time>2023-05-02T19:32:12.023Z</time>
      </trkpt>
      <trkpt lat="48.22464" lon="-3.17848">
        <ele>182.271192</ele>
        <time>2023-05-02T19:32:19.018Z</time>
      </trkpt>
      <trkpt lat="48.22463" lon="-3.17863">
        <ele>182.241738</ele>
        <time>2023-05-02T19:32:25.018Z</time>
      </trkpt>
      <trkpt lat="48.22465" lon="-3.17877">
        <ele>182.216042</ele>
        <time>2023-05-02T19:32:30.007Z</time>
      </trkpt>
      <trkpt lat="48.22462" lon="-3.17892">
        <ele>182.186884</ele>
        <time>2023-05-02T19:32:36.016Z</time>
      </trkpt>
      <trkpt lat="48.22458" lon="-3.17905">
        <ele>182.160087</ele>
        <time>2023-05-02T19:32:41.029Z</time>
      </trkpt>
      <trkpt lat="48.22457" lon="-3.17919">
        <ele>182.132446</ele>
        <time>2023-05-02T19:32:47.023Z</time>
      </trkpt>
      <trkpt lat="48.22457" lon="-3.17937">
        <ele>182.100397</ele>
        <time>2023-05-02T19:32:52.020Z</time>
      </trkpt>
      <trkpt lat="48.22459" lon="-3.17951">
        <ele>182.073623</ele>
        <time>2023-05-02T19:32:56.014Z</time>
      </trkpt>
      <trkpt lat="48.2246" lon="-3.17965">
        <ele>182.045384</ele>
        <time>2023-05-02T19:33:00.034Z</time>
      </trkpt>
      <trkpt lat="48.22463" lon="-3.1798">
        <ele>182.01699</ele>
        <time>2023-05-02T19:33:03.999Z</time>
      </trkpt>
      <trkpt lat="48.22469" lon="-3.17994">
        <ele>181.985311</ele>
        <time>2023-05-02T19:33:08.021Z</time>
      </trkpt>
      <trkpt lat="48.22474" lon="-3.1801">
        <ele>181.953125</ele>
        <time>2023-05-02T19:33:12.022Z</time>
      </trkpt>
      <trkpt lat="48.22477" lon="-3.18026">
        <ele>181.921461</ele>
        <time>2023-05-02T19:33:16.014Z</time>
      </trkpt>
      <trkpt lat="48.22479" lon="-3.18041">
        <ele>181.893288</ele>
        <time>2023-05-02T19:33:20.021Z</time>
      </trkpt>
      <trkpt lat="48.22483" lon="-3.18057">
        <ele>181.871112</ele>
        <time>2023-05-02T19:33:25.017Z</time>
      </trkpt>
      <trkpt lat="48.22486" lon="-3.18071">
        <ele>181.871112</ele>
        <time>2023-05-02T19:33:29.015Z</time>
      </trkpt>
      <trkpt lat="48.22488" lon="-3.18086">
        <ele>181.871112</ele>
        <time>2023-05-02T19:33:33.006Z</time>
      </trkpt>
      <trkpt lat="48.22491" lon="-3.18102">
        <ele>181.871112</ele>
        <time>2023-05-02T19:33:37.023Z</time>
      </trkpt>
      <trkpt lat="48.22495" lon="-3.18117">
        <ele>181.871112</ele>
        <time>2023-05-02T19:33:41.014Z</time>
      </trkpt>
      <trkpt lat="48.22497" lon="-3.18132">
        <ele>181.871112</ele>
        <time>2023-05-02T19:33:45.018Z</time>
      </trkpt>
      <trkpt lat="48.225" lon="-3.18147">
        <ele>181.871112</ele>
        <time>2023-05-02T19:33:49.008Z</time>
      </trkpt>
      <trkpt lat="48.22503" lon="-3.18161">
        <ele>181.871112</ele>
        <time>2023-05-02T19:33:53.015Z</time>
      </trkpt>
      <trkpt lat="48.22507" lon="-3.18175">
        <ele>181.871112</ele>
        <time>2023-05-02T19:33:57.013Z</time>
      </trkpt>
      <trkpt lat="48.22511" lon="-3.18191">
        <ele>181.871112</ele>
        <time>2023-05-02T19:34:01.011Z</time>
      </trkpt>
      <trkpt lat="48.2256" lon="-3.18324">
        <ele>181.871112</ele>
        <time>2023-05-02T19:35:21.431Z</time>
      </trkpt>
    </trkseg>
  </trk>
</gpx>